<?xml version='1.0' encoding='UTF-8'?><gpx version="1.1" creator="JPX - https://github.com/jenetics/jpx" xmlns="http://www.topografix.com/GPX/1/1"><trk><trkseg><trkpt lat="43.017557019927885" lon="11.939645740776907"><ele>327.75</ele><time>2026-04-07T08:46:25.999Z</time></trkpt><trkpt lat="43.017465760750085" lon="11.93972820715"><ele>325.5</ele><time>2026-04-07T08:46:26.999Z</time></trkpt><trkpt lat="43.01737442633871" lon="11.939820546590479"><ele>323.25</ele><time>2026-04-07T08:46:27.999Z</time></trkpt><trkpt lat="43.01727540745104" lon="11.939921094428351"><ele>321.0</ele><time>2026-04-07T08:46:28.999Z</time></trkpt><trkpt lat="43.01716895309782" lon="11.94002458083295"><ele>326.0</ele><time>2026-04-07T08:46:29.999Z</time></trkpt><trkpt lat="43.01706004620366" lon="11.940136678484993"><ele>331.0</ele><time>2026-04-07T08:46:30.999Z</time></trkpt><trkpt lat="43.01694109280602" lon="11.94025518575834"><ele>336.0</ele><time>2026-04-07T08:46:31.999Z</time></trkpt><trkpt lat="43.0168241618422" lon="11.940373907254367"><ele>341.0</ele><time>2026-04-07T08:46:32.999Z</time></trkpt><trkpt lat="43.01670946513572" lon="11.94049247589195"><ele>342.0</ele><time>2026-04-07T08:46:33.999Z</time></trkpt><trkpt lat="43.01658756622846" lon="11.940614693502843"><ele>343.0</ele><time>2026-04-07T08:46:34.999Z</time></trkpt><trkpt lat="43.01646351791383" lon="11.94073244880668"><ele>344.0</ele><time>2026-04-07T08:46:35.999Z</time></trkpt><trkpt lat="43.016345398531364" lon="11.940847459111243"><ele>345.0</ele><time>2026-04-07T08:46:37Z</time></trkpt><trkpt lat="43.01624230849355" lon="11.940969801043437"><ele>345.0</ele><time>2026-04-07T08:46:38Z</time></trkpt><trkpt lat="43.01615306037993" lon="11.941096262766342"><ele>345.0</ele><time>2026-04-07T08:46:39Z</time></trkpt><trkpt lat="43.016079442066136" lon="11.941222252458964"><ele>345.0</ele><time>2026-04-07T08:46:40Z</time></trkpt><trkpt lat="43.016021182508254" lon="11.941362897766139"><ele>345.0</ele><time>2026-04-07T08:46:41Z</time></trkpt><trkpt lat="43.015969343563214" lon="11.941511486537024"><ele>345.0</ele><time>2026-04-07T08:46:42Z</time></trkpt><trkpt lat="43.015919827998985" lon="11.94166644616058"><ele>345.0</ele><time>2026-04-07T08:46:43Z</time></trkpt><trkpt lat="43.01586636192177" lon="11.941823807385042"><ele>345.0</ele><time>2026-04-07T08:46:44Z</time></trkpt><trkpt lat="43.01581608368222" lon="11.941984282167207"><ele>345.0</ele><time>2026-04-07T08:46:45Z</time></trkpt><trkpt lat="43.01577047295104" lon="11.94214829514278"><ele>343.1666666666667</ele><time>2026-04-07T08:46:46Z</time></trkpt><trkpt lat="43.01573524724927" lon="11.942296378637357"><ele>341.3333333333333</ele><time>2026-04-07T08:46:47Z</time></trkpt><trkpt lat="43.01571158935569" lon="11.942426868784038"><ele>339.5</ele><time>2026-04-07T08:46:48Z</time></trkpt><trkpt lat="43.015690975325775" lon="11.94254060430495"><ele>337.66666666666663</ele><time>2026-04-07T08:46:49Z</time></trkpt><trkpt lat="43.015671579584684" lon="11.942640435508194"><ele>335.8333333333333</ele><time>2026-04-07T08:46:50Z</time></trkpt><trkpt lat="43.01565877884847" lon="11.942729788725089"><ele>334.0</ele><time>2026-04-07T08:46:51Z</time></trkpt><trkpt lat="43.01563252887363" lon="11.9428997603804"><ele>333.79999999999995</ele><time>2026-04-07T08:46:53Z</time></trkpt><trkpt lat="43.01561988959401" lon="11.94298761035879"><ele>333.59999999999997</ele><time>2026-04-07T08:46:54Z</time></trkpt><trkpt lat="43.01560664423002" lon="11.943072615148035"><ele>333.4</ele><time>2026-04-07T08:46:55Z</time></trkpt><trkpt lat="43.01558847880756" lon="11.943237921093212"><ele>333.2</ele><time>2026-04-07T08:46:57Z</time></trkpt><trkpt lat="43.01557229982527" lon="11.943397385207437"><ele>333.0</ele><time>2026-04-07T08:46:59Z</time></trkpt><trkpt lat="43.01555454713494" lon="11.943552446091795"><ele>333.0</ele><time>2026-04-07T08:47:01Z</time></trkpt><trkpt lat="43.01554388922465" lon="11.943704422280499"><ele>333.0</ele><time>2026-04-07T08:47:03Z</time></trkpt><trkpt lat="43.01553344520401" lon="11.943839679527715"><ele>333.0</ele><time>2026-04-07T08:47:05Z</time></trkpt><trkpt lat="43.01552842993773" lon="11.943957057517228"><ele>333.0</ele><time>2026-04-07T08:47:07Z</time></trkpt><trkpt lat="43.015528559052534" lon="11.944073379263147"><ele>333.0</ele><time>2026-04-07T08:47:08.999Z</time></trkpt><trkpt lat="43.0155325333596" lon="11.944184305805686"><ele>334.4</ele><time>2026-04-07T08:47:10.999Z</time></trkpt><trkpt lat="43.01553788182587" lon="11.944305344930017"><ele>335.79999999999995</ele><time>2026-04-07T08:47:12.999Z</time></trkpt><trkpt lat="43.01554395770525" lon="11.9444494480706"><ele>337.2</ele><time>2026-04-07T08:47:14.999Z</time></trkpt><trkpt lat="43.015537843153744" lon="11.944613023221812"><ele>338.6</ele><time>2026-04-07T08:47:16.999Z</time></trkpt><trkpt lat="43.01551675776702" lon="11.94478733924167"><ele>340.0</ele><time>2026-04-07T08:47:18.999Z</time></trkpt><trkpt lat="43.01549729057005" lon="11.944876815344108"><ele>340.0</ele><time>2026-04-07T08:47:19.999Z</time></trkpt><trkpt lat="43.015469511472666" lon="11.944973177773587"><ele>340.0</ele><time>2026-04-07T08:47:20.999Z</time></trkpt><trkpt lat="43.01543749160108" lon="11.94507887751282"><ele>340.0</ele><time>2026-04-07T08:47:21.999Z</time></trkpt><trkpt lat="43.015402111808804" lon="11.945192130452927"><ele>340.0</ele><time>2026-04-07T08:47:22.999Z</time></trkpt><trkpt lat="43.01536706925204" lon="11.945308188539414"><ele>340.0</ele><time>2026-04-07T08:47:23.999Z</time></trkpt><trkpt lat="43.01533398055844" lon="11.945431730580825"><ele>340.0</ele><time>2026-04-07T08:47:24.999Z</time></trkpt><trkpt lat="43.01529752154376" lon="11.94555762038571"><ele>339.6</ele><time>2026-04-07T08:47:25.999Z</time></trkpt><trkpt lat="43.01525046609073" lon="11.945683358384144"><ele>339.2</ele><time>2026-04-07T08:47:26.999Z</time></trkpt><trkpt lat="43.01519193249522" lon="11.945802480120221"><ele>338.79999999999995</ele><time>2026-04-07T08:47:27.999Z</time></trkpt><trkpt lat="43.015120201726944" lon="11.945913165341027"><ele>338.4</ele><time>2026-04-07T08:47:28.999Z</time></trkpt><trkpt lat="43.01503219938726" lon="11.946008713169173"><ele>338.0</ele><time>2026-04-07T08:47:29.999Z</time></trkpt><trkpt lat="43.014938895692936" lon="11.946098721266782"><ele>338.0</ele><time>2026-04-07T08:47:30.999Z</time></trkpt><trkpt lat="43.01483895863073" lon="11.946180780662834"><ele>338.0</ele><time>2026-04-07T08:47:31.999Z</time></trkpt><trkpt lat="43.01473103018066" lon="11.946253250001494"><ele>338.0</ele><time>2026-04-07T08:47:32.999Z</time></trkpt><trkpt lat="43.014613928849776" lon="11.946308539843685"><ele>338.0</ele><time>2026-04-07T08:47:33.999Z</time></trkpt><trkpt lat="43.014490270404046" lon="11.946345541556571"><ele>338.0</ele><time>2026-04-07T08:47:34.999Z</time></trkpt><trkpt lat="43.01437107348158" lon="11.946367685782832"><ele>338.0</ele><time>2026-04-07T08:47:35.999Z</time></trkpt><trkpt lat="43.0142749130066" lon="11.946366718280041"><ele>338.0</ele><time>2026-04-07T08:47:36.999Z</time></trkpt><trkpt lat="43.014209549667555" lon="11.946357962859983"><ele>338.0</ele><time>2026-04-07T08:47:54.999Z</time></trkpt><trkpt lat="43.014128978977425" lon="11.946345581534365"><ele>338.0</ele><time>2026-04-07T08:47:56.999Z</time></trkpt><trkpt lat="43.014062538557965" lon="11.946332933596118"><ele>338.0</ele><time>2026-04-07T08:47:57.999Z</time></trkpt><trkpt lat="43.0139845220198" lon="11.946316963034665"><ele>336.0</ele><time>2026-04-07T08:47:58.999Z</time></trkpt><trkpt lat="43.013907093936936" lon="11.94630210793992"><ele>334.0</ele><time>2026-04-07T08:47:59.999Z</time></trkpt><trkpt lat="43.013815831062736" lon="11.946286723520073"><ele>332.0</ele><time>2026-04-07T08:48:00.999Z</time></trkpt><trkpt lat="43.013721340709594" lon="11.946268787545396"><ele>330.0</ele><time>2026-04-07T08:48:01.999Z</time></trkpt><trkpt lat="43.013621742511674" lon="11.946245690741758"><ele>328.0</ele><time>2026-04-07T08:48:02.999Z</time></trkpt><trkpt lat="43.01351352564495" lon="11.946218913525072"><ele>328.0</ele><time>2026-04-07T08:48:03.999Z</time></trkpt><trkpt lat="43.013402382128724" lon="11.946194574684462"><ele>328.0</ele><time>2026-04-07T08:48:04.999Z</time></trkpt><trkpt lat="43.01329040446276" lon="11.946173123032334"><ele>328.0</ele><time>2026-04-07T08:48:05.999Z</time></trkpt><trkpt lat="43.013180488273264" lon="11.94614908360712"><ele>328.0</ele><time>2026-04-07T08:48:06.999Z</time></trkpt><trkpt lat="43.01307670374958" lon="11.946121564738057"><ele>328.0</ele><time>2026-04-07T08:48:07.999Z</time></trkpt><trkpt lat="43.01297495979272" lon="11.946108720044771"><ele>326.0</ele><time>2026-04-07T08:48:08.999Z</time></trkpt><trkpt lat="43.01287752911552" lon="11.94612034388082"><ele>324.0</ele><time>2026-04-07T08:48:09.999Z</time></trkpt><trkpt lat="43.012787035291915" lon="11.946174802004627"><ele>322.0</ele><time>2026-04-07T08:48:10.999Z</time></trkpt><trkpt lat="43.01271438780953" lon="11.946270024143622"><ele>320.0</ele><time>2026-04-07T08:48:11.999Z</time></trkpt><trkpt lat="43.012673803012206" lon="11.9463964046718"><ele>318.0</ele><time>2026-04-07T08:48:12.999Z</time></trkpt><trkpt lat="43.01266564340458" lon="11.94653650199809"><ele>318.0</ele><time>2026-04-07T08:48:13.999Z</time></trkpt><trkpt lat="43.01269920631369" lon="11.94667486629053"><ele>318.0</ele><time>2026-04-07T08:48:14.999Z</time></trkpt><trkpt lat="43.0127706019397" lon="11.94678800273847"><ele>318.0</ele><time>2026-04-07T08:48:15.999Z</time></trkpt><trkpt lat="43.01287257842934" lon="11.946854432673547"><ele>318.0</ele><time>2026-04-07T08:48:16.999Z</time></trkpt><trkpt lat="43.01298375244626" lon="11.946865812018233"><ele>318.0</ele><time>2026-04-07T08:48:17.999Z</time></trkpt><trkpt lat="43.013093405965265" lon="11.946837157812844"><ele>319.0</ele><time>2026-04-07T08:48:18.999Z</time></trkpt><trkpt lat="43.01319822195711" lon="11.94679049721065"><ele>320.0</ele><time>2026-04-07T08:48:19.999Z</time></trkpt><trkpt lat="43.013302161903944" lon="11.94674847011232"><ele>321.0</ele><time>2026-04-07T08:48:20.999Z</time></trkpt><trkpt lat="43.01341068012182" lon="11.946739558557093"><ele>322.0</ele><time>2026-04-07T08:48:21.999Z</time></trkpt><trkpt lat="43.01350941986863" lon="11.946787587714546"><ele>323.0</ele><time>2026-04-07T08:48:22.998Z</time></trkpt><trkpt lat="43.013582558172864" lon="11.94689077704073"><ele>323.0</ele><time>2026-04-07T08:48:23.998Z</time></trkpt><trkpt lat="43.013622416597684" lon="11.947023923119962"><ele>323.0</ele><time>2026-04-07T08:48:24.998Z</time></trkpt><trkpt lat="43.01362096406765" lon="11.947163637022582"><ele>323.0</ele><time>2026-04-07T08:48:25.998Z</time></trkpt><trkpt lat="43.01357817937293" lon="11.947291644089912"><ele>323.0</ele><time>2026-04-07T08:48:26.998Z</time></trkpt><trkpt lat="43.01351263569922" lon="11.947425298981296"><ele>323.0</ele><time>2026-04-07T08:48:27.998Z</time></trkpt><trkpt lat="43.0134386764653" lon="11.947566352744923"><ele>321.75</ele><time>2026-04-07T08:48:28.998Z</time></trkpt><trkpt lat="43.01335876194423" lon="11.947709945474129"><ele>320.5</ele><time>2026-04-07T08:48:29.998Z</time></trkpt><trkpt lat="43.01326718648268" lon="11.947843220600111"><ele>319.25</ele><time>2026-04-07T08:48:30.998Z</time></trkpt><trkpt lat="43.013159086200616" lon="11.947952061472643"><ele>318.0</ele><time>2026-04-07T08:48:31.998Z</time></trkpt><trkpt lat="43.013038788445826" lon="11.948028285836937"><ele>316.0</ele><time>2026-04-07T08:48:32.998Z</time></trkpt><trkpt lat="43.01290428896717" lon="11.948080934335284"><ele>314.0</ele><time>2026-04-07T08:48:33.998Z</time></trkpt><trkpt lat="43.01276424215675" lon="11.948118283101174"><ele>312.0</ele><time>2026-04-07T08:48:34.998Z</time></trkpt><trkpt lat="43.01262077484725" lon="11.94815204913554"><ele>310.0</ele><time>2026-04-07T08:48:35.998Z</time></trkpt><trkpt lat="43.01247319760359" lon="11.94819963728857"><ele>307.66666666666663</ele><time>2026-04-07T08:48:36.998Z</time></trkpt><trkpt lat="43.01232211078597" lon="11.948250362736896"><ele>305.3333333333333</ele><time>2026-04-07T08:48:37.998Z</time></trkpt><trkpt lat="43.01217074566199" lon="11.948296038063509"><ele>303.0</ele><time>2026-04-07T08:48:38.998Z</time></trkpt><trkpt lat="43.01202002707295" lon="11.948341417216463"><ele>302.0</ele><time>2026-04-07T08:48:39.998Z</time></trkpt><trkpt lat="43.011873042028505" lon="11.948386845415193"><ele>301.0</ele><time>2026-04-07T08:48:40.998Z</time></trkpt><trkpt lat="43.011728800634295" lon="11.948435167210999"><ele>300.0</ele><time>2026-04-07T08:48:41.998Z</time></trkpt><trkpt lat="43.0115883922686" lon="11.94847376694161"><ele>299.0</ele><time>2026-04-07T08:48:42.998Z</time></trkpt><trkpt lat="43.011464247523875" lon="11.948510458851425"><ele>299.0</ele><time>2026-04-07T08:48:43.998Z</time></trkpt><trkpt lat="43.011341442624754" lon="11.948545447079516"><ele>299.0</ele><time>2026-04-07T08:48:44.998Z</time></trkpt><trkpt lat="43.01122100143876" lon="11.948579089352629"><ele>299.0</ele><time>2026-04-07T08:48:45.998Z</time></trkpt><trkpt lat="43.01109762947169" lon="11.948617073460293"><ele>299.0</ele><time>2026-04-07T08:48:46.998Z</time></trkpt><trkpt lat="43.01096735897999" lon="11.948651523384845"><ele>299.0</ele><time>2026-04-07T08:48:47.998Z</time></trkpt><trkpt lat="43.01083416337452" lon="11.948681655318794"><ele>299.0</ele><time>2026-04-07T08:48:48.999Z</time></trkpt><trkpt lat="43.01069663041775" lon="11.948704743953906"><ele>299.0</ele><time>2026-04-07T08:48:49.999Z</time></trkpt><trkpt lat="43.010557592146476" lon="11.948725938739573"><ele>299.0</ele><time>2026-04-07T08:48:50.999Z</time></trkpt><trkpt lat="43.01042313019072" lon="11.948742619612137"><ele>298.25</ele><time>2026-04-07T08:48:51.999Z</time></trkpt><trkpt lat="43.010292347500254" lon="11.948765073617443"><ele>297.5</ele><time>2026-04-07T08:48:52.999Z</time></trkpt><trkpt lat="43.01016184569686" lon="11.948784491983323"><ele>296.75</ele><time>2026-04-07T08:48:53.999Z</time></trkpt><trkpt lat="43.01003388565872" lon="11.948803390053007"><ele>296.0</ele><time>2026-04-07T08:48:54.999Z</time></trkpt><trkpt lat="43.009906147405005" lon="11.948822295238049"><ele>295.0</ele><time>2026-04-07T08:48:55.999Z</time></trkpt><trkpt lat="43.009784963854" lon="11.948845405014547"><ele>294.0</ele><time>2026-04-07T08:48:56.999Z</time></trkpt><trkpt lat="43.00967244399585" lon="11.948874450651683"><ele>293.0</ele><time>2026-04-07T08:48:57.999Z</time></trkpt><trkpt lat="43.009569294198876" lon="11.94891160472772"><ele>292.0</ele><time>2026-04-07T08:48:58.999Z</time></trkpt><trkpt lat="43.0094672261403" lon="11.948956893207486"><ele>292.0</ele><time>2026-04-07T08:48:59.999Z</time></trkpt><trkpt lat="43.00936719872282" lon="11.949003554458125"><ele>292.0</ele><time>2026-04-07T08:49:00.999Z</time></trkpt><trkpt lat="43.009270288977454" lon="11.949055945662488"><ele>292.0</ele><time>2026-04-07T08:49:01.999Z</time></trkpt><trkpt lat="43.00917332128406" lon="11.94911145539525"><ele>292.0</ele><time>2026-04-07T08:49:02.999Z</time></trkpt><trkpt lat="43.009074032936795" lon="11.949160013741274"><ele>292.0</ele><time>2026-04-07T08:49:03.999Z</time></trkpt><trkpt lat="43.00897161614763" lon="11.949206249888919"><ele>290.6</ele><time>2026-04-07T08:49:04.999Z</time></trkpt><trkpt lat="43.008869527813225" lon="11.949256552765899"><ele>289.2</ele><time>2026-04-07T08:49:05.999Z</time></trkpt><trkpt lat="43.0087684519906" lon="11.949309889211525"><ele>287.8</ele><time>2026-04-07T08:49:06.999Z</time></trkpt><trkpt lat="43.008667771487076" lon="11.949368853232198"><ele>286.4</ele><time>2026-04-07T08:49:07.999Z</time></trkpt><trkpt lat="43.00856626586883" lon="11.949429200520774"><ele>285.0</ele><time>2026-04-07T08:49:08.999Z</time></trkpt><trkpt lat="43.00845851436047" lon="11.949482520934957"><ele>285.0</ele><time>2026-04-07T08:49:09.999Z</time></trkpt><trkpt lat="43.00834719895851" lon="11.949534510928954"><ele>285.0</ele><time>2026-04-07T08:49:10.999Z</time></trkpt><trkpt lat="43.00823576389628" lon="11.949591086788052"><ele>285.0</ele><time>2026-04-07T08:49:11.999Z</time></trkpt><trkpt lat="43.008124204401206" lon="11.949649294587898"><ele>285.0</ele><time>2026-04-07T08:49:12.999Z</time></trkpt><trkpt lat="43.00801445170682" lon="11.949708837509718"><ele>283.25</ele><time>2026-04-07T08:49:13.999Z</time></trkpt><trkpt lat="43.00790409851426" lon="11.949766928775865"><ele>281.5</ele><time>2026-04-07T08:49:14.999Z</time></trkpt><trkpt lat="43.00779384784325" lon="11.94982509592952"><ele>279.75</ele><time>2026-04-07T08:49:15.999Z</time></trkpt><trkpt lat="43.007684022854264" lon="11.949883238577963"><ele>278.0</ele><time>2026-04-07T08:49:16.999Z</time></trkpt><trkpt lat="43.00757529330804" lon="11.949942199896112"><ele>276.4</ele><time>2026-04-07T08:49:17.999Z</time></trkpt><trkpt lat="43.007466467293376" lon="11.949999222245001"><ele>274.8</ele><time>2026-04-07T08:49:18.999Z</time></trkpt><trkpt lat="43.0073584037614" lon="11.950055593531578"><ele>273.2</ele><time>2026-04-07T08:49:19.999Z</time></trkpt><trkpt lat="43.00725827886198" lon="11.95011029172666"><ele>271.6</ele><time>2026-04-07T08:49:20.999Z</time></trkpt><trkpt lat="43.007159517154115" lon="11.950163376707534"><ele>270.0</ele><time>2026-04-07T08:49:21.999Z</time></trkpt><trkpt lat="43.00706706200648" lon="11.950215455109557"><ele>270.0</ele><time>2026-04-07T08:49:22.999Z</time></trkpt><trkpt lat="43.0069792602001" lon="11.950264792950135"><ele>270.0</ele><time>2026-04-07T08:49:23.999Z</time></trkpt><trkpt lat="43.00689696784993" lon="11.950315137659182"><ele>270.0</ele><time>2026-04-07T08:49:24.999Z</time></trkpt><trkpt lat="43.00683185708739" lon="11.950370731038568"><ele>270.0</ele><time>2026-04-07T08:49:25.999Z</time></trkpt><trkpt lat="43.006773437730146" lon="11.950424146878461"><ele>270.0</ele><time>2026-04-07T08:49:26.999Z</time></trkpt><trkpt lat="43.00671619113142" lon="11.95047187062644"><ele>270.0</ele><time>2026-04-07T08:49:27.999Z</time></trkpt><trkpt lat="43.00664893070094" lon="11.950500005111527"><ele>268.4</ele><time>2026-04-07T08:49:28.999Z</time></trkpt><trkpt lat="43.00658135782337" lon="11.950516415919147"><ele>266.8</ele><time>2026-04-07T08:49:29.999Z</time></trkpt><trkpt lat="43.006491464232894" lon="11.95061065339245"><ele>265.2</ele><time>2026-04-07T08:49:31.999Z</time></trkpt><trkpt lat="43.006514810728355" lon="11.950694712830328"><ele>263.6</ele><time>2026-04-07T08:49:32.999Z</time></trkpt><trkpt lat="43.00653427863127" lon="11.95087204378848"><ele>262.0</ele><time>2026-04-07T08:49:34.999Z</time></trkpt><trkpt lat="43.00652409578336" lon="11.950982275043163"><ele>262.0</ele><time>2026-04-07T08:49:35.999Z</time></trkpt><trkpt lat="43.006497371109646" lon="11.951097369509922"><ele>262.0</ele><time>2026-04-07T08:49:36.999Z</time></trkpt><trkpt lat="43.006466826154" lon="11.951220921493329"><ele>262.0</ele><time>2026-04-07T08:49:37.999Z</time></trkpt><trkpt lat="43.00643735373186" lon="11.951351747896627"><ele>262.0</ele><time>2026-04-07T08:49:38.999Z</time></trkpt><trkpt lat="43.00640402713374" lon="11.951488691735856"><ele>262.0</ele><time>2026-04-07T08:49:39.999Z</time></trkpt><trkpt lat="43.006370358416305" lon="11.951630765044353"><ele>261.25</ele><time>2026-04-07T08:49:40.999Z</time></trkpt><trkpt lat="43.00633778872876" lon="11.951775143908433"><ele>260.5</ele><time>2026-04-07T08:49:41.999Z</time></trkpt><trkpt lat="43.00630496030998" lon="11.951922731732544"><ele>259.75</ele><time>2026-04-07T08:49:42.999Z</time></trkpt><trkpt lat="43.006269736720256" lon="11.95207485511281"><ele>259.0</ele><time>2026-04-07T08:49:43.999Z</time></trkpt><trkpt lat="43.00623529451328" lon="11.952229579958992"><ele>259.0</ele><time>2026-04-07T08:49:44.999Z</time></trkpt><trkpt lat="43.0062012068132" lon="11.95238692458377"><ele>259.0</ele><time>2026-04-07T08:49:45.999Z</time></trkpt><trkpt lat="43.006165988002145" lon="11.952543930497825"><ele>259.0</ele><time>2026-04-07T08:49:46.999Z</time></trkpt><trkpt lat="43.00613052171238" lon="11.952701763601032"><ele>259.0</ele><time>2026-04-07T08:49:47.999Z</time></trkpt><trkpt lat="43.00609441234943" lon="11.952858127590638"><ele>259.0</ele><time>2026-04-07T08:49:48.999Z</time></trkpt><trkpt lat="43.00605443558236" lon="11.953010099044413"><ele>259.0</ele><time>2026-04-07T08:49:49.999Z</time></trkpt><trkpt lat="43.00601558429022" lon="11.95316208269429"><ele>259.0</ele><time>2026-04-07T08:49:50.999Z</time></trkpt><trkpt lat="43.00597843163982" lon="11.953313379304985"><ele>259.0</ele><time>2026-04-07T08:49:51.999Z</time></trkpt><trkpt lat="43.00594143588106" lon="11.95346397224068"><ele>259.0</ele><time>2026-04-07T08:49:52.999Z</time></trkpt><trkpt lat="43.00590177292199" lon="11.95361158941031"><ele>259.0</ele><time>2026-04-07T08:49:53.999Z</time></trkpt><trkpt lat="43.00586309905483" lon="11.953759807706922"><ele>259.0</ele><time>2026-04-07T08:49:54.999Z</time></trkpt><trkpt lat="43.00582394897882" lon="11.953902372530354"><ele>259.0</ele><time>2026-04-07T08:49:55.999Z</time></trkpt><trkpt lat="43.00578408524668" lon="11.954036480191526"><ele>259.0</ele><time>2026-04-07T08:49:56.999Z</time></trkpt><trkpt lat="43.00574578992676" lon="11.954165621089254"><ele>258.4</ele><time>2026-04-07T08:49:57.999Z</time></trkpt><trkpt lat="43.00571013345377" lon="11.954289416281108"><ele>257.79999999999995</ele><time>2026-04-07T08:49:58.999Z</time></trkpt><trkpt lat="43.00567408860841" lon="11.954411935749954"><ele>257.20000000000005</ele><time>2026-04-07T08:49:59.999Z</time></trkpt><trkpt lat="43.00563588315994" lon="11.954530877933422"><ele>256.6</ele><time>2026-04-07T08:50:00.999Z</time></trkpt><trkpt lat="43.00560134044981" lon="11.954648697204354"><ele>256.0</ele><time>2026-04-07T08:50:01.999Z</time></trkpt><trkpt lat="43.005562988368645" lon="11.954766983119846"><ele>256.0</ele><time>2026-04-07T08:50:02.999Z</time></trkpt><trkpt lat="43.005516803504065" lon="11.954875478569008"><ele>256.0</ele><time>2026-04-07T08:50:03.999Z</time></trkpt><trkpt lat="43.00546378818514" lon="11.954985265707336"><ele>256.0</ele><time>2026-04-07T08:50:04.999Z</time></trkpt><trkpt lat="43.005411609088675" lon="11.95510431052859"><ele>256.0</ele><time>2026-04-07T08:50:05.999Z</time></trkpt><trkpt lat="43.005374045192866" lon="11.955230201893373"><ele>256.0</ele><time>2026-04-07T08:50:06.999Z</time></trkpt><trkpt lat="43.005353856274574" lon="11.955362067339957"><ele>255.8</ele><time>2026-04-07T08:50:07.999Z</time></trkpt><trkpt lat="43.00535055419512" lon="11.955495333800588"><ele>255.60000000000002</ele><time>2026-04-07T08:50:08.999Z</time></trkpt><trkpt lat="43.00537017025869" lon="11.955629217918325"><ele>255.4</ele><time>2026-04-07T08:50:09.999Z</time></trkpt><trkpt lat="43.00541084188046" lon="11.955752785638662"><ele>255.2</ele><time>2026-04-07T08:50:10.999Z</time></trkpt><trkpt lat="43.00547154606303" lon="11.955868414399102"><ele>255.0</ele><time>2026-04-07T08:50:11.999Z</time></trkpt><trkpt lat="43.00554166178489" lon="11.95598661531565"><ele>255.0</ele><time>2026-04-07T08:50:12.999Z</time></trkpt><trkpt lat="43.005616283343265" lon="11.95611415377806"><ele>255.0</ele><time>2026-04-07T08:50:13.999Z</time></trkpt><trkpt lat="43.00569102802565" lon="11.95624954670068"><ele>255.0</ele><time>2026-04-07T08:50:14.999Z</time></trkpt><trkpt lat="43.00577106242401" lon="11.956392602175907"><ele>255.0</ele><time>2026-04-07T08:50:15.999Z</time></trkpt><trkpt lat="43.00585375230694" lon="11.9565399365943"><ele>255.25</ele><time>2026-04-07T08:50:16.999Z</time></trkpt><trkpt lat="43.005940023559454" lon="11.956691837878179"><ele>255.5</ele><time>2026-04-07T08:50:17.999Z</time></trkpt><trkpt lat="43.00602677180223" lon="11.956849102932074"><ele>255.75</ele><time>2026-04-07T08:50:18.999Z</time></trkpt><trkpt lat="43.00611385717755" lon="11.957010848627043"><ele>256.0</ele><time>2026-04-07T08:50:19.999Z</time></trkpt><trkpt lat="43.006204466040025" lon="11.957174723621147"><ele>255.33333333333331</ele><time>2026-04-07T08:50:20.999Z</time></trkpt><trkpt lat="43.006298635991264" lon="11.957342555284885"><ele>254.66666666666669</ele><time>2026-04-07T08:50:21.999Z</time></trkpt><trkpt lat="43.006394173886875" lon="11.957514138439748"><ele>254.0</ele><time>2026-04-07T08:50:22.999Z</time></trkpt><trkpt lat="43.00648113772041" lon="11.957691951764799"><ele>253.0</ele><time>2026-04-07T08:50:23.999Z</time></trkpt><trkpt lat="43.006561176150036" lon="11.957877956000328"><ele>252.0</ele><time>2026-04-07T08:50:24.999Z</time></trkpt><trkpt lat="43.00662790136269" lon="11.958076310732096"><ele>251.0</ele><time>2026-04-07T08:50:25.999Z</time></trkpt><trkpt lat="43.00668045242823" lon="11.958284922721004"><ele>250.66666666666669</ele><time>2026-04-07T08:50:26.999Z</time></trkpt><trkpt lat="43.00671590231956" lon="11.958503441303957"><ele>250.33333333333331</ele><time>2026-04-07T08:50:27.999Z</time></trkpt><trkpt lat="43.00673705456107" lon="11.958727352692879"><ele>250.0</ele><time>2026-04-07T08:50:28.999Z</time></trkpt><trkpt lat="43.006738699151306" lon="11.958949117541064"><ele>250.0</ele><time>2026-04-07T08:50:29.999Z</time></trkpt><trkpt lat="43.00672391019113" lon="11.959168905058725"><ele>250.0</ele><time>2026-04-07T08:50:30.999Z</time></trkpt><trkpt lat="43.006692765929294" lon="11.959380237721147"><ele>250.0</ele><time>2026-04-07T08:50:31.999Z</time></trkpt><trkpt lat="43.006647566556246" lon="11.95958285199908"><ele>250.0</ele><time>2026-04-07T08:50:32.999Z</time></trkpt><trkpt lat="43.00658636807221" lon="11.95977427106346"><ele>250.0</ele><time>2026-04-07T08:50:33.999Z</time></trkpt><trkpt lat="43.00651037976922" lon="11.959954703338322"><ele>250.0</ele><time>2026-04-07T08:50:34.999Z</time></trkpt><trkpt lat="43.00642309364455" lon="11.960122541203813"><ele>250.0</ele><time>2026-04-07T08:50:35.999Z</time></trkpt><trkpt lat="43.00632548842838" lon="11.96028039813159"><ele>250.0</ele><time>2026-04-07T08:50:36.999Z</time></trkpt><trkpt lat="43.006217371001014" lon="11.96041785084308"><ele>250.0</ele><time>2026-04-07T08:50:37.999Z</time></trkpt><trkpt lat="43.006099554669525" lon="11.960533864288037"><ele>250.0</ele><time>2026-04-07T08:50:38.999Z</time></trkpt><trkpt lat="43.005973772366985" lon="11.96063644690537"><ele>250.0</ele><time>2026-04-07T08:50:39.999Z</time></trkpt><trkpt lat="43.005840997776644" lon="11.960722773266996"><ele>250.0</ele><time>2026-04-07T08:50:40.999Z</time></trkpt><trkpt lat="43.00570573806773" lon="11.960790230302406"><ele>250.0</ele><time>2026-04-07T08:50:41.999Z</time></trkpt><trkpt lat="43.00556970819917" lon="11.96084229884092"><ele>250.0</ele><time>2026-04-07T08:50:42.999Z</time></trkpt><trkpt lat="43.00543043980627" lon="11.960883432135082"><ele>249.5</ele><time>2026-04-07T08:50:43.999Z</time></trkpt><trkpt lat="43.00528926906903" lon="11.96091958041059"><ele>249.0</ele><time>2026-04-07T08:50:44.999Z</time></trkpt><trkpt lat="43.00514910061104" lon="11.960952456608036"><ele>248.5</ele><time>2026-04-07T08:50:45.999Z</time></trkpt><trkpt lat="43.00500670122197" lon="11.960990205779641"><ele>248.0</ele><time>2026-04-07T08:50:46.999Z</time></trkpt><trkpt lat="43.004863966873536" lon="11.961024259600237"><ele>247.75</ele><time>2026-04-07T08:50:47.999Z</time></trkpt><trkpt lat="43.0047188090277" lon="11.961057024391211"><ele>247.5</ele><time>2026-04-07T08:50:49Z</time></trkpt><trkpt lat="43.004572065033024" lon="11.961090870124501"><ele>247.25</ele><time>2026-04-07T08:50:50Z</time></trkpt><trkpt lat="43.00442068787606" lon="11.961126042149148"><ele>247.0</ele><time>2026-04-07T08:50:51Z</time></trkpt><trkpt lat="43.00426751958643" lon="11.96116532637406"><ele>247.0</ele><time>2026-04-07T08:50:52Z</time></trkpt><trkpt lat="43.0041179945185" lon="11.961207949480215"><ele>247.0</ele><time>2026-04-07T08:50:53Z</time></trkpt><trkpt lat="43.00397256370047" lon="11.961252522032531"><ele>247.0</ele><time>2026-04-07T08:50:54Z</time></trkpt><trkpt lat="43.00383023562969" lon="11.961314146682387"><ele>247.0</ele><time>2026-04-07T08:50:55Z</time></trkpt><trkpt lat="43.00369312778776" lon="11.961393495430062"><ele>247.0</ele><time>2026-04-07T08:50:56Z</time></trkpt><trkpt lat="43.00356127359863" lon="11.961480755139634"><ele>247.0</ele><time>2026-04-07T08:50:57Z</time></trkpt><trkpt lat="43.003434667153286" lon="11.961577242650142"><ele>247.0</ele><time>2026-04-07T08:50:58Z</time></trkpt><trkpt lat="43.003314316699715" lon="11.961689907463514"><ele>247.25</ele><time>2026-04-07T08:50:59Z</time></trkpt><trkpt lat="43.00320395238394" lon="11.961810664540359"><ele>247.5</ele><time>2026-04-07T08:51:00Z</time></trkpt><trkpt lat="43.00310249251517" lon="11.961940954058129"><ele>247.75</ele><time>2026-04-07T08:51:01Z</time></trkpt><trkpt lat="43.003009125083274" lon="11.962078117525754"><ele>248.0</ele><time>2026-04-07T08:51:02Z</time></trkpt><trkpt lat="43.002925485649726" lon="11.962218595298545"><ele>248.0</ele><time>2026-04-07T08:51:03Z</time></trkpt><trkpt lat="43.00285787896093" lon="11.962349677081992"><ele>248.0</ele><time>2026-04-07T08:51:04Z</time></trkpt><trkpt lat="43.002801312775354" lon="11.962466684906165"><ele>248.0</ele><time>2026-04-07T08:51:05Z</time></trkpt><trkpt lat="43.00275550106041" lon="11.962570916197086"><ele>248.0</ele><time>2026-04-07T08:51:06Z</time></trkpt><trkpt lat="43.002721052494415" lon="11.962659730314641"><ele>248.0</ele><time>2026-04-07T08:51:07Z</time></trkpt><trkpt lat="43.00268402660459" lon="11.962802116632343"><ele>247.83333333333334</ele><time>2026-04-07T08:51:09Z</time></trkpt><trkpt lat="43.002676163409134" lon="11.962897047316698"><ele>247.66666666666669</ele><time>2026-04-07T08:51:12Z</time></trkpt><trkpt lat="43.00266483223671" lon="11.963018188559913"><ele>247.5</ele><time>2026-04-07T08:51:15Z</time></trkpt><trkpt lat="43.002622571079236" lon="11.963144266823852"><ele>247.33333333333331</ele><time>2026-04-07T08:51:17Z</time></trkpt><trkpt lat="43.002590709334825" lon="11.963225127102639"><ele>247.16666666666666</ele><time>2026-04-07T08:51:18Z</time></trkpt><trkpt lat="43.002575125325926" lon="11.963314119413356"><ele>247.0</ele><time>2026-04-07T08:51:19Z</time></trkpt><trkpt lat="43.00256176329255" lon="11.963471858876929"><ele>247.0</ele><time>2026-04-07T08:51:21Z</time></trkpt><trkpt lat="43.002612805706384" lon="11.963552451574703"><ele>247.0</ele><time>2026-04-07T08:51:23Z</time></trkpt><trkpt lat="43.002507682108906" lon="11.963663544589865"><ele>247.0</ele><time>2026-04-07T08:51:24Z</time></trkpt><trkpt lat="43.002447851498104" lon="11.96377581811352"><ele>247.0</ele><time>2026-04-07T08:51:26Z</time></trkpt><trkpt lat="43.00238638869217" lon="11.963906227237661"><ele>247.0</ele><time>2026-04-07T08:51:28Z</time></trkpt><trkpt lat="43.00235460988464" lon="11.963980846181023"><ele>247.0</ele><time>2026-04-07T08:51:29Z</time></trkpt><trkpt lat="43.00231421796595" lon="11.964054597128287"><ele>247.0</ele><time>2026-04-07T08:51:29.999Z</time></trkpt><trkpt lat="43.00226491487859" lon="11.964119296245537"><ele>247.0</ele><time>2026-04-07T08:51:30.999Z</time></trkpt><trkpt lat="43.00221435234198" lon="11.964184090822407"><ele>247.0</ele><time>2026-04-07T08:51:31.999Z</time></trkpt><trkpt lat="43.002171500768775" lon="11.964259029580175"><ele>247.0</ele><time>2026-04-07T08:51:32.999Z</time></trkpt><trkpt lat="43.002147547379295" lon="11.964358511669273"><ele>247.0</ele><time>2026-04-07T08:51:33.999Z</time></trkpt><trkpt lat="43.00215023796539" lon="11.9644801500906"><ele>247.0</ele><time>2026-04-07T08:51:34.999Z</time></trkpt><trkpt lat="43.002164241210885" lon="11.964613358021046"><ele>247.2</ele><time>2026-04-07T08:51:35.999Z</time></trkpt><trkpt lat="43.00215311363793" lon="11.96475540475165"><ele>247.39999999999998</ele><time>2026-04-07T08:51:36.999Z</time></trkpt><trkpt lat="43.00212123946767" lon="11.964896987767814"><ele>247.60000000000002</ele><time>2026-04-07T08:51:37.999Z</time></trkpt><trkpt lat="43.00209076850039" lon="11.96503169466161"><ele>247.8</ele><time>2026-04-07T08:51:38.999Z</time></trkpt><trkpt lat="43.0020646497595" lon="11.965169164430346"><ele>248.0</ele><time>2026-04-07T08:51:39.999Z</time></trkpt><trkpt lat="43.002034983781854" lon="11.965307109651873"><ele>248.25</ele><time>2026-04-07T08:51:40.999Z</time></trkpt><trkpt lat="43.0019993485388" lon="11.965445288439795"><ele>248.5</ele><time>2026-04-07T08:51:41.999Z</time></trkpt><trkpt lat="43.00196359430368" lon="11.965590639376037"><ele>248.75</ele><time>2026-04-07T08:51:42.999Z</time></trkpt><trkpt lat="43.00192727883498" lon="11.965733883892506"><ele>249.0</ele><time>2026-04-07T08:51:43.999Z</time></trkpt><trkpt lat="43.00189121573018" lon="11.965890496440775"><ele>248.5</ele><time>2026-04-07T08:51:44.999Z</time></trkpt><trkpt lat="43.00184824592051" lon="11.966044366519696"><ele>248.0</ele><time>2026-04-07T08:51:45.999Z</time></trkpt><trkpt lat="43.00180650618649" lon="11.966206715512392"><ele>247.5</ele><time>2026-04-07T08:51:46.999Z</time></trkpt><trkpt lat="43.001764424152924" lon="11.966376712817507"><ele>247.0</ele><time>2026-04-07T08:51:47.999Z</time></trkpt><trkpt lat="43.00172134278307" lon="11.966548130931335"><ele>247.0</ele><time>2026-04-07T08:51:48.999Z</time></trkpt><trkpt lat="43.0016799207733" lon="11.966724771185573"><ele>247.0</ele><time>2026-04-07T08:51:49.999Z</time></trkpt><trkpt lat="43.001639130314345" lon="11.96690380304847"><ele>247.0</ele><time>2026-04-07T08:51:50.999Z</time></trkpt><trkpt lat="43.001582140492246" lon="11.96706824900412"><ele>247.0</ele><time>2026-04-07T08:51:51.999Z</time></trkpt><trkpt lat="43.00155140480373" lon="11.967242922910556"><ele>247.5</ele><time>2026-04-07T08:51:52.999Z</time></trkpt><trkpt lat="43.00148791552772" lon="11.967390535126246"><ele>248.0</ele><time>2026-04-07T08:51:53.999Z</time></trkpt><trkpt lat="43.001443685128" lon="11.967542109009312"><ele>248.5</ele><time>2026-04-07T08:51:54.999Z</time></trkpt><trkpt lat="43.00141985525211" lon="11.967693018514503"><ele>249.0</ele><time>2026-04-07T08:51:55.999Z</time></trkpt><trkpt lat="43.00138804257963" lon="11.967827742251702"><ele>249.6</ele><time>2026-04-07T08:51:56.999Z</time></trkpt><trkpt lat="43.0013573423031" lon="11.967957002992135"><ele>250.2</ele><time>2026-04-07T08:51:57.999Z</time></trkpt><trkpt lat="43.001324314898966" lon="11.968082829107857"><ele>250.79999999999998</ele><time>2026-04-07T08:51:58.999Z</time></trkpt><trkpt lat="43.001289730874866" lon="11.968207266366365"><ele>251.39999999999998</ele><time>2026-04-07T08:51:59.999Z</time></trkpt><trkpt lat="43.001254458000254" lon="11.968333661932299"><ele>252.0</ele><time>2026-04-07T08:52:00.999Z</time></trkpt><trkpt lat="43.00121410480966" lon="11.96846001402682"><ele>252.0</ele><time>2026-04-07T08:52:01.999Z</time></trkpt><trkpt lat="43.00117438860561" lon="11.968595553662471"><ele>252.0</ele><time>2026-04-07T08:52:02.999Z</time></trkpt><trkpt lat="43.001133476756145" lon="11.968700165308894"><ele>252.0</ele><time>2026-04-07T08:52:03.999Z</time></trkpt><trkpt lat="43.00110928660639" lon="11.968809526304623"><ele>252.0</ele><time>2026-04-07T08:52:04.999Z</time></trkpt><trkpt lat="43.00109702939199" lon="11.968939673118923"><ele>252.0</ele><time>2026-04-07T08:52:05.999Z</time></trkpt><trkpt lat="43.00107068671403" lon="11.969061402195614"><ele>252.0</ele><time>2026-04-07T08:52:06.999Z</time></trkpt><trkpt lat="43.00104440262684" lon="11.969177764237317"><ele>252.0</ele><time>2026-04-07T08:52:07.999Z</time></trkpt><trkpt lat="43.001019555730466" lon="11.969289863745324"><ele>252.0</ele><time>2026-04-07T08:52:08.999Z</time></trkpt><trkpt lat="43.00099521615501" lon="11.969393105687454"><ele>252.0</ele><time>2026-04-07T08:52:09.999Z</time></trkpt><trkpt lat="43.00097286559385" lon="11.96948736043571"><ele>252.0</ele><time>2026-04-07T08:52:10.999Z</time></trkpt><trkpt lat="43.00095330601189" lon="11.969572283960753"><ele>252.0</ele><time>2026-04-07T08:52:11.999Z</time></trkpt><trkpt lat="43.0009193330801" lon="11.969736570964267"><ele>252.0</ele><time>2026-04-07T08:52:13.999Z</time></trkpt><trkpt lat="43.00089195473982" lon="11.969829444699949"><ele>252.0</ele><time>2026-04-07T08:52:14.999Z</time></trkpt><trkpt lat="43.00086097355312" lon="11.969932675798788"><ele>252.0</ele><time>2026-04-07T08:52:15.999Z</time></trkpt><trkpt lat="43.00083475529476" lon="11.97004846357407"><ele>252.0</ele><time>2026-04-07T08:52:16.999Z</time></trkpt><trkpt lat="43.00080967310721" lon="11.97016964570907"><ele>252.0</ele><time>2026-04-07T08:52:17.999Z</time></trkpt><trkpt lat="43.00078154540441" lon="11.970294220532246"><ele>252.0</ele><time>2026-04-07T08:52:18.999Z</time></trkpt><trkpt lat="43.000782647232874" lon="11.970429422625719"><ele>252.0</ele><time>2026-04-07T08:52:19.999Z</time></trkpt><trkpt lat="43.00072051113115" lon="11.970559026934316"><ele>252.0</ele><time>2026-04-07T08:52:20.999Z</time></trkpt><trkpt lat="43.00069029359646" lon="11.97070178392368"><ele>252.0</ele><time>2026-04-07T08:52:21.999Z</time></trkpt><trkpt lat="43.000660999725596" lon="11.970849099983722"><ele>252.0</ele><time>2026-04-07T08:52:22.999Z</time></trkpt><trkpt lat="43.00063405003284" lon="11.970997877418498"><ele>252.0</ele><time>2026-04-07T08:52:23.999Z</time></trkpt><trkpt lat="43.000603030175185" lon="11.971145284711891"><ele>252.5</ele><time>2026-04-07T08:52:24.999Z</time></trkpt><trkpt lat="43.000570984281794" lon="11.971289166687876"><ele>253.0</ele><time>2026-04-07T08:52:25.999Z</time></trkpt><trkpt lat="43.00053961205322" lon="11.971436455613782"><ele>253.5</ele><time>2026-04-07T08:52:26.999Z</time></trkpt><trkpt lat="43.00050775009906" lon="11.97158654602644"><ele>254.0</ele><time>2026-04-07T08:52:27.999Z</time></trkpt><trkpt lat="43.000475030351986" lon="11.971740921513327"><ele>254.0</ele><time>2026-04-07T08:52:28.999Z</time></trkpt><trkpt lat="43.00044275510934" lon="11.971895680199845"><ele>254.0</ele><time>2026-04-07T08:52:29.999Z</time></trkpt><trkpt lat="43.00041238747255" lon="11.97204856688827"><ele>254.0</ele><time>2026-04-07T08:52:30.999Z</time></trkpt><trkpt lat="43.00037499766533" lon="11.972193542700891"><ele>254.0</ele><time>2026-04-07T08:52:31.999Z</time></trkpt><trkpt lat="43.0003258789099" lon="11.97233486534971"><ele>254.0</ele><time>2026-04-07T08:52:32.999Z</time></trkpt><trkpt lat="43.000264030537416" lon="11.972477849118706"><ele>254.0</ele><time>2026-04-07T08:52:33.999Z</time></trkpt><trkpt lat="43.00019248003798" lon="11.972619305686312"><ele>254.0</ele><time>2026-04-07T08:52:34.999Z</time></trkpt><trkpt lat="43.00011159382493" lon="11.972766437316185"><ele>254.0</ele><time>2026-04-07T08:52:35.999Z</time></trkpt><trkpt lat="43.00002578120555" lon="11.972916033175482"><ele>254.25</ele><time>2026-04-07T08:52:36.999Z</time></trkpt><trkpt lat="42.999935697155436" lon="11.973069548419055"><ele>254.5</ele><time>2026-04-07T08:52:37.999Z</time></trkpt><trkpt lat="42.99984501811315" lon="11.973228987664532"><ele>254.75</ele><time>2026-04-07T08:52:38.999Z</time></trkpt><trkpt lat="42.99975130760234" lon="11.973391464866811"><ele>255.0</ele><time>2026-04-07T08:52:39.999Z</time></trkpt><trkpt lat="42.9996500443145" lon="11.973538898121562"><ele>255.75</ele><time>2026-04-07T08:52:40.999Z</time></trkpt><trkpt lat="42.999537591477996" lon="11.97365444046242"><ele>256.5</ele><time>2026-04-07T08:52:41.999Z</time></trkpt><trkpt lat="42.999417214991006" lon="11.973713111327413"><ele>257.25</ele><time>2026-04-07T08:52:42.999Z</time></trkpt><trkpt lat="42.99929177756238" lon="11.973693785768596"><ele>258.0</ele><time>2026-04-07T08:52:43.999Z</time></trkpt><trkpt lat="42.99916047685185" lon="11.97360924489413"><ele>258.0</ele><time>2026-04-07T08:52:44.999Z</time></trkpt><trkpt lat="42.999022173170104" lon="11.973502858157305"><ele>258.0</ele><time>2026-04-07T08:52:45.999Z</time></trkpt><trkpt lat="42.99888759803867" lon="11.973425673324497"><ele>258.0</ele><time>2026-04-07T08:52:46.999Z</time></trkpt><trkpt lat="42.99873737184485" lon="11.97334194939618"><ele>258.0</ele><time>2026-04-07T08:52:47.999Z</time></trkpt><trkpt lat="42.99859454423002" lon="11.973295784889507"><ele>258.0</ele><time>2026-04-07T08:52:48.999Z</time></trkpt><trkpt lat="42.99843141878465" lon="11.973283042273128"><ele>258.0</ele><time>2026-04-07T08:52:49.999Z</time></trkpt><trkpt lat="42.998278912990024" lon="11.973258974573803"><ele>259.5</ele><time>2026-04-07T08:52:50.999Z</time></trkpt><trkpt lat="42.99814144732549" lon="11.973269166656358"><ele>261.0</ele><time>2026-04-07T08:52:51.999Z</time></trkpt><trkpt lat="42.998013585970334" lon="11.973309347483363"><ele>262.5</ele><time>2026-04-07T08:52:52.999Z</time></trkpt><trkpt lat="42.997912742426614" lon="11.973414693611556"><ele>264.0</ele><time>2026-04-07T08:52:53.999Z</time></trkpt><trkpt lat="42.99788515826544" lon="11.973585148965743"><ele>265.75</ele><time>2026-04-07T08:52:55Z</time></trkpt><trkpt lat="42.997923620971775" lon="11.973756760797512"><ele>267.5</ele><time>2026-04-07T08:52:56Z</time></trkpt><trkpt lat="42.997990713332264" lon="11.973914026595198"><ele>269.25</ele><time>2026-04-07T08:52:57Z</time></trkpt><trkpt lat="42.998056764996996" lon="11.974084325273092"><ele>271.0</ele><time>2026-04-07T08:52:58Z</time></trkpt><trkpt lat="42.99811288196354" lon="11.974271012933178"><ele>271.0</ele><time>2026-04-07T08:52:59Z</time></trkpt><trkpt lat="42.998182237986384" lon="11.974455284849462"><ele>271.0</ele><time>2026-04-07T08:53:00Z</time></trkpt><trkpt lat="42.99825160939279" lon="11.97464249241022"><ele>271.0</ele><time>2026-04-07T08:53:01Z</time></trkpt><trkpt lat="42.99831028086154" lon="11.974810228666428"><ele>271.0</ele><time>2026-04-07T08:53:02Z</time></trkpt><trkpt lat="42.99836275789702" lon="11.974961997994106"><ele>271.75</ele><time>2026-04-07T08:53:03Z</time></trkpt><trkpt lat="42.998398661124405" lon="11.975116386864817"><ele>272.5</ele><time>2026-04-07T08:53:04Z</time></trkpt><trkpt lat="42.99840466654331" lon="11.975284576013461"><ele>273.25</ele><time>2026-04-07T08:53:05Z</time></trkpt><trkpt lat="42.998335195766245" lon="11.975437359457883"><ele>274.0</ele><time>2026-04-07T08:53:06Z</time></trkpt><trkpt lat="42.998219464188224" lon="11.975561797805542"><ele>274.0</ele><time>2026-04-07T08:53:07Z</time></trkpt><trkpt lat="42.99806964779561" lon="11.975683276349846"><ele>274.0</ele><time>2026-04-07T08:53:08Z</time></trkpt><trkpt lat="42.99792014618263" lon="11.975820458232345"><ele>274.0</ele><time>2026-04-07T08:53:09Z</time></trkpt><trkpt lat="42.99776251849096" lon="11.975966840904949"><ele>275.3333333333333</ele><time>2026-04-07T08:53:10Z</time></trkpt><trkpt lat="42.99760104657564" lon="11.976123203619746"><ele>276.6666666666667</ele><time>2026-04-07T08:53:11Z</time></trkpt><trkpt lat="42.997441098131574" lon="11.976290788391967"><ele>278.0</ele><time>2026-04-07T08:53:12Z</time></trkpt><trkpt lat="42.9972859052883" lon="11.976455420282532"><ele>280.0</ele><time>2026-04-07T08:53:13Z</time></trkpt><trkpt lat="42.99712937896992" lon="11.976620036850223"><ele>282.0</ele><time>2026-04-07T08:53:14Z</time></trkpt><trkpt lat="42.996984650973005" lon="11.97674784783705"><ele>284.0</ele><time>2026-04-07T08:53:15Z</time></trkpt><trkpt lat="42.99684352811696" lon="11.976905420335067"><ele>284.33333333333337</ele><time>2026-04-07T08:53:16Z</time></trkpt><trkpt lat="42.996747536922115" lon="11.977050923120943"><ele>284.6666666666667</ele><time>2026-04-07T08:53:17Z</time></trkpt><trkpt lat="42.99662996687553" lon="11.97718568661596"><ele>285.0</ele><time>2026-04-07T08:53:18Z</time></trkpt><trkpt lat="42.99652289620046" lon="11.977352084228825"><ele>287.0</ele><time>2026-04-07T08:53:19Z</time></trkpt><trkpt lat="42.996451156567424" lon="11.977546356849677"><ele>289.0</ele><time>2026-04-07T08:53:20Z</time></trkpt><trkpt lat="42.99638126158222" lon="11.977775848782912"><ele>291.0</ele><time>2026-04-07T08:53:21Z</time></trkpt><trkpt lat="42.99631675269755" lon="11.978026044811987"><ele>291.0</ele><time>2026-04-07T08:53:22Z</time></trkpt><trkpt lat="42.99624328607216" lon="11.97828146806822"><ele>291.0</ele><time>2026-04-07T08:53:23Z</time></trkpt><trkpt lat="42.996164089269435" lon="11.97853532724524"><ele>291.0</ele><time>2026-04-07T08:53:24Z</time></trkpt><trkpt lat="42.99608378791951" lon="11.978792094359413"><ele>290.3333333333333</ele><time>2026-04-07T08:53:25Z</time></trkpt><trkpt lat="42.99598882509177" lon="11.979039103397376"><ele>289.66666666666663</ele><time>2026-04-07T08:53:26Z</time></trkpt><trkpt lat="42.995862288773026" lon="11.97926088563306"><ele>289.0</ele><time>2026-04-07T08:53:27Z</time></trkpt><trkpt lat="42.995694577423286" lon="11.979447485597184"><ele>292.3333333333333</ele><time>2026-04-07T08:53:28Z</time></trkpt><trkpt lat="42.99550172961147" lon="11.979593048546985"><ele>295.6666666666667</ele><time>2026-04-07T08:53:29Z</time></trkpt><trkpt lat="42.9953019159663" lon="11.979709968516474"><ele>299.0</ele><time>2026-04-07T08:53:30Z</time></trkpt><trkpt lat="42.99510638805825" lon="11.979819589531637"><ele>300.5</ele><time>2026-04-07T08:53:31Z</time></trkpt><trkpt lat="42.994903624016814" lon="11.97995984216251"><ele>302.0</ele><time>2026-04-07T08:53:32Z</time></trkpt><trkpt lat="42.99470856421488" lon="11.98013099647626"><ele>302.0</ele><time>2026-04-07T08:53:33Z</time></trkpt><trkpt lat="42.99453237056693" lon="11.980313664002507"><ele>302.0</ele><time>2026-04-07T08:53:34Z</time></trkpt><trkpt lat="42.99435003468667" lon="11.980467915275018"><ele>302.0</ele><time>2026-04-07T08:53:35Z</time></trkpt><trkpt lat="42.994161349524866" lon="11.980585342082211"><ele>306.0</ele><time>2026-04-07T08:53:36Z</time></trkpt><trkpt lat="42.99397645699933" lon="11.980659117402267"><ele>310.0</ele><time>2026-04-07T08:53:37Z</time></trkpt><trkpt lat="42.99378354976574" lon="11.98069514483441"><ele>314.0</ele><time>2026-04-07T08:53:38Z</time></trkpt><trkpt lat="42.993577150396895" lon="11.980698645992586"><ele>314.0</ele><time>2026-04-07T08:53:39Z</time></trkpt><trkpt lat="42.993363303694515" lon="11.980685230303866"><ele>314.0</ele><time>2026-04-07T08:53:40Z</time></trkpt><trkpt lat="42.993138646209815" lon="11.980677540787049"><ele>314.0</ele><time>2026-04-07T08:53:41Z</time></trkpt><trkpt lat="42.99290455007458" lon="11.980673898559413"><ele>316.0</ele><time>2026-04-07T08:53:42Z</time></trkpt><trkpt lat="42.99266758388729" lon="11.980674228608187"><ele>318.0</ele><time>2026-04-07T08:53:43Z</time></trkpt><trkpt lat="42.99242087433977" lon="11.980674304495263"><ele>320.5</ele><time>2026-04-07T08:53:44Z</time></trkpt><trkpt lat="42.99219324015493" lon="11.980665692179755"><ele>323.0</ele><time>2026-04-07T08:53:45Z</time></trkpt><trkpt lat="42.99195179948748" lon="11.980644361247304"><ele>323.0</ele><time>2026-04-07T08:53:46Z</time></trkpt><trkpt lat="42.99170658132673" lon="11.980604386010876"><ele>323.0</ele><time>2026-04-07T08:53:47Z</time></trkpt><trkpt lat="42.99145449747851" lon="11.98054195939536"><ele>325.0</ele><time>2026-04-07T08:53:48Z</time></trkpt><trkpt lat="42.99118933145498" lon="11.980472375610857"><ele>327.0</ele><time>2026-04-07T08:53:49Z</time></trkpt><trkpt lat="42.99090900721335" lon="11.980413057197474"><ele>327.5</ele><time>2026-04-07T08:53:50Z</time></trkpt><trkpt lat="42.99062912544699" lon="11.98035575920463"><ele>328.0</ele><time>2026-04-07T08:53:51Z</time></trkpt><trkpt lat="42.990363173418125" lon="11.980297457216167"><ele>328.0</ele><time>2026-04-07T08:53:52Z</time></trkpt><trkpt lat="42.990107940490425" lon="11.980229519173067"><ele>328.0</ele><time>2026-04-07T08:53:53Z</time></trkpt><trkpt lat="42.98986095422693" lon="11.980187956489809"><ele>331.0</ele><time>2026-04-07T08:53:54Z</time></trkpt><trkpt lat="42.989621030459425" lon="11.98015090779417"><ele>334.0</ele><time>2026-04-07T08:53:55Z</time></trkpt><trkpt lat="42.98938713495507" lon="11.980130918578036"><ele>335.5</ele><time>2026-04-07T08:53:56Z</time></trkpt><trkpt lat="42.98916493510215" lon="11.980047519789661"><ele>337.0</ele><time>2026-04-07T08:53:57Z</time></trkpt><trkpt lat="42.98893540697628" lon="11.979978949207476"><ele>342.0</ele><time>2026-04-07T08:53:58Z</time></trkpt><trkpt lat="42.988713011284496" lon="11.979841916715465"><ele>347.0</ele><time>2026-04-07T08:53:59Z</time></trkpt><trkpt lat="42.98847134184347" lon="11.979708219982786"><ele>347.5</ele><time>2026-04-07T08:54:00Z</time></trkpt><trkpt lat="42.988256825080455" lon="11.979585073257441"><ele>348.0</ele><time>2026-04-07T08:54:01Z</time></trkpt><trkpt lat="42.9880548271942" lon="11.979465631924697"><ele>348.0</ele><time>2026-04-07T08:54:02Z</time></trkpt><trkpt lat="42.9878704268398" lon="11.979363349965297"><ele>348.0</ele><time>2026-04-07T08:54:03Z</time></trkpt><trkpt lat="42.987702441003165" lon="11.979288079117357"><ele>348.0</ele><time>2026-04-07T08:54:04Z</time></trkpt><trkpt lat="42.98753928820253" lon="11.97926844947006"><ele>352.3333333333333</ele><time>2026-04-07T08:54:05Z</time></trkpt><trkpt lat="42.98738752754877" lon="11.97933495326214"><ele>356.66666666666663</ele><time>2026-04-07T08:54:06Z</time></trkpt><trkpt lat="42.987242134704225" lon="11.979483442035718"><ele>361.0</ele><time>2026-04-07T08:54:07Z</time></trkpt><trkpt lat="42.98714195755787" lon="11.979656173169117"><ele>361.0</ele><time>2026-04-07T08:54:08Z</time></trkpt><trkpt lat="42.987014487649816" lon="11.979749937359335"><ele>361.0</ele><time>2026-04-07T08:54:09Z</time></trkpt><trkpt lat="42.986886154720224" lon="11.979742787430038"><ele>361.0</ele><time>2026-04-07T08:54:10Z</time></trkpt><trkpt lat="42.98677619099172" lon="11.979661542311751"><ele>361.0</ele><time>2026-04-07T08:54:11Z</time></trkpt><trkpt lat="42.986646444483384" lon="11.979457871697209"><ele>362.0</ele><time>2026-04-07T08:54:12Z</time></trkpt><trkpt lat="42.986520663023505" lon="11.979293303078057"><ele>363.0</ele><time>2026-04-07T08:54:13Z</time></trkpt><trkpt lat="42.986383609743854" lon="11.979130544851314"><ele>364.0</ele><time>2026-04-07T08:54:14Z</time></trkpt><trkpt lat="42.986251908446384" lon="11.978990214573262"><ele>364.0</ele><time>2026-04-07T08:54:15Z</time></trkpt><trkpt lat="42.98611568907735" lon="11.97888064490725"><ele>364.0</ele><time>2026-04-07T08:54:16Z</time></trkpt><trkpt lat="42.985974857011435" lon="11.978815195338202"><ele>364.0</ele><time>2026-04-07T08:54:17Z</time></trkpt><trkpt lat="42.9858347024295" lon="11.978783893538193"><ele>364.0</ele><time>2026-04-07T08:54:18Z</time></trkpt><trkpt lat="42.98570404965763" lon="11.978773990122333"><ele>364.75</ele><time>2026-04-07T08:54:19Z</time></trkpt><trkpt lat="42.98558020508028" lon="11.978778026355535"><ele>365.5</ele><time>2026-04-07T08:54:20Z</time></trkpt><trkpt lat="42.98545781632385" lon="11.97879382175381"><ele>366.25</ele><time>2026-04-07T08:54:21Z</time></trkpt><trkpt lat="42.98534417825031" lon="11.978820422255968"><ele>367.0</ele><time>2026-04-07T08:54:22Z</time></trkpt><trkpt lat="42.98524908970481" lon="11.978869334337082"><ele>367.0</ele><time>2026-04-07T08:54:23Z</time></trkpt><trkpt lat="42.98516749937745" lon="11.978962635574092"><ele>367.0</ele><time>2026-04-07T08:54:24Z</time></trkpt><trkpt lat="42.98510952326662" lon="11.97907766459394"><ele>367.0</ele><time>2026-04-07T08:54:25Z</time></trkpt><trkpt lat="42.98508484608734" lon="11.979202362064715"><ele>367.0</ele><time>2026-04-07T08:54:26Z</time></trkpt><trkpt lat="42.98508227972184" lon="11.979360337244394"><ele>367.0</ele><time>2026-04-07T08:54:27Z</time></trkpt><trkpt lat="42.98509684421152" lon="11.979528717504289"><ele>369.75</ele><time>2026-04-07T08:54:28Z</time></trkpt><trkpt lat="42.98510903501099" lon="11.979685301225265"><ele>372.5</ele><time>2026-04-07T08:54:29Z</time></trkpt><trkpt lat="42.98512234993976" lon="11.97984073596723"><ele>375.25</ele><time>2026-04-07T08:54:30Z</time></trkpt><trkpt lat="42.98514004139016" lon="11.97999964531004"><ele>378.0</ele><time>2026-04-07T08:54:31Z</time></trkpt><trkpt lat="42.98516214505083" lon="11.98015977416255"><ele>382.0</ele><time>2026-04-07T08:54:32Z</time></trkpt><trkpt lat="42.985183018157954" lon="11.980329578948764"><ele>386.0</ele><time>2026-04-07T08:54:33Z</time></trkpt><trkpt lat="42.985198857588124" lon="11.980507100066738"><ele>390.0</ele><time>2026-04-07T08:54:34Z</time></trkpt><trkpt lat="42.98520612307262" lon="11.980685917610142"><ele>394.0</ele><time>2026-04-07T08:54:35Z</time></trkpt><trkpt lat="42.98519911434496" lon="11.980863301452514"><ele>394.75</ele><time>2026-04-07T08:54:36Z</time></trkpt><trkpt lat="42.98517245225876" lon="11.981039363667279"><ele>395.5</ele><time>2026-04-07T08:54:37Z</time></trkpt><trkpt lat="42.985122617447914" lon="11.981213436125948"><ele>396.25</ele><time>2026-04-07T08:54:38Z</time></trkpt><trkpt lat="42.98504528522752" lon="11.98137199380383"><ele>397.0</ele><time>2026-04-07T08:54:39Z</time></trkpt><trkpt lat="42.984932594557286" lon="11.981504885796525"><ele>397.0</ele><time>2026-04-07T08:54:40Z</time></trkpt><trkpt lat="42.98480691130929" lon="11.981617927503057"><ele>397.0</ele><time>2026-04-07T08:54:41Z</time></trkpt><trkpt lat="42.984672285551625" lon="11.981701755755429"><ele>397.0</ele><time>2026-04-07T08:54:42Z</time></trkpt><trkpt lat="42.984529554155" lon="11.981732101621091"><ele>397.0</ele><time>2026-04-07T08:54:43Z</time></trkpt><trkpt lat="42.98439366284808" lon="11.981699817496887"><ele>397.0</ele><time>2026-04-07T08:54:44Z</time></trkpt><trkpt lat="42.98426961999173" lon="11.981646738168308"><ele>397.0</ele><time>2026-04-07T08:54:45Z</time></trkpt><trkpt lat="42.98414345177933" lon="11.981611205555813"><ele>397.0</ele><time>2026-04-07T08:54:45.999Z</time></trkpt><trkpt lat="42.9840188644897" lon="11.981606136007708"><ele>397.0</ele><time>2026-04-07T08:54:46.999Z</time></trkpt><trkpt lat="42.98389841963646" lon="11.981640928002632"><ele>400.25</ele><time>2026-04-07T08:54:47.999Z</time></trkpt><trkpt lat="42.983781700479746" lon="11.981726173166635"><ele>403.5</ele><time>2026-04-07T08:54:48.999Z</time></trkpt><trkpt lat="42.983679644170586" lon="11.981831333493842"><ele>406.75</ele><time>2026-04-07T08:54:49.999Z</time></trkpt><trkpt lat="42.983581293881585" lon="11.981946665318137"><ele>410.0</ele><time>2026-04-07T08:54:50.999Z</time></trkpt><trkpt lat="42.98346944856597" lon="11.982066855527187"><ele>410.0</ele><time>2026-04-07T08:54:51.999Z</time></trkpt><trkpt lat="42.98335562806388" lon="11.982195487512122"><ele>410.0</ele><time>2026-04-07T08:54:52.999Z</time></trkpt><trkpt lat="42.983249552239684" lon="11.98232492325653"><ele>410.0</ele><time>2026-04-07T08:54:53.999Z</time></trkpt><trkpt lat="42.98315110793121" lon="11.982459093473063"><ele>410.0</ele><time>2026-04-07T08:54:54.999Z</time></trkpt><trkpt lat="42.98305766379063" lon="11.982602443174256"><ele>412.66666666666663</ele><time>2026-04-07T08:54:55.999Z</time></trkpt><trkpt lat="42.98296387204226" lon="11.982753277140086"><ele>415.33333333333337</ele><time>2026-04-07T08:54:56.999Z</time></trkpt><trkpt lat="42.9828638031543" lon="11.982917437053858"><ele>418.0</ele><time>2026-04-07T08:54:57.999Z</time></trkpt><trkpt lat="42.98276443756481" lon="11.983086094524149"><ele>418.0</ele><time>2026-04-07T08:54:58.999Z</time></trkpt><trkpt lat="42.98265470838855" lon="11.983296026736726"><ele>418.0</ele><time>2026-04-07T08:54:59.999Z</time></trkpt><trkpt lat="42.982513917741734" lon="11.983525559410122"><ele>418.0</ele><time>2026-04-07T08:55:01Z</time></trkpt><trkpt lat="42.98236420395807" lon="11.983735059343266"><ele>418.33333333333337</ele><time>2026-04-07T08:55:02Z</time></trkpt><trkpt lat="42.982220966149605" lon="11.983932753550736"><ele>418.66666666666663</ele><time>2026-04-07T08:55:03Z</time></trkpt><trkpt lat="42.98209276302776" lon="11.984108494037667"><ele>419.0</ele><time>2026-04-07T08:55:04Z</time></trkpt><trkpt lat="42.98197359363847" lon="11.984263129676044"><ele>421.0</ele><time>2026-04-07T08:55:05Z</time></trkpt><trkpt lat="42.98186294321028" lon="11.984396114575823"><ele>423.0</ele><time>2026-04-07T08:55:06Z</time></trkpt><trkpt lat="42.98174174827994" lon="11.984488532626537"><ele>425.0</ele><time>2026-04-07T08:55:07Z</time></trkpt><trkpt lat="42.98160303727121" lon="11.984504520283982"><ele>427.0</ele><time>2026-04-07T08:55:08Z</time></trkpt><trkpt lat="42.981463078259594" lon="11.984409281261103"><ele>427.0</ele><time>2026-04-07T08:55:09Z</time></trkpt><trkpt lat="42.98130538842817" lon="11.984280861077535"><ele>427.0</ele><time>2026-04-07T08:55:10Z</time></trkpt><trkpt lat="42.9811639342769" lon="11.984076094418297"><ele>427.0</ele><time>2026-04-07T08:55:11Z</time></trkpt><trkpt lat="42.98099823434066" lon="11.983879982980378"><ele>425.33333333333337</ele><time>2026-04-07T08:55:12Z</time></trkpt><trkpt lat="42.98079264069858" lon="11.983755367803779"><ele>423.66666666666663</ele><time>2026-04-07T08:55:13Z</time></trkpt><trkpt lat="42.98058236029123" lon="11.983705059822151"><ele>422.0</ele><time>2026-04-07T08:55:14Z</time></trkpt><trkpt lat="42.98038864917796" lon="11.983719841739001"><ele>422.0</ele><time>2026-04-07T08:55:15Z</time></trkpt><trkpt lat="42.980188345925264" lon="11.98380784961672"><ele>422.0</ele><time>2026-04-07T08:55:16Z</time></trkpt><trkpt lat="42.97996812895625" lon="11.983880826404045"><ele>422.0</ele><time>2026-04-07T08:55:17Z</time></trkpt><trkpt lat="42.97976060084452" lon="11.983919983379174"><ele>425.3333333333333</ele><time>2026-04-07T08:55:18Z</time></trkpt><trkpt lat="42.979545603935726" lon="11.983871603101711"><ele>428.66666666666663</ele><time>2026-04-07T08:55:19Z</time></trkpt><trkpt lat="42.97933032824813" lon="11.983774124857677"><ele>432.0</ele><time>2026-04-07T08:55:20Z</time></trkpt><trkpt lat="42.97913405022999" lon="11.983627002450781"><ele>434.33333333333337</ele><time>2026-04-07T08:55:21Z</time></trkpt><trkpt lat="42.978959811088956" lon="11.98351270200393"><ele>436.6666666666667</ele><time>2026-04-07T08:55:22Z</time></trkpt><trkpt lat="42.97881051458002" lon="11.983453579169508"><ele>439.0</ele><time>2026-04-07T08:55:23Z</time></trkpt><trkpt lat="42.97867653908087" lon="11.983479046059756"><ele>439.0</ele><time>2026-04-07T08:55:24Z</time></trkpt><trkpt lat="42.97853861344662" lon="11.983553081998183"><ele>439.0</ele><time>2026-04-07T08:55:25Z</time></trkpt><trkpt lat="42.97843274707613" lon="11.983763486859882"><ele>439.0</ele><time>2026-04-07T08:55:26Z</time></trkpt><trkpt lat="42.9783182228528" lon="11.983977771429844"><ele>438.6666666666667</ele><time>2026-04-07T08:55:27Z</time></trkpt><trkpt lat="42.97819315136419" lon="11.984168243746446"><ele>438.33333333333337</ele><time>2026-04-07T08:55:28Z</time></trkpt><trkpt lat="42.97805024449641" lon="11.984369631664956"><ele>438.0</ele><time>2026-04-07T08:55:29Z</time></trkpt><trkpt lat="42.9778979027897" lon="11.984566845194237"><ele>439.66666666666663</ele><time>2026-04-07T08:55:30Z</time></trkpt><trkpt lat="42.9777337668426" lon="11.984726010920065"><ele>441.3333333333333</ele><time>2026-04-07T08:55:31Z</time></trkpt><trkpt lat="42.97756817362985" lon="11.98485525917052"><ele>443.0</ele><time>2026-04-07T08:55:32Z</time></trkpt><trkpt lat="42.977427576948706" lon="11.984944195088369"><ele>443.75</ele><time>2026-04-07T08:55:33Z</time></trkpt><trkpt lat="42.97734592008639" lon="11.985084235895785"><ele>444.5</ele><time>2026-04-07T08:55:34Z</time></trkpt><trkpt lat="42.97733236773212" lon="11.985260356616466"><ele>445.25</ele><time>2026-04-07T08:55:35Z</time></trkpt><trkpt lat="42.977382756117585" lon="11.985425352481961"><ele>446.0</ele><time>2026-04-07T08:55:36Z</time></trkpt><trkpt lat="42.97743264441078" lon="11.985603589903283"><ele>446.0</ele><time>2026-04-07T08:55:37Z</time></trkpt><trkpt lat="42.977436748357796" lon="11.985789242457646"><ele>446.0</ele><time>2026-04-07T08:55:38Z</time></trkpt><trkpt lat="42.97737310478909" lon="11.98595970038489"><ele>446.0</ele><time>2026-04-07T08:55:39Z</time></trkpt><trkpt lat="42.97727305286318" lon="11.986169302691087"><ele>446.3333333333333</ele><time>2026-04-07T08:55:40Z</time></trkpt><trkpt lat="42.97718010120337" lon="11.986422653500023"><ele>446.66666666666663</ele><time>2026-04-07T08:55:41Z</time></trkpt><trkpt lat="42.97706666054753" lon="11.986655786672978"><ele>447.0</ele><time>2026-04-07T08:55:42Z</time></trkpt><trkpt lat="42.97696461810644" lon="11.986858865791046"><ele>447.33333333333337</ele><time>2026-04-07T08:55:43Z</time></trkpt><trkpt lat="42.97686471717582" lon="11.98704491564406"><ele>447.6666666666667</ele><time>2026-04-07T08:55:44Z</time></trkpt><trkpt lat="42.97674982924196" lon="11.987211457112059"><ele>448.0</ele><time>2026-04-07T08:55:45Z</time></trkpt><trkpt lat="42.976646760323774" lon="11.987379617312046"><ele>450.33333333333337</ele><time>2026-04-07T08:55:46Z</time></trkpt><trkpt lat="42.97654716534517" lon="11.987545034026812"><ele>452.66666666666663</ele><time>2026-04-07T08:55:47Z</time></trkpt><trkpt lat="42.97645915992138" lon="11.987715118221498"><ele>455.0</ele><time>2026-04-07T08:55:48Z</time></trkpt><trkpt lat="42.976359249315905" lon="11.987867606069763"><ele>455.0</ele><time>2026-04-07T08:55:49Z</time></trkpt><trkpt lat="42.97626525789407" lon="11.988026959084031"><ele>455.0</ele><time>2026-04-07T08:55:50Z</time></trkpt><trkpt lat="42.97616951872938" lon="11.988199664618241"><ele>455.0</ele><time>2026-04-07T08:55:51Z</time></trkpt><trkpt lat="42.976048963479506" lon="11.988366595722583"><ele>456.0</ele><time>2026-04-07T08:55:52Z</time></trkpt><trkpt lat="42.97591466483069" lon="11.988509219516743"><ele>457.0</ele><time>2026-04-07T08:55:53Z</time></trkpt><trkpt lat="42.9757455929107" lon="11.98863780790512"><ele>458.0</ele><time>2026-04-07T08:55:54Z</time></trkpt><trkpt lat="42.97555711638432" lon="11.98875150279171"><ele>458.0</ele><time>2026-04-07T08:55:55Z</time></trkpt><trkpt lat="42.975375551301944" lon="11.988858891530606"><ele>458.0</ele><time>2026-04-07T08:55:56Z</time></trkpt><trkpt lat="42.97519107842574" lon="11.9889413861398"><ele>458.0</ele><time>2026-04-07T08:55:57Z</time></trkpt><trkpt lat="42.97503786773082" lon="11.98903722336829"><ele>456.0</ele><time>2026-04-07T08:55:58Z</time></trkpt><trkpt lat="42.9748236013005" lon="11.989119161269254"><ele>454.0</ele><time>2026-04-07T08:55:59Z</time></trkpt><trkpt lat="42.97459349985277" lon="11.989145373705679"><ele>454.0</ele><time>2026-04-07T08:55:59.999Z</time></trkpt><trkpt lat="42.974364623880184" lon="11.989109060277993"><ele>454.0</ele><time>2026-04-07T08:56:00.999Z</time></trkpt><trkpt lat="42.974166798663816" lon="11.989017092220768"><ele>454.0</ele><time>2026-04-07T08:56:01.999Z</time></trkpt><trkpt lat="42.97396789206549" lon="11.988886514587566"><ele>456.33333333333337</ele><time>2026-04-07T08:56:02.999Z</time></trkpt><trkpt lat="42.97376598029123" lon="11.98872635450046"><ele>458.66666666666663</ele><time>2026-04-07T08:56:03.999Z</time></trkpt><trkpt lat="42.973577326457885" lon="11.988599144303883"><ele>461.0</ele><time>2026-04-07T08:56:04.999Z</time></trkpt><trkpt lat="42.97340143880714" lon="11.988482545024791"><ele>462.3333333333333</ele><time>2026-04-07T08:56:05.999Z</time></trkpt><trkpt lat="42.97323695785089" lon="11.988368368324599"><ele>463.66666666666663</ele><time>2026-04-07T08:56:06.999Z</time></trkpt><trkpt lat="42.973089811879746" lon="11.98826337923899"><ele>465.0</ele><time>2026-04-07T08:56:07.999Z</time></trkpt><trkpt lat="42.972956052761106" lon="11.988181065791906"><ele>465.0</ele><time>2026-04-07T08:56:08.999Z</time></trkpt><trkpt lat="42.97282924581113" lon="11.988147115741157"><ele>465.0</ele><time>2026-04-07T08:56:09.999Z</time></trkpt><trkpt lat="42.972710123587056" lon="11.988187192898948"><ele>465.0</ele><time>2026-04-07T08:56:10.999Z</time></trkpt><trkpt lat="42.97262027346304" lon="11.98829988805296"><ele>465.0</ele><time>2026-04-07T08:56:11.999Z</time></trkpt><trkpt lat="42.97255885628609" lon="11.988471223834225"><ele>463.66666666666663</ele><time>2026-04-07T08:56:12.999Z</time></trkpt><trkpt lat="42.972487686490055" lon="11.98865655291489"><ele>462.3333333333333</ele><time>2026-04-07T08:56:13.999Z</time></trkpt><trkpt lat="42.9724122125753" lon="11.988884380256573"><ele>461.0</ele><time>2026-04-07T08:56:14.999Z</time></trkpt><trkpt lat="42.97231629431789" lon="11.989113503501503"><ele>460.66666666666663</ele><time>2026-04-07T08:56:15.999Z</time></trkpt><trkpt lat="42.97221262986276" lon="11.989339681651364"><ele>460.33333333333337</ele><time>2026-04-07T08:56:16.999Z</time></trkpt><trkpt lat="42.97211481112858" lon="11.98954580784777"><ele>460.0</ele><time>2026-04-07T08:56:17.999Z</time></trkpt><trkpt lat="42.97201984960269" lon="11.989727245207092"><ele>460.0</ele><time>2026-04-07T08:56:18.999Z</time></trkpt><trkpt lat="42.971861157983504" lon="11.989854910013884"><ele>460.0</ele><time>2026-04-07T08:56:19.999Z</time></trkpt><trkpt lat="42.971669329801394" lon="11.989927698734178"><ele>460.0</ele><time>2026-04-07T08:56:20.999Z</time></trkpt><trkpt lat="42.97144338950685" lon="11.989982931488887"><ele>453.5</ele><time>2026-04-07T08:56:21.999Z</time></trkpt><trkpt lat="42.97121742279763" lon="11.990027901523117"><ele>447.0</ele><time>2026-04-07T08:56:22.999Z</time></trkpt><trkpt lat="42.97099708249232" lon="11.99006634337416"><ele>454.0</ele><time>2026-04-07T08:56:23.999Z</time></trkpt><trkpt lat="42.97076642171478" lon="11.990103379697494"><ele>461.0</ele><time>2026-04-07T08:56:24.999Z</time></trkpt><trkpt lat="42.97053148862791" lon="11.99015386526941"><ele>461.0</ele><time>2026-04-07T08:56:25.999Z</time></trkpt><trkpt lat="42.97027940347223" lon="11.990217195075488"><ele>461.0</ele><time>2026-04-07T08:56:26.999Z</time></trkpt><trkpt lat="42.97004155086311" lon="11.990292663147912"><ele>461.5</ele><time>2026-04-07T08:56:27.999Z</time></trkpt><trkpt lat="42.96981495249872" lon="11.990354230512823"><ele>462.0</ele><time>2026-04-07T08:56:28.999Z</time></trkpt><trkpt lat="42.96958358557355" lon="11.990410007957461"><ele>462.0</ele><time>2026-04-07T08:56:29.999Z</time></trkpt><trkpt lat="42.96936995989925" lon="11.990436814521331"><ele>462.0</ele><time>2026-04-07T08:56:30.999Z</time></trkpt><trkpt lat="42.969155928280124" lon="11.990498645256855"><ele>462.0</ele><time>2026-04-07T08:56:31.999Z</time></trkpt><trkpt lat="42.96894996857411" lon="11.99063322724332"><ele>459.5</ele><time>2026-04-07T08:56:32.999Z</time></trkpt><trkpt lat="42.968754397656106" lon="11.990803524674272"><ele>457.0</ele><time>2026-04-07T08:56:33.999Z</time></trkpt><trkpt lat="42.96856166317416" lon="11.990973476456464"><ele>457.0</ele><time>2026-04-07T08:56:34.999Z</time></trkpt><trkpt lat="42.968369865336776" lon="11.991151415726135"><ele>457.0</ele><time>2026-04-07T08:56:35.999Z</time></trkpt><trkpt lat="42.968187099144814" lon="11.99133916029932"><ele>457.0</ele><time>2026-04-07T08:56:36.999Z</time></trkpt><trkpt lat="42.96801482858295" lon="11.991535683313819"><ele>457.0</ele><time>2026-04-07T08:56:37.999Z</time></trkpt><trkpt lat="42.96785291446781" lon="11.991732586011585"><ele>457.0</ele><time>2026-04-07T08:56:38.999Z</time></trkpt><trkpt lat="42.967700185065866" lon="11.991924114639302"><ele>457.0</ele><time>2026-04-07T08:56:39.999Z</time></trkpt><trkpt lat="42.96755228028892" lon="11.992110592255218"><ele>457.0</ele><time>2026-04-07T08:56:40.999Z</time></trkpt><trkpt lat="42.96740162088589" lon="11.992289575004788"><ele>457.0</ele><time>2026-04-07T08:56:41.999Z</time></trkpt><trkpt lat="42.96724757314167" lon="11.992472634314883"><ele>453.6666666666667</ele><time>2026-04-07T08:56:42.999Z</time></trkpt><trkpt lat="42.96708575125307" lon="11.992655429471196"><ele>450.33333333333337</ele><time>2026-04-07T08:56:43.999Z</time></trkpt><trkpt lat="42.96690679297477" lon="11.992817677358337"><ele>447.0</ele><time>2026-04-07T08:56:44.999Z</time></trkpt><trkpt lat="42.96671370473171" lon="11.992967431218972"><ele>447.0</ele><time>2026-04-07T08:56:45.999Z</time></trkpt><trkpt lat="42.96652477426999" lon="11.993133742453656"><ele>447.0</ele><time>2026-04-07T08:56:46.999Z</time></trkpt><trkpt lat="42.96636257369626" lon="11.993338476958975"><ele>447.0</ele><time>2026-04-07T08:56:47.999Z</time></trkpt><trkpt lat="42.966229869267636" lon="11.993579687444623"><ele>447.0</ele><time>2026-04-07T08:56:48.999Z</time></trkpt><trkpt lat="42.966118234147444" lon="11.993840348780825"><ele>447.0</ele><time>2026-04-07T08:56:49.999Z</time></trkpt><trkpt lat="42.96601578694608" lon="11.994088801884123"><ele>447.0</ele><time>2026-04-07T08:56:50.999Z</time></trkpt><trkpt lat="42.96592352459647" lon="11.994317415742769"><ele>450.0</ele><time>2026-04-07T08:56:51.999Z</time></trkpt><trkpt lat="42.96583973846316" lon="11.99453291889422"><ele>453.0</ele><time>2026-04-07T08:56:52.999Z</time></trkpt><trkpt lat="42.96576301092105" lon="11.99473398125355"><ele>456.0</ele><time>2026-04-07T08:56:53.999Z</time></trkpt><trkpt lat="42.965694006863686" lon="11.994918355751752"><ele>458.25</ele><time>2026-04-07T08:56:54.999Z</time></trkpt><trkpt lat="42.96563038013914" lon="11.995084205868292"><ele>460.5</ele><time>2026-04-07T08:56:55.999Z</time></trkpt><trkpt lat="42.96556953671167" lon="11.995242446925626"><ele>462.75</ele><time>2026-04-07T08:56:56.999Z</time></trkpt><trkpt lat="42.96550682998283" lon="11.995416441895355"><ele>465.0</ele><time>2026-04-07T08:56:57.999Z</time></trkpt><trkpt lat="42.96544103718995" lon="11.995624725594329"><ele>468.33333333333337</ele><time>2026-04-07T08:56:58.999Z</time></trkpt><trkpt lat="42.9653680604457" lon="11.995851841832414"><ele>471.6666666666667</ele><time>2026-04-07T08:56:59.999Z</time></trkpt><trkpt lat="42.96529234776364" lon="11.996051286173357"><ele>475.0</ele><time>2026-04-07T08:57:00.999Z</time></trkpt><trkpt lat="42.96522023410124" lon="11.99621984769413"><ele>475.0</ele><time>2026-04-07T08:57:01.999Z</time></trkpt><trkpt lat="42.96516264102156" lon="11.99637177790494"><ele>475.0</ele><time>2026-04-07T08:57:02.999Z</time></trkpt><trkpt lat="42.96511290740747" lon="11.996504534865057"><ele>475.0</ele><time>2026-04-07T08:57:03.999Z</time></trkpt><trkpt lat="42.965069740067875" lon="11.996618823352346"><ele>475.0</ele><time>2026-04-07T08:57:04.999Z</time></trkpt><trkpt lat="42.96503021365811" lon="11.996722910900788"><ele>475.0</ele><time>2026-04-07T08:57:05.999Z</time></trkpt><trkpt lat="42.964992263944396" lon="11.996818966782675"><ele>475.00000000000006</ele><time>2026-04-07T08:57:06.999Z</time></trkpt><trkpt lat="42.96495486721293" lon="11.996895343267507"><ele>475.0</ele><time>2026-04-07T08:57:07.999Z</time></trkpt><trkpt lat="42.964862427639034" lon="11.997010106147137"><ele>475.0</ele><time>2026-04-07T08:57:09.999Z</time></trkpt><trkpt lat="42.964795153223854" lon="11.997040929216164"><ele>475.0</ele><time>2026-04-07T08:57:10.999Z</time></trkpt><trkpt lat="42.964721410123694" lon="11.99704807984356"><ele>475.00000000000006</ele><time>2026-04-07T08:57:11.999Z</time></trkpt><trkpt lat="42.96464750714462" lon="11.99702603935768"><ele>475.0</ele><time>2026-04-07T08:57:12.999Z</time></trkpt><trkpt lat="42.96457461813008" lon="11.996973136941733"><ele>475.00000000000006</ele><time>2026-04-07T08:57:13.999Z</time></trkpt><trkpt lat="42.964506346998" lon="11.996896955704393"><ele>475.0</ele><time>2026-04-07T08:57:14.999Z</time></trkpt><trkpt lat="42.96444151895194" lon="11.996811208498674"><ele>475.0</ele><time>2026-04-07T08:57:15.999Z</time></trkpt><trkpt lat="42.96438465048643" lon="11.996724407346939"><ele>475.0</ele><time>2026-04-07T08:57:16.999Z</time></trkpt><trkpt lat="42.96433089955841" lon="11.996635188175782"><ele>475.00000000000006</ele><time>2026-04-07T08:57:17.999Z</time></trkpt><trkpt lat="42.96427888690656" lon="11.996546134382609"><ele>475.0</ele><time>2026-04-07T08:57:18.999Z</time></trkpt><trkpt lat="42.96422439485084" lon="11.996454660970016"><ele>474.6666666666667</ele><time>2026-04-07T08:57:19.999Z</time></trkpt><trkpt lat="42.964169956035164" lon="11.996364501601406"><ele>474.33333333333337</ele><time>2026-04-07T08:57:20.999Z</time></trkpt><trkpt lat="42.96411771216766" lon="11.996276495673824"><ele>474.0</ele><time>2026-04-07T08:57:21.999Z</time></trkpt><trkpt lat="42.96406570892312" lon="11.996189363797654"><ele>473.66666666666663</ele><time>2026-04-07T08:57:22.999Z</time></trkpt><trkpt lat="42.964015052468085" lon="11.996113101504942"><ele>473.3333333333333</ele><time>2026-04-07T08:57:23.999Z</time></trkpt><trkpt lat="42.96396248993362" lon="11.996036533797307"><ele>473.0</ele><time>2026-04-07T08:57:24.999Z</time></trkpt><trkpt lat="42.96390479704418" lon="11.99595965008941"><ele>473.0</ele><time>2026-04-07T08:57:25.999Z</time></trkpt><trkpt lat="42.963839878701556" lon="11.995887434149562"><ele>472.99999999999994</ele><time>2026-04-07T08:57:26.999Z</time></trkpt><trkpt lat="42.96376635222961" lon="11.995826921154979"><ele>472.99999999999994</ele><time>2026-04-07T08:57:27.999Z</time></trkpt><trkpt lat="42.96367677870039" lon="11.995782025281265"><ele>473.0</ele><time>2026-04-07T08:57:28.999Z</time></trkpt><trkpt lat="42.96355552026847" lon="11.995786991284747"><ele>473.0</ele><time>2026-04-07T08:57:29.999Z</time></trkpt><trkpt lat="42.96341371162394" lon="11.995859390561664"><ele>476.0</ele><time>2026-04-07T08:57:30.999Z</time></trkpt><trkpt lat="42.96327877825696" lon="11.995934011000305"><ele>479.0</ele><time>2026-04-07T08:57:31.999Z</time></trkpt><trkpt lat="42.963159427063545" lon="11.995963661343227"><ele>482.0</ele><time>2026-04-07T08:57:32.999Z</time></trkpt><trkpt lat="42.9630511333849" lon="11.995974777279217"><ele>485.0</ele><time>2026-04-07T08:57:33.999Z</time></trkpt><trkpt lat="42.962953631510274" lon="11.995973458321181"><ele>484.99999999999994</ele><time>2026-04-07T08:57:34.999Z</time></trkpt><trkpt lat="42.96286621008855" lon="11.995962828961531"><ele>485.0</ele><time>2026-04-07T08:57:35.999Z</time></trkpt><trkpt lat="42.96277889595107" lon="11.995953125448281"><ele>485.0</ele><time>2026-04-07T08:57:36.999Z</time></trkpt><trkpt lat="42.96269148239342" lon="11.995945991718159"><ele>485.0</ele><time>2026-04-07T08:57:37.999Z</time></trkpt><trkpt lat="42.962603100821575" lon="11.9959375590673"><ele>484.99999999999994</ele><time>2026-04-07T08:57:38.999Z</time></trkpt><trkpt lat="42.96251341251865" lon="11.995931409002369"><ele>485.0</ele><time>2026-04-07T08:57:39.999Z</time></trkpt><trkpt lat="42.962421563469356" lon="11.995932458288996"><ele>484.8</ele><time>2026-04-07T08:57:40.999Z</time></trkpt><trkpt lat="42.962326250080324" lon="11.995955468588713"><ele>484.6</ele><time>2026-04-07T08:57:41.999Z</time></trkpt><trkpt lat="42.96223662679624" lon="11.996020743252881"><ele>484.4</ele><time>2026-04-07T08:57:42.999Z</time></trkpt><trkpt lat="42.962165087931574" lon="11.996120259411791"><ele>484.2</ele><time>2026-04-07T08:57:43.999Z</time></trkpt><trkpt lat="42.96210413162964" lon="11.996211113514844"><ele>484.0</ele><time>2026-04-07T08:57:44.999Z</time></trkpt><trkpt lat="42.9620483518639" lon="11.996292587255935"><ele>484.00000000000006</ele><time>2026-04-07T08:57:45.999Z</time></trkpt><trkpt lat="42.96198946817336" lon="11.996371195270212"><ele>484.0</ele><time>2026-04-07T08:57:46.999Z</time></trkpt><trkpt lat="42.96193033359084" lon="11.996450905518738"><ele>484.0</ele><time>2026-04-07T08:57:47.999Z</time></trkpt><trkpt lat="42.9618676206874" lon="11.996535889931653"><ele>484.0</ele><time>2026-04-07T08:57:48.999Z</time></trkpt><trkpt lat="42.961803194772834" lon="11.99662043463261"><ele>484.00000000000006</ele><time>2026-04-07T08:57:49.999Z</time></trkpt><trkpt lat="42.961737310796046" lon="11.996709730076445"><ele>484.0</ele><time>2026-04-07T08:57:50.999Z</time></trkpt><trkpt lat="42.961674120102394" lon="11.996799010261109"><ele>483.4</ele><time>2026-04-07T08:57:51.999Z</time></trkpt><trkpt lat="42.96161332032279" lon="11.996888457040445"><ele>482.79999999999995</ele><time>2026-04-07T08:57:52.999Z</time></trkpt><trkpt lat="42.961545754056594" lon="11.996995513763476"><ele>482.20000000000005</ele><time>2026-04-07T08:57:53.999Z</time></trkpt><trkpt lat="42.96147192774165" lon="11.997123399070588"><ele>481.6</ele><time>2026-04-07T08:57:54.999Z</time></trkpt><trkpt lat="42.96138904342658" lon="11.997251921399195"><ele>481.0</ele><time>2026-04-07T08:57:55.999Z</time></trkpt><trkpt lat="42.96130042162847" lon="11.997385390074514"><ele>480.0</ele><time>2026-04-07T08:57:56.999Z</time></trkpt><trkpt lat="42.961222075603025" lon="11.997510054893455"><ele>479.0</ele><time>2026-04-07T08:57:57.999Z</time></trkpt><trkpt lat="42.96114879177272" lon="11.997630486219977"><ele>478.0</ele><time>2026-04-07T08:57:58.999Z</time></trkpt><trkpt lat="42.96108101826125" lon="11.99774916040924"><ele>477.0</ele><time>2026-04-07T08:57:59.999Z</time></trkpt><trkpt lat="42.96101494860922" lon="11.997864818525853"><ele>477.0</ele><time>2026-04-07T08:58:00.999Z</time></trkpt><trkpt lat="42.96095538672246" lon="11.997984535716414"><ele>477.00000000000006</ele><time>2026-04-07T08:58:01.999Z</time></trkpt><trkpt lat="42.96089344337004" lon="11.998106161075592"><ele>477.00000000000006</ele><time>2026-04-07T08:58:02.999Z</time></trkpt><trkpt lat="42.96082997737809" lon="11.998226358733401"><ele>477.0</ele><time>2026-04-07T08:58:03.999Z</time></trkpt><trkpt lat="42.96077898460986" lon="11.99833405022673"><ele>477.0</ele><time>2026-04-07T08:58:04.999Z</time></trkpt><trkpt lat="42.96072240952742" lon="11.998444759355422"><ele>478.40000000000003</ele><time>2026-04-07T08:58:05.999Z</time></trkpt><trkpt lat="42.96065882060483" lon="11.998565262850825"><ele>479.80000000000007</ele><time>2026-04-07T08:58:06.999Z</time></trkpt><trkpt lat="42.96059407914918" lon="11.998683544913904"><ele>481.2</ele><time>2026-04-07T08:58:07.999Z</time></trkpt><trkpt lat="42.960524499742206" lon="11.998801997381332"><ele>482.6</ele><time>2026-04-07T08:58:08.999Z</time></trkpt><trkpt lat="42.96044816513265" lon="11.998924228899813"><ele>484.0</ele><time>2026-04-07T08:58:09.999Z</time></trkpt><trkpt lat="42.960373629764916" lon="11.999047477974464"><ele>484.0</ele><time>2026-04-07T08:58:10.999Z</time></trkpt><trkpt lat="42.96029907905999" lon="11.999162972093727"><ele>484.0</ele><time>2026-04-07T08:58:11.999Z</time></trkpt><trkpt lat="42.960225402747284" lon="11.999281518009647"><ele>484.0</ele><time>2026-04-07T08:58:12.999Z</time></trkpt><trkpt lat="42.96015248682898" lon="11.999399838365102"><ele>484.0</ele><time>2026-04-07T08:58:13.999Z</time></trkpt><trkpt lat="42.96007848785137" lon="11.999513278857494"><ele>485.2</ele><time>2026-04-07T08:58:14.999Z</time></trkpt><trkpt lat="42.96000588929366" lon="11.999621785955256"><ele>486.4</ele><time>2026-04-07T08:58:15.999Z</time></trkpt><trkpt lat="42.9599355761278" lon="11.999727006625115"><ele>487.6</ele><time>2026-04-07T08:58:16.999Z</time></trkpt><trkpt lat="42.95986588592189" lon="11.999832299303973"><ele>488.8</ele><time>2026-04-07T08:58:17.999Z</time></trkpt><trkpt lat="42.959793684081596" lon="11.999935797351732"><ele>490.0</ele><time>2026-04-07T08:58:18.999Z</time></trkpt><trkpt lat="42.95971980852492" lon="12.0000353842614"><ele>490.0</ele><time>2026-04-07T08:58:19.999Z</time></trkpt><trkpt lat="42.959645580108536" lon="12.000135365539427"><ele>490.0</ele><time>2026-04-07T08:58:20.999Z</time></trkpt><trkpt lat="42.95957192027941" lon="12.000233598203335"><ele>490.0</ele><time>2026-04-07T08:58:21.999Z</time></trkpt><trkpt lat="42.95949623085057" lon="12.000326655128235"><ele>490.0</ele><time>2026-04-07T08:58:22.999Z</time></trkpt><trkpt lat="42.959420108327784" lon="12.00041902613193"><ele>490.0</ele><time>2026-04-07T08:58:23.999Z</time></trkpt><trkpt lat="42.95934210486434" lon="12.000508762245078"><ele>490.0</ele><time>2026-04-07T08:58:24.999Z</time></trkpt><trkpt lat="42.95926520525454" lon="12.000596144053715"><ele>490.0</ele><time>2026-04-07T08:58:25.999Z</time></trkpt><trkpt lat="42.95918897776505" lon="12.000675040863106"><ele>490.0</ele><time>2026-04-07T08:58:26.999Z</time></trkpt><trkpt lat="42.959111990757094" lon="12.0007515704573"><ele>490.0</ele><time>2026-04-07T08:58:27.999Z</time></trkpt><trkpt lat="42.959028551929514" lon="12.000823271462318"><ele>490.0</ele><time>2026-04-07T08:58:28.999Z</time></trkpt><trkpt lat="42.95893945704472" lon="12.000893326712212"><ele>488.4</ele><time>2026-04-07T08:58:29.999Z</time></trkpt><trkpt lat="42.95884058467309" lon="12.00095227615437"><ele>486.8</ele><time>2026-04-07T08:58:30.999Z</time></trkpt><trkpt lat="42.95873730375595" lon="12.000997606755838"><ele>485.20000000000005</ele><time>2026-04-07T08:58:31.999Z</time></trkpt><trkpt lat="42.95863382140895" lon="12.001023446818877"><ele>483.6</ele><time>2026-04-07T08:58:32.999Z</time></trkpt><trkpt lat="42.958530682974065" lon="12.00104997770472"><ele>482.0</ele><time>2026-04-07T08:58:33.999Z</time></trkpt><trkpt lat="42.95842927659105" lon="12.001076882586542"><ele>482.20000000000005</ele><time>2026-04-07T08:58:34.999Z</time></trkpt><trkpt lat="42.95832695314851" lon="12.001105173960948"><ele>482.40000000000003</ele><time>2026-04-07T08:58:35.999Z</time></trkpt><trkpt lat="42.95822328313343" lon="12.001126420345566"><ele>482.59999999999997</ele><time>2026-04-07T08:58:36.999Z</time></trkpt><trkpt lat="42.958120955431745" lon="12.001155631039019"><ele>482.79999999999995</ele><time>2026-04-07T08:58:37.999Z</time></trkpt><trkpt lat="42.95801539632598" lon="12.001180720763136"><ele>483.0</ele><time>2026-04-07T08:58:38.999Z</time></trkpt><trkpt lat="42.95790733583935" lon="12.00121036915433"><ele>483.0</ele><time>2026-04-07T08:58:39.999Z</time></trkpt><trkpt lat="42.957801323076346" lon="12.001243370348726"><ele>482.99999999999994</ele><time>2026-04-07T08:58:40.999Z</time></trkpt><trkpt lat="42.95770082916341" lon="12.001283937911964"><ele>482.99999999999994</ele><time>2026-04-07T08:58:41.999Z</time></trkpt><trkpt lat="42.957601259838135" lon="12.001340962620652"><ele>483.0</ele><time>2026-04-07T08:58:42.999Z</time></trkpt><trkpt lat="42.957504517808246" lon="12.00142024710017"><ele>483.0</ele><time>2026-04-07T08:58:43.999Z</time></trkpt><trkpt lat="42.95742697229445" lon="12.001495276106708"><ele>482.6666666666667</ele><time>2026-04-07T08:58:44.999Z</time></trkpt><trkpt lat="42.957335900233886" lon="12.001537012174426"><ele>482.33333333333337</ele><time>2026-04-07T08:58:45.999Z</time></trkpt><trkpt lat="42.95727394959503" lon="12.001617057831298"><ele>482.0</ele><time>2026-04-07T08:58:46.999Z</time></trkpt><trkpt lat="42.95721166940608" lon="12.001680632571178"><ele>481.6666666666667</ele><time>2026-04-07T08:58:47.999Z</time></trkpt><trkpt lat="42.95715392001746" lon="12.001736262032523"><ele>481.33333333333337</ele><time>2026-04-07T08:58:48.999Z</time></trkpt><trkpt lat="42.95710030804326" lon="12.001795429592537"><ele>481.0</ele><time>2026-04-07T08:58:49.999Z</time></trkpt><trkpt lat="42.95705099412186" lon="12.001854150785963"><ele>481.0</ele><time>2026-04-07T08:58:50.999Z</time></trkpt><trkpt lat="42.95697286004135" lon="12.00196132388283"><ele>481.0</ele><time>2026-04-07T08:58:52.999Z</time></trkpt><trkpt lat="42.95690307912067" lon="12.00203036706225"><ele>481.0</ele><time>2026-04-07T08:58:54.999Z</time></trkpt><trkpt lat="42.956807868371875" lon="12.002064844712127"><ele>481.0</ele><time>2026-04-07T08:58:56.999Z</time></trkpt><trkpt lat="42.95669833040322" lon="12.002058802662749"><ele>481.0</ele><time>2026-04-07T08:58:58.999Z</time></trkpt><trkpt lat="42.95658690872817" lon="12.002045845927249"><ele>481.50000000000006</ele><time>2026-04-07T08:59:00.999Z</time></trkpt><trkpt lat="42.95648483985318" lon="12.001978699454048"><ele>482.0</ele><time>2026-04-07T08:59:02.999Z</time></trkpt><trkpt lat="42.956405370331815" lon="12.001847049517556"><ele>482.5</ele><time>2026-04-07T08:59:04.999Z</time></trkpt><trkpt lat="42.9563579923771" lon="12.00177967743667"><ele>483.0</ele><time>2026-04-07T08:59:05.999Z</time></trkpt><trkpt lat="42.95629956043786" lon="12.001730880876346"><ele>483.50000000000006</ele><time>2026-04-07T08:59:06.999Z</time></trkpt><trkpt lat="42.9562393978786" lon="12.001682782499035"><ele>484.0</ele><time>2026-04-07T08:59:07.999Z</time></trkpt><trkpt lat="42.956167906369174" lon="12.001664143523083"><ele>484.00000000000006</ele><time>2026-04-07T08:59:08.999Z</time></trkpt><trkpt lat="42.95610577978358" lon="12.001686409246236"><ele>484.0</ele><time>2026-04-07T08:59:09.999Z</time></trkpt><trkpt lat="42.95604009486508" lon="12.001727237359837"><ele>484.0</ele><time>2026-04-07T08:59:10.999Z</time></trkpt><trkpt lat="42.95597352889642" lon="12.001771836323531"><ele>484.0</ele><time>2026-04-07T08:59:11.999Z</time></trkpt><trkpt lat="42.955895717364115" lon="12.001802582636218"><ele>484.00000000000006</ele><time>2026-04-07T08:59:13Z</time></trkpt><trkpt lat="42.955820017154586" lon="12.001851200397828"><ele>484.0</ele><time>2026-04-07T08:59:14Z</time></trkpt><trkpt lat="42.95574776181836" lon="12.001905928806252"><ele>484.6666666666667</ele><time>2026-04-07T08:59:15Z</time></trkpt><trkpt lat="42.95567827392487" lon="12.001967374911313"><ele>485.33333333333337</ele><time>2026-04-07T08:59:16Z</time></trkpt><trkpt lat="42.95561123255944" lon="12.002039339397102"><ele>486.0</ele><time>2026-04-07T08:59:17Z</time></trkpt><trkpt lat="42.95554723574061" lon="12.002112582058354"><ele>486.66666666666663</ele><time>2026-04-07T08:59:18Z</time></trkpt><trkpt lat="42.95549249558531" lon="12.002175753858745"><ele>487.3333333333333</ele><time>2026-04-07T08:59:19Z</time></trkpt><trkpt lat="42.95541620011739" lon="12.002265716070621"><ele>488.0</ele><time>2026-04-07T08:59:20Z</time></trkpt><trkpt lat="42.95530147739486" lon="12.002405423287707"><ele>485.66666666666663</ele><time>2026-04-07T08:59:21Z</time></trkpt><trkpt lat="42.95518729634658" lon="12.002552106160376"><ele>483.33333333333337</ele><time>2026-04-07T08:59:22Z</time></trkpt><trkpt lat="42.9550827389463" lon="12.002693978499597"><ele>481.0</ele><time>2026-04-07T08:59:23Z</time></trkpt><trkpt lat="42.95499137698421" lon="12.00285061544185"><ele>481.0</ele><time>2026-04-07T08:59:24Z</time></trkpt><trkpt lat="42.95489667316779" lon="12.002992493277578"><ele>481.0</ele><time>2026-04-07T08:59:25Z</time></trkpt><trkpt lat="42.954801535195884" lon="12.003119769341193"><ele>481.0</ele><time>2026-04-07T08:59:26Z</time></trkpt><trkpt lat="42.95469906375982" lon="12.003204494009049"><ele>481.0</ele><time>2026-04-07T08:59:27Z</time></trkpt><trkpt lat="42.954596776472506" lon="12.003233501585711"><ele>481.0</ele><time>2026-04-07T08:59:28Z</time></trkpt><trkpt lat="42.9545035848987" lon="12.003208909212194"><ele>481.0</ele><time>2026-04-07T08:59:29Z</time></trkpt><trkpt lat="42.95442134600381" lon="12.003154379379074"><ele>481.0</ele><time>2026-04-07T08:59:30Z</time></trkpt><trkpt lat="42.95432968942958" lon="12.003102616531358"><ele>481.0</ele><time>2026-04-07T08:59:31Z</time></trkpt><trkpt lat="42.954220071572706" lon="12.003060698370208"><ele>481.0</ele><time>2026-04-07T08:59:32Z</time></trkpt><trkpt lat="42.954098973925845" lon="12.003022617874736"><ele>479.0</ele><time>2026-04-07T08:59:33Z</time></trkpt><trkpt lat="42.953970125010876" lon="12.003000055954285"><ele>477.0</ele><time>2026-04-07T08:59:34Z</time></trkpt><trkpt lat="42.95383812144914" lon="12.002989519457616"><ele>475.0</ele><time>2026-04-07T08:59:35Z</time></trkpt><trkpt lat="42.95370922012372" lon="12.002986547824781"><ele>473.0</ele><time>2026-04-07T08:59:36Z</time></trkpt><trkpt lat="42.95357782338058" lon="12.002999900826987"><ele>473.0</ele><time>2026-04-07T08:59:37Z</time></trkpt><trkpt lat="42.953446966536106" lon="12.003013439859963"><ele>473.0</ele><time>2026-04-07T08:59:38Z</time></trkpt><trkpt lat="42.9533135769549" lon="12.003002845991274"><ele>473.0</ele><time>2026-04-07T08:59:39Z</time></trkpt><trkpt lat="42.95317762531122" lon="12.00295547413795"><ele>473.0</ele><time>2026-04-07T08:59:40Z</time></trkpt><trkpt lat="42.95304528321573" lon="12.002886958837568"><ele>473.75</ele><time>2026-04-07T08:59:41Z</time></trkpt><trkpt lat="42.95291637420642" lon="12.002800147932177"><ele>474.5</ele><time>2026-04-07T08:59:42Z</time></trkpt><trkpt lat="42.952799213036606" lon="12.00269014720198"><ele>475.25</ele><time>2026-04-07T08:59:43Z</time></trkpt><trkpt lat="42.95270376707167" lon="12.00254714644753"><ele>476.0</ele><time>2026-04-07T08:59:44Z</time></trkpt><trkpt lat="42.9526425744388" lon="12.002369203768081"><ele>478.5</ele><time>2026-04-07T08:59:45Z</time></trkpt><trkpt lat="42.952608444657066" lon="12.002179171042552"><ele>481.0</ele><time>2026-04-07T08:59:46Z</time></trkpt><trkpt lat="42.95257884486435" lon="12.002001038564185"><ele>483.5</ele><time>2026-04-07T08:59:47Z</time></trkpt><trkpt lat="42.95254892884787" lon="12.00184349507265"><ele>486.0</ele><time>2026-04-07T08:59:48Z</time></trkpt><trkpt lat="42.952518533811464" lon="12.001698061291018"><ele>481.5</ele><time>2026-04-07T08:59:49Z</time></trkpt><trkpt lat="42.95246812345378" lon="12.00155718432217"><ele>477.0</ele><time>2026-04-07T08:59:50Z</time></trkpt><trkpt lat="42.95237514605897" lon="12.001440340067768"><ele>472.5</ele><time>2026-04-07T08:59:51Z</time></trkpt><trkpt lat="42.9522568281336" lon="12.001346406884126"><ele>468.0</ele><time>2026-04-07T08:59:52Z</time></trkpt><trkpt lat="42.95213885702174" lon="12.001248754252588"><ele>468.0</ele><time>2026-04-07T08:59:53Z</time></trkpt><trkpt lat="42.952028816496195" lon="12.00116024202755"><ele>468.0</ele><time>2026-04-07T08:59:54Z</time></trkpt><trkpt lat="42.95192204352072" lon="12.00109434330353"><ele>468.0</ele><time>2026-04-07T08:59:55Z</time></trkpt><trkpt lat="42.95181446643845" lon="12.001037445381202"><ele>468.0</ele><time>2026-04-07T08:59:56Z</time></trkpt><trkpt lat="42.951712566963806" lon="12.000992770928423"><ele>470.79999999999995</ele><time>2026-04-07T08:59:57Z</time></trkpt><trkpt lat="42.951616401249034" lon="12.000949457244385"><ele>473.59999999999997</ele><time>2026-04-07T08:59:58Z</time></trkpt><trkpt lat="42.95152637649722" lon="12.000903189148184"><ele>476.40000000000003</ele><time>2026-04-07T08:59:59Z</time></trkpt><trkpt lat="42.95144078899467" lon="12.000851739416946"><ele>479.20000000000005</ele><time>2026-04-07T09:00:00Z</time></trkpt><trkpt lat="42.95136512292102" lon="12.000805341739662"><ele>482.0</ele><time>2026-04-07T09:00:01Z</time></trkpt><trkpt lat="42.951289364541964" lon="12.000814500178828"><ele>481.99999999999994</ele><time>2026-04-07T09:00:02Z</time></trkpt><trkpt lat="42.95123337494362" lon="12.000893434761451"><ele>482.0</ele><time>2026-04-07T09:00:03Z</time></trkpt><trkpt lat="42.95121516813236" lon="12.001000476454701"><ele>482.0</ele><time>2026-04-07T09:00:04Z</time></trkpt><trkpt lat="42.951199696652694" lon="12.001119960162397"><ele>482.0</ele><time>2026-04-07T09:00:05Z</time></trkpt><trkpt lat="42.95119596387632" lon="12.001242188015222"><ele>481.99999999999994</ele><time>2026-04-07T09:00:06Z</time></trkpt><trkpt lat="42.95119721271307" lon="12.001374564871359"><ele>482.0</ele><time>2026-04-07T09:00:07Z</time></trkpt><trkpt lat="42.95119779525615" lon="12.001502616738726"><ele>482.0</ele><time>2026-04-07T09:00:08Z</time></trkpt><trkpt lat="42.95120920830296" lon="12.00163305802346"><ele>482.00000000000006</ele><time>2026-04-07T09:00:09Z</time></trkpt><trkpt lat="42.951204577199974" lon="12.001763421460796"><ele>482.00000000000006</ele><time>2026-04-07T09:00:10Z</time></trkpt><trkpt lat="42.95121014913229" lon="12.001895665943826"><ele>482.0</ele><time>2026-04-07T09:00:11Z</time></trkpt><trkpt lat="42.95122783067333" lon="12.00204817979386"><ele>482.0</ele><time>2026-04-07T09:00:12Z</time></trkpt><trkpt lat="42.951311814635396" lon="12.002189902080216"><ele>485.75</ele><time>2026-04-07T09:00:13Z</time></trkpt><trkpt lat="42.95137572011059" lon="12.002347504944128"><ele>489.5</ele><time>2026-04-07T09:00:14Z</time></trkpt><trkpt lat="42.95144910515421" lon="12.002492812699442"><ele>493.25</ele><time>2026-04-07T09:00:15Z</time></trkpt><trkpt lat="42.951495656342516" lon="12.002635730790084"><ele>497.0</ele><time>2026-04-07T09:00:16Z</time></trkpt><trkpt lat="42.95150830265392" lon="12.00278193655473"><ele>497.0</ele><time>2026-04-07T09:00:17Z</time></trkpt><trkpt lat="42.95151559961986" lon="12.002927065075884"><ele>497.00000000000006</ele><time>2026-04-07T09:00:18Z</time></trkpt><trkpt lat="42.951520637288255" lon="12.003073669725723"><ele>497.00000000000006</ele><time>2026-04-07T09:00:19Z</time></trkpt><trkpt lat="42.95152468484476" lon="12.003213933637882"><ele>497.0</ele><time>2026-04-07T09:00:20Z</time></trkpt><trkpt lat="42.95152236190705" lon="12.003351387558995"><ele>497.0</ele><time>2026-04-07T09:00:21Z</time></trkpt><trkpt lat="42.95151243236507" lon="12.003484524404612"><ele>497.0</ele><time>2026-04-07T09:00:22Z</time></trkpt><trkpt lat="42.95149886430125" lon="12.003616188648477"><ele>497.00000000000006</ele><time>2026-04-07T09:00:23Z</time></trkpt><trkpt lat="42.951446499689226" lon="12.00373232120678"><ele>497.00000000000006</ele><time>2026-04-07T09:00:24Z</time></trkpt><trkpt lat="42.95137459324441" lon="12.003829687506547"><ele>497.0</ele><time>2026-04-07T09:00:25Z</time></trkpt><trkpt lat="42.95129083038966" lon="12.00390525087477"><ele>497.0</ele><time>2026-04-07T09:00:26Z</time></trkpt><trkpt lat="42.95120351359962" lon="12.00395872794228"><ele>496.99999999999994</ele><time>2026-04-07T09:00:27Z</time></trkpt><trkpt lat="42.951125241794855" lon="12.004003186015419"><ele>497.0</ele><time>2026-04-07T09:00:28Z</time></trkpt><trkpt lat="42.95104910579424" lon="12.004052809317935"><ele>497.0</ele><time>2026-04-07T09:00:29Z</time></trkpt><trkpt lat="42.95096590713312" lon="12.004094815662269"><ele>497.0</ele><time>2026-04-07T09:00:30Z</time></trkpt><trkpt lat="42.95088127397417" lon="12.0041281688221"><ele>496.99999999999994</ele><time>2026-04-07T09:00:31Z</time></trkpt><trkpt lat="42.950790568765676" lon="12.00416916314171"><ele>497.0</ele><time>2026-04-07T09:00:32Z</time></trkpt><trkpt lat="42.95069412056042" lon="12.004220749055357"><ele>495.75</ele><time>2026-04-07T09:00:33Z</time></trkpt><trkpt lat="42.95059269898377" lon="12.004273504995655"><ele>494.5</ele><time>2026-04-07T09:00:34Z</time></trkpt><trkpt lat="42.950488800849925" lon="12.004326858637034"><ele>493.25</ele><time>2026-04-07T09:00:35Z</time></trkpt><trkpt lat="42.95038115554699" lon="12.00438211826563"><ele>492.0</ele><time>2026-04-07T09:00:36Z</time></trkpt><trkpt lat="42.95026686416565" lon="12.004443126787304"><ele>492.0</ele><time>2026-04-07T09:00:37Z</time></trkpt><trkpt lat="42.9501492652379" lon="12.004508162318485"><ele>492.0</ele><time>2026-04-07T09:00:38Z</time></trkpt><trkpt lat="42.95003398943206" lon="12.004574443144405"><ele>492.0</ele><time>2026-04-07T09:00:39Z</time></trkpt><trkpt lat="42.94991865588086" lon="12.004639548668125"><ele>492.0</ele><time>2026-04-07T09:00:40Z</time></trkpt><trkpt lat="42.94980881088149" lon="12.004700752704007"><ele>491.0</ele><time>2026-04-07T09:00:41Z</time></trkpt><trkpt lat="42.94970365554119" lon="12.004764735654764"><ele>490.0</ele><time>2026-04-07T09:00:42Z</time></trkpt><trkpt lat="42.94960637607213" lon="12.004879831201123"><ele>489.0</ele><time>2026-04-07T09:00:43Z</time></trkpt><trkpt lat="42.94944695810423" lon="12.004931927804463"><ele>488.0</ele><time>2026-04-07T09:00:44Z</time></trkpt><trkpt lat="42.94929186722061" lon="12.0050337689527"><ele>489.66666666666663</ele><time>2026-04-07T09:00:45Z</time></trkpt><trkpt lat="42.94912382148183" lon="12.00516055434833"><ele>491.33333333333337</ele><time>2026-04-07T09:00:46Z</time></trkpt><trkpt lat="42.94895233290671" lon="12.005294354673701"><ele>493.0</ele><time>2026-04-07T09:00:47Z</time></trkpt><trkpt lat="42.94878061167948" lon="12.005434432151171"><ele>493.0</ele><time>2026-04-07T09:00:48Z</time></trkpt><trkpt lat="42.94861130219492" lon="12.005579801860094"><ele>493.0</ele><time>2026-04-07T09:00:49Z</time></trkpt><trkpt lat="42.94845368327057" lon="12.005724380397185"><ele>493.0</ele><time>2026-04-07T09:00:50Z</time></trkpt><trkpt lat="42.94829402637593" lon="12.005838589636296"><ele>494.33333333333337</ele><time>2026-04-07T09:00:51Z</time></trkpt><trkpt lat="42.94815687413672" lon="12.005966242981106"><ele>495.66666666666663</ele><time>2026-04-07T09:00:52Z</time></trkpt><trkpt lat="42.94798316939699" lon="12.006022115763042"><ele>497.0</ele><time>2026-04-07T09:00:53Z</time></trkpt><trkpt lat="42.94780330448029" lon="12.005991786872213"><ele>497.0</ele><time>2026-04-07T09:00:54Z</time></trkpt><trkpt lat="42.94763636208246" lon="12.00596314234183"><ele>497.0</ele><time>2026-04-07T09:00:55Z</time></trkpt><trkpt lat="42.94749224057044" lon="12.005922091632904"><ele>497.0</ele><time>2026-04-07T09:00:56Z</time></trkpt><trkpt lat="42.94735355274918" lon="12.005914029476262"><ele>495.75</ele><time>2026-04-07T09:00:57Z</time></trkpt><trkpt lat="42.947233971750336" lon="12.005970825795268"><ele>494.5</ele><time>2026-04-07T09:00:58Z</time></trkpt><trkpt lat="42.94714709631066" lon="12.006107289520985"><ele>493.25</ele><time>2026-04-07T09:00:59Z</time></trkpt><trkpt lat="42.947100068775065" lon="12.006306877363238"><ele>492.0</ele><time>2026-04-07T09:01:00Z</time></trkpt><trkpt lat="42.94709142571734" lon="12.006554629169324"><ele>495.0</ele><time>2026-04-07T09:01:01Z</time></trkpt><trkpt lat="42.947079368135206" lon="12.006819276229859"><ele>498.0</ele><time>2026-04-07T09:01:02Z</time></trkpt><trkpt lat="42.9470736895608" lon="12.007068978825242"><ele>501.0</ele><time>2026-04-07T09:01:03Z</time></trkpt><trkpt lat="42.9470656597146" lon="12.00729834987161"><ele>498.0</ele><time>2026-04-07T09:01:04Z</time></trkpt><trkpt lat="42.94704872853833" lon="12.0075077623271"><ele>495.0</ele><time>2026-04-07T09:01:05Z</time></trkpt><trkpt lat="42.94695759681819" lon="12.007671145110999"><ele>492.0</ele><time>2026-04-07T09:01:06Z</time></trkpt><trkpt lat="42.94681800295155" lon="12.007779023850839"><ele>490.0</ele><time>2026-04-07T09:01:07Z</time></trkpt><trkpt lat="42.94663586403029" lon="12.007831586259442"><ele>488.0</ele><time>2026-04-07T09:01:08Z</time></trkpt><trkpt lat="42.94642859052216" lon="12.007823826260466"><ele>486.0</ele><time>2026-04-07T09:01:09Z</time></trkpt><trkpt lat="42.946236145000725" lon="12.007806849774298"><ele>486.0</ele><time>2026-04-07T09:01:10Z</time></trkpt><trkpt lat="42.9460354153376" lon="12.007866137081962"><ele>486.0</ele><time>2026-04-07T09:01:11Z</time></trkpt><trkpt lat="42.94587402235275" lon="12.007967034007498"><ele>486.0</ele><time>2026-04-07T09:01:12Z</time></trkpt><trkpt lat="42.94574291349435" lon="12.008062055138698"><ele>487.0</ele><time>2026-04-07T09:01:13Z</time></trkpt><trkpt lat="42.94563685327968" lon="12.008217397276253"><ele>488.0</ele><time>2026-04-07T09:01:14Z</time></trkpt><trkpt lat="42.94556371168857" lon="12.00845148541809"><ele>489.0</ele><time>2026-04-07T09:01:15Z</time></trkpt><trkpt lat="42.94551313229371" lon="12.008731187565141"><ele>491.66666666666663</ele><time>2026-04-07T09:01:16Z</time></trkpt><trkpt lat="42.945428374545145" lon="12.009009261659662"><ele>494.3333333333333</ele><time>2026-04-07T09:01:16.999Z</time></trkpt><trkpt lat="42.945303210504555" lon="12.009263885358036"><ele>497.0</ele><time>2026-04-07T09:01:17.999Z</time></trkpt><trkpt lat="42.94514191403705" lon="12.009473647631763"><ele>495.0</ele><time>2026-04-07T09:01:19Z</time></trkpt><trkpt lat="42.944981609723705" lon="12.009659434247641"><ele>493.0</ele><time>2026-04-07T09:01:20Z</time></trkpt><trkpt lat="42.94483634739799" lon="12.009862713473366"><ele>491.0</ele><time>2026-04-07T09:01:21Z</time></trkpt><trkpt lat="42.944696320506225" lon="12.01008396172468"><ele>491.0</ele><time>2026-04-07T09:01:22Z</time></trkpt><trkpt lat="42.94454138947838" lon="12.010292398212012"><ele>491.0</ele><time>2026-04-07T09:01:23Z</time></trkpt><trkpt lat="42.94435242286897" lon="12.010452706289838"><ele>491.0</ele><time>2026-04-07T09:01:24Z</time></trkpt><trkpt lat="42.944156981634585" lon="12.010595147962801"><ele>491.0</ele><time>2026-04-07T09:01:25Z</time></trkpt><trkpt lat="42.943959368100316" lon="12.010719494349479"><ele>491.0</ele><time>2026-04-07T09:01:26Z</time></trkpt><trkpt lat="42.94377577875945" lon="12.010887495636384"><ele>491.0</ele><time>2026-04-07T09:01:27Z</time></trkpt><trkpt lat="42.94359967513458" lon="12.011086466180737"><ele>491.0</ele><time>2026-04-07T09:01:28Z</time></trkpt><trkpt lat="42.94343975481283" lon="12.011323583275738"><ele>491.0</ele><time>2026-04-07T09:01:29Z</time></trkpt><trkpt lat="42.94329230041943" lon="12.011595839318986"><ele>493.0</ele><time>2026-04-07T09:01:30Z</time></trkpt><trkpt lat="42.94314016821057" lon="12.01189099066117"><ele>495.0</ele><time>2026-04-07T09:01:31Z</time></trkpt><trkpt lat="42.94298892365046" lon="12.012189006759835"><ele>499.0</ele><time>2026-04-07T09:01:32Z</time></trkpt><trkpt lat="42.94289424258028" lon="12.012492928070674"><ele>503.0</ele><time>2026-04-07T09:01:33Z</time></trkpt><trkpt lat="42.942841585252744" lon="12.012762305139786"><ele>507.0</ele><time>2026-04-07T09:01:34Z</time></trkpt><trkpt lat="42.94280095904907" lon="12.013036413042265"><ele>507.0</ele><time>2026-04-07T09:01:35Z</time></trkpt><trkpt lat="42.94274517026518" lon="12.01329591608456"><ele>507.0</ele><time>2026-04-07T09:01:36Z</time></trkpt><trkpt lat="42.94271205724308" lon="12.013541212908981"><ele>507.0</ele><time>2026-04-07T09:01:37Z</time></trkpt><trkpt lat="42.94263180823002" lon="12.013862543932051"><ele>507.33333333333337</ele><time>2026-04-07T09:01:38Z</time></trkpt><trkpt lat="42.94256513640078" lon="12.014102968878"><ele>507.6666666666667</ele><time>2026-04-07T09:01:39Z</time></trkpt><trkpt lat="42.942495745260146" lon="12.01434501822464"><ele>508.0</ele><time>2026-04-07T09:01:40Z</time></trkpt><trkpt lat="42.94242731758193" lon="12.014603271151174"><ele>508.6666666666667</ele><time>2026-04-07T09:01:41Z</time></trkpt><trkpt lat="42.94231821296133" lon="12.014848601972844"><ele>509.33333333333337</ele><time>2026-04-07T09:01:42Z</time></trkpt><trkpt lat="42.942183607667275" lon="12.015057620551778"><ele>510.0</ele><time>2026-04-07T09:01:43Z</time></trkpt><trkpt lat="42.94201628861373" lon="12.01523481658883"><ele>510.0</ele><time>2026-04-07T09:01:44Z</time></trkpt><trkpt lat="42.94184152138018" lon="12.015415278656162"><ele>510.0</ele><time>2026-04-07T09:01:45Z</time></trkpt><trkpt lat="42.94168436535468" lon="12.015596863366662"><ele>510.0</ele><time>2026-04-07T09:01:46Z</time></trkpt><trkpt lat="42.941533144296386" lon="12.01579494324372"><ele>510.0</ele><time>2026-04-07T09:01:47Z</time></trkpt><trkpt lat="42.9413483360962" lon="12.015972480088259"><ele>510.0</ele><time>2026-04-07T09:01:48Z</time></trkpt><trkpt lat="42.941265818951535" lon="12.01631838868895"><ele>510.0</ele><time>2026-04-07T09:01:49Z</time></trkpt><trkpt lat="42.941158716748596" lon="12.016629414782516"><ele>510.0</ele><time>2026-04-07T09:01:50Z</time></trkpt><trkpt lat="42.94105504308138" lon="12.016948498900607"><ele>510.0</ele><time>2026-04-07T09:01:51Z</time></trkpt><trkpt lat="42.940913559106264" lon="12.017247484291913"><ele>510.0</ele><time>2026-04-07T09:01:52Z</time></trkpt><trkpt lat="42.94071879023913" lon="12.017487548554705"><ele>508.5</ele><time>2026-04-07T09:01:53Z</time></trkpt><trkpt lat="42.94053037595528" lon="12.01771490369943"><ele>507.0</ele><time>2026-04-07T09:01:54Z</time></trkpt><trkpt lat="42.9403272615246" lon="12.017939163717875"><ele>507.0</ele><time>2026-04-07T09:01:55Z</time></trkpt><trkpt lat="42.94013104557501" lon="12.018169023230858"><ele>507.0</ele><time>2026-04-07T09:01:56Z</time></trkpt><trkpt lat="42.93992938345089" lon="12.018396541926483"><ele>507.0</ele><time>2026-04-07T09:01:57Z</time></trkpt><trkpt lat="42.93971392096357" lon="12.018606713853522"><ele>507.0</ele><time>2026-04-07T09:01:58Z</time></trkpt><trkpt lat="42.93956767751274" lon="12.018927014588785"><ele>503.5</ele><time>2026-04-07T09:01:59Z</time></trkpt><trkpt lat="42.93940427643535" lon="12.019204021037064"><ele>500.0</ele><time>2026-04-07T09:02:00Z</time></trkpt><trkpt lat="42.93923695844834" lon="12.019440127724602"><ele>500.0</ele><time>2026-04-07T09:02:01Z</time></trkpt><trkpt lat="42.93907965201475" lon="12.019641485296807"><ele>500.0</ele><time>2026-04-07T09:02:02Z</time></trkpt><trkpt lat="42.93894223888724" lon="12.019839795273827"><ele>500.0</ele><time>2026-04-07T09:02:03Z</time></trkpt><trkpt lat="42.938853980348945" lon="12.020089172781622"><ele>500.0</ele><time>2026-04-07T09:02:04Z</time></trkpt><trkpt lat="42.93880216635431" lon="12.020346496961636"><ele>500.0</ele><time>2026-04-07T09:02:05Z</time></trkpt><trkpt lat="42.93870548935387" lon="12.020562830745149"><ele>500.0</ele><time>2026-04-07T09:02:06Z</time></trkpt><trkpt lat="42.93852972002586" lon="12.020706923858874"><ele>498.5</ele><time>2026-04-07T09:02:07Z</time></trkpt><trkpt lat="42.93831304602081" lon="12.020822178401321"><ele>497.0</ele><time>2026-04-07T09:02:08Z</time></trkpt><trkpt lat="42.93808533796221" lon="12.020915242504625"><ele>497.0</ele><time>2026-04-07T09:02:09Z</time></trkpt><trkpt lat="42.937863348368374" lon="12.02109485038944"><ele>497.0</ele><time>2026-04-07T09:02:10Z</time></trkpt><trkpt lat="42.937667754515076" lon="12.021360208808819"><ele>496.0</ele><time>2026-04-07T09:02:11Z</time></trkpt><trkpt lat="42.937492865461735" lon="12.021637251382575"><ele>495.0</ele><time>2026-04-07T09:02:12Z</time></trkpt><trkpt lat="42.937292108810105" lon="12.021859248849992"><ele>495.0</ele><time>2026-04-07T09:02:13Z</time></trkpt><trkpt lat="42.93705744729119" lon="12.02201344528651"><ele>495.0</ele><time>2026-04-07T09:02:14Z</time></trkpt><trkpt lat="42.93682414477868" lon="12.022122923992189"><ele>494.33333333333337</ele><time>2026-04-07T09:02:15Z</time></trkpt><trkpt lat="42.93662408845891" lon="12.022246285824542"><ele>493.6666666666667</ele><time>2026-04-07T09:02:16Z</time></trkpt><trkpt lat="42.93650952474472" lon="12.022438488470385"><ele>493.0</ele><time>2026-04-07T09:02:17Z</time></trkpt><trkpt lat="42.93638732151828" lon="12.022722698654235"><ele>499.5</ele><time>2026-04-07T09:02:18Z</time></trkpt><trkpt lat="42.93628985032559" lon="12.02306216134212"><ele>506.0</ele><time>2026-04-07T09:02:19Z</time></trkpt><trkpt lat="42.93621595752789" lon="12.023398811736243"><ele>513.0</ele><time>2026-04-07T09:02:20Z</time></trkpt><trkpt lat="42.93619224730882" lon="12.023762710448555"><ele>520.0</ele><time>2026-04-07T09:02:21Z</time></trkpt><trkpt lat="42.93618858235604" lon="12.02411313816444"><ele>519.6666666666667</ele><time>2026-04-07T09:02:22Z</time></trkpt><trkpt lat="42.93614830928748" lon="12.024424234488361"><ele>519.3333333333334</ele><time>2026-04-07T09:02:23Z</time></trkpt><trkpt lat="42.936056792004386" lon="12.024684656178245"><ele>519.0</ele><time>2026-04-07T09:02:24Z</time></trkpt><trkpt lat="42.93592464175053" lon="12.024929066428621"><ele>518.6666666666666</ele><time>2026-04-07T09:02:25Z</time></trkpt><trkpt lat="42.93580447043211" lon="12.025162168822435"><ele>518.3333333333333</ele><time>2026-04-07T09:02:26Z</time></trkpt><trkpt lat="42.935697218531324" lon="12.02537640915664"><ele>518.0</ele><time>2026-04-07T09:02:27Z</time></trkpt><trkpt lat="42.93556527218933" lon="12.025588552111412"><ele>518.0</ele><time>2026-04-07T09:02:28Z</time></trkpt><trkpt lat="42.93540060507499" lon="12.025799166428365"><ele>518.0</ele><time>2026-04-07T09:02:29Z</time></trkpt><trkpt lat="42.93522941130838" lon="12.026015969921982"><ele>518.0</ele><time>2026-04-07T09:02:30Z</time></trkpt><trkpt lat="42.935070326893666" lon="12.026231793679987"><ele>518.0</ele><time>2026-04-07T09:02:31Z</time></trkpt><trkpt lat="42.934924971474594" lon="12.026438551324606"><ele>518.0</ele><time>2026-04-07T09:02:32Z</time></trkpt><trkpt lat="42.93479905277378" lon="12.02664643432172"><ele>518.0</ele><time>2026-04-07T09:02:33Z</time></trkpt><trkpt lat="42.93470453006662" lon="12.026903029938923"><ele>518.0</ele><time>2026-04-07T09:02:34Z</time></trkpt><trkpt lat="42.93465738096708" lon="12.02720830702806"><ele>518.0</ele><time>2026-04-07T09:02:35Z</time></trkpt><trkpt lat="42.93464172439412" lon="12.027525706979961"><ele>517.6666666666666</ele><time>2026-04-07T09:02:36Z</time></trkpt><trkpt lat="42.93460529984813" lon="12.027814637595105"><ele>517.3333333333334</ele><time>2026-04-07T09:02:37Z</time></trkpt><trkpt lat="42.93453149094481" lon="12.028044399959557"><ele>517.0</ele><time>2026-04-07T09:02:38Z</time></trkpt><trkpt lat="42.9344209740488" lon="12.028231777152023"><ele>515.3333333333334</ele><time>2026-04-07T09:02:39Z</time></trkpt><trkpt lat="42.934266336856346" lon="12.02836491694414"><ele>513.6666666666666</ele><time>2026-04-07T09:02:40Z</time></trkpt><trkpt lat="42.93408149952455" lon="12.028451704961244"><ele>512.0</ele><time>2026-04-07T09:02:41Z</time></trkpt><trkpt lat="42.93391941613074" lon="12.02855943938938"><ele>512.0</ele><time>2026-04-07T09:02:42Z</time></trkpt><trkpt lat="42.93379943574485" lon="12.028767231849004"><ele>512.0</ele><time>2026-04-07T09:02:43Z</time></trkpt><trkpt lat="42.933721760575374" lon="12.029063836110504"><ele>512.0</ele><time>2026-04-07T09:02:44Z</time></trkpt><trkpt lat="42.933667718412906" lon="12.029397651891676"><ele>509.0</ele><time>2026-04-07T09:02:45Z</time></trkpt><trkpt lat="42.93358820461935" lon="12.02970778435736"><ele>506.0</ele><time>2026-04-07T09:02:46Z</time></trkpt><trkpt lat="42.9335017876391" lon="12.029991616017904"><ele>502.5</ele><time>2026-04-07T09:02:47Z</time></trkpt><trkpt lat="42.933463242957096" lon="12.030307700172811"><ele>499.0</ele><time>2026-04-07T09:02:48Z</time></trkpt><trkpt lat="42.933494790817115" lon="12.030662329682487"><ele>498.5</ele><time>2026-04-07T09:02:49Z</time></trkpt><trkpt lat="42.933544642608645" lon="12.031027582008342"><ele>498.0</ele><time>2026-04-07T09:02:50Z</time></trkpt><trkpt lat="42.93356881976932" lon="12.031387292755602"><ele>499.5</ele><time>2026-04-07T09:02:51Z</time></trkpt><trkpt lat="42.933568653487576" lon="12.031742044959243"><ele>501.0</ele><time>2026-04-07T09:02:52Z</time></trkpt><trkpt lat="42.933560604441155" lon="12.032091339974068"><ele>501.0</ele><time>2026-04-07T09:02:53Z</time></trkpt><trkpt lat="42.933551188631625" lon="12.032441537379372"><ele>501.0</ele><time>2026-04-07T09:02:54Z</time></trkpt><trkpt lat="42.933535350016875" lon="12.032789371421975"><ele>501.5</ele><time>2026-04-07T09:02:55Z</time></trkpt><trkpt lat="42.93350892122586" lon="12.033130737724065"><ele>502.0</ele><time>2026-04-07T09:02:56Z</time></trkpt><trkpt lat="42.933474070348616" lon="12.033446861685782"><ele>502.6666666666667</ele><time>2026-04-07T09:02:57Z</time></trkpt><trkpt lat="42.93339402345507" lon="12.033713723571669"><ele>503.33333333333337</ele><time>2026-04-07T09:02:58Z</time></trkpt><trkpt lat="42.93326166334754" lon="12.033945304199229"><ele>504.0</ele><time>2026-04-07T09:02:59Z</time></trkpt><trkpt lat="42.9330867659087" lon="12.034160906385814"><ele>505.0</ele><time>2026-04-07T09:03:00Z</time></trkpt><trkpt lat="42.93290300368653" lon="12.034393497276206"><ele>506.0</ele><time>2026-04-07T09:03:01Z</time></trkpt><trkpt lat="42.93270338304507" lon="12.034622720140797"><ele>505.0</ele><time>2026-04-07T09:03:02Z</time></trkpt><trkpt lat="42.93251751630908" lon="12.034872023091339"><ele>504.0</ele><time>2026-04-07T09:03:03Z</time></trkpt><trkpt lat="42.932344023500086" lon="12.035098987358392"><ele>506.0</ele><time>2026-04-07T09:03:04Z</time></trkpt><trkpt lat="42.9322058286129" lon="12.035302929204514"><ele>508.0</ele><time>2026-04-07T09:03:05Z</time></trkpt><trkpt lat="42.932100187452086" lon="12.035498067123067"><ele>510.0</ele><time>2026-04-07T09:03:06Z</time></trkpt><trkpt lat="42.93201439708627" lon="12.035734360414176"><ele>509.5</ele><time>2026-04-07T09:03:07Z</time></trkpt><trkpt lat="42.93196227668164" lon="12.036033892733169"><ele>509.0</ele><time>2026-04-07T09:03:08Z</time></trkpt><trkpt lat="42.931950776660194" lon="12.03636432396117"><ele>507.66666666666663</ele><time>2026-04-07T09:03:09Z</time></trkpt><trkpt lat="42.93195998383867" lon="12.036666289558369"><ele>506.33333333333337</ele><time>2026-04-07T09:03:10Z</time></trkpt><trkpt lat="42.93198739532739" lon="12.036907082202529"><ele>505.0</ele><time>2026-04-07T09:03:11Z</time></trkpt><trkpt lat="42.931981099874115" lon="12.03707674950333"><ele>505.0</ele><time>2026-04-07T09:03:12Z</time></trkpt><trkpt lat="42.931966150687956" lon="12.037211859217297"><ele>505.0</ele><time>2026-04-07T09:03:13Z</time></trkpt><trkpt lat="42.93187846886596" lon="12.037308037226397"><ele>505.0</ele><time>2026-04-07T09:03:14Z</time></trkpt><trkpt lat="42.93174493646405" lon="12.037328650472162"><ele>505.0</ele><time>2026-04-07T09:03:15Z</time></trkpt><trkpt lat="42.931579447314455" lon="12.037227870617519"><ele>502.0</ele><time>2026-04-07T09:03:16Z</time></trkpt><trkpt lat="42.93137072682773" lon="12.037177516556097"><ele>499.0</ele><time>2026-04-07T09:03:17Z</time></trkpt><trkpt lat="42.9311554227195" lon="12.037092397351294"><ele>496.0</ele><time>2026-04-07T09:03:18Z</time></trkpt><trkpt lat="42.93093057167519" lon="12.037061471338973"><ele>492.5</ele><time>2026-04-07T09:03:19Z</time></trkpt><trkpt lat="42.93069489732907" lon="12.037118563482068"><ele>489.0</ele><time>2026-04-07T09:03:20Z</time></trkpt><trkpt lat="42.93045627554832" lon="12.037231783775187"><ele>489.0</ele><time>2026-04-07T09:03:21Z</time></trkpt><trkpt lat="42.93022932443555" lon="12.037330254592483"><ele>489.0</ele><time>2026-04-07T09:03:22Z</time></trkpt><trkpt lat="42.9300142021263" lon="12.037366940092475"><ele>486.0</ele><time>2026-04-07T09:03:23Z</time></trkpt><trkpt lat="42.92983036117067" lon="12.037349238963836"><ele>483.0</ele><time>2026-04-07T09:03:24Z</time></trkpt><trkpt lat="42.92967444304221" lon="12.03724250661335"><ele>480.0</ele><time>2026-04-07T09:03:25.001Z</time></trkpt><trkpt lat="42.929511044849605" lon="12.037063414910001"><ele>480.0</ele><time>2026-04-07T09:03:26.001Z</time></trkpt><trkpt lat="42.92932180762992" lon="12.036867565296903"><ele>480.0</ele><time>2026-04-07T09:03:27.001Z</time></trkpt><trkpt lat="42.9291557824119" lon="12.036676154901869"><ele>478.33333333333337</ele><time>2026-04-07T09:03:28.001Z</time></trkpt><trkpt lat="42.92899954263798" lon="12.036531159215585"><ele>476.6666666666667</ele><time>2026-04-07T09:03:29.001Z</time></trkpt><trkpt lat="42.92884650503981" lon="12.036436113878262"><ele>475.0</ele><time>2026-04-07T09:03:30.001Z</time></trkpt><trkpt lat="42.92871086450818" lon="12.036406912198487"><ele>475.0</ele><time>2026-04-07T09:03:31.001Z</time></trkpt><trkpt lat="42.92859768062416" lon="12.036447999473044"><ele>475.0</ele><time>2026-04-07T09:03:32.001Z</time></trkpt><trkpt lat="42.92849969267139" lon="12.036573159548547"><ele>475.0</ele><time>2026-04-07T09:03:33.001Z</time></trkpt><trkpt lat="42.928441134335515" lon="12.036784548930843"><ele>475.0</ele><time>2026-04-07T09:03:34.001Z</time></trkpt><trkpt lat="42.928399101742016" lon="12.037020733544898"><ele>480.6666666666667</ele><time>2026-04-07T09:03:35.001Z</time></trkpt><trkpt lat="42.92829167610128" lon="12.037193763125245"><ele>486.33333333333337</ele><time>2026-04-07T09:03:36Z</time></trkpt><trkpt lat="42.928157768585976" lon="12.037314947283644"><ele>492.0</ele><time>2026-04-07T09:03:37Z</time></trkpt><trkpt lat="42.928003330203246" lon="12.037408562191521"><ele>496.33333333333337</ele><time>2026-04-07T09:03:38Z</time></trkpt><trkpt lat="42.9278612954241" lon="12.037510455320394"><ele>500.6666666666667</ele><time>2026-04-07T09:03:39Z</time></trkpt><trkpt lat="42.927747999697864" lon="12.037656655822406"><ele>505.0</ele><time>2026-04-07T09:03:40Z</time></trkpt><trkpt lat="42.9276620665738" lon="12.037889508942568"><ele>501.5</ele><time>2026-04-07T09:03:41Z</time></trkpt><trkpt lat="42.9275141983798" lon="12.038145781773915"><ele>498.0</ele><time>2026-04-07T09:03:42Z</time></trkpt><trkpt lat="42.92738112263226" lon="12.03841943536671"><ele>498.0</ele><time>2026-04-07T09:03:43Z</time></trkpt><trkpt lat="42.92723613711073" lon="12.038636788267647"><ele>498.0</ele><time>2026-04-07T09:03:44Z</time></trkpt><trkpt lat="42.927055316708504" lon="12.038811002800458"><ele>498.0</ele><time>2026-04-07T09:03:45Z</time></trkpt><trkpt lat="42.92691739677061" lon="12.038962780397016"><ele>498.33333333333337</ele><time>2026-04-07T09:03:46Z</time></trkpt><trkpt lat="42.92671306508836" lon="12.038953479436628"><ele>498.6666666666667</ele><time>2026-04-07T09:03:47Z</time></trkpt><trkpt lat="42.92662500689528" lon="12.039108905832743"><ele>499.0</ele><time>2026-04-07T09:03:48Z</time></trkpt><trkpt lat="42.92661768205666" lon="12.03931898511457"><ele>499.0</ele><time>2026-04-07T09:03:49Z</time></trkpt><trkpt lat="42.92669591935538" lon="12.039542726488214"><ele>499.0</ele><time>2026-04-07T09:03:50Z</time></trkpt><trkpt lat="42.926805224808795" lon="12.039769800645546"><ele>499.0</ele><time>2026-04-07T09:03:51Z</time></trkpt><trkpt lat="42.926912805837794" lon="12.039988326716127"><ele>496.33333333333337</ele><time>2026-04-07T09:03:52Z</time></trkpt><trkpt lat="42.926983580368976" lon="12.040219252781318"><ele>493.66666666666663</ele><time>2026-04-07T09:03:53Z</time></trkpt><trkpt lat="42.927015137722464" lon="12.040421324849143"><ele>491.0</ele><time>2026-04-07T09:03:54Z</time></trkpt><trkpt lat="42.92700408508692" lon="12.040597990332378"><ele>491.0</ele><time>2026-04-07T09:03:55Z</time></trkpt><trkpt lat="42.92694410275586" lon="12.040739660384274"><ele>491.0</ele><time>2026-04-07T09:03:56Z</time></trkpt><trkpt lat="42.92683206998061" lon="12.040825465069158"><ele>491.0</ele><time>2026-04-07T09:03:57Z</time></trkpt><trkpt lat="42.926678311599396" lon="12.040872239698404"><ele>491.0</ele><time>2026-04-07T09:03:58Z</time></trkpt><trkpt lat="42.92653614002884" lon="12.04094844737028"><ele>491.0</ele><time>2026-04-07T09:03:59Z</time></trkpt><trkpt lat="42.92643782963973" lon="12.041129277434624"><ele>491.0</ele><time>2026-04-07T09:04:00Z</time></trkpt><trkpt lat="42.92640716572431" lon="12.041396927070018"><ele>491.0</ele><time>2026-04-07T09:04:01Z</time></trkpt><trkpt lat="42.9264322087459" lon="12.041665842795593"><ele>490.5</ele><time>2026-04-07T09:04:02Z</time></trkpt><trkpt lat="42.92651043827251" lon="12.041889852246666"><ele>490.0</ele><time>2026-04-07T09:04:03Z</time></trkpt><trkpt lat="42.926585475742776" lon="12.04205381777255"><ele>489.5</ele><time>2026-04-07T09:04:04Z</time></trkpt><trkpt lat="42.92659296431976" lon="12.042210458507917"><ele>489.0</ele><time>2026-04-07T09:04:05Z</time></trkpt><trkpt lat="42.926521920882784" lon="12.04235608468631"><ele>489.0</ele><time>2026-04-07T09:04:06Z</time></trkpt><trkpt lat="42.926399877506505" lon="12.042427577910649"><ele>489.0</ele><time>2026-04-07T09:04:07Z</time></trkpt><trkpt lat="42.926254842981116" lon="12.042403946792746"><ele>489.0</ele><time>2026-04-07T09:04:08Z</time></trkpt><trkpt lat="42.92609828056047" lon="12.042295987054569"><ele>489.0</ele><time>2026-04-07T09:04:09Z</time></trkpt><trkpt lat="42.925936066972554" lon="12.042126779870651"><ele>489.0</ele><time>2026-04-07T09:04:10Z</time></trkpt><trkpt lat="42.92576025571976" lon="12.041953226450202"><ele>489.0</ele><time>2026-04-07T09:04:11Z</time></trkpt><trkpt lat="42.92557753286512" lon="12.041816192577594"><ele>491.33333333333337</ele><time>2026-04-07T09:04:12Z</time></trkpt><trkpt lat="42.92540198802397" lon="12.041718851376839"><ele>493.6666666666667</ele><time>2026-04-07T09:04:13Z</time></trkpt><trkpt lat="42.92523597417164" lon="12.041675000378502"><ele>496.0</ele><time>2026-04-07T09:04:14Z</time></trkpt><trkpt lat="42.92507662953846" lon="12.041698858194325"><ele>497.6666666666667</ele><time>2026-04-07T09:04:15Z</time></trkpt><trkpt lat="42.92495604045977" lon="12.041780137680034"><ele>499.33333333333337</ele><time>2026-04-07T09:04:16Z</time></trkpt><trkpt lat="42.924869390249725" lon="12.04193456273688"><ele>501.0</ele><time>2026-04-07T09:04:17Z</time></trkpt><trkpt lat="42.924825770187226" lon="12.042179172693716"><ele>500.5</ele><time>2026-04-07T09:04:18Z</time></trkpt><trkpt lat="42.92481782963028" lon="12.042475655100693"><ele>500.0</ele><time>2026-04-07T09:04:19Z</time></trkpt><trkpt lat="42.924838858083" lon="12.04279158125707"><ele>500.0</ele><time>2026-04-07T09:04:20Z</time></trkpt><trkpt lat="42.924898697836255" lon="12.04309740230409"><ele>500.0</ele><time>2026-04-07T09:04:21Z</time></trkpt><trkpt lat="42.924985605152116" lon="12.043373121303636"><ele>501.0</ele><time>2026-04-07T09:04:22Z</time></trkpt><trkpt lat="42.92506514798509" lon="12.043615672215715"><ele>502.0</ele><time>2026-04-07T09:04:23Z</time></trkpt><trkpt lat="42.925095823345444" lon="12.043842926939114"><ele>503.0</ele><time>2026-04-07T09:04:24Z</time></trkpt><trkpt lat="42.925055745126066" lon="12.044060003584832"><ele>498.66666666666663</ele><time>2026-04-07T09:04:25Z</time></trkpt><trkpt lat="42.92494627629888" lon="12.044245825484252"><ele>494.33333333333337</ele><time>2026-04-07T09:04:26Z</time></trkpt><trkpt lat="42.924836676829145" lon="12.04443570346452"><ele>490.0</ele><time>2026-04-07T09:04:27Z</time></trkpt><trkpt lat="42.924794638121305" lon="12.04466436287892"><ele>490.0</ele><time>2026-04-07T09:04:28Z</time></trkpt><trkpt lat="42.92479976136815" lon="12.044877439437208"><ele>490.0</ele><time>2026-04-07T09:04:29Z</time></trkpt><trkpt lat="42.924765499958895" lon="12.045048823441627"><ele>490.0</ele><time>2026-04-07T09:04:30Z</time></trkpt><trkpt lat="42.92466850671972" lon="12.045172886200946"><ele>490.0</ele><time>2026-04-07T09:04:30.999Z</time></trkpt><trkpt lat="42.924504373310846" lon="12.045225012831194"><ele>489.33333333333337</ele><time>2026-04-07T09:04:31.999Z</time></trkpt><trkpt lat="42.924293633349336" lon="12.045210060321686"><ele>488.66666666666663</ele><time>2026-04-07T09:04:32.999Z</time></trkpt><trkpt lat="42.924074778988654" lon="12.045207913997157"><ele>488.0</ele><time>2026-04-07T09:04:33.999Z</time></trkpt><trkpt lat="42.92385764595219" lon="12.045288634612811"><ele>487.66666666666663</ele><time>2026-04-07T09:04:34.999Z</time></trkpt><trkpt lat="42.92367275806816" lon="12.04537740016307"><ele>487.33333333333337</ele><time>2026-04-07T09:04:35.999Z</time></trkpt><trkpt lat="42.923511546031726" lon="12.045384658199973"><ele>487.0</ele><time>2026-04-07T09:04:36.999Z</time></trkpt><trkpt lat="42.92338368073254" lon="12.04525905027986"><ele>487.0</ele><time>2026-04-07T09:04:37.999Z</time></trkpt><trkpt lat="42.92330104797278" lon="12.045090554501423"><ele>487.0</ele><time>2026-04-07T09:04:38.999Z</time></trkpt><trkpt lat="42.923217935941985" lon="12.044878595241588"><ele>487.0</ele><time>2026-04-07T09:04:39.999Z</time></trkpt><trkpt lat="42.923119791847455" lon="12.044670695258914"><ele>481.0</ele><time>2026-04-07T09:04:40.999Z</time></trkpt><trkpt lat="42.92299884992325" lon="12.044501720859875"><ele>475.0</ele><time>2026-04-07T09:04:41.999Z</time></trkpt><trkpt lat="42.922827053107696" lon="12.044393284839897"><ele>469.0</ele><time>2026-04-07T09:04:42.999Z</time></trkpt><trkpt lat="42.922609549269" lon="12.044330148124194"><ele>473.6666666666667</ele><time>2026-04-07T09:04:43.999Z</time></trkpt><trkpt lat="42.92240158964109" lon="12.044276675850146"><ele>478.33333333333337</ele><time>2026-04-07T09:04:44.999Z</time></trkpt><trkpt lat="42.92223583373761" lon="12.044229104957449"><ele>483.0</ele><time>2026-04-07T09:04:45.999Z</time></trkpt><trkpt lat="42.92210360288627" lon="12.04422966731672"><ele>483.0</ele><time>2026-04-07T09:04:46.999Z</time></trkpt><trkpt lat="42.92198269751951" lon="12.044319329633296"><ele>483.0</ele><time>2026-04-07T09:04:47.999Z</time></trkpt><trkpt lat="42.921895101310014" lon="12.04449246512528"><ele>483.0</ele><time>2026-04-07T09:04:48.999Z</time></trkpt><trkpt lat="42.921877673139434" lon="12.044693924941402"><ele>483.0</ele><time>2026-04-07T09:04:49.999Z</time></trkpt><trkpt lat="42.921936617791104" lon="12.044903458102295"><ele>488.33333333333337</ele><time>2026-04-07T09:04:50.999Z</time></trkpt><trkpt lat="42.92202223324342" lon="12.04513600788192"><ele>493.6666666666667</ele><time>2026-04-07T09:04:51.999Z</time></trkpt><trkpt lat="42.922037383697656" lon="12.045395437449608"><ele>499.0</ele><time>2026-04-07T09:04:52.999Z</time></trkpt><trkpt lat="42.92199651152513" lon="12.045606650424276"><ele>499.0</ele><time>2026-04-07T09:04:53.999Z</time></trkpt><trkpt lat="42.921899594903365" lon="12.045794107447872"><ele>499.0</ele><time>2026-04-07T09:04:54.999Z</time></trkpt><trkpt lat="42.921709672521104" lon="12.04593239565744"><ele>499.0</ele><time>2026-04-07T09:04:55.999Z</time></trkpt><trkpt lat="42.92151255247035" lon="12.046100213320114"><ele>500.33333333333337</ele><time>2026-04-07T09:04:56.999Z</time></trkpt><trkpt lat="42.921310549851434" lon="12.046246347097613"><ele>501.66666666666663</ele><time>2026-04-07T09:04:57.999Z</time></trkpt><trkpt lat="42.92110966195461" lon="12.046336438607966"><ele>503.0</ele><time>2026-04-07T09:04:58.999Z</time></trkpt><trkpt lat="42.92093266675444" lon="12.046417679675113"><ele>502.66666666666663</ele><time>2026-04-07T09:04:59.999Z</time></trkpt><trkpt lat="42.920792384857485" lon="12.046534227618675"><ele>502.33333333333337</ele><time>2026-04-07T09:05:00.999Z</time></trkpt><trkpt lat="42.92069861814516" lon="12.046689290870242"><ele>502.0</ele><time>2026-04-07T09:05:01.999Z</time></trkpt><trkpt lat="42.920672060614784" lon="12.04689352739924"><ele>502.0</ele><time>2026-04-07T09:05:02.999Z</time></trkpt><trkpt lat="42.920701398351795" lon="12.047132018009377"><ele>502.0</ele><time>2026-04-07T09:05:03.999Z</time></trkpt><trkpt lat="42.92078212335538" lon="12.047407450995715"><ele>502.0</ele><time>2026-04-07T09:05:04.999Z</time></trkpt><trkpt lat="42.92087483702988" lon="12.047697598623607"><ele>500.0</ele><time>2026-04-07T09:05:05.999Z</time></trkpt><trkpt lat="42.9209554362545" lon="12.047991662699648"><ele>498.0</ele><time>2026-04-07T09:05:06.999Z</time></trkpt><trkpt lat="42.92104189412834" lon="12.048280909263125"><ele>495.0</ele><time>2026-04-07T09:05:07.999Z</time></trkpt><trkpt lat="42.92113942082835" lon="12.048546724317617"><ele>492.0</ele><time>2026-04-07T09:05:08.999Z</time></trkpt><trkpt lat="42.92123749844175" lon="12.048793673643775"><ele>489.0</ele><time>2026-04-07T09:05:09.999Z</time></trkpt><trkpt lat="42.921330073661274" lon="12.049031889051033"><ele>489.66666666666663</ele><time>2026-04-07T09:05:10.999Z</time></trkpt><trkpt lat="42.92141599640607" lon="12.049264880144483"><ele>490.3333333333333</ele><time>2026-04-07T09:05:11.999Z</time></trkpt><trkpt lat="42.92150134979068" lon="12.04948839188528"><ele>491.0</ele><time>2026-04-07T09:05:12.999Z</time></trkpt><trkpt lat="42.921585436749446" lon="12.049701022225392"><ele>491.0</ele><time>2026-04-07T09:05:13.999Z</time></trkpt><trkpt lat="42.92166304951333" lon="12.049889743182577"><ele>491.0</ele><time>2026-04-07T09:05:14.999Z</time></trkpt><trkpt lat="42.921709510044906" lon="12.050061295523594"><ele>491.0</ele><time>2026-04-07T09:05:15.999Z</time></trkpt><trkpt lat="42.92174889514615" lon="12.050201588584175"><ele>491.0</ele><time>2026-04-07T09:05:16.999Z</time></trkpt><trkpt lat="42.92178170338314" lon="12.05034415053624"><ele>492.0</ele><time>2026-04-07T09:05:17.999Z</time></trkpt><trkpt lat="42.92171486180172" lon="12.050474742218348"><ele>493.0</ele><time>2026-04-07T09:05:18.999Z</time></trkpt><trkpt lat="42.92161057424041" lon="12.050572826616209"><ele>494.0</ele><time>2026-04-07T09:05:19.999Z</time></trkpt><trkpt lat="42.92146479374688" lon="12.05062799835375"><ele>495.0</ele><time>2026-04-07T09:05:20.999Z</time></trkpt><trkpt lat="42.921348277230415" lon="12.0506824714291"><ele>495.0</ele><time>2026-04-07T09:05:21.999Z</time></trkpt><trkpt lat="42.92125160892756" lon="12.050713266102552"><ele>495.0</ele><time>2026-04-07T09:05:22.999Z</time></trkpt><trkpt lat="42.92115323273998" lon="12.050745371240351"><ele>495.0</ele><time>2026-04-07T09:05:23.999Z</time></trkpt><trkpt lat="42.92105255699343" lon="12.050767813005054"><ele>495.0</ele><time>2026-04-07T09:05:24.999Z</time></trkpt><trkpt lat="42.920949380455134" lon="12.050788809088983"><ele>495.0</ele><time>2026-04-07T09:05:25.999Z</time></trkpt><trkpt lat="42.920847361099824" lon="12.050804622965307"><ele>494.0</ele><time>2026-04-07T09:05:26.999Z</time></trkpt><trkpt lat="42.92074679923849" lon="12.050831900549637"><ele>493.0</ele><time>2026-04-07T09:05:27.999Z</time></trkpt><trkpt lat="42.92064891561106" lon="12.050883180162062"><ele>492.0</ele><time>2026-04-07T09:05:28.999Z</time></trkpt><trkpt lat="42.920556319676386" lon="12.050949989720852"><ele>491.0</ele><time>2026-04-07T09:05:29.999Z</time></trkpt><trkpt lat="42.92047182952018" lon="12.05105680384024"><ele>490.0</ele><time>2026-04-07T09:05:31Z</time></trkpt><trkpt lat="42.92038884354563" lon="12.051157491075642"><ele>490.0</ele><time>2026-04-07T09:05:32Z</time></trkpt><trkpt lat="42.92032645055702" lon="12.051274160462405"><ele>490.0</ele><time>2026-04-07T09:05:33Z</time></trkpt><trkpt lat="42.92029211849072" lon="12.051401285222532"><ele>490.0</ele><time>2026-04-07T09:05:34Z</time></trkpt><trkpt lat="42.92029303600317" lon="12.0515354810225"><ele>490.0</ele><time>2026-04-07T09:05:35Z</time></trkpt><trkpt lat="42.920336998409994" lon="12.051668197429844"><ele>490.0</ele><time>2026-04-07T09:05:36Z</time></trkpt><trkpt lat="42.92041051080956" lon="12.05179384501884"><ele>487.75</ele><time>2026-04-07T09:05:37Z</time></trkpt><trkpt lat="42.92049485729689" lon="12.051923025043013"><ele>485.5</ele><time>2026-04-07T09:05:38Z</time></trkpt><trkpt lat="42.92057284657756" lon="12.052070827013587"><ele>483.25</ele><time>2026-04-07T09:05:39Z</time></trkpt><trkpt lat="42.92064632260894" lon="12.052224501870825"><ele>481.0</ele><time>2026-04-07T09:05:40Z</time></trkpt><trkpt lat="42.920723265092384" lon="12.05238167608787"><ele>481.5</ele><time>2026-04-07T09:05:41Z</time></trkpt><trkpt lat="42.920797038576005" lon="12.052536555543364"><ele>482.0</ele><time>2026-04-07T09:05:42Z</time></trkpt><trkpt lat="42.920858580231375" lon="12.052701555649728"><ele>482.5</ele><time>2026-04-07T09:05:43Z</time></trkpt><trkpt lat="42.92092945431452" lon="12.052852654313615"><ele>483.0</ele><time>2026-04-07T09:05:44Z</time></trkpt><trkpt lat="42.92099537752057" lon="12.05299319804841"><ele>483.0</ele><time>2026-04-07T09:05:45Z</time></trkpt><trkpt lat="42.921054509622735" lon="12.053119263083804"><ele>482.99999999999994</ele><time>2026-04-07T09:05:46Z</time></trkpt><trkpt lat="42.92111014703334" lon="12.053237338216105"><ele>482.99999999999994</ele><time>2026-04-07T09:05:47Z</time></trkpt><trkpt lat="42.92116653718453" lon="12.053354002140667"><ele>483.0</ele><time>2026-04-07T09:05:48Z</time></trkpt><trkpt lat="42.92122130857916" lon="12.053467318681221"><ele>483.0</ele><time>2026-04-07T09:05:49Z</time></trkpt><trkpt lat="42.921286750054584" lon="12.05356302508736"><ele>484.1666666666667</ele><time>2026-04-07T09:05:50Z</time></trkpt><trkpt lat="42.921332580604385" lon="12.053665798495787"><ele>485.33333333333337</ele><time>2026-04-07T09:05:51Z</time></trkpt><trkpt lat="42.92137089871439" lon="12.053763541581827"><ele>486.5</ele><time>2026-04-07T09:05:52Z</time></trkpt><trkpt lat="42.921398997839994" lon="12.053847542287036"><ele>487.6666666666667</ele><time>2026-04-07T09:05:53Z</time></trkpt><trkpt lat="42.92141354411454" lon="12.053959151405792"><ele>488.83333333333337</ele><time>2026-04-07T09:05:55Z</time></trkpt><trkpt lat="42.921398112457496" lon="12.054087971015372"><ele>490.0</ele><time>2026-04-07T09:05:57Z</time></trkpt><trkpt lat="42.921411545816" lon="12.05425564593122"><ele>490.00000000000006</ele><time>2026-04-07T09:05:59Z</time></trkpt><trkpt lat="42.921438891890695" lon="12.05434821615278"><ele>490.0</ele><time>2026-04-07T09:06:00Z</time></trkpt><trkpt lat="42.92146547565394" lon="12.054446428635158"><ele>490.0</ele><time>2026-04-07T09:06:01Z</time></trkpt><trkpt lat="42.92148485864322" lon="12.054549388567926"><ele>490.0</ele><time>2026-04-07T09:06:02Z</time></trkpt><trkpt lat="42.921495004584955" lon="12.054653159928485"><ele>490.00000000000006</ele><time>2026-04-07T09:06:03Z</time></trkpt><trkpt lat="42.9215038449408" lon="12.054758492389768"><ele>490.0</ele><time>2026-04-07T09:06:04Z</time></trkpt><trkpt lat="42.92150616266397" lon="12.054872516678978"><ele>490.0</ele><time>2026-04-07T09:06:05Z</time></trkpt><trkpt lat="42.92150287499042" lon="12.0549893159735"><ele>490.0</ele><time>2026-04-07T09:06:06Z</time></trkpt><trkpt lat="42.92149884075667" lon="12.055106379663187"><ele>490.0</ele><time>2026-04-07T09:06:07Z</time></trkpt><trkpt lat="42.92149917162542" lon="12.055230347240476"><ele>490.0</ele><time>2026-04-07T09:06:08Z</time></trkpt><trkpt lat="42.9215046943127" lon="12.055363607539604"><ele>490.0</ele><time>2026-04-07T09:06:09Z</time></trkpt><trkpt lat="42.921511593244986" lon="12.055491391982269"><ele>490.0</ele><time>2026-04-07T09:06:10Z</time></trkpt><trkpt lat="42.92152914960469" lon="12.055625976531113"><ele>490.0</ele><time>2026-04-07T09:06:11Z</time></trkpt><trkpt lat="42.92155566867918" lon="12.05576385384509"><ele>490.0</ele><time>2026-04-07T09:06:12Z</time></trkpt><trkpt lat="42.9215824038469" lon="12.05590637975084"><ele>490.0</ele><time>2026-04-07T09:06:13Z</time></trkpt><trkpt lat="42.92161355391607" lon="12.056057274300843"><ele>490.0</ele><time>2026-04-07T09:06:14Z</time></trkpt><trkpt lat="42.921653281047654" lon="12.056217644959789"><ele>490.0</ele><time>2026-04-07T09:06:15Z</time></trkpt><trkpt lat="42.921701307721726" lon="12.05638545978336"><ele>490.0</ele><time>2026-04-07T09:06:16Z</time></trkpt><trkpt lat="42.92174888804487" lon="12.056562127014189"><ele>490.0</ele><time>2026-04-07T09:06:17Z</time></trkpt><trkpt lat="42.92177248687728" lon="12.056754736183589"><ele>490.0</ele><time>2026-04-07T09:06:18Z</time></trkpt><trkpt lat="42.92175102972864" lon="12.056938462547954"><ele>488.6</ele><time>2026-04-07T09:06:19Z</time></trkpt><trkpt lat="42.92169754794493" lon="12.057070932475716"><ele>487.2</ele><time>2026-04-07T09:06:20Z</time></trkpt><trkpt lat="42.921626380980214" lon="12.057162546607985"><ele>485.79999999999995</ele><time>2026-04-07T09:06:21Z</time></trkpt><trkpt lat="42.921559440016736" lon="12.057249820911975"><ele>484.4</ele><time>2026-04-07T09:06:22Z</time></trkpt><trkpt lat="42.921489531644106" lon="12.057324301579694"><ele>483.0</ele><time>2026-04-07T09:06:23Z</time></trkpt><trkpt lat="42.92141962378151" lon="12.057413429472943"><ele>483.2</ele><time>2026-04-07T09:06:24Z</time></trkpt><trkpt lat="42.92134865900668" lon="12.057502822394246"><ele>483.4</ele><time>2026-04-07T09:06:25Z</time></trkpt><trkpt lat="42.92127400793234" lon="12.057587742079113"><ele>483.59999999999997</ele><time>2026-04-07T09:06:26Z</time></trkpt><trkpt lat="42.921205710765335" lon="12.057686929665367"><ele>483.79999999999995</ele><time>2026-04-07T09:06:27Z</time></trkpt><trkpt lat="42.921144640037234" lon="12.057809209544478"><ele>484.0</ele><time>2026-04-07T09:06:28Z</time></trkpt><trkpt lat="42.92109064446771" lon="12.057937597811584"><ele>484.0</ele><time>2026-04-07T09:06:29Z</time></trkpt><trkpt lat="42.9210476252032" lon="12.05807584409837"><ele>484.0</ele><time>2026-04-07T09:06:30Z</time></trkpt><trkpt lat="42.9210033591587" lon="12.058241816075682"><ele>484.0</ele><time>2026-04-07T09:06:31Z</time></trkpt><trkpt lat="42.92097036645419" lon="12.058426105736595"><ele>484.0</ele><time>2026-04-07T09:06:32Z</time></trkpt><trkpt lat="42.92094335647046" lon="12.058622456782034"><ele>483.33333333333337</ele><time>2026-04-07T09:06:33Z</time></trkpt><trkpt lat="42.92094653005178" lon="12.05884756383794"><ele>482.66666666666663</ele><time>2026-04-07T09:06:34Z</time></trkpt><trkpt lat="42.92096855958187" lon="12.059062092297172"><ele>482.0</ele><time>2026-04-07T09:06:35Z</time></trkpt><trkpt lat="42.92099168334596" lon="12.05926954350934"><ele>479.75</ele><time>2026-04-07T09:06:36Z</time></trkpt><trkpt lat="42.92101290168381" lon="12.059486770721936"><ele>477.5</ele><time>2026-04-07T09:06:37Z</time></trkpt><trkpt lat="42.92103655911369" lon="12.059661860185809"><ele>475.25</ele><time>2026-04-07T09:06:38Z</time></trkpt><trkpt lat="42.921027317699426" lon="12.05987697290297"><ele>473.0</ele><time>2026-04-07T09:06:39Z</time></trkpt><trkpt lat="42.92099045743987" lon="12.06007611506923"><ele>471.3333333333333</ele><time>2026-04-07T09:06:40Z</time></trkpt><trkpt lat="42.9209154769428" lon="12.060259793604756"><ele>469.66666666666663</ele><time>2026-04-07T09:06:41Z</time></trkpt><trkpt lat="42.92080789932878" lon="12.060434553544571"><ele>468.0</ele><time>2026-04-07T09:06:42Z</time></trkpt><trkpt lat="42.92067261862557" lon="12.0605969292586"><ele>468.0</ele><time>2026-04-07T09:06:43Z</time></trkpt><trkpt lat="42.92051644970312" lon="12.060729337123918"><ele>468.0</ele><time>2026-04-07T09:06:44Z</time></trkpt><trkpt lat="42.92034594464542" lon="12.060820376347028"><ele>468.0</ele><time>2026-04-07T09:06:45Z</time></trkpt><trkpt lat="42.92016944863891" lon="12.060885896075572"><ele>468.33333333333337</ele><time>2026-04-07T09:06:46Z</time></trkpt><trkpt lat="42.91999758159878" lon="12.06093832073115"><ele>468.6666666666667</ele><time>2026-04-07T09:06:47Z</time></trkpt><trkpt lat="42.91983094655075" lon="12.060995040257238"><ele>469.0</ele><time>2026-04-07T09:06:48Z</time></trkpt><trkpt lat="42.919660324812284" lon="12.061006987276894"><ele>469.0</ele><time>2026-04-07T09:06:49Z</time></trkpt><trkpt lat="42.919495935930534" lon="12.061020728431258"><ele>469.0</ele><time>2026-04-07T09:06:50Z</time></trkpt><trkpt lat="42.91933565406624" lon="12.061035282366921"><ele>469.0</ele><time>2026-04-07T09:06:51Z</time></trkpt><trkpt lat="42.91918446783617" lon="12.061044665705937"><ele>467.33333333333337</ele><time>2026-04-07T09:06:52Z</time></trkpt><trkpt lat="42.919033635428505" lon="12.061064573983963"><ele>465.66666666666663</ele><time>2026-04-07T09:06:53Z</time></trkpt><trkpt lat="42.91888832458028" lon="12.06112480962047"><ele>464.0</ele><time>2026-04-07T09:06:54Z</time></trkpt><trkpt lat="42.91874879017882" lon="12.061218454671765"><ele>464.0</ele><time>2026-04-07T09:06:55Z</time></trkpt><trkpt lat="42.91847769684744" lon="12.061417182759609"><ele>464.0</ele><time>2026-04-07T09:06:57Z</time></trkpt><trkpt lat="42.91835280269483" lon="12.061525903151697"><ele>464.0</ele><time>2026-04-07T09:06:58Z</time></trkpt><trkpt lat="42.91822613838472" lon="12.061592194719262"><ele>464.0</ele><time>2026-04-07T09:06:59Z</time></trkpt><trkpt lat="42.918179349632396" lon="12.061853918403155"><ele>464.0</ele><time>2026-04-07T09:07:00Z</time></trkpt><trkpt lat="42.91811702120694" lon="12.062043758342602"><ele>464.0</ele><time>2026-04-07T09:07:01Z</time></trkpt><trkpt lat="42.91798378074427" lon="12.062158162514407"><ele>464.0</ele><time>2026-04-07T09:07:02Z</time></trkpt><trkpt lat="42.91784241482523" lon="12.062252439554157"><ele>464.0</ele><time>2026-04-07T09:07:03Z</time></trkpt><trkpt lat="42.917719027466106" lon="12.062353821906676"><ele>461.66666666666663</ele><time>2026-04-07T09:07:04Z</time></trkpt><trkpt lat="42.91762843388225" lon="12.062506730205486"><ele>459.33333333333337</ele><time>2026-04-07T09:07:05Z</time></trkpt><trkpt lat="42.917606958604416" lon="12.062712883983274"><ele>457.0</ele><time>2026-04-07T09:07:06Z</time></trkpt><trkpt lat="42.917637084387884" lon="12.06295010334494"><ele>457.0</ele><time>2026-04-07T09:07:07Z</time></trkpt><trkpt lat="42.91774194351948" lon="12.063185887453349"><ele>457.0</ele><time>2026-04-07T09:07:08Z</time></trkpt><trkpt lat="42.917789437038856" lon="12.063350742812622"><ele>457.0</ele><time>2026-04-07T09:07:09Z</time></trkpt><trkpt lat="42.91776994505459" lon="12.063492355695736"><ele>457.0</ele><time>2026-04-07T09:07:10Z</time></trkpt><trkpt lat="42.91768477155032" lon="12.063608108593343"><ele>459.6666666666667</ele><time>2026-04-07T09:07:11Z</time></trkpt><trkpt lat="42.917533469118496" lon="12.063637411319789"><ele>462.33333333333337</ele><time>2026-04-07T09:07:12Z</time></trkpt><trkpt lat="42.91736914529133" lon="12.063666037380173"><ele>465.0</ele><time>2026-04-07T09:07:13Z</time></trkpt><trkpt lat="42.91721117556166" lon="12.063698145009942"><ele>465.0</ele><time>2026-04-07T09:07:14Z</time></trkpt><trkpt lat="42.91705339216948" lon="12.06371807914995"><ele>465.0</ele><time>2026-04-07T09:07:15Z</time></trkpt><trkpt lat="42.916897773320905" lon="12.063768909409252"><ele>465.0</ele><time>2026-04-07T09:07:16Z</time></trkpt><trkpt lat="42.9167418722803" lon="12.063858791467709"><ele>466.33333333333337</ele><time>2026-04-07T09:07:17Z</time></trkpt><trkpt lat="42.91659411662832" lon="12.063961149252515"><ele>467.6666666666667</ele><time>2026-04-07T09:07:18Z</time></trkpt><trkpt lat="42.91644182502444" lon="12.064054225995385"><ele>469.0</ele><time>2026-04-07T09:07:18.999Z</time></trkpt><trkpt lat="42.916289845717564" lon="12.064139926737035"><ele>465.6666666666667</ele><time>2026-04-07T09:07:19.999Z</time></trkpt><trkpt lat="42.91614155880289" lon="12.064224363538296"><ele>462.33333333333337</ele><time>2026-04-07T09:07:20.999Z</time></trkpt><trkpt lat="42.91599673871661" lon="12.064321038558674"><ele>459.0</ele><time>2026-04-07T09:07:21.999Z</time></trkpt><trkpt lat="42.91585392945427" lon="12.064424702874302"><ele>459.0</ele><time>2026-04-07T09:07:22.999Z</time></trkpt><trkpt lat="42.91571830557935" lon="12.064537297592592"><ele>459.0</ele><time>2026-04-07T09:07:23.999Z</time></trkpt><trkpt lat="42.915595332168415" lon="12.064659086114997"><ele>459.0</ele><time>2026-04-07T09:07:24.999Z</time></trkpt><trkpt lat="42.91547974049229" lon="12.06477306003853"><ele>459.0</ele><time>2026-04-07T09:07:25.999Z</time></trkpt><trkpt lat="42.91536039681363" lon="12.064868007551167"><ele>459.0</ele><time>2026-04-07T09:07:26.999Z</time></trkpt><trkpt lat="42.915235164593916" lon="12.06492973569925"><ele>459.0</ele><time>2026-04-07T09:07:27.999Z</time></trkpt><trkpt lat="42.91510500882933" lon="12.064963177804824"><ele>459.0</ele><time>2026-04-07T09:07:28.999Z</time></trkpt><trkpt lat="42.91496525116585" lon="12.064968593007757"><ele>457.5</ele><time>2026-04-07T09:07:29.999Z</time></trkpt><trkpt lat="42.91482081604201" lon="12.064941324676647"><ele>456.0</ele><time>2026-04-07T09:07:30.999Z</time></trkpt><trkpt lat="42.91467537672568" lon="12.064888413468763"><ele>454.5</ele><time>2026-04-07T09:07:31.999Z</time></trkpt><trkpt lat="42.914539238702" lon="12.064807064954403"><ele>453.0</ele><time>2026-04-07T09:07:32.999Z</time></trkpt><trkpt lat="42.91442658446443" lon="12.064678497205795"><ele>453.0</ele><time>2026-04-07T09:07:33.999Z</time></trkpt><trkpt lat="42.91437201763785" lon="12.064487339429059"><ele>453.0</ele><time>2026-04-07T09:07:34.999Z</time></trkpt><trkpt lat="42.914356021661646" lon="12.064292681381714"><ele>453.0</ele><time>2026-04-07T09:07:35.999Z</time></trkpt><trkpt lat="42.914361612156604" lon="12.064089645949004"><ele>453.0</ele><time>2026-04-07T09:07:37Z</time></trkpt><trkpt lat="42.91435607749003" lon="12.06388356107492"><ele>450.33333333333337</ele><time>2026-04-07T09:07:38Z</time></trkpt><trkpt lat="42.91433904002901" lon="12.06368075459696"><ele>447.6666666666667</ele><time>2026-04-07T09:07:39Z</time></trkpt><trkpt lat="42.91428717493221" lon="12.063481041253546"><ele>445.0</ele><time>2026-04-07T09:07:40Z</time></trkpt><trkpt lat="42.91422833470653" lon="12.063284311200368"><ele>441.75</ele><time>2026-04-07T09:07:41Z</time></trkpt><trkpt lat="42.91417809434101" lon="12.063093777829403"><ele>438.5</ele><time>2026-04-07T09:07:42Z</time></trkpt><trkpt lat="42.91412717184973" lon="12.062916313611797"><ele>435.25</ele><time>2026-04-07T09:07:43Z</time></trkpt><trkpt lat="42.914051540143355" lon="12.062769396716043"><ele>432.0</ele><time>2026-04-07T09:07:44Z</time></trkpt><trkpt lat="42.91394067940298" lon="12.06267720459752"><ele>432.0</ele><time>2026-04-07T09:07:45Z</time></trkpt><trkpt lat="42.91380147933038" lon="12.062673237103384"><ele>432.0</ele><time>2026-04-07T09:07:46Z</time></trkpt><trkpt lat="42.91366551327794" lon="12.062755087085513"><ele>432.0</ele><time>2026-04-07T09:07:47Z</time></trkpt><trkpt lat="42.91354086588589" lon="12.062896894230557"><ele>432.0</ele><time>2026-04-07T09:07:48Z</time></trkpt><trkpt lat="42.913435196411044" lon="12.063065248647252"><ele>432.0</ele><time>2026-04-07T09:07:49Z</time></trkpt><trkpt lat="42.913354114035144" lon="12.063257498183017"><ele>432.0</ele><time>2026-04-07T09:07:50Z</time></trkpt><trkpt lat="42.91329411669496" lon="12.063476202149875"><ele>431.33333333333337</ele><time>2026-04-07T09:07:51Z</time></trkpt><trkpt lat="42.9132233451414" lon="12.063688037315067"><ele>430.6666666666667</ele><time>2026-04-07T09:07:52Z</time></trkpt><trkpt lat="42.91310425723284" lon="12.063857655025084"><ele>430.0</ele><time>2026-04-07T09:07:53Z</time></trkpt><trkpt lat="42.912976722665995" lon="12.064031749402398"><ele>427.33333333333337</ele><time>2026-04-07T09:07:54Z</time></trkpt><trkpt lat="42.91284227337107" lon="12.064166290865925"><ele>424.66666666666663</ele><time>2026-04-07T09:07:55Z</time></trkpt><trkpt lat="42.912724993364776" lon="12.064329889281638"><ele>422.0</ele><time>2026-04-07T09:07:56Z</time></trkpt><trkpt lat="42.9125818984987" lon="12.064508202347529"><ele>423.0</ele><time>2026-04-07T09:07:57Z</time></trkpt><trkpt lat="42.91245303942376" lon="12.064672921245396"><ele>424.0</ele><time>2026-04-07T09:07:58Z</time></trkpt><trkpt lat="42.91231537452471" lon="12.064824369120993"><ele>425.0</ele><time>2026-04-07T09:07:59Z</time></trkpt><trkpt lat="42.91215685422014" lon="12.064947875896284"><ele>421.66666666666663</ele><time>2026-04-07T09:08:00Z</time></trkpt><trkpt lat="42.91198231071541" lon="12.065044704409962"><ele>418.33333333333337</ele><time>2026-04-07T09:08:01Z</time></trkpt><trkpt lat="42.91180167676956" lon="12.06512118531676"><ele>415.0</ele><time>2026-04-07T09:08:02Z</time></trkpt><trkpt lat="42.911620789538105" lon="12.065201547946499"><ele>414.6666666666667</ele><time>2026-04-07T09:08:03Z</time></trkpt><trkpt lat="42.91142964955413" lon="12.065211446898914"><ele>414.33333333333337</ele><time>2026-04-07T09:08:04Z</time></trkpt><trkpt lat="42.91124583405832" lon="12.065198886214292"><ele>414.0</ele><time>2026-04-07T09:08:05Z</time></trkpt><trkpt lat="42.911060523185355" lon="12.065186075970406"><ele>414.66666666666663</ele><time>2026-04-07T09:08:06Z</time></trkpt><trkpt lat="42.91088726253782" lon="12.065151506585588"><ele>415.3333333333333</ele><time>2026-04-07T09:08:07Z</time></trkpt><trkpt lat="42.91071096400056" lon="12.06513311369217"><ele>416.0</ele><time>2026-04-07T09:08:08Z</time></trkpt><trkpt lat="42.91053757065801" lon="12.065114569983157"><ele>416.0</ele><time>2026-04-07T09:08:09Z</time></trkpt><trkpt lat="42.910360595385136" lon="12.065096195457738"><ele>416.0</ele><time>2026-04-07T09:08:10Z</time></trkpt><trkpt lat="42.9101838459786" lon="12.065084420795484"><ele>416.0</ele><time>2026-04-07T09:08:11Z</time></trkpt><trkpt lat="42.91000571293114" lon="12.065074519242906"><ele>416.66666666666663</ele><time>2026-04-07T09:08:12Z</time></trkpt><trkpt lat="42.90983347992884" lon="12.065064337584941"><ele>417.33333333333337</ele><time>2026-04-07T09:08:13Z</time></trkpt><trkpt lat="42.90966802978286" lon="12.065052962992027"><ele>418.0</ele><time>2026-04-07T09:08:14Z</time></trkpt><trkpt lat="42.90950582455053" lon="12.065042217626843"><ele>418.0</ele><time>2026-04-07T09:08:15Z</time></trkpt><trkpt lat="42.90935195426156" lon="12.065012887889448"><ele>418.0</ele><time>2026-04-07T09:08:16Z</time></trkpt><trkpt lat="42.90921466548446" lon="12.06492893591117"><ele>418.0</ele><time>2026-04-07T09:08:17Z</time></trkpt><trkpt lat="42.90907121913378" lon="12.064788593387823"><ele>419.6666666666667</ele><time>2026-04-07T09:08:18Z</time></trkpt><trkpt lat="42.908919541088984" lon="12.064655765796914"><ele>421.33333333333337</ele><time>2026-04-07T09:08:19Z</time></trkpt><trkpt lat="42.90877705099931" lon="12.064488906241502"><ele>423.0</ele><time>2026-04-07T09:08:20Z</time></trkpt><trkpt lat="42.908634242803906" lon="12.064319923538816"><ele>423.0</ele><time>2026-04-07T09:08:21Z</time></trkpt><trkpt lat="42.90849382895196" lon="12.064141677685807"><ele>423.0</ele><time>2026-04-07T09:08:22Z</time></trkpt><trkpt lat="42.90835670679557" lon="12.06394538082813"><ele>423.0</ele><time>2026-04-07T09:08:23Z</time></trkpt><trkpt lat="42.908219576992884" lon="12.063736411866397"><ele>421.0</ele><time>2026-04-07T09:08:24Z</time></trkpt><trkpt lat="42.90805831863592" lon="12.063547191334795"><ele>419.0</ele><time>2026-04-07T09:08:25Z</time></trkpt><trkpt lat="42.90786522839946" lon="12.063402479362287"><ele>417.0</ele><time>2026-04-07T09:08:26Z</time></trkpt><trkpt lat="42.90767317887775" lon="12.063277636562487"><ele>414.33333333333337</ele><time>2026-04-07T09:08:27Z</time></trkpt><trkpt lat="42.90750105163884" lon="12.063146562249235"><ele>411.6666666666667</ele><time>2026-04-07T09:08:28Z</time></trkpt><trkpt lat="42.90735961481311" lon="12.062982449172365"><ele>409.0</ele><time>2026-04-07T09:08:29Z</time></trkpt><trkpt lat="42.90728279414677" lon="12.062762403230945"><ele>409.0</ele><time>2026-04-07T09:08:30Z</time></trkpt><trkpt lat="42.90718612095414" lon="12.062587652376845"><ele>409.0</ele><time>2026-04-07T09:08:31Z</time></trkpt><trkpt lat="42.907055141477834" lon="12.062446038933524"><ele>409.0</ele><time>2026-04-07T09:08:32Z</time></trkpt><trkpt lat="42.906872998663886" lon="12.062356757823727"><ele>409.0</ele><time>2026-04-07T09:08:33Z</time></trkpt><trkpt lat="42.906690599747975" lon="12.062310170789724"><ele>409.0</ele><time>2026-04-07T09:08:34Z</time></trkpt><trkpt lat="42.90653562816885" lon="12.06226883516092"><ele>409.0</ele><time>2026-04-07T09:08:35Z</time></trkpt><trkpt lat="42.90640752887731" lon="12.062208571359474"><ele>409.0</ele><time>2026-04-07T09:08:36Z</time></trkpt><trkpt lat="42.90631000791543" lon="12.062098507027267"><ele>409.0</ele><time>2026-04-07T09:08:37Z</time></trkpt><trkpt lat="42.90626186979299" lon="12.061926684000799"><ele>409.0</ele><time>2026-04-07T09:08:38Z</time></trkpt><trkpt lat="42.90630211759195" lon="12.06173177608291"><ele>409.0</ele><time>2026-04-07T09:08:39Z</time></trkpt><trkpt lat="42.90636157976197" lon="12.061562964654543"><ele>411.33333333333337</ele><time>2026-04-07T09:08:40Z</time></trkpt><trkpt lat="42.90651714404267" lon="12.061453647722281"><ele>413.66666666666663</ele><time>2026-04-07T09:08:41Z</time></trkpt><trkpt lat="42.90664245224168" lon="12.061262658547012"><ele>416.0</ele><time>2026-04-07T09:08:42Z</time></trkpt><trkpt lat="42.906749962762504" lon="12.061039547936627"><ele>413.3333333333333</ele><time>2026-04-07T09:08:43Z</time></trkpt><trkpt lat="42.90680339798883" lon="12.060790590263778"><ele>410.66666666666663</ele><time>2026-04-07T09:08:44Z</time></trkpt><trkpt lat="42.90680783151815" lon="12.060533048105265"><ele>408.0</ele><time>2026-04-07T09:08:45Z</time></trkpt><trkpt lat="42.906767991795355" lon="12.060302271899008"><ele>409.0</ele><time>2026-04-07T09:08:46Z</time></trkpt><trkpt lat="42.90671527668967" lon="12.060109243297008"><ele>410.0</ele><time>2026-04-07T09:08:47Z</time></trkpt><trkpt lat="42.906666042786206" lon="12.05993596502661"><ele>411.0</ele><time>2026-04-07T09:08:48Z</time></trkpt><trkpt lat="42.9066201881277" lon="12.059774654933776"><ele>412.0</ele><time>2026-04-07T09:08:49Z</time></trkpt><trkpt lat="42.90658025337506" lon="12.059623144796271"><ele>412.0</ele><time>2026-04-07T09:08:50Z</time></trkpt><trkpt lat="42.90653807240348" lon="12.059475569757598"><ele>412.0</ele><time>2026-04-07T09:08:51Z</time></trkpt><trkpt lat="42.90649482991884" lon="12.05933486387584"><ele>412.0</ele><time>2026-04-07T09:08:52Z</time></trkpt><trkpt lat="42.906446753885234" lon="12.059196138247447"><ele>412.0</ele><time>2026-04-07T09:08:53Z</time></trkpt><trkpt lat="42.906398409390015" lon="12.059055930009784"><ele>407.5</ele><time>2026-04-07T09:08:54Z</time></trkpt><trkpt lat="42.90634414810908" lon="12.05891681255142"><ele>403.0</ele><time>2026-04-07T09:08:55Z</time></trkpt><trkpt lat="42.90628354279157" lon="12.05878629739316"><ele>398.5</ele><time>2026-04-07T09:08:56Z</time></trkpt><trkpt lat="42.906208296753434" lon="12.058665335956594"><ele>394.0</ele><time>2026-04-07T09:08:57Z</time></trkpt><trkpt lat="42.90612063069611" lon="12.058557120374996"><ele>394.0</ele><time>2026-04-07T09:08:58Z</time></trkpt><trkpt lat="42.90601650854897" lon="12.058463047285127"><ele>394.0</ele><time>2026-04-07T09:08:59Z</time></trkpt><trkpt lat="42.90590090508104" lon="12.058383312884114"><ele>394.0</ele><time>2026-04-07T09:09:00Z</time></trkpt><trkpt lat="42.90578458063734" lon="12.058304225092979"><ele>394.0</ele><time>2026-04-07T09:09:01Z</time></trkpt><trkpt lat="42.9056798220002" lon="12.05820540687907"><ele>395.5</ele><time>2026-04-07T09:09:02Z</time></trkpt><trkpt lat="42.90558705054099" lon="12.058084571078814"><ele>397.0</ele><time>2026-04-07T09:09:03Z</time></trkpt><trkpt lat="42.90552096910172" lon="12.057931148794216"><ele>398.5</ele><time>2026-04-07T09:09:04Z</time></trkpt><trkpt lat="42.905447054543785" lon="12.057782667773122"><ele>400.0</ele><time>2026-04-07T09:09:05Z</time></trkpt><trkpt lat="42.90540931722526" lon="12.057603495169138"><ele>396.5</ele><time>2026-04-07T09:09:06Z</time></trkpt><trkpt lat="42.905385075701446" lon="12.05741425483003"><ele>393.0</ele><time>2026-04-07T09:09:07Z</time></trkpt><trkpt lat="42.905361380111984" lon="12.057217448432462"><ele>389.5</ele><time>2026-04-07T09:09:08Z</time></trkpt><trkpt lat="42.90531177258137" lon="12.057024069877802"><ele>386.0</ele><time>2026-04-07T09:09:09Z</time></trkpt><trkpt lat="42.90523489606843" lon="12.056834542845985"><ele>386.0</ele><time>2026-04-07T09:09:10Z</time></trkpt><trkpt lat="42.90515029968813" lon="12.056645514485714"><ele>386.0</ele><time>2026-04-07T09:09:11Z</time></trkpt><trkpt lat="42.90505930851761" lon="12.05646027592141"><ele>386.0</ele><time>2026-04-07T09:09:12Z</time></trkpt><trkpt lat="42.90497139661935" lon="12.056283701242114"><ele>385.25</ele><time>2026-04-07T09:09:13Z</time></trkpt><trkpt lat="42.90490812810358" lon="12.056101158341775"><ele>384.5</ele><time>2026-04-07T09:09:14Z</time></trkpt><trkpt lat="42.90484645999951" lon="12.055926224741112"><ele>383.75</ele><time>2026-04-07T09:09:15Z</time></trkpt><trkpt lat="42.904836472577834" lon="12.055732989134682"><ele>383.0</ele><time>2026-04-07T09:09:16Z</time></trkpt><trkpt lat="42.90488676796513" lon="12.055536067701263"><ele>383.0</ele><time>2026-04-07T09:09:17Z</time></trkpt><trkpt lat="42.90494627196499" lon="12.055314875881123"><ele>383.0</ele><time>2026-04-07T09:09:18Z</time></trkpt><trkpt lat="42.90500134446031" lon="12.055097069910582"><ele>383.0</ele><time>2026-04-07T09:09:19Z</time></trkpt><trkpt lat="42.90499846504994" lon="12.05485523162644"><ele>383.0</ele><time>2026-04-07T09:09:20Z</time></trkpt><trkpt lat="42.904959123927476" lon="12.05460671427486"><ele>383.0</ele><time>2026-04-07T09:09:21Z</time></trkpt><trkpt lat="42.90491307750275" lon="12.05436866511286"><ele>383.0</ele><time>2026-04-07T09:09:22Z</time></trkpt><trkpt lat="42.90487208293971" lon="12.054146111713214"><ele>382.0</ele><time>2026-04-07T09:09:23Z</time></trkpt><trkpt lat="42.90482187600633" lon="12.053933527543622"><ele>381.0</ele><time>2026-04-07T09:09:24Z</time></trkpt><trkpt lat="42.904726018947514" lon="12.053740082426568"><ele>380.0</ele><time>2026-04-07T09:09:25Z</time></trkpt><trkpt lat="42.90458703049077" lon="12.053570327879399"><ele>380.0</ele><time>2026-04-07T09:09:26Z</time></trkpt><trkpt lat="42.90442489771289" lon="12.05341421215787"><ele>380.0</ele><time>2026-04-07T09:09:27Z</time></trkpt><trkpt lat="42.90423831767807" lon="12.05328273584503"><ele>380.0</ele><time>2026-04-07T09:09:28Z</time></trkpt><trkpt lat="42.90405920347516" lon="12.053141870974114"><ele>377.0</ele><time>2026-04-07T09:09:29Z</time></trkpt><trkpt lat="42.90389793831662" lon="12.05297018765626"><ele>374.0</ele><time>2026-04-07T09:09:30Z</time></trkpt><trkpt lat="42.90373900411721" lon="12.052793790420557"><ele>371.0</ele><time>2026-04-07T09:09:31Z</time></trkpt><trkpt lat="42.90358047906155" lon="12.052622841417955"><ele>371.0</ele><time>2026-04-07T09:09:32Z</time></trkpt><trkpt lat="42.90341854921047" lon="12.052463976475092"><ele>371.0</ele><time>2026-04-07T09:09:33Z</time></trkpt><trkpt lat="42.90327898970848" lon="12.052271420217211"><ele>371.0</ele><time>2026-04-07T09:09:34Z</time></trkpt><trkpt lat="42.90314896829839" lon="12.052071190903924"><ele>371.33333333333337</ele><time>2026-04-07T09:09:34.999Z</time></trkpt><trkpt lat="42.90299637143429" lon="12.051902490626109"><ele>371.6666666666667</ele><time>2026-04-07T09:09:35.999Z</time></trkpt><trkpt lat="42.90281378673388" lon="12.051776187658632"><ele>372.0</ele><time>2026-04-07T09:09:36.999Z</time></trkpt><trkpt lat="42.90263340218072" lon="12.051651912642773"><ele>369.0</ele><time>2026-04-07T09:09:37.999Z</time></trkpt><trkpt lat="42.902449384063154" lon="12.051551164829927"><ele>366.0</ele><time>2026-04-07T09:09:38.999Z</time></trkpt><trkpt lat="42.90227554229123" lon="12.051465638548018"><ele>363.0</ele><time>2026-04-07T09:09:39.999Z</time></trkpt><trkpt lat="42.90210545391528" lon="12.051398663098313"><ele>363.0</ele><time>2026-04-07T09:09:40.999Z</time></trkpt><trkpt lat="42.90195195879594" lon="12.051305437040574"><ele>363.0</ele><time>2026-04-07T09:09:42Z</time></trkpt><trkpt lat="42.90180377634322" lon="12.051189889106084"><ele>363.0</ele><time>2026-04-07T09:09:43Z</time></trkpt><trkpt lat="42.9016539078092" lon="12.051045133827369"><ele>363.6666666666667</ele><time>2026-04-07T09:09:44Z</time></trkpt><trkpt lat="42.901504708905314" lon="12.050881231691784"><ele>364.33333333333337</ele><time>2026-04-07T09:09:45Z</time></trkpt><trkpt lat="42.901360285809744" lon="12.050699404324313"><ele>365.0</ele><time>2026-04-07T09:09:46Z</time></trkpt><trkpt lat="42.901245425466236" lon="12.050474809682838"><ele>361.6666666666667</ele><time>2026-04-07T09:09:47Z</time></trkpt><trkpt lat="42.90113338742833" lon="12.050249408146168"><ele>358.3333333333333</ele><time>2026-04-07T09:09:48Z</time></trkpt><trkpt lat="42.90106641522587" lon="12.049995808911081"><ele>355.0</ele><time>2026-04-07T09:09:49Z</time></trkpt><trkpt lat="42.901027452155255" lon="12.049734984601212"><ele>354.3333333333333</ele><time>2026-04-07T09:09:50Z</time></trkpt><trkpt lat="42.90101976600216" lon="12.049480584759735"><ele>353.6666666666667</ele><time>2026-04-07T09:09:51Z</time></trkpt><trkpt lat="42.90103819082367" lon="12.049214987287503"><ele>353.0</ele><time>2026-04-07T09:09:52Z</time></trkpt><trkpt lat="42.901073267912395" lon="12.048944733736727"><ele>353.0</ele><time>2026-04-07T09:09:53Z</time></trkpt><trkpt lat="42.9011160109232" lon="12.048678450679878"><ele>353.0</ele><time>2026-04-07T09:09:54Z</time></trkpt><trkpt lat="42.90118322292355" lon="12.048413980243582"><ele>353.0</ele><time>2026-04-07T09:09:55Z</time></trkpt><trkpt lat="42.90127895612946" lon="12.048171822357578"><ele>352.33333333333337</ele><time>2026-04-07T09:09:56Z</time></trkpt><trkpt lat="42.901366071417286" lon="12.04795826985685"><ele>351.6666666666667</ele><time>2026-04-07T09:09:57Z</time></trkpt><trkpt lat="42.90143649460523" lon="12.047753625863727"><ele>351.0</ele><time>2026-04-07T09:09:58Z</time></trkpt><trkpt lat="42.90145046193347" lon="12.047553787897451"><ele>347.3333333333333</ele><time>2026-04-07T09:09:59Z</time></trkpt><trkpt lat="42.90140767641161" lon="12.04733799228765"><ele>343.66666666666663</ele><time>2026-04-07T09:10:00Z</time></trkpt><trkpt lat="42.901311278396484" lon="12.04712310298373"><ele>340.0</ele><time>2026-04-07T09:10:01Z</time></trkpt><trkpt lat="42.901190045811035" lon="12.0468817725023"><ele>340.0</ele><time>2026-04-07T09:10:02Z</time></trkpt><trkpt lat="42.90107361407179" lon="12.046646428906607"><ele>340.0</ele><time>2026-04-07T09:10:03Z</time></trkpt><trkpt lat="42.900967143684724" lon="12.04641078769958"><ele>340.0</ele><time>2026-04-07T09:10:04Z</time></trkpt><trkpt lat="42.900879006290985" lon="12.046160410332492"><ele>341.3333333333333</ele><time>2026-04-07T09:10:05Z</time></trkpt><trkpt lat="42.90081214517628" lon="12.045896301556123"><ele>342.6666666666667</ele><time>2026-04-07T09:10:06Z</time></trkpt><trkpt lat="42.90071974472287" lon="12.04564760485366"><ele>344.0</ele><time>2026-04-07T09:10:07Z</time></trkpt><trkpt lat="42.90060132097972" lon="12.045416135254479"><ele>340.33333333333337</ele><time>2026-04-07T09:10:08Z</time></trkpt><trkpt lat="42.900496680879094" lon="12.045186867620604"><ele>336.6666666666667</ele><time>2026-04-07T09:10:09Z</time></trkpt><trkpt lat="42.90041392577883" lon="12.044960472088892"><ele>333.0</ele><time>2026-04-07T09:10:10Z</time></trkpt><trkpt lat="42.900345213028245" lon="12.04475160872974"><ele>334.75</ele><time>2026-04-07T09:10:11Z</time></trkpt><trkpt lat="42.90027684746023" lon="12.04456046736567"><ele>336.5</ele><time>2026-04-07T09:10:12Z</time></trkpt><trkpt lat="42.900202311428494" lon="12.044417302688974"><ele>338.25</ele><time>2026-04-07T09:10:13Z</time></trkpt><trkpt lat="42.900129846788644" lon="12.044322600237495"><ele>340.0</ele><time>2026-04-07T09:10:14Z</time></trkpt><trkpt lat="42.90003803313021" lon="12.044234848115646"><ele>340.0</ele><time>2026-04-07T09:10:15Z</time></trkpt><trkpt lat="42.89993810831104" lon="12.044156846895719"><ele>340.0</ele><time>2026-04-07T09:10:16Z</time></trkpt><trkpt lat="42.899847406347746" lon="12.044080902442523"><ele>340.0</ele><time>2026-04-07T09:10:17Z</time></trkpt><trkpt lat="42.89976247949436" lon="12.044014834260006"><ele>340.0</ele><time>2026-04-07T09:10:18Z</time></trkpt><trkpt lat="42.8996767541597" lon="12.043933855142024"><ele>340.0</ele><time>2026-04-07T09:10:19Z</time></trkpt><trkpt lat="42.89957621044427" lon="12.043870173414065"><ele>339.25</ele><time>2026-04-07T09:10:20Z</time></trkpt><trkpt lat="42.89948110666965" lon="12.043777225952853"><ele>338.5</ele><time>2026-04-07T09:10:21Z</time></trkpt><trkpt lat="42.89938572619511" lon="12.043679968371428"><ele>337.75</ele><time>2026-04-07T09:10:22Z</time></trkpt><trkpt lat="42.89928645426784" lon="12.043590179758889"><ele>337.0</ele><time>2026-04-07T09:10:23Z</time></trkpt><trkpt lat="42.89918275214258" lon="12.043513212734243"><ele>337.0</ele><time>2026-04-07T09:10:24Z</time></trkpt><trkpt lat="42.89908295541812" lon="12.043448926421807"><ele>337.0</ele><time>2026-04-07T09:10:25Z</time></trkpt><trkpt lat="42.89899025290036" lon="12.043382044069698"><ele>337.0</ele><time>2026-04-07T09:10:26Z</time></trkpt><trkpt lat="42.898911372466465" lon="12.043294092692063"><ele>337.0</ele><time>2026-04-07T09:10:27Z</time></trkpt><trkpt lat="42.89885918252291" lon="12.043165157241429"><ele>337.0</ele><time>2026-04-07T09:10:28Z</time></trkpt><trkpt lat="42.89882109195155" lon="12.043017513988525"><ele>334.8</ele><time>2026-04-07T09:10:29Z</time></trkpt><trkpt lat="42.89878432006079" lon="12.042868062217329"><ele>332.6</ele><time>2026-04-07T09:10:30Z</time></trkpt><trkpt lat="42.89875320465978" lon="12.042728337733957"><ele>330.40000000000003</ele><time>2026-04-07T09:10:31Z</time></trkpt><trkpt lat="42.89873509110458" lon="12.042597651742325"><ele>328.20000000000005</ele><time>2026-04-07T09:10:32Z</time></trkpt><trkpt lat="42.8987402550654" lon="12.042483426929081"><ele>326.0</ele><time>2026-04-07T09:10:33Z</time></trkpt><trkpt lat="42.89878296135875" lon="12.042390257258095"><ele>326.0</ele><time>2026-04-07T09:10:34Z</time></trkpt><trkpt lat="42.89885811087736" lon="12.042348590095436"><ele>326.0</ele><time>2026-04-07T09:10:35Z</time></trkpt><trkpt lat="42.89893491819311" lon="12.042371055255565"><ele>326.0</ele><time>2026-04-07T09:10:36Z</time></trkpt><trkpt lat="42.899002651784194" lon="12.042434815606478"><ele>326.0</ele><time>2026-04-07T09:10:37Z</time></trkpt><trkpt lat="42.899062273445026" lon="12.042520153802736"><ele>326.0</ele><time>2026-04-07T09:10:38Z</time></trkpt><trkpt lat="42.89912020358871" lon="12.042607624059832"><ele>326.0</ele><time>2026-04-07T09:10:39Z</time></trkpt><trkpt lat="42.899179356453544" lon="12.042697434782221"><ele>326.0</ele><time>2026-04-07T09:10:40Z</time></trkpt><trkpt lat="42.89923453986405" lon="12.042783737901482"><ele>326.0</ele><time>2026-04-07T09:10:41Z</time></trkpt><trkpt lat="42.89929234486187" lon="12.04286197304573"><ele>326.0</ele><time>2026-04-07T09:10:42Z</time></trkpt><trkpt lat="42.89936375811464" lon="12.042915073271644"><ele>326.0</ele><time>2026-04-07T09:10:43Z</time></trkpt><trkpt lat="42.899450203133696" lon="12.042926466677853"><ele>326.0</ele><time>2026-04-07T09:10:44Z</time></trkpt><trkpt lat="42.89953759301493" lon="12.042884142309433"><ele>326.0</ele><time>2026-04-07T09:10:45Z</time></trkpt><trkpt lat="42.899613091730366" lon="12.042791059660647"><ele>325.75</ele><time>2026-04-07T09:10:46Z</time></trkpt><trkpt lat="42.899667594724114" lon="12.04265677504661"><ele>325.5</ele><time>2026-04-07T09:10:47Z</time></trkpt><trkpt lat="42.89969158251152" lon="12.042502640258329"><ele>325.25</ele><time>2026-04-07T09:10:48Z</time></trkpt><trkpt lat="42.899734928625925" lon="12.042344396619015"><ele>325.0</ele><time>2026-04-07T09:10:49Z</time></trkpt><trkpt lat="42.899746077162014" lon="12.042169848390317"><ele>322.5</ele><time>2026-04-07T09:10:50Z</time></trkpt><trkpt lat="42.89977247599449" lon="12.041993733556541"><ele>320.0</ele><time>2026-04-07T09:10:51Z</time></trkpt><trkpt lat="42.899797358093146" lon="12.041813245624784"><ele>317.5</ele><time>2026-04-07T09:10:52Z</time></trkpt><trkpt lat="42.899817049930014" lon="12.041631710202553"><ele>315.0</ele><time>2026-04-07T09:10:53Z</time></trkpt><trkpt lat="42.89981645475707" lon="12.041443057623706"><ele>312.25</ele><time>2026-04-07T09:10:54Z</time></trkpt><trkpt lat="42.899792929820585" lon="12.041252431593556"><ele>309.5</ele><time>2026-04-07T09:10:55Z</time></trkpt><trkpt lat="42.899742583950875" lon="12.041063437676263"><ele>306.75</ele><time>2026-04-07T09:10:56Z</time></trkpt><trkpt lat="42.899664166480896" lon="12.040885859981904"><ele>304.0</ele><time>2026-04-07T09:10:57Z</time></trkpt><trkpt lat="42.89956422085558" lon="12.040727637097987"><ele>302.66666666666663</ele><time>2026-04-07T09:10:58Z</time></trkpt><trkpt lat="42.899438791526414" lon="12.040598172774553"><ele>301.3333333333333</ele><time>2026-04-07T09:10:59Z</time></trkpt><trkpt lat="42.89930948424479" lon="12.040471048364738"><ele>300.0</ele><time>2026-04-07T09:11:00Z</time></trkpt><trkpt lat="42.89919115600765" lon="12.040337849194346"><ele>301.0</ele><time>2026-04-07T09:11:01Z</time></trkpt><trkpt lat="42.89907676394586" lon="12.040179653379427"><ele>302.0</ele><time>2026-04-07T09:11:02Z</time></trkpt><trkpt lat="42.89897790647581" lon="12.04000060567501"><ele>303.0</ele><time>2026-04-07T09:11:03Z</time></trkpt><trkpt lat="42.898890881088214" lon="12.039817869894327"><ele>303.0</ele><time>2026-04-07T09:11:04Z</time></trkpt><trkpt lat="42.898804689167775" lon="12.039644432931627"><ele>303.0</ele><time>2026-04-07T09:11:05Z</time></trkpt><trkpt lat="42.8987149698784" lon="12.03947842909486"><ele>303.0</ele><time>2026-04-07T09:11:06Z</time></trkpt><trkpt lat="42.89862080544873" lon="12.039323873380187"><ele>303.0</ele><time>2026-04-07T09:11:07Z</time></trkpt><trkpt lat="42.898519549897685" lon="12.039184851933289"><ele>303.0</ele><time>2026-04-07T09:11:08Z</time></trkpt><trkpt lat="42.89841542783734" lon="12.039062095136966"><ele>303.0</ele><time>2026-04-07T09:11:09Z</time></trkpt><trkpt lat="42.89832058500087" lon="12.038960320952564"><ele>303.0</ele><time>2026-04-07T09:11:10Z</time></trkpt><trkpt lat="42.89823280347419" lon="12.038889095567106"><ele>300.6666666666667</ele><time>2026-04-07T09:11:11Z</time></trkpt><trkpt lat="42.89815744264611" lon="12.038826342873774"><ele>298.3333333333333</ele><time>2026-04-07T09:11:12Z</time></trkpt><trkpt lat="42.89809234614915" lon="12.038751604657802"><ele>296.0</ele><time>2026-04-07T09:11:12.999Z</time></trkpt><trkpt lat="42.89806247681075" lon="12.038642927815122"><ele>293.66666666666663</ele><time>2026-04-07T09:11:13.999Z</time></trkpt><trkpt lat="42.898087768348006" lon="12.038527045987072"><ele>291.3333333333333</ele><time>2026-04-07T09:11:14.999Z</time></trkpt><trkpt lat="42.89816370448576" lon="12.038441070525993"><ele>289.0</ele><time>2026-04-07T09:11:15.999Z</time></trkpt><trkpt lat="42.89827847515529" lon="12.038421129961403"><ele>289.0</ele><time>2026-04-07T09:11:16.999Z</time></trkpt><trkpt lat="42.89840774917544" lon="12.038421938800772"><ele>289.0</ele><time>2026-04-07T09:11:17.999Z</time></trkpt><trkpt lat="42.898538676584586" lon="12.03841603950046"><ele>289.0</ele><time>2026-04-07T09:11:18.999Z</time></trkpt><trkpt lat="42.89877197217587" lon="12.038418162768028"><ele>289.2</ele><time>2026-04-07T09:11:20.999Z</time></trkpt><trkpt lat="42.89887909457297" lon="12.038420151281038"><ele>289.4</ele><time>2026-04-07T09:11:21.999Z</time></trkpt><trkpt lat="42.898972254789804" lon="12.038419161884454"><ele>289.6</ele><time>2026-04-07T09:11:22.999Z</time></trkpt><trkpt lat="42.8990545257323" lon="12.038415312011463"><ele>289.8</ele><time>2026-04-07T09:11:23.999Z</time></trkpt><trkpt lat="42.89912067664197" lon="12.03840876701566"><ele>290.0</ele><time>2026-04-07T09:11:24.999Z</time></trkpt><trkpt lat="42.899234262743704" lon="12.038386001235342"><ele>288.6</ele><time>2026-04-07T09:11:26.999Z</time></trkpt><trkpt lat="42.89933913625284" lon="12.038327063330605"><ele>287.2</ele><time>2026-04-07T09:11:28.999Z</time></trkpt><trkpt lat="42.89943629688152" lon="12.03822452386934"><ele>285.8</ele><time>2026-04-07T09:11:30.999Z</time></trkpt><trkpt lat="42.89951794214599" lon="12.038097638202776"><ele>284.4</ele><time>2026-04-07T09:11:32.999Z</time></trkpt><trkpt lat="42.89955479835493" lon="12.038022232957767"><ele>283.0</ele><time>2026-04-07T09:11:33.999Z</time></trkpt><trkpt lat="42.89958968372048" lon="12.037940260769197"><ele>281.42857142857144</ele><time>2026-04-07T09:11:34.999Z</time></trkpt><trkpt lat="42.89961868755345" lon="12.037847397568136"><ele>279.8571428571429</ele><time>2026-04-07T09:11:35.999Z</time></trkpt><trkpt lat="42.89963468190891" lon="12.037749417300235"><ele>278.2857142857143</ele><time>2026-04-07T09:11:36.999Z</time></trkpt><trkpt lat="42.89963583484965" lon="12.037652530510313"><ele>276.7142857142857</ele><time>2026-04-07T09:11:37.999Z</time></trkpt><trkpt lat="42.89961956675269" lon="12.037561335783131"><ele>275.1428571428571</ele><time>2026-04-07T09:11:38.999Z</time></trkpt><trkpt lat="42.89959043839457" lon="12.037477704538924"><ele>273.57142857142856</ele><time>2026-04-07T09:11:39.999Z</time></trkpt><trkpt lat="42.89956095084599" lon="12.037394355220538"><ele>272.0</ele><time>2026-04-07T09:11:40.999Z</time></trkpt><trkpt lat="42.89952891921571" lon="12.037311334189177"><ele>271.5</ele><time>2026-04-07T09:11:41.999Z</time></trkpt><trkpt lat="42.899483398998576" lon="12.037237085559655"><ele>271.0</ele><time>2026-04-07T09:11:42.999Z</time></trkpt><trkpt lat="42.899422496945625" lon="12.03718130806466"><ele>270.5</ele><time>2026-04-07T09:11:43.999Z</time></trkpt><trkpt lat="42.89935516483042" lon="12.037150928216203"><ele>270.0</ele><time>2026-04-07T09:11:44.999Z</time></trkpt><trkpt lat="42.899276599786226" lon="12.037141454395385"><ele>269.5</ele><time>2026-04-07T09:11:45.999Z</time></trkpt><trkpt lat="42.899199598764945" lon="12.037148802931359"><ele>269.0</ele><time>2026-04-07T09:11:46.999Z</time></trkpt><trkpt lat="42.89912506250295" lon="12.03718198450881"><ele>269.0</ele><time>2026-04-07T09:11:47.999Z</time></trkpt><trkpt lat="42.89906725998991" lon="12.037246386729738"><ele>269.0</ele><time>2026-04-07T09:11:48.999Z</time></trkpt><trkpt lat="42.89902332230956" lon="12.037320455169656"><ele>269.0</ele><time>2026-04-07T09:11:49.999Z</time></trkpt><trkpt lat="42.898981606072134" lon="12.037397569674411"><ele>269.0</ele><time>2026-04-07T09:11:50.999Z</time></trkpt><trkpt lat="42.89894386460764" lon="12.03747649522713"><ele>269.0</ele><time>2026-04-07T09:11:51.999Z</time></trkpt><trkpt lat="42.89890548170016" lon="12.037560332996264"><ele>269.0</ele><time>2026-04-07T09:11:52.999Z</time></trkpt><trkpt lat="42.89885651611491" lon="12.037639925214076"><ele>269.0</ele><time>2026-04-07T09:11:53.999Z</time></trkpt><trkpt lat="42.898785566507954" lon="12.037698607066966"><ele>270.4</ele><time>2026-04-07T09:11:54.999Z</time></trkpt><trkpt lat="42.89870738694629" lon="12.037734899514478"><ele>271.79999999999995</ele><time>2026-04-07T09:11:55.999Z</time></trkpt><trkpt lat="42.8986227106953" lon="12.037762596980597"><ele>273.20000000000005</ele><time>2026-04-07T09:11:56.999Z</time></trkpt><trkpt lat="42.898507366980816" lon="12.037763985100668"><ele>274.6</ele><time>2026-04-07T09:11:57.999Z</time></trkpt><trkpt lat="42.898371012554115" lon="12.03777627048394"><ele>276.0</ele><time>2026-04-07T09:11:58.999Z</time></trkpt><trkpt lat="42.898219557594906" lon="12.03776034310949"><ele>276.0</ele><time>2026-04-07T09:11:59.999Z</time></trkpt><trkpt lat="42.898068936203686" lon="12.037716593449899"><ele>276.0</ele><time>2026-04-07T09:12:00.999Z</time></trkpt><trkpt lat="42.89792389723979" lon="12.037649160655702"><ele>276.0</ele><time>2026-04-07T09:12:01.999Z</time></trkpt><trkpt lat="42.897768032878766" lon="12.037614893776423"><ele>276.0</ele><time>2026-04-07T09:12:02.999Z</time></trkpt><trkpt lat="42.89760409472861" lon="12.037628864097258"><ele>276.0</ele><time>2026-04-07T09:12:03.999Z</time></trkpt><trkpt lat="42.89744414067408" lon="12.037668391207792"><ele>276.0</ele><time>2026-04-07T09:12:04.999Z</time></trkpt><trkpt lat="42.89729590392192" lon="12.037721876675924"><ele>274.75</ele><time>2026-04-07T09:12:05.999Z</time></trkpt><trkpt lat="42.89715404176803" lon="12.037773507099093"><ele>273.5</ele><time>2026-04-07T09:12:06.999Z</time></trkpt><trkpt lat="42.89701175795306" lon="12.037815403631635"><ele>272.25</ele><time>2026-04-07T09:12:07.999Z</time></trkpt><trkpt lat="42.896865545636985" lon="12.037805581292444"><ele>271.0</ele><time>2026-04-07T09:12:08.999Z</time></trkpt><trkpt lat="42.8967173504218" lon="12.037778211611794"><ele>269.0</ele><time>2026-04-07T09:12:09.999Z</time></trkpt><trkpt lat="42.89656258959348" lon="12.037751411753296"><ele>267.0</ele><time>2026-04-07T09:12:10.999Z</time></trkpt><trkpt lat="42.896411230736135" lon="12.037717353511947"><ele>265.0</ele><time>2026-04-07T09:12:11.999Z</time></trkpt><trkpt lat="42.89626393667106" lon="12.037726867430665"><ele>265.0</ele><time>2026-04-07T09:12:12.999Z</time></trkpt><trkpt lat="42.89612630588185" lon="12.037792921430846"><ele>265.0</ele><time>2026-04-07T09:12:13.999Z</time></trkpt><trkpt lat="42.89600304607646" lon="12.037893447978115"><ele>265.0</ele><time>2026-04-07T09:12:14.999Z</time></trkpt><trkpt lat="42.895881051598614" lon="12.037964989524696"><ele>265.0</ele><time>2026-04-07T09:12:15.999Z</time></trkpt><trkpt lat="42.89575439320722" lon="12.03796491548434"><ele>263.5</ele><time>2026-04-07T09:12:16.999Z</time></trkpt><trkpt lat="42.89562401720845" lon="12.037905539085587"><ele>262.0</ele><time>2026-04-07T09:12:17.999Z</time></trkpt><trkpt lat="42.89549136201987" lon="12.037827611209055"><ele>260.5</ele><time>2026-04-07T09:12:18.999Z</time></trkpt><trkpt lat="42.89535112019979" lon="12.037759429409356"><ele>259.0</ele><time>2026-04-07T09:12:19.999Z</time></trkpt><trkpt lat="42.89520752347314" lon="12.037696965911115"><ele>258.66666666666663</ele><time>2026-04-07T09:12:20.999Z</time></trkpt><trkpt lat="42.89506277041784" lon="12.037635492398213"><ele>258.3333333333333</ele><time>2026-04-07T09:12:21.999Z</time></trkpt><trkpt lat="42.8949180908199" lon="12.037572894388736"><ele>258.0</ele><time>2026-04-07T09:12:22.999Z</time></trkpt><trkpt lat="42.894777892519706" lon="12.037513389500505"><ele>257.25</ele><time>2026-04-07T09:12:23.999Z</time></trkpt><trkpt lat="42.894643386307166" lon="12.037452082223998"><ele>256.5</ele><time>2026-04-07T09:12:24.999Z</time></trkpt><trkpt lat="42.894509089040135" lon="12.037394751822925"><ele>255.75</ele><time>2026-04-07T09:12:25.999Z</time></trkpt><trkpt lat="42.89437199798808" lon="12.037343123329753"><ele>255.0</ele><time>2026-04-07T09:12:26.999Z</time></trkpt><trkpt lat="42.894236332476595" lon="12.03728393433189"><ele>254.25</ele><time>2026-04-07T09:12:27.999Z</time></trkpt><trkpt lat="42.8941007917744" lon="12.037207938672585"><ele>253.5</ele><time>2026-04-07T09:12:28.999Z</time></trkpt><trkpt lat="42.893970639004465" lon="12.037108764768519"><ele>252.75</ele><time>2026-04-07T09:12:29.999Z</time></trkpt><trkpt lat="42.89385227744273" lon="12.03697968684596"><ele>252.0</ele><time>2026-04-07T09:12:30.999Z</time></trkpt><trkpt lat="42.89374202015446" lon="12.036835084258882"><ele>252.0</ele><time>2026-04-07T09:12:31.999Z</time></trkpt><trkpt lat="42.89363551057459" lon="12.03668145150716"><ele>252.0</ele><time>2026-04-07T09:12:32.999Z</time></trkpt><trkpt lat="42.89352975839813" lon="12.036524040282169"><ele>252.0</ele><time>2026-04-07T09:12:33.999Z</time></trkpt><trkpt lat="42.89342537547458" lon="12.036366966933437"><ele>251.25</ele><time>2026-04-07T09:12:34.999Z</time></trkpt><trkpt lat="42.89332295727558" lon="12.036223408729285"><ele>250.5</ele><time>2026-04-07T09:12:35.999Z</time></trkpt><trkpt lat="42.89321294706442" lon="12.036107343249313"><ele>249.75</ele><time>2026-04-07T09:12:36.999Z</time></trkpt><trkpt lat="42.89309499789614" lon="12.036013585153883"><ele>249.0</ele><time>2026-04-07T09:12:37.999Z</time></trkpt><trkpt lat="42.89296910440612" lon="12.035975566103632"><ele>249.0</ele><time>2026-04-07T09:12:38.999Z</time></trkpt><trkpt lat="42.89286712897494" lon="12.035993080055801"><ele>249.0</ele><time>2026-04-07T09:12:39.999Z</time></trkpt><trkpt lat="42.89279143572112" lon="12.036033796113266"><ele>249.0</ele><time>2026-04-07T09:12:40.999Z</time></trkpt><trkpt lat="42.89273124664308" lon="12.036068815128884"><ele>249.0</ele><time>2026-04-07T09:12:41.999Z</time></trkpt><trkpt lat="42.8926620468663" lon="12.03607625873134"><ele>249.0</ele><time>2026-04-07T09:12:42.999Z</time></trkpt><trkpt lat="42.892571029944094" lon="12.03602696547918"><ele>249.0</ele><time>2026-04-07T09:12:43.999Z</time></trkpt><trkpt lat="42.89249167260751" lon="12.035931587437833"><ele>248.83333333333334</ele><time>2026-04-07T09:12:44.999Z</time></trkpt><trkpt lat="42.89243341798731" lon="12.035843514600082"><ele>248.66666666666669</ele><time>2026-04-07T09:12:45.999Z</time></trkpt><trkpt lat="42.892376533527084" lon="12.035758243468216"><ele>248.5</ele><time>2026-04-07T09:12:46.999Z</time></trkpt><trkpt lat="42.892316280341014" lon="12.035671776707469"><ele>248.33333333333334</ele><time>2026-04-07T09:12:47.999Z</time></trkpt><trkpt lat="42.89224614866559" lon="12.035592950219806"><ele>248.16666666666669</ele><time>2026-04-07T09:12:48.999Z</time></trkpt><trkpt lat="42.892161508054336" lon="12.035536518193933"><ele>248.0</ele><time>2026-04-07T09:12:49.999Z</time></trkpt><trkpt lat="42.892060927280575" lon="12.035515090291783"><ele>247.25</ele><time>2026-04-07T09:12:50.999Z</time></trkpt><trkpt lat="42.891949396949165" lon="12.035525497970516"><ele>246.5</ele><time>2026-04-07T09:12:51.999Z</time></trkpt><trkpt lat="42.89183134887899" lon="12.035571538168504"><ele>245.75</ele><time>2026-04-07T09:12:52.999Z</time></trkpt><trkpt lat="42.89171289842058" lon="12.035652526929745"><ele>245.0</ele><time>2026-04-07T09:12:53.999Z</time></trkpt><trkpt lat="42.89159402964711" lon="12.03576341267379"><ele>244.66666666666669</ele><time>2026-04-07T09:12:54.999Z</time></trkpt><trkpt lat="42.891477646430374" lon="12.035899536090584"><ele>244.33333333333331</ele><time>2026-04-07T09:12:55.999Z</time></trkpt><trkpt lat="42.89136565550853" lon="12.036051047847385"><ele>244.0</ele><time>2026-04-07T09:12:56.999Z</time></trkpt><trkpt lat="42.891233823014325" lon="12.036216041965247"><ele>244.0</ele><time>2026-04-07T09:12:57.999Z</time></trkpt><trkpt lat="42.89108804509653" lon="12.03639636931547"><ele>244.0</ele><time>2026-04-07T09:12:58.999Z</time></trkpt><trkpt lat="42.890934358103316" lon="12.036586491625766"><ele>244.0</ele><time>2026-04-07T09:12:59.999Z</time></trkpt><trkpt lat="42.89077475810715" lon="12.03678642717491"><ele>241.5</ele><time>2026-04-07T09:13:00.999Z</time></trkpt><trkpt lat="42.89061172381129" lon="12.036996965267873"><ele>239.0</ele><time>2026-04-07T09:13:01.999Z</time></trkpt><trkpt lat="42.89044593824499" lon="12.037213487966229"><ele>239.0</ele><time>2026-04-07T09:13:02.999Z</time></trkpt><trkpt lat="42.8902768793358" lon="12.037430116866007"><ele>239.0</ele><time>2026-04-07T09:13:03.999Z</time></trkpt><trkpt lat="42.89010605135545" lon="12.037645356069309"><ele>237.5</ele><time>2026-04-07T09:13:04.999Z</time></trkpt><trkpt lat="42.8899355608793" lon="12.037860937459596"><ele>236.0</ele><time>2026-04-07T09:13:05.999Z</time></trkpt><trkpt lat="42.889772001007984" lon="12.038065069685372"><ele>236.0</ele><time>2026-04-07T09:13:06.999Z</time></trkpt><trkpt lat="42.88961170903482" lon="12.038260148026637"><ele>236.0</ele><time>2026-04-07T09:13:07.999Z</time></trkpt><trkpt lat="42.88943511640988" lon="12.038441308690745"><ele>236.0</ele><time>2026-04-07T09:13:08.999Z</time></trkpt><trkpt lat="42.88923775527994" lon="12.038605420283925"><ele>235.0</ele><time>2026-04-07T09:13:09.999Z</time></trkpt><trkpt lat="42.889039545614054" lon="12.038750534773566"><ele>234.0</ele><time>2026-04-07T09:13:10.999Z</time></trkpt><trkpt lat="42.88882678380182" lon="12.038896184747887"><ele>234.0</ele><time>2026-04-07T09:13:11.999Z</time></trkpt><trkpt lat="42.88861003918918" lon="12.039043396998762"><ele>234.0</ele><time>2026-04-07T09:13:12.999Z</time></trkpt><trkpt lat="42.88839124775094" lon="12.039192778817467"><ele>235.0</ele><time>2026-04-07T09:13:13.999Z</time></trkpt><trkpt lat="42.88817483046685" lon="12.039340252410174"><ele>236.0</ele><time>2026-04-07T09:13:14.999Z</time></trkpt><trkpt lat="42.887958838253525" lon="12.039490955530525"><ele>236.0</ele><time>2026-04-07T09:13:15.999Z</time></trkpt><trkpt lat="42.88774385054084" lon="12.039640889387016"><ele>236.0</ele><time>2026-04-07T09:13:16.999Z</time></trkpt><trkpt lat="42.88753250261516" lon="12.039786768778207"><ele>236.33333333333334</ele><time>2026-04-07T09:13:17.999Z</time></trkpt><trkpt lat="42.88732709214309" lon="12.039926423639411"><ele>236.66666666666669</ele><time>2026-04-07T09:13:18.999Z</time></trkpt><trkpt lat="42.8871299992848" lon="12.04005785625839"><ele>237.0</ele><time>2026-04-07T09:13:19.999Z</time></trkpt><trkpt lat="42.886944232691235" lon="12.040173744218407"><ele>238.66666666666669</ele><time>2026-04-07T09:13:20.999Z</time></trkpt><trkpt lat="42.88675466167332" lon="12.040264122422252"><ele>240.33333333333334</ele><time>2026-04-07T09:13:21.999Z</time></trkpt><trkpt lat="42.886543560690754" lon="12.040302314470761"><ele>242.0</ele><time>2026-04-07T09:13:22.999Z</time></trkpt><trkpt lat="42.886315782662464" lon="12.040277534399527"><ele>242.0</ele><time>2026-04-07T09:13:23.999Z</time></trkpt><trkpt lat="42.88609554311126" lon="12.040209903258612"><ele>242.0</ele><time>2026-04-07T09:13:24.999Z</time></trkpt><trkpt lat="42.88588716072052" lon="12.040150696330578"><ele>242.0</ele><time>2026-04-07T09:13:25.999Z</time></trkpt><trkpt lat="42.88568360320496" lon="12.040130733728517"><ele>244.0</ele><time>2026-04-07T09:13:26.999Z</time></trkpt><trkpt lat="42.885471075996676" lon="12.040186335503993"><ele>246.0</ele><time>2026-04-07T09:13:27.999Z</time></trkpt><trkpt lat="42.8852532989166" lon="12.040307436730124"><ele>244.0</ele><time>2026-04-07T09:13:28.999Z</time></trkpt><trkpt lat="42.8850322325339" lon="12.040459506418793"><ele>242.0</ele><time>2026-04-07T09:13:29.999Z</time></trkpt><trkpt lat="42.884801866093" lon="12.04060565696097"><ele>242.0</ele><time>2026-04-07T09:13:30.999Z</time></trkpt><trkpt lat="42.88456678456583" lon="12.040749461464438"><ele>242.0</ele><time>2026-04-07T09:13:31.999Z</time></trkpt><trkpt lat="42.884330830539355" lon="12.040892850075261"><ele>243.0</ele><time>2026-04-07T09:13:32.999Z</time></trkpt><trkpt lat="42.88410255634822" lon="12.041023269174213"><ele>244.0</ele><time>2026-04-07T09:13:33.999Z</time></trkpt><trkpt lat="42.88385881967384" lon="12.041158174039767"><ele>244.0</ele><time>2026-04-07T09:13:34.999Z</time></trkpt><trkpt lat="42.88360791397941" lon="12.041296521381168"><ele>244.0</ele><time>2026-04-07T09:13:35.999Z</time></trkpt><trkpt lat="42.883360942160785" lon="12.04142745908199"><ele>241.5</ele><time>2026-04-07T09:13:36.999Z</time></trkpt><trkpt lat="42.883117635440364" lon="12.04155575651712"><ele>239.0</ele><time>2026-04-07T09:13:37.999Z</time></trkpt><trkpt lat="42.88287803443603" lon="12.041682099829147"><ele>241.0</ele><time>2026-04-07T09:13:38.999Z</time></trkpt><trkpt lat="42.882645454123235" lon="12.041809035251937"><ele>243.0</ele><time>2026-04-07T09:13:39.999Z</time></trkpt><trkpt lat="42.8824193825646" lon="12.04193593146138"><ele>243.0</ele><time>2026-04-07T09:13:40.999Z</time></trkpt><trkpt lat="42.882199553873235" lon="12.042065431828133"><ele>243.0</ele><time>2026-04-07T09:13:41.999Z</time></trkpt><trkpt lat="42.881984140677936" lon="12.04219664230542"><ele>243.0</ele><time>2026-04-07T09:13:42.999Z</time></trkpt><trkpt lat="42.881770697204864" lon="12.042321911508601"><ele>243.0</ele><time>2026-04-07T09:13:43.999Z</time></trkpt><trkpt lat="42.88155953613143" lon="12.042443271524306"><ele>245.0</ele><time>2026-04-07T09:13:44.999Z</time></trkpt><trkpt lat="42.88134900759656" lon="12.042563545440483"><ele>247.0</ele><time>2026-04-07T09:13:45.999Z</time></trkpt><trkpt lat="42.88114109894307" lon="12.042678830321718"><ele>247.0</ele><time>2026-04-07T09:13:46.999Z</time></trkpt><trkpt lat="42.88093601749811" lon="12.042789764719148"><ele>247.0</ele><time>2026-04-07T09:13:47.999Z</time></trkpt><trkpt lat="42.880736590985784" lon="12.042895621165"><ele>247.0</ele><time>2026-04-07T09:13:48.999Z</time></trkpt><trkpt lat="42.880549084484656" lon="12.042995069291191"><ele>244.33333333333331</ele><time>2026-04-07T09:13:49.999Z</time></trkpt><trkpt lat="42.880370136420034" lon="12.043089481543884"><ele>241.66666666666669</ele><time>2026-04-07T09:13:50.999Z</time></trkpt><trkpt lat="42.88019623905798" lon="12.04318238854462"><ele>239.0</ele><time>2026-04-07T09:13:51.999Z</time></trkpt><trkpt lat="42.880028092385785" lon="12.04327014423607"><ele>240.66666666666669</ele><time>2026-04-07T09:13:52.999Z</time></trkpt><trkpt lat="42.879860351692784" lon="12.043359787736442"><ele>242.33333333333331</ele><time>2026-04-07T09:13:53.999Z</time></trkpt><trkpt lat="42.879689507372866" lon="12.043449040458139"><ele>244.0</ele><time>2026-04-07T09:13:54.999Z</time></trkpt><trkpt lat="42.87951819299248" lon="12.043537038517577"><ele>244.0</ele><time>2026-04-07T09:13:55.999Z</time></trkpt><trkpt lat="42.87934782759074" lon="12.043626054148412"><ele>244.0</ele><time>2026-04-07T09:13:56.999Z</time></trkpt><trkpt lat="42.87918015051024" lon="12.04371412889602"><ele>244.0</ele><time>2026-04-07T09:13:57.999Z</time></trkpt><trkpt lat="42.87901863244763" lon="12.043798685850104"><ele>243.0</ele><time>2026-04-07T09:13:58.999Z</time></trkpt><trkpt lat="42.878860914063736" lon="12.043882998807952"><ele>242.0</ele><time>2026-04-07T09:13:59.999Z</time></trkpt><trkpt lat="42.8787082807935" lon="12.043967853136925"><ele>241.0</ele><time>2026-04-07T09:14:00.999Z</time></trkpt><trkpt lat="42.87856334302599" lon="12.044046754723107"><ele>240.75</ele><time>2026-04-07T09:14:01.999Z</time></trkpt><trkpt lat="42.87842129383048" lon="12.044120553240385"><ele>240.5</ele><time>2026-04-07T09:14:02.999Z</time></trkpt><trkpt lat="42.87827944247943" lon="12.044184629064782"><ele>240.25</ele><time>2026-04-07T09:14:03.999Z</time></trkpt><trkpt lat="42.8781431306563" lon="12.044231634811695"><ele>240.0</ele><time>2026-04-07T09:14:04.999Z</time></trkpt><trkpt lat="42.878030689311935" lon="12.044259488241286"><ele>240.25</ele><time>2026-04-07T09:14:05.999Z</time></trkpt><trkpt lat="42.877907839650675" lon="12.044256689130902"><ele>240.5</ele><time>2026-04-07T09:14:06.999Z</time></trkpt><trkpt lat="42.877787986142486" lon="12.044223166186821"><ele>240.75</ele><time>2026-04-07T09:14:07.999Z</time></trkpt><trkpt lat="42.877669683561805" lon="12.04417479451315"><ele>241.0</ele><time>2026-04-07T09:14:08.999Z</time></trkpt><trkpt lat="42.87755961534048" lon="12.044117384180181"><ele>241.0</ele><time>2026-04-07T09:14:09.999Z</time></trkpt><trkpt lat="42.87745716937318" lon="12.044058649837337"><ele>241.00000000000003</ele><time>2026-04-07T09:14:10.999Z</time></trkpt><trkpt lat="42.877359073256216" lon="12.044000578500748"><ele>241.00000000000003</ele><time>2026-04-07T09:14:11.999Z</time></trkpt><trkpt lat="42.8772667843005" lon="12.043946650465525"><ele>241.0</ele><time>2026-04-07T09:14:12.999Z</time></trkpt><trkpt lat="42.87717954876769" lon="12.043892900708618"><ele>241.0</ele><time>2026-04-07T09:14:13.999Z</time></trkpt><trkpt lat="42.87709948261184" lon="12.04384138255958"><ele>240.99999999999997</ele><time>2026-04-07T09:14:14.999Z</time></trkpt><trkpt lat="42.87702521947647" lon="12.043790130620854"><ele>241.0</ele><time>2026-04-07T09:14:15.999Z</time></trkpt><trkpt lat="42.87695892060505" lon="12.043733981287724"><ele>241.0</ele><time>2026-04-07T09:14:16.999Z</time></trkpt><trkpt lat="42.87690095316455" lon="12.043663558610758"><ele>241.0</ele><time>2026-04-07T09:14:17.999Z</time></trkpt><trkpt lat="42.87683770222254" lon="12.04359890096208"><ele>240.99999999999997</ele><time>2026-04-07T09:14:18.999Z</time></trkpt><trkpt lat="42.876766409161796" lon="12.043563942849376"><ele>241.0</ele><time>2026-04-07T09:14:19.999Z</time></trkpt><trkpt lat="42.87669032670498" lon="12.043542866321006"><ele>241.16666666666666</ele><time>2026-04-07T09:14:20.999Z</time></trkpt><trkpt lat="42.87661269902461" lon="12.043515007401659"><ele>241.33333333333331</ele><time>2026-04-07T09:14:21.999Z</time></trkpt><trkpt lat="42.87653547385909" lon="12.043475790501432"><ele>241.5</ele><time>2026-04-07T09:14:22.999Z</time></trkpt><trkpt lat="42.876457364452875" lon="12.043435191583404"><ele>241.66666666666669</ele><time>2026-04-07T09:14:23.999Z</time></trkpt><trkpt lat="42.87638201668754" lon="12.043391529785247"><ele>241.83333333333334</ele><time>2026-04-07T09:14:24.999Z</time></trkpt><trkpt lat="42.87630731838126" lon="12.043345244466074"><ele>242.0</ele><time>2026-04-07T09:14:25.999Z</time></trkpt><trkpt lat="42.87623848122482" lon="12.0433075926767"><ele>242.2</ele><time>2026-04-07T09:14:26.999Z</time></trkpt><trkpt lat="42.87614869884464" lon="12.043270222436158"><ele>242.39999999999998</ele><time>2026-04-07T09:14:28.999Z</time></trkpt><trkpt lat="42.87607827615534" lon="12.043228378243509"><ele>242.60000000000002</ele><time>2026-04-07T09:14:30.999Z</time></trkpt><trkpt lat="42.87599843162605" lon="12.043175791008302"><ele>242.8</ele><time>2026-04-07T09:14:32.999Z</time></trkpt><trkpt lat="42.87590382378853" lon="12.04311606357983"><ele>243.0</ele><time>2026-04-07T09:14:34.999Z</time></trkpt><trkpt lat="42.87579685960943" lon="12.043040829747424"><ele>243.0</ele><time>2026-04-07T09:14:36.999Z</time></trkpt><trkpt lat="42.875735449019395" lon="12.042996988086127"><ele>243.0</ele><time>2026-04-07T09:14:37.999Z</time></trkpt><trkpt lat="42.87567046181475" lon="12.042955865783616"><ele>243.0</ele><time>2026-04-07T09:14:38.999Z</time></trkpt><trkpt lat="42.87560027136288" lon="12.042919868953595"><ele>243.0</ele><time>2026-04-07T09:14:39.999Z</time></trkpt><trkpt lat="42.87553119797058" lon="12.042879055397455"><ele>243.0</ele><time>2026-04-07T09:14:40.999Z</time></trkpt><trkpt lat="42.87546485020746" lon="12.042833056973224"><ele>243.0</ele><time>2026-04-07T09:14:41.999Z</time></trkpt><trkpt lat="42.87539628194175" lon="12.042785435497377"><ele>243.0</ele><time>2026-04-07T09:14:42.999Z</time></trkpt><trkpt lat="42.8753274748015" lon="12.042741428336043"><ele>243.0</ele><time>2026-04-07T09:14:43.999Z</time></trkpt><trkpt lat="42.87525526953308" lon="12.042700077890409"><ele>243.0</ele><time>2026-04-07T09:14:44.999Z</time></trkpt><trkpt lat="42.87518306012036" lon="12.042659222608693"><ele>243.0</ele><time>2026-04-07T09:14:45.999Z</time></trkpt><trkpt lat="42.875104201711196" lon="12.042619572591658"><ele>243.0</ele><time>2026-04-07T09:14:46.999Z</time></trkpt><trkpt lat="42.875029989499204" lon="12.042571907472354"><ele>243.0</ele><time>2026-04-07T09:14:47.999Z</time></trkpt><trkpt lat="42.87495602985301" lon="12.042520765013842"><ele>243.0</ele><time>2026-04-07T09:14:48.999Z</time></trkpt><trkpt lat="42.87487969108884" lon="12.042470955842186"><ele>242.5</ele><time>2026-04-07T09:14:49.999Z</time></trkpt><trkpt lat="42.87480327734888" lon="12.04242618106415"><ele>242.0</ele><time>2026-04-07T09:14:50.999Z</time></trkpt><trkpt lat="42.87472427428758" lon="12.042385094226821"><ele>241.5</ele><time>2026-04-07T09:14:51.999Z</time></trkpt><trkpt lat="42.8746487103301" lon="12.042357250417785"><ele>241.0</ele><time>2026-04-07T09:14:52.999Z</time></trkpt><trkpt lat="42.87458478704064" lon="12.042343232018718"><ele>240.5</ele><time>2026-04-07T09:14:53.999Z</time></trkpt><trkpt lat="42.87450631836047" lon="12.042329105978583"><ele>240.0</ele><time>2026-04-07T09:14:55.999Z</time></trkpt><trkpt lat="42.87441134346841" lon="12.042312235542903"><ele>240.0</ele><time>2026-04-07T09:14:58.999Z</time></trkpt><trkpt lat="42.87427710851549" lon="12.04231803748921"><ele>240.0</ele><time>2026-04-07T09:15:00.999Z</time></trkpt><trkpt lat="42.874200749021554" lon="12.042311209068078"><ele>240.0</ele><time>2026-04-07T09:15:01.999Z</time></trkpt><trkpt lat="42.87412069705281" lon="12.04230456004625"><ele>240.0</ele><time>2026-04-07T09:15:02.999Z</time></trkpt><trkpt lat="42.87403559368367" lon="12.042294070855904"><ele>240.0</ele><time>2026-04-07T09:15:03.999Z</time></trkpt><trkpt lat="42.87394713083715" lon="12.042283634705857"><ele>240.0</ele><time>2026-04-07T09:15:04.999Z</time></trkpt><trkpt lat="42.87385740391031" lon="12.04227316686374"><ele>240.0</ele><time>2026-04-07T09:15:05.999Z</time></trkpt><trkpt lat="42.87376586662184" lon="12.042262252009671"><ele>240.0</ele><time>2026-04-07T09:15:06.999Z</time></trkpt><trkpt lat="42.873672338760244" lon="12.042253423780275"><ele>240.0</ele><time>2026-04-07T09:15:07.999Z</time></trkpt><trkpt lat="42.87357970696532" lon="12.042244273815083"><ele>240.0</ele><time>2026-04-07T09:15:08.999Z</time></trkpt><trkpt lat="42.87348656745794" lon="12.042234291534417"><ele>240.0</ele><time>2026-04-07T09:15:09.999Z</time></trkpt><trkpt lat="42.873395038108704" lon="12.042223871034025"><ele>240.0</ele><time>2026-04-07T09:15:10.999Z</time></trkpt><trkpt lat="42.87329932852886" lon="12.042212331308882"><ele>240.0</ele><time>2026-04-07T09:15:11.999Z</time></trkpt><trkpt lat="42.873197704956326" lon="12.042202928966507"><ele>240.0</ele><time>2026-04-07T09:15:12.999Z</time></trkpt><trkpt lat="42.87308770630585" lon="12.042195693159341"><ele>240.0</ele><time>2026-04-07T09:15:13.999Z</time></trkpt><trkpt lat="42.87296540474183" lon="12.042190412150958"><ele>240.0</ele><time>2026-04-07T09:15:14.999Z</time></trkpt><trkpt lat="42.872832259057034" lon="12.042180807695154"><ele>240.0</ele><time>2026-04-07T09:15:15.999Z</time></trkpt><trkpt lat="42.872694012785956" lon="12.04216996278217"><ele>240.0</ele><time>2026-04-07T09:15:16.999Z</time></trkpt><trkpt lat="42.87255350678606" lon="12.042140081409778"><ele>240.0</ele><time>2026-04-07T09:15:17.999Z</time></trkpt><trkpt lat="42.872403656520255" lon="12.04214582463135"><ele>239.66666666666669</ele><time>2026-04-07T09:15:18.999Z</time></trkpt><trkpt lat="42.87224986334787" lon="12.042130212273651"><ele>239.33333333333334</ele><time>2026-04-07T09:15:19.999Z</time></trkpt><trkpt lat="42.87208973875459" lon="12.042118057238886"><ele>239.0</ele><time>2026-04-07T09:15:20.999Z</time></trkpt><trkpt lat="42.87191926430505" lon="12.0421014689287"><ele>238.66666666666669</ele><time>2026-04-07T09:15:21.999Z</time></trkpt><trkpt lat="42.87174808659761" lon="12.042089196952668"><ele>238.33333333333331</ele><time>2026-04-07T09:15:22.999Z</time></trkpt><trkpt lat="42.87156924551613" lon="12.042064810659395"><ele>238.0</ele><time>2026-04-07T09:15:23.999Z</time></trkpt><trkpt lat="42.87139751478924" lon="12.042051518804016"><ele>238.0</ele><time>2026-04-07T09:15:24.999Z</time></trkpt><trkpt lat="42.8712114740558" lon="12.042058967045104"><ele>238.0</ele><time>2026-04-07T09:15:25.999Z</time></trkpt><trkpt lat="42.871024531405055" lon="12.042095904120611"><ele>238.0</ele><time>2026-04-07T09:15:26.999Z</time></trkpt><trkpt lat="42.870840801954984" lon="12.04216318411867"><ele>238.0</ele><time>2026-04-07T09:15:27.999Z</time></trkpt><trkpt lat="42.87065910132137" lon="12.042267464640593"><ele>238.0</ele><time>2026-04-07T09:15:28.999Z</time></trkpt><trkpt lat="42.87048453572827" lon="12.042405262190943"><ele>238.0</ele><time>2026-04-07T09:15:29.999Z</time></trkpt><trkpt lat="42.870310278993806" lon="12.042557900488333"><ele>238.0</ele><time>2026-04-07T09:15:30.999Z</time></trkpt><trkpt lat="42.87013616232358" lon="12.042721128174463"><ele>238.0</ele><time>2026-04-07T09:15:31.999Z</time></trkpt><trkpt lat="42.869952277341355" lon="12.042876573766478"><ele>238.0</ele><time>2026-04-07T09:15:32.999Z</time></trkpt><trkpt lat="42.869797090551764" lon="12.043076382730495"><ele>238.33333333333331</ele><time>2026-04-07T09:15:33.999Z</time></trkpt><trkpt lat="42.86964982145433" lon="12.043284557196191"><ele>238.66666666666669</ele><time>2026-04-07T09:15:34.999Z</time></trkpt><trkpt lat="42.86952540133604" lon="12.04353409628598"><ele>239.0</ele><time>2026-04-07T09:15:35.999Z</time></trkpt><trkpt lat="42.869415581339375" lon="12.043806695511114"><ele>237.5</ele><time>2026-04-07T09:15:36.999Z</time></trkpt><trkpt lat="42.86932792409377" lon="12.044102144744643"><ele>236.0</ele><time>2026-04-07T09:15:37.999Z</time></trkpt><trkpt lat="42.869255635310864" lon="12.044405998290527"><ele>236.0</ele><time>2026-04-07T09:15:38.999Z</time></trkpt><trkpt lat="42.869187810511846" lon="12.04471002385639"><ele>236.0</ele><time>2026-04-07T09:15:39.999Z</time></trkpt><trkpt lat="42.86912156255577" lon="12.045006021791073"><ele>235.66666666666669</ele><time>2026-04-07T09:15:40.999Z</time></trkpt><trkpt lat="42.869056302786916" lon="12.04529637474157"><ele>235.33333333333331</ele><time>2026-04-07T09:15:41.999Z</time></trkpt><trkpt lat="42.86898952577798" lon="12.045579952045843"><ele>235.0</ele><time>2026-04-07T09:15:42.999Z</time></trkpt><trkpt lat="42.86890849543438" lon="12.045849657755152"><ele>235.0</ele><time>2026-04-07T09:15:43.999Z</time></trkpt><trkpt lat="42.86879960677331" lon="12.046099223093044"><ele>235.0</ele><time>2026-04-07T09:15:44.999Z</time></trkpt><trkpt lat="42.868649213095466" lon="12.046314287995175"><ele>235.0</ele><time>2026-04-07T09:15:45.999Z</time></trkpt><trkpt lat="42.868467835699335" lon="12.046503731669453"><ele>235.5</ele><time>2026-04-07T09:15:46.999Z</time></trkpt><trkpt lat="42.86827631451049" lon="12.046696395275903"><ele>236.0</ele><time>2026-04-07T09:15:47.999Z</time></trkpt><trkpt lat="42.868081592262875" lon="12.046893779370444"><ele>236.0</ele><time>2026-04-07T09:15:48.999Z</time></trkpt><trkpt lat="42.867886070602296" lon="12.047093791726553"><ele>236.0</ele><time>2026-04-07T09:15:49.999Z</time></trkpt><trkpt lat="42.867688815679344" lon="12.047295101535827"><ele>236.0</ele><time>2026-04-07T09:15:50.999Z</time></trkpt><trkpt lat="42.86748908150387" lon="12.04749493257656"><ele>236.0</ele><time>2026-04-07T09:15:51.999Z</time></trkpt><trkpt lat="42.867288580776254" lon="12.04769354959883"><ele>236.0</ele><time>2026-04-07T09:15:52.999Z</time></trkpt><trkpt lat="42.867078343173375" lon="12.04789532110656"><ele>236.0</ele><time>2026-04-07T09:15:53.999Z</time></trkpt><trkpt lat="42.866862394192886" lon="12.048092669817876"><ele>235.5</ele><time>2026-04-07T09:15:54.999Z</time></trkpt><trkpt lat="42.86664195049107" lon="12.04828176952264"><ele>235.0</ele><time>2026-04-07T09:15:55.999Z</time></trkpt><trkpt lat="42.86641733362319" lon="12.0484630432169"><ele>235.0</ele><time>2026-04-07T09:15:56.999Z</time></trkpt><trkpt lat="42.86619168635066" lon="12.048637735352411"><ele>235.0</ele><time>2026-04-07T09:15:57.999Z</time></trkpt><trkpt lat="42.86597185689771" lon="12.048818991543078"><ele>235.5</ele><time>2026-04-07T09:15:58.999Z</time></trkpt><trkpt lat="42.86576264264962" lon="12.049009974215297"><ele>236.0</ele><time>2026-04-07T09:15:59.999Z</time></trkpt><trkpt lat="42.865565605966495" lon="12.049206457252607"><ele>236.5</ele><time>2026-04-07T09:16:00.999Z</time></trkpt><trkpt lat="42.86537285207082" lon="12.04941031257283"><ele>237.0</ele><time>2026-04-07T09:16:01.999Z</time></trkpt><trkpt lat="42.86518494640869" lon="12.049613022261271"><ele>238.5</ele><time>2026-04-07T09:16:02.999Z</time></trkpt><trkpt lat="42.86500708554494" lon="12.049819856007069"><ele>240.0</ele><time>2026-04-07T09:16:03.999Z</time></trkpt><trkpt lat="42.86483828756621" lon="12.050041063794989"><ele>240.5</ele><time>2026-04-07T09:16:04.999Z</time></trkpt><trkpt lat="42.8646709549325" lon="12.050274352452675"><ele>241.0</ele><time>2026-04-07T09:16:05.999Z</time></trkpt><trkpt lat="42.864501059985734" lon="12.05051188943466"><ele>241.0</ele><time>2026-04-07T09:16:06.999Z</time></trkpt><trkpt lat="42.86433183130683" lon="12.050750374586595"><ele>241.0</ele><time>2026-04-07T09:16:08Z</time></trkpt><trkpt lat="42.86417362398453" lon="12.050982192914224"><ele>242.66666666666666</ele><time>2026-04-07T09:16:09Z</time></trkpt><trkpt lat="42.86402507139883" lon="12.051198456435637"><ele>244.33333333333331</ele><time>2026-04-07T09:16:10Z</time></trkpt><trkpt lat="42.86387283228918" lon="12.05138991333077"><ele>246.0</ele><time>2026-04-07T09:16:11Z</time></trkpt><trkpt lat="42.8636911486677" lon="12.051549841298373"><ele>247.33333333333331</ele><time>2026-04-07T09:16:12Z</time></trkpt><trkpt lat="42.86350063402044" lon="12.051667807902934"><ele>248.66666666666666</ele><time>2026-04-07T09:16:13Z</time></trkpt><trkpt lat="42.86332905190778" lon="12.05173087476148"><ele>250.0</ele><time>2026-04-07T09:16:14Z</time></trkpt><trkpt lat="42.863173693556924" lon="12.051740503192587"><ele>250.0</ele><time>2026-04-07T09:16:15Z</time></trkpt><trkpt lat="42.86303652335402" lon="12.05167410273151"><ele>250.0</ele><time>2026-04-07T09:16:16Z</time></trkpt><trkpt lat="42.862922654412635" lon="12.051522940001625"><ele>250.0</ele><time>2026-04-07T09:16:17Z</time></trkpt><trkpt lat="42.862845859711534" lon="12.051308866999609"><ele>248.66666666666666</ele><time>2026-04-07T09:16:18Z</time></trkpt><trkpt lat="42.86282476784919" lon="12.051073188822318"><ele>247.33333333333331</ele><time>2026-04-07T09:16:19Z</time></trkpt><trkpt lat="42.86281583264658" lon="12.050869967705308"><ele>246.0</ele><time>2026-04-07T09:16:20Z</time></trkpt><trkpt lat="42.86276038056048" lon="12.050681376230532"><ele>245.0</ele><time>2026-04-07T09:16:21Z</time></trkpt><trkpt lat="42.86264091588966" lon="12.050548472653167"><ele>244.0</ele><time>2026-04-07T09:16:22Z</time></trkpt><trkpt lat="42.86247462832328" lon="12.050464670192625"><ele>243.0</ele><time>2026-04-07T09:16:23Z</time></trkpt><trkpt lat="42.862279042276356" lon="12.050403025983632"><ele>245.66666666666669</ele><time>2026-04-07T09:16:24Z</time></trkpt><trkpt lat="42.86208113972337" lon="12.050323204635797"><ele>248.33333333333334</ele><time>2026-04-07T09:16:25Z</time></trkpt><trkpt lat="42.861867926725694" lon="12.050228296145136"><ele>251.0</ele><time>2026-04-07T09:16:26Z</time></trkpt><trkpt lat="42.86165618071207" lon="12.050128563963177"><ele>250.33333333333334</ele><time>2026-04-07T09:16:27Z</time></trkpt><trkpt lat="42.86145227184276" lon="12.050049195494026"><ele>249.66666666666669</ele><time>2026-04-07T09:16:28Z</time></trkpt><trkpt lat="42.86125550356038" lon="12.049992862059664"><ele>249.0</ele><time>2026-04-07T09:16:29Z</time></trkpt><trkpt lat="42.861074294695975" lon="12.049929330391402"><ele>252.33333333333331</ele><time>2026-04-07T09:16:30Z</time></trkpt><trkpt lat="42.860916590285335" lon="12.049834466197234"><ele>255.66666666666666</ele><time>2026-04-07T09:16:31Z</time></trkpt><trkpt lat="42.8607725038327" lon="12.049740525013863"><ele>259.0</ele><time>2026-04-07T09:16:32Z</time></trkpt><trkpt lat="42.86062028239489" lon="12.049690026430959"><ele>259.0</ele><time>2026-04-07T09:16:33Z</time></trkpt><trkpt lat="42.86045919186759" lon="12.04973905480285"><ele>259.0</ele><time>2026-04-07T09:16:34Z</time></trkpt><trkpt lat="42.86030028191012" lon="12.049867456250245"><ele>259.0</ele><time>2026-04-07T09:16:35Z</time></trkpt><trkpt lat="42.86014135593334" lon="12.049990772747702"><ele>266.0</ele><time>2026-04-07T09:16:36Z</time></trkpt><trkpt lat="42.85997178628615" lon="12.050107134402316"><ele>273.0</ele><time>2026-04-07T09:16:37Z</time></trkpt><trkpt lat="42.85978517587012" lon="12.05018038412482"><ele>280.0</ele><time>2026-04-07T09:16:38Z</time></trkpt><trkpt lat="42.859588124053644" lon="12.050196114556467"><ele>280.0</ele><time>2026-04-07T09:16:39Z</time></trkpt><trkpt lat="42.85938141300923" lon="12.050190879757087"><ele>280.0</ele><time>2026-04-07T09:16:40Z</time></trkpt><trkpt lat="42.85916729958879" lon="12.050211452483216"><ele>280.0</ele><time>2026-04-07T09:16:41Z</time></trkpt><trkpt lat="42.858956848617346" lon="12.050266682097556"><ele>280.3333333333333</ele><time>2026-04-07T09:16:42Z</time></trkpt><trkpt lat="42.85875787763696" lon="12.050332115983245"><ele>280.6666666666667</ele><time>2026-04-07T09:16:43Z</time></trkpt><trkpt lat="42.858576452240335" lon="12.05037969876516"><ele>281.0</ele><time>2026-04-07T09:16:44Z</time></trkpt><trkpt lat="42.858410660219576" lon="12.050415571544082"><ele>281.0</ele><time>2026-04-07T09:16:45Z</time></trkpt><trkpt lat="42.858249478901385" lon="12.050495301538959"><ele>281.0</ele><time>2026-04-07T09:16:46Z</time></trkpt><trkpt lat="42.85809764014813" lon="12.05064204325435"><ele>281.0</ele><time>2026-04-07T09:16:47Z</time></trkpt><trkpt lat="42.857971892246454" lon="12.050792642233287"><ele>282.25</ele><time>2026-04-07T09:16:48Z</time></trkpt><trkpt lat="42.85786206160419" lon="12.050928472708875"><ele>283.5</ele><time>2026-04-07T09:16:49Z</time></trkpt><trkpt lat="42.85776401571957" lon="12.051045911562618"><ele>284.75</ele><time>2026-04-07T09:16:50Z</time></trkpt><trkpt lat="42.857678352187285" lon="12.05114882901638"><ele>286.0</ele><time>2026-04-07T09:16:51Z</time></trkpt><trkpt lat="42.85760515943329" lon="12.051235764337937"><ele>286.0</ele><time>2026-04-07T09:16:52Z</time></trkpt><trkpt lat="42.857553366416035" lon="12.051314568579894"><ele>286.0</ele><time>2026-04-07T09:16:53Z</time></trkpt><trkpt lat="42.857531322625135" lon="12.051412946249693"><ele>286.0</ele><time>2026-04-07T09:16:54Z</time></trkpt><trkpt lat="42.857563110630196" lon="12.051515485391198"><ele>286.0</ele><time>2026-04-07T09:16:55Z</time></trkpt><trkpt lat="42.85762132574537" lon="12.051578171804593"><ele>286.0</ele><time>2026-04-07T09:16:56Z</time></trkpt><trkpt lat="42.85771620619676" lon="12.051581426258638"><ele>286.0</ele><time>2026-04-07T09:16:57Z</time></trkpt><trkpt lat="42.85780546904504" lon="12.05153678445531"><ele>288.40000000000003</ele><time>2026-04-07T09:16:58Z</time></trkpt><trkpt lat="42.85788145785112" lon="12.051460417884625"><ele>290.8</ele><time>2026-04-07T09:16:59Z</time></trkpt><trkpt lat="42.85795712478189" lon="12.051370745495282"><ele>293.20000000000005</ele><time>2026-04-07T09:17:00Z</time></trkpt><trkpt lat="42.85802320309545" lon="12.051269565322297"><ele>295.6</ele><time>2026-04-07T09:17:01Z</time></trkpt><trkpt lat="42.858082969970106" lon="12.051162527482486"><ele>298.0</ele><time>2026-04-07T09:17:02Z</time></trkpt><trkpt lat="42.85814273275365" lon="12.051064996520017"><ele>298.0</ele><time>2026-04-07T09:17:03Z</time></trkpt><trkpt lat="42.858220370592846" lon="12.05099103502382"><ele>298.0</ele><time>2026-04-07T09:17:04Z</time></trkpt><trkpt lat="42.85832383378992" lon="12.050959572809475"><ele>298.0</ele><time>2026-04-07T09:17:05Z</time></trkpt><trkpt lat="42.85843879432982" lon="12.05098128027163"><ele>298.0</ele><time>2026-04-07T09:17:06Z</time></trkpt><trkpt lat="42.858549509451805" lon="12.051035947224008"><ele>298.0</ele><time>2026-04-07T09:17:07Z</time></trkpt><trkpt lat="42.858669555045196" lon="12.051112371595597"><ele>298.3333333333333</ele><time>2026-04-07T09:17:08Z</time></trkpt><trkpt lat="42.85881065112135" lon="12.051200568533439"><ele>298.6666666666667</ele><time>2026-04-07T09:17:09Z</time></trkpt><trkpt lat="42.85896186412646" lon="12.051281506670415"><ele>299.0</ele><time>2026-04-07T09:17:10Z</time></trkpt><trkpt lat="42.85910912595608" lon="12.051336082722138"><ele>299.0</ele><time>2026-04-07T09:17:11Z</time></trkpt><trkpt lat="42.85925432452524" lon="12.051365291445777"><ele>299.0</ele><time>2026-04-07T09:17:12Z</time></trkpt><trkpt lat="42.85937783987192" lon="12.051375585951117"><ele>299.0</ele><time>2026-04-07T09:17:13Z</time></trkpt><trkpt lat="42.85947537097029" lon="12.05137435744958"><ele>299.0</ele><time>2026-04-07T09:17:14Z</time></trkpt><trkpt lat="42.859555572244936" lon="12.051381746865431"><ele>299.0</ele><time>2026-04-07T09:17:15Z</time></trkpt><trkpt lat="42.85961493094642" lon="12.051421516765275"><ele>299.5</ele><time>2026-04-07T09:17:16Z</time></trkpt><trkpt lat="42.85964893610765" lon="12.051565189085236"><ele>300.0</ele><time>2026-04-07T09:17:18Z</time></trkpt><trkpt lat="42.8595621022839" lon="12.051705691718686"><ele>300.5</ele><time>2026-04-07T09:17:20Z</time></trkpt><trkpt lat="42.85947219794709" lon="12.051759187844604"><ele>301.0</ele><time>2026-04-07T09:17:21Z</time></trkpt><trkpt lat="42.85934026674422" lon="12.051806620644715"><ele>305.0</ele><time>2026-04-07T09:17:22Z</time></trkpt><trkpt lat="42.85916748701227" lon="12.051892368147989"><ele>309.0</ele><time>2026-04-07T09:17:23Z</time></trkpt><trkpt lat="42.85898404464474" lon="12.051997959502994"><ele>313.0</ele><time>2026-04-07T09:17:24Z</time></trkpt><trkpt lat="42.85879296424258" lon="12.052048306241412"><ele>313.0</ele><time>2026-04-07T09:17:25Z</time></trkpt><trkpt lat="42.85859401880981" lon="12.052072428201026"><ele>313.0</ele><time>2026-04-07T09:17:26Z</time></trkpt><trkpt lat="42.85840080022472" lon="12.05209368063828"><ele>313.0</ele><time>2026-04-07T09:17:27Z</time></trkpt><trkpt lat="42.85819901647983" lon="12.052156650640432"><ele>312.5</ele><time>2026-04-07T09:17:28Z</time></trkpt><trkpt lat="42.85799750981287" lon="12.05228197605464"><ele>312.0</ele><time>2026-04-07T09:17:29Z</time></trkpt><trkpt lat="42.85780309195001" lon="12.052455068493584"><ele>314.6666666666667</ele><time>2026-04-07T09:17:30Z</time></trkpt><trkpt lat="42.8576395468535" lon="12.052654276565615"><ele>317.33333333333337</ele><time>2026-04-07T09:17:31Z</time></trkpt><trkpt lat="42.85749135844412" lon="12.052842315250263"><ele>320.0</ele><time>2026-04-07T09:17:32Z</time></trkpt><trkpt lat="42.85732605934576" lon="12.052989669273877"><ele>320.0</ele><time>2026-04-07T09:17:33Z</time></trkpt><trkpt lat="42.85713847935338" lon="12.0530895653723"><ele>320.0</ele><time>2026-04-07T09:17:34Z</time></trkpt><trkpt lat="42.856937027348124" lon="12.053140739618522"><ele>320.0</ele><time>2026-04-07T09:17:35Z</time></trkpt><trkpt lat="42.856728352222845" lon="12.05313440718655"><ele>320.6666666666667</ele><time>2026-04-07T09:17:36Z</time></trkpt><trkpt lat="42.85651464436161" lon="12.053133735774068"><ele>321.3333333333333</ele><time>2026-04-07T09:17:37Z</time></trkpt><trkpt lat="42.85630336791344" lon="12.053205290026417"><ele>322.0</ele><time>2026-04-07T09:17:38Z</time></trkpt><trkpt lat="42.85611609927504" lon="12.053323259112044"><ele>327.5</ele><time>2026-04-07T09:17:39Z</time></trkpt><trkpt lat="42.85596198430254" lon="12.053412432197131"><ele>333.0</ele><time>2026-04-07T09:17:40Z</time></trkpt><trkpt lat="42.8558253066454" lon="12.053475355907882"><ele>338.5</ele><time>2026-04-07T09:17:41Z</time></trkpt><trkpt lat="42.855707089629476" lon="12.053474003203446"><ele>344.0</ele><time>2026-04-07T09:17:42Z</time></trkpt><trkpt lat="42.8556056158064" lon="12.053363414791338"><ele>344.0</ele><time>2026-04-07T09:17:43Z</time></trkpt><trkpt lat="42.85555758087675" lon="12.05320420866885"><ele>344.0</ele><time>2026-04-07T09:17:44Z</time></trkpt><trkpt lat="42.85556300202997" lon="12.053016143832277"><ele>344.0</ele><time>2026-04-07T09:17:45Z</time></trkpt><trkpt lat="42.85559197660187" lon="12.052818983553692"><ele>344.0</ele><time>2026-04-07T09:17:46Z</time></trkpt><trkpt lat="42.85561951221144" lon="12.052619964032825"><ele>344.0</ele><time>2026-04-07T09:17:47Z</time></trkpt><trkpt lat="42.855580828270604" lon="12.05246769137467"><ele>344.0</ele><time>2026-04-07T09:17:48Z</time></trkpt><trkpt lat="42.85548147694385" lon="12.052371578118837"><ele>344.0</ele><time>2026-04-07T09:17:49Z</time></trkpt><trkpt lat="42.85533693681863" lon="12.052355252553909"><ele>344.0</ele><time>2026-04-07T09:17:50Z</time></trkpt><trkpt lat="42.85518230074504" lon="12.05245913923754"><ele>346.33333333333337</ele><time>2026-04-07T09:17:51Z</time></trkpt><trkpt lat="42.85501070090624" lon="12.052630225633234"><ele>348.6666666666667</ele><time>2026-04-07T09:17:52Z</time></trkpt><trkpt lat="42.85481006419713" lon="12.052774683235345"><ele>351.0</ele><time>2026-04-07T09:17:53Z</time></trkpt><trkpt lat="42.85457748083471" lon="12.052842350113417"><ele>351.0</ele><time>2026-04-07T09:17:54Z</time></trkpt><trkpt lat="42.85437995560451" lon="12.052910046129645"><ele>351.0</ele><time>2026-04-07T09:17:55Z</time></trkpt><trkpt lat="42.8542213071146" lon="12.05294024339527"><ele>351.0</ele><time>2026-04-07T09:17:56Z</time></trkpt><trkpt lat="42.854111473690054" lon="12.053018571431787"><ele>351.5</ele><time>2026-04-07T09:17:57Z</time></trkpt><trkpt lat="42.85404087282033" lon="12.053158657643396"><ele>352.0</ele><time>2026-04-07T09:17:58Z</time></trkpt><trkpt lat="42.854057826575406" lon="12.053336886993808"><ele>352.5</ele><time>2026-04-07T09:17:59Z</time></trkpt><trkpt lat="42.85416219257658" lon="12.053519654382963"><ele>353.0</ele><time>2026-04-07T09:18:00Z</time></trkpt><trkpt lat="42.8543211291427" lon="12.05369119552854"><ele>356.0</ele><time>2026-04-07T09:18:01Z</time></trkpt><trkpt lat="42.85446248930977" lon="12.05390023622012"><ele>359.0</ele><time>2026-04-07T09:18:02Z</time></trkpt><trkpt lat="42.85456145328623" lon="12.054154023349263"><ele>362.0</ele><time>2026-04-07T09:18:03Z</time></trkpt><trkpt lat="42.854601186580005" lon="12.05438141392679"><ele>363.33333333333337</ele><time>2026-04-07T09:18:04Z</time></trkpt><trkpt lat="42.85459096704323" lon="12.05460299660365"><ele>364.6666666666667</ele><time>2026-04-07T09:18:05Z</time></trkpt><trkpt lat="42.85450613386549" lon="12.05482685040145"><ele>366.0</ele><time>2026-04-07T09:18:06Z</time></trkpt><trkpt lat="42.854432206652355" lon="12.05506255342208"><ele>367.3333333333333</ele><time>2026-04-07T09:18:07Z</time></trkpt><trkpt lat="42.85439339328264" lon="12.055282802507417"><ele>368.66666666666663</ele><time>2026-04-07T09:18:08Z</time></trkpt><trkpt lat="42.85444086055362" lon="12.055515627078359"><ele>370.0</ele><time>2026-04-07T09:18:09Z</time></trkpt><trkpt lat="42.854574532533995" lon="12.055748127361563"><ele>369.5</ele><time>2026-04-07T09:18:10Z</time></trkpt><trkpt lat="42.854745922434645" lon="12.055963435206966"><ele>369.0</ele><time>2026-04-07T09:18:11Z</time></trkpt><trkpt lat="42.85493544562117" lon="12.05616662989672"><ele>367.5</ele><time>2026-04-07T09:18:12Z</time></trkpt><trkpt lat="42.855180428060144" lon="12.056332883804654"><ele>366.0</ele><time>2026-04-07T09:18:13Z</time></trkpt><trkpt lat="42.85543714006589" lon="12.05649329621193"><ele>366.0</ele><time>2026-04-07T09:18:14Z</time></trkpt><trkpt lat="42.85564744008414" lon="12.05660183376154"><ele>366.0</ele><time>2026-04-07T09:18:15Z</time></trkpt><trkpt lat="42.85581070885065" lon="12.056691382219975"><ele>366.0</ele><time>2026-04-07T09:18:16Z</time></trkpt><trkpt lat="42.855929913608435" lon="12.056817522554063"><ele>367.5</ele><time>2026-04-07T09:18:17Z</time></trkpt><trkpt lat="42.85599501941449" lon="12.056995040847669"><ele>369.0</ele><time>2026-04-07T09:18:18Z</time></trkpt><trkpt lat="42.85600675505231" lon="12.057192908790432"><ele>370.5</ele><time>2026-04-07T09:18:19Z</time></trkpt><trkpt lat="42.85595309858827" lon="12.05737872552028"><ele>372.0</ele><time>2026-04-07T09:18:20Z</time></trkpt><trkpt lat="42.855836934490924" lon="12.057504258228406"><ele>374.0</ele><time>2026-04-07T09:18:21Z</time></trkpt><trkpt lat="42.85566285877728" lon="12.057590208751169"><ele>376.0</ele><time>2026-04-07T09:18:22Z</time></trkpt><trkpt lat="42.85544290345425" lon="12.05766308187122"><ele>378.0</ele><time>2026-04-07T09:18:23Z</time></trkpt><trkpt lat="42.85519123535291" lon="12.057743961895731"><ele>379.0</ele><time>2026-04-07T09:18:24Z</time></trkpt><trkpt lat="42.85495191948006" lon="12.057791958611359"><ele>380.0</ele><time>2026-04-07T09:18:25Z</time></trkpt><trkpt lat="42.85473811793132" lon="12.057823781675353"><ele>380.0</ele><time>2026-04-07T09:18:26Z</time></trkpt><trkpt lat="42.854557060185144" lon="12.057746677020036"><ele>380.0</ele><time>2026-04-07T09:18:27Z</time></trkpt><trkpt lat="42.85439221997966" lon="12.057687508014723"><ele>380.0</ele><time>2026-04-07T09:18:28Z</time></trkpt><trkpt lat="42.8542516254263" lon="12.05763424852708"><ele>380.0</ele><time>2026-04-07T09:18:29Z</time></trkpt><trkpt lat="42.854096400476614" lon="12.057705715137056"><ele>380.0</ele><time>2026-04-07T09:18:30Z</time></trkpt><trkpt lat="42.853955553961775" lon="12.05787454817568"><ele>380.0</ele><time>2026-04-07T09:18:31Z</time></trkpt><trkpt lat="42.853856843629416" lon="12.058094263254409"><ele>384.33333333333337</ele><time>2026-04-07T09:18:32Z</time></trkpt><trkpt lat="42.85381821747017" lon="12.058364762947877"><ele>388.6666666666667</ele><time>2026-04-07T09:18:33Z</time></trkpt><trkpt lat="42.853841808704175" lon="12.05864717280449"><ele>393.0</ele><time>2026-04-07T09:18:34Z</time></trkpt><trkpt lat="42.853903430531396" lon="12.058975783678552"><ele>396.33333333333337</ele><time>2026-04-07T09:18:35Z</time></trkpt><trkpt lat="42.853982500172165" lon="12.059280299640335"><ele>399.6666666666667</ele><time>2026-04-07T09:18:36Z</time></trkpt><trkpt lat="42.85402144503401" lon="12.059556818008655"><ele>403.0</ele><time>2026-04-07T09:18:37Z</time></trkpt><trkpt lat="42.854005478139186" lon="12.059790967825283"><ele>402.25</ele><time>2026-04-07T09:18:38Z</time></trkpt><trkpt lat="42.85393863051754" lon="12.059959044221895"><ele>401.5</ele><time>2026-04-07T09:18:39Z</time></trkpt><trkpt lat="42.85382444668126" lon="12.060053873399813"><ele>400.75</ele><time>2026-04-07T09:18:40Z</time></trkpt><trkpt lat="42.85365443427854" lon="12.060079901442638"><ele>400.0</ele><time>2026-04-07T09:18:41Z</time></trkpt><trkpt lat="42.85345495259713" lon="12.060150452683413"><ele>400.0</ele><time>2026-04-07T09:18:42Z</time></trkpt><trkpt lat="42.853276183839796" lon="12.060247542654352"><ele>400.0</ele><time>2026-04-07T09:18:43Z</time></trkpt><trkpt lat="42.85313457917108" lon="12.060411988938933"><ele>400.0</ele><time>2026-04-07T09:18:44Z</time></trkpt><trkpt lat="42.85303495813491" lon="12.060597340240209"><ele>405.33333333333337</ele><time>2026-04-07T09:18:45Z</time></trkpt><trkpt lat="42.85299910271357" lon="12.06079952667447"><ele>410.66666666666663</ele><time>2026-04-07T09:18:46Z</time></trkpt><trkpt lat="42.853038299378284" lon="12.061042514150001"><ele>416.0</ele><time>2026-04-07T09:18:47Z</time></trkpt><trkpt lat="42.853151342470014" lon="12.061321295731199"><ele>416.0</ele><time>2026-04-07T09:18:48Z</time></trkpt><trkpt lat="42.853291522826176" lon="12.06161309582048"><ele>416.0</ele><time>2026-04-07T09:18:49Z</time></trkpt><trkpt lat="42.85346420966776" lon="12.061909980239099"><ele>428.5</ele><time>2026-04-07T09:18:50Z</time></trkpt><trkpt lat="42.85366053580579" lon="12.062174355444888"><ele>441.0</ele><time>2026-04-07T09:18:50.999Z</time></trkpt><trkpt lat="42.85388664584495" lon="12.062394972357147"><ele>440.5</ele><time>2026-04-07T09:18:51.999Z</time></trkpt><trkpt lat="42.85411581682929" lon="12.062561225712178"><ele>440.0</ele><time>2026-04-07T09:18:52.999Z</time></trkpt><trkpt lat="42.85432027181973" lon="12.062685939108714"><ele>440.0</ele><time>2026-04-07T09:18:53.999Z</time></trkpt><trkpt lat="42.85447408216869" lon="12.062811483669154"><ele>440.0</ele><time>2026-04-07T09:18:54.999Z</time></trkpt><trkpt lat="42.85457988504727" lon="12.062914528068365"><ele>440.0</ele><time>2026-04-07T09:18:55.999Z</time></trkpt><trkpt lat="42.85463938022846" lon="12.06304999810321"><ele>440.0</ele><time>2026-04-07T09:18:56.999Z</time></trkpt><trkpt lat="42.85463114795115" lon="12.063259928314917"><ele>438.3333333333333</ele><time>2026-04-07T09:18:57.999Z</time></trkpt><trkpt lat="42.85456152333048" lon="12.063498555824044"><ele>436.66666666666663</ele><time>2026-04-07T09:18:58.999Z</time></trkpt><trkpt lat="42.85445180418198" lon="12.063749168358921"><ele>435.0</ele><time>2026-04-07T09:18:59.999Z</time></trkpt><trkpt lat="42.85430784199734" lon="12.063996444522346"><ele>435.0</ele><time>2026-04-07T09:19:00.999Z</time></trkpt><trkpt lat="42.854142320508316" lon="12.06421328592465"><ele>435.0</ele><time>2026-04-07T09:19:01.999Z</time></trkpt><trkpt lat="42.85396481441759" lon="12.064337429241748"><ele>435.0</ele><time>2026-04-07T09:19:02.999Z</time></trkpt><trkpt lat="42.853771405934324" lon="12.064395811647907"><ele>435.0</ele><time>2026-04-07T09:19:03.999Z</time></trkpt><trkpt lat="42.85355049515513" lon="12.064422534573701"><ele>435.0</ele><time>2026-04-07T09:19:04.999Z</time></trkpt><trkpt lat="42.853307445868694" lon="12.064447916364285"><ele>437.33333333333337</ele><time>2026-04-07T09:19:05.999Z</time></trkpt><trkpt lat="42.85307934786628" lon="12.064461199280908"><ele>439.6666666666667</ele><time>2026-04-07T09:19:06.999Z</time></trkpt><trkpt lat="42.85288220088019" lon="12.064491575751177"><ele>442.0</ele><time>2026-04-07T09:19:07.999Z</time></trkpt><trkpt lat="42.852703146348325" lon="12.064557810321547"><ele>443.0</ele><time>2026-04-07T09:19:08.999Z</time></trkpt><trkpt lat="42.85253135907096" lon="12.06470208076332"><ele>444.0</ele><time>2026-04-07T09:19:09.999Z</time></trkpt><trkpt lat="42.85238473093568" lon="12.06491431595249"><ele>445.0</ele><time>2026-04-07T09:19:10.999Z</time></trkpt><trkpt lat="42.85227837576145" lon="12.065162945631554"><ele>445.0</ele><time>2026-04-07T09:19:11.999Z</time></trkpt><trkpt lat="42.852225991708835" lon="12.065440578235853"><ele>445.0</ele><time>2026-04-07T09:19:12.999Z</time></trkpt><trkpt lat="42.85222213022897" lon="12.065732261211762"><ele>445.0</ele><time>2026-04-07T09:19:13.999Z</time></trkpt><trkpt lat="42.85225526570354" lon="12.066028670564787"><ele>446.6666666666667</ele><time>2026-04-07T09:19:14.999Z</time></trkpt><trkpt lat="42.85232178336782" lon="12.06630948424819"><ele>448.33333333333337</ele><time>2026-04-07T09:19:15.999Z</time></trkpt><trkpt lat="42.85234860355906" lon="12.066550604523721"><ele>450.0</ele><time>2026-04-07T09:19:16.999Z</time></trkpt><trkpt lat="42.85236691446931" lon="12.066766465076917"><ele>451.25</ele><time>2026-04-07T09:19:17.999Z</time></trkpt><trkpt lat="42.852342669447985" lon="12.066958884150772"><ele>452.5</ele><time>2026-04-07T09:19:18.999Z</time></trkpt><trkpt lat="42.852276860178" lon="12.067131201694625"><ele>453.75</ele><time>2026-04-07T09:19:19.999Z</time></trkpt><trkpt lat="42.85213960455565" lon="12.067239338768635"><ele>455.0</ele><time>2026-04-07T09:19:20.999Z</time></trkpt><trkpt lat="42.85196373743396" lon="12.067282269215662"><ele>453.3333333333333</ele><time>2026-04-07T09:19:21.999Z</time></trkpt><trkpt lat="42.85175894533729" lon="12.067307851857887"><ele>451.66666666666663</ele><time>2026-04-07T09:19:22.999Z</time></trkpt><trkpt lat="42.851549901909145" lon="12.067292838149703"><ele>450.0</ele><time>2026-04-07T09:19:23.999Z</time></trkpt><trkpt lat="42.8513710326361" lon="12.06732778925199"><ele>453.0</ele><time>2026-04-07T09:19:24.999Z</time></trkpt><trkpt lat="42.85121827194688" lon="12.067445382306573"><ele>456.0</ele><time>2026-04-07T09:19:25.999Z</time></trkpt><trkpt lat="42.85108477245432" lon="12.067616557351398"><ele>459.0</ele><time>2026-04-07T09:19:26.999Z</time></trkpt><trkpt lat="42.85097416402995" lon="12.067810680186158"><ele>458.33333333333337</ele><time>2026-04-07T09:19:27.999Z</time></trkpt><trkpt lat="42.85083989588679" lon="12.067930812528079"><ele>457.6666666666667</ele><time>2026-04-07T09:19:28.999Z</time></trkpt><trkpt lat="42.85068429834685" lon="12.068028546595666"><ele>457.0</ele><time>2026-04-07T09:19:29.999Z</time></trkpt><trkpt lat="42.85049210289576" lon="12.068043853594853"><ele>457.0</ele><time>2026-04-07T09:19:30.999Z</time></trkpt><trkpt lat="42.850280851729856" lon="12.06800017647903"><ele>457.0</ele><time>2026-04-07T09:19:31.999Z</time></trkpt><trkpt lat="42.85005705800285" lon="12.067924891593107"><ele>457.0</ele><time>2026-04-07T09:19:32.999Z</time></trkpt><trkpt lat="42.8498380001234" lon="12.067862546844953"><ele>459.6666666666667</ele><time>2026-04-07T09:19:33.999Z</time></trkpt><trkpt lat="42.84964965328001" lon="12.067811418476523"><ele>462.33333333333337</ele><time>2026-04-07T09:19:34.999Z</time></trkpt><trkpt lat="42.849480427444796" lon="12.067786825139267"><ele>465.0</ele><time>2026-04-07T09:19:35.999Z</time></trkpt><trkpt lat="42.849326458106844" lon="12.067805840266788"><ele>466.66666666666663</ele><time>2026-04-07T09:19:36.999Z</time></trkpt><trkpt lat="42.84918090874445" lon="12.067868570615087"><ele>468.3333333333333</ele><time>2026-04-07T09:19:37.999Z</time></trkpt><trkpt lat="42.84903405439145" lon="12.067929494045375"><ele>470.0</ele><time>2026-04-07T09:19:38.999Z</time></trkpt><trkpt lat="42.848867959475854" lon="12.067924369153086"><ele>470.0</ele><time>2026-04-07T09:19:39.999Z</time></trkpt><trkpt lat="42.84869204628754" lon="12.067897452702052"><ele>470.0</ele><time>2026-04-07T09:19:40.999Z</time></trkpt><trkpt lat="42.848521856566805" lon="12.06787071980411"><ele>470.0</ele><time>2026-04-07T09:19:41.999Z</time></trkpt><trkpt lat="42.84835747831441" lon="12.067823150598244"><ele>469.3333333333333</ele><time>2026-04-07T09:19:42.999Z</time></trkpt><trkpt lat="42.848199286405034" lon="12.067783136253892"><ele>468.66666666666663</ele><time>2026-04-07T09:19:43.999Z</time></trkpt><trkpt lat="42.848052012980915" lon="12.067738151521167"><ele>468.0</ele><time>2026-04-07T09:19:44.999Z</time></trkpt><trkpt lat="42.847911637098065" lon="12.067664908793814"><ele>468.0</ele><time>2026-04-07T09:19:45.999Z</time></trkpt><trkpt lat="42.847781680609906" lon="12.06755925625092"><ele>468.0</ele><time>2026-04-07T09:19:46.999Z</time></trkpt><trkpt lat="42.847660261168926" lon="12.067446801887415"><ele>468.0</ele><time>2026-04-07T09:19:47.999Z</time></trkpt><trkpt lat="42.84755261021574" lon="12.067326520067313"><ele>468.0</ele><time>2026-04-07T09:19:48.999Z</time></trkpt><trkpt lat="42.84745355695686" lon="12.067191087193429"><ele>466.0</ele><time>2026-04-07T09:19:49.999Z</time></trkpt><trkpt lat="42.84736791633552" lon="12.06702384932893"><ele>464.0</ele><time>2026-04-07T09:19:50.999Z</time></trkpt><trkpt lat="42.84728181545658" lon="12.066850668863859"><ele>462.0</ele><time>2026-04-07T09:19:51.999Z</time></trkpt><trkpt lat="42.84719791885071" lon="12.06666738581144"><ele>462.0</ele><time>2026-04-07T09:19:52.999Z</time></trkpt><trkpt lat="42.84711147489011" lon="12.066476398208492"><ele>462.0</ele><time>2026-04-07T09:19:53.999Z</time></trkpt><trkpt lat="42.847016797572" lon="12.06628544348496"><ele>462.0</ele><time>2026-04-07T09:19:54.999Z</time></trkpt><trkpt lat="42.84690976944323" lon="12.066101021108569"><ele>461.0</ele><time>2026-04-07T09:19:55.999Z</time></trkpt><trkpt lat="42.8467818834601" lon="12.065926026953381"><ele>460.0</ele><time>2026-04-07T09:19:56.999Z</time></trkpt><trkpt lat="42.8466433644006" lon="12.065764811869736"><ele>459.0</ele><time>2026-04-07T09:19:57.999Z</time></trkpt><trkpt lat="42.846497948281645" lon="12.0656102214255"><ele>461.66666666666663</ele><time>2026-04-07T09:19:58.999Z</time></trkpt><trkpt lat="42.84635376626788" lon="12.065461290428791"><ele>464.3333333333333</ele><time>2026-04-07T09:19:59.999Z</time></trkpt><trkpt lat="42.84620369884858" lon="12.065321461733955"><ele>467.0</ele><time>2026-04-07T09:20:00.999Z</time></trkpt><trkpt lat="42.84604469778723" lon="12.065197431130073"><ele>463.3333333333333</ele><time>2026-04-07T09:20:01.999Z</time></trkpt><trkpt lat="42.84587283027363" lon="12.06509875967485"><ele>459.66666666666663</ele><time>2026-04-07T09:20:02.999Z</time></trkpt><trkpt lat="42.84569173993002" lon="12.065019984698344"><ele>456.0</ele><time>2026-04-07T09:20:03.999Z</time></trkpt><trkpt lat="42.84550109587628" lon="12.064969410284018"><ele>454.0</ele><time>2026-04-07T09:20:04.999Z</time></trkpt><trkpt lat="42.84530555794721" lon="12.064938369306445"><ele>452.0</ele><time>2026-04-07T09:20:05.999Z</time></trkpt><trkpt lat="42.845106073393694" lon="12.064915400451923"><ele>450.0</ele><time>2026-04-07T09:20:06.999Z</time></trkpt><trkpt lat="42.84490184584186" lon="12.064913240253485"><ele>449.66666666666663</ele><time>2026-04-07T09:20:07.999Z</time></trkpt><trkpt lat="42.844698410889485" lon="12.06493163790419"><ele>449.3333333333333</ele><time>2026-04-07T09:20:08.999Z</time></trkpt><trkpt lat="42.84449999701999" lon="12.064961930763696"><ele>449.0</ele><time>2026-04-07T09:20:09.999Z</time></trkpt><trkpt lat="42.84430865831402" lon="12.064985359484451"><ele>447.0</ele><time>2026-04-07T09:20:10.999Z</time></trkpt><trkpt lat="42.844120023984935" lon="12.064976801884947"><ele>445.0</ele><time>2026-04-07T09:20:11.999Z</time></trkpt><trkpt lat="42.843938640558285" lon="12.064939877071133"><ele>443.0</ele><time>2026-04-07T09:20:12.999Z</time></trkpt><trkpt lat="42.843766414382294" lon="12.064906806512028"><ele>443.0</ele><time>2026-04-07T09:20:13.999Z</time></trkpt><trkpt lat="42.843599815735836" lon="12.06488184017784"><ele>443.0</ele><time>2026-04-07T09:20:14.999Z</time></trkpt><trkpt lat="42.84343751087649" lon="12.064879753098486"><ele>443.0</ele><time>2026-04-07T09:20:15.999Z</time></trkpt><trkpt lat="42.84327719448803" lon="12.064906268798826"><ele>441.3333333333333</ele><time>2026-04-07T09:20:16.999Z</time></trkpt><trkpt lat="42.84311297140876" lon="12.064944943117036"><ele>439.66666666666663</ele><time>2026-04-07T09:20:17.999Z</time></trkpt><trkpt lat="42.84295103422362" lon="12.06499148380157"><ele>438.0</ele><time>2026-04-07T09:20:18.999Z</time></trkpt><trkpt lat="42.84279202223362" lon="12.065051621910202"><ele>438.0</ele><time>2026-04-07T09:20:19.999Z</time></trkpt><trkpt lat="42.84263889697461" lon="12.06513250054183"><ele>438.0</ele><time>2026-04-07T09:20:20.999Z</time></trkpt><trkpt lat="42.84249062640848" lon="12.065219520291857"><ele>438.0</ele><time>2026-04-07T09:20:21.999Z</time></trkpt><trkpt lat="42.842345029296965" lon="12.06530304517195"><ele>438.0</ele><time>2026-04-07T09:20:22.999Z</time></trkpt><trkpt lat="42.842198879999366" lon="12.065386134688824"><ele>438.0</ele><time>2026-04-07T09:20:23.999Z</time></trkpt><trkpt lat="42.84204690263758" lon="12.06546543131636"><ele>438.0</ele><time>2026-04-07T09:20:24.999Z</time></trkpt><trkpt lat="42.8418919945697" lon="12.06553458120541"><ele>438.0</ele><time>2026-04-07T09:20:25.999Z</time></trkpt><trkpt lat="42.84173315582101" lon="12.065588834617246"><ele>438.0</ele><time>2026-04-07T09:20:26.999Z</time></trkpt><trkpt lat="42.841570120789235" lon="12.065632156844737"><ele>438.0</ele><time>2026-04-07T09:20:27.999Z</time></trkpt><trkpt lat="42.841412069222656" lon="12.065677489802662"><ele>438.0</ele><time>2026-04-07T09:20:28.999Z</time></trkpt><trkpt lat="42.841264918293106" lon="12.06571597052574"><ele>438.0</ele><time>2026-04-07T09:20:29.999Z</time></trkpt><trkpt lat="42.84112257947213" lon="12.06575101408137"><ele>438.0</ele><time>2026-04-07T09:20:30.999Z</time></trkpt><trkpt lat="42.840986898517585" lon="12.06578108678384"><ele>438.0</ele><time>2026-04-07T09:20:31.999Z</time></trkpt><trkpt lat="42.840856229186" lon="12.065801670018926"><ele>437.25</ele><time>2026-04-07T09:20:32.999Z</time></trkpt><trkpt lat="42.84073234465086" lon="12.065799960802194"><ele>436.5</ele><time>2026-04-07T09:20:33.999Z</time></trkpt><trkpt lat="42.84060681583854" lon="12.065753138846521"><ele>435.75</ele><time>2026-04-07T09:20:34.999Z</time></trkpt><trkpt lat="42.84048255088073" lon="12.065663151966666"><ele>435.0</ele><time>2026-04-07T09:20:35.999Z</time></trkpt><trkpt lat="42.84036605182971" lon="12.065540565069654"><ele>435.0</ele><time>2026-04-07T09:20:36.999Z</time></trkpt><trkpt lat="42.84025411340809" lon="12.06541663878164"><ele>435.0</ele><time>2026-04-07T09:20:37.999Z</time></trkpt><trkpt lat="42.84014900448184" lon="12.065299340716114"><ele>435.0</ele><time>2026-04-07T09:20:38.999Z</time></trkpt><trkpt lat="42.84005223803005" lon="12.065181272486305"><ele>435.0</ele><time>2026-04-07T09:20:39.999Z</time></trkpt><trkpt lat="42.839961374803366" lon="12.065063740974423"><ele>434.5</ele><time>2026-04-07T09:20:40.999Z</time></trkpt><trkpt lat="42.839868404618244" lon="12.064956416626151"><ele>434.0</ele><time>2026-04-07T09:20:41.999Z</time></trkpt><trkpt lat="42.83976053834566" lon="12.064874249879097"><ele>433.5</ele><time>2026-04-07T09:20:42.999Z</time></trkpt><trkpt lat="42.83963472084854" lon="12.064846308715461"><ele>433.0</ele><time>2026-04-07T09:20:43.999Z</time></trkpt><trkpt lat="42.83950026403756" lon="12.064900935895544"><ele>433.0</ele><time>2026-04-07T09:20:44.999Z</time></trkpt><trkpt lat="42.839381092304286" lon="12.064994686595357"><ele>433.0</ele><time>2026-04-07T09:20:45.999Z</time></trkpt><trkpt lat="42.83928210816165" lon="12.06510981217947"><ele>433.0</ele><time>2026-04-07T09:20:46.999Z</time></trkpt><trkpt lat="42.83922791992826" lon="12.065265629332409"><ele>433.0</ele><time>2026-04-07T09:20:48Z</time></trkpt><trkpt lat="42.83919100710145" lon="12.065421951118122"><ele>433.5</ele><time>2026-04-07T09:20:49Z</time></trkpt><trkpt lat="42.839231874004064" lon="12.065618341780516"><ele>434.0</ele><time>2026-04-07T09:20:50Z</time></trkpt><trkpt lat="42.83930338116986" lon="12.06579424171344"><ele>434.5</ele><time>2026-04-07T09:20:51Z</time></trkpt><trkpt lat="42.839350868926054" lon="12.065967652794635"><ele>435.0</ele><time>2026-04-07T09:20:52Z</time></trkpt><trkpt lat="42.839337135933526" lon="12.0661257626979"><ele>433.0</ele><time>2026-04-07T09:20:53Z</time></trkpt><trkpt lat="42.839296136192274" lon="12.066282297758272"><ele>431.0</ele><time>2026-04-07T09:20:54Z</time></trkpt><trkpt lat="42.83923879894227" lon="12.066428520981304"><ele>429.0</ele><time>2026-04-07T09:20:55Z</time></trkpt><trkpt lat="42.8391673346108" lon="12.066524668244877"><ele>427.0</ele><time>2026-04-07T09:20:56Z</time></trkpt><trkpt lat="42.839070628745006" lon="12.066589673554141"><ele>427.0</ele><time>2026-04-07T09:20:57Z</time></trkpt><trkpt lat="42.838963316856066" lon="12.06654723077185"><ele>427.0</ele><time>2026-04-07T09:20:58Z</time></trkpt><trkpt lat="42.838874911354104" lon="12.066456189960702"><ele>427.0</ele><time>2026-04-07T09:20:59Z</time></trkpt><trkpt lat="42.83880093874125" lon="12.066323621980418"><ele>427.0</ele><time>2026-04-07T09:21:00Z</time></trkpt><trkpt lat="42.838709474796566" lon="12.066182279806409"><ele>427.0</ele><time>2026-04-07T09:21:01Z</time></trkpt><trkpt lat="42.83861550628224" lon="12.06601765000096"><ele>427.0</ele><time>2026-04-07T09:21:02Z</time></trkpt><trkpt lat="42.83851933346661" lon="12.065869583915909"><ele>427.0</ele><time>2026-04-07T09:21:03Z</time></trkpt><trkpt lat="42.83840650816997" lon="12.065756112310043"><ele>427.0</ele><time>2026-04-07T09:21:04Z</time></trkpt><trkpt lat="42.838280308451395" lon="12.065679176796465"><ele>424.40000000000003</ele><time>2026-04-07T09:21:05Z</time></trkpt><trkpt lat="42.838158796426285" lon="12.065634542978856"><ele>421.80000000000007</ele><time>2026-04-07T09:21:06Z</time></trkpt><trkpt lat="42.83804729691341" lon="12.065630646132728"><ele>419.2</ele><time>2026-04-07T09:21:07Z</time></trkpt><trkpt lat="42.83794436839319" lon="12.065638642725158"><ele>416.6</ele><time>2026-04-07T09:21:08Z</time></trkpt><trkpt lat="42.837854377188876" lon="12.06563773790357"><ele>414.0</ele><time>2026-04-07T09:21:09Z</time></trkpt><trkpt lat="42.837763815592666" lon="12.065632015403663"><ele>414.0</ele><time>2026-04-07T09:21:10Z</time></trkpt><trkpt lat="42.837672020321236" lon="12.065628611041973"><ele>414.0</ele><time>2026-04-07T09:21:11Z</time></trkpt><trkpt lat="42.837573178241406" lon="12.065648022012589"><ele>414.0</ele><time>2026-04-07T09:21:12Z</time></trkpt><trkpt lat="42.83746691048463" lon="12.065650090118684"><ele>414.0</ele><time>2026-04-07T09:21:13Z</time></trkpt><trkpt lat="42.83736208290668" lon="12.065650151085004"><ele>414.0</ele><time>2026-04-07T09:21:14Z</time></trkpt><trkpt lat="42.83726718516845" lon="12.065651783692156"><ele>413.79999999999995</ele><time>2026-04-07T09:21:15Z</time></trkpt><trkpt lat="42.8371723858999" lon="12.065649026689938"><ele>413.59999999999997</ele><time>2026-04-07T09:21:16Z</time></trkpt><trkpt lat="42.83707605932386" lon="12.065620872947326"><ele>413.4</ele><time>2026-04-07T09:21:17Z</time></trkpt><trkpt lat="42.836963265477515" lon="12.065583547928172"><ele>413.2</ele><time>2026-04-07T09:21:18Z</time></trkpt><trkpt lat="42.83683708233775" lon="12.065545150567468"><ele>413.0</ele><time>2026-04-07T09:21:19Z</time></trkpt><trkpt lat="42.83670017521937" lon="12.065507673040077"><ele>413.0</ele><time>2026-04-07T09:21:20Z</time></trkpt><trkpt lat="42.83655866747323" lon="12.065472510181765"><ele>413.0</ele><time>2026-04-07T09:21:21Z</time></trkpt><trkpt lat="42.83641587952269" lon="12.06544427583975"><ele>413.0</ele><time>2026-04-07T09:21:22Z</time></trkpt><trkpt lat="42.836272165460926" lon="12.0654277393557"><ele>413.0</ele><time>2026-04-07T09:21:23Z</time></trkpt><trkpt lat="42.836128989432126" lon="12.065424634701541"><ele>413.0</ele><time>2026-04-07T09:21:24Z</time></trkpt><trkpt lat="42.83598877536074" lon="12.065428980312928"><ele>413.0</ele><time>2026-04-07T09:21:25Z</time></trkpt><trkpt lat="42.835848749036344" lon="12.065438507597259"><ele>413.0</ele><time>2026-04-07T09:21:26Z</time></trkpt><trkpt lat="42.8357093693869" lon="12.0654474295573"><ele>413.0</ele><time>2026-04-07T09:21:27Z</time></trkpt><trkpt lat="42.8355685630106" lon="12.06545763250723"><ele>412.25</ele><time>2026-04-07T09:21:28Z</time></trkpt><trkpt lat="42.835428131332435" lon="12.065468107803076"><ele>411.5</ele><time>2026-04-07T09:21:29Z</time></trkpt><trkpt lat="42.8352926409494" lon="12.065474911849726"><ele>410.75</ele><time>2026-04-07T09:21:30Z</time></trkpt><trkpt lat="42.83516294332721" lon="12.065481382450841"><ele>410.0</ele><time>2026-04-07T09:21:31Z</time></trkpt><trkpt lat="42.835043732935816" lon="12.06548488761538"><ele>408.8</ele><time>2026-04-07T09:21:32Z</time></trkpt><trkpt lat="42.83493757837041" lon="12.065486728825194"><ele>407.6</ele><time>2026-04-07T09:21:33Z</time></trkpt><trkpt lat="42.83484337302093" lon="12.06549919001301"><ele>406.4</ele><time>2026-04-07T09:21:34Z</time></trkpt><trkpt lat="42.83473471396319" lon="12.065535899965573"><ele>405.2</ele><time>2026-04-07T09:21:35Z</time></trkpt><trkpt lat="42.83465070189439" lon="12.0656489922755"><ele>404.0</ele><time>2026-04-07T09:21:36Z</time></trkpt><trkpt lat="42.83459646884154" lon="12.065800385916825"><ele>408.75</ele><time>2026-04-07T09:21:37Z</time></trkpt><trkpt lat="42.83455400713582" lon="12.065976040784182"><ele>413.5</ele><time>2026-04-07T09:21:38Z</time></trkpt><trkpt lat="42.834484189674306" lon="12.066108829033864"><ele>418.25</ele><time>2026-04-07T09:21:39Z</time></trkpt><trkpt lat="42.8343687606581" lon="12.066212069671584"><ele>423.0</ele><time>2026-04-07T09:21:40Z</time></trkpt><trkpt lat="42.834225638306584" lon="12.066242791254904"><ele>423.0</ele><time>2026-04-07T09:21:41Z</time></trkpt><trkpt lat="42.83408768238001" lon="12.066273009905435"><ele>423.0</ele><time>2026-04-07T09:21:42Z</time></trkpt><trkpt lat="42.83395568547013" lon="12.066301124445694"><ele>423.0</ele><time>2026-04-07T09:21:43Z</time></trkpt><trkpt lat="42.8338173962691" lon="12.066303475673454"><ele>423.0</ele><time>2026-04-07T09:21:44Z</time></trkpt><trkpt lat="42.8336988182417" lon="12.06631211626204"><ele>423.0</ele><time>2026-04-07T09:21:45Z</time></trkpt><trkpt lat="42.83359166447221" lon="12.066331432208395"><ele>423.0</ele><time>2026-04-07T09:21:46Z</time></trkpt><trkpt lat="42.83348559322205" lon="12.06636198214075"><ele>423.0</ele><time>2026-04-07T09:21:47Z</time></trkpt><trkpt lat="42.83339082895798" lon="12.066385137308547"><ele>423.0</ele><time>2026-04-07T09:21:48Z</time></trkpt><trkpt lat="42.833303555796796" lon="12.0663982742169"><ele>423.0</ele><time>2026-04-07T09:21:49Z</time></trkpt><trkpt lat="42.833218396559175" lon="12.066414467741751"><ele>424.59999999999997</ele><time>2026-04-07T09:21:50Z</time></trkpt><trkpt lat="42.83313199865645" lon="12.066437279596501"><ele>426.2</ele><time>2026-04-07T09:21:51Z</time></trkpt><trkpt lat="42.83304035011315" lon="12.066456058987416"><ele>427.8</ele><time>2026-04-07T09:21:52Z</time></trkpt><trkpt lat="42.83293946546921" lon="12.0664719938556"><ele>429.4</ele><time>2026-04-07T09:21:53Z</time></trkpt><trkpt lat="42.832832496278876" lon="12.066479691707436"><ele>431.0</ele><time>2026-04-07T09:21:54Z</time></trkpt><trkpt lat="42.83271312658319" lon="12.06650380736421"><ele>429.75</ele><time>2026-04-07T09:21:55Z</time></trkpt><trkpt lat="42.83259076959524" lon="12.066529132410226"><ele>428.5</ele><time>2026-04-07T09:21:56Z</time></trkpt><trkpt lat="42.83246997918992" lon="12.066552324677847"><ele>427.25</ele><time>2026-04-07T09:21:57Z</time></trkpt><trkpt lat="42.83235208618136" lon="12.066570399338312"><ele>426.0</ele><time>2026-04-07T09:21:58Z</time></trkpt><trkpt lat="42.832235939532" lon="12.06659180555996"><ele>430.0</ele><time>2026-04-07T09:21:59Z</time></trkpt><trkpt lat="42.83211552616717" lon="12.066622617459728"><ele>434.0</ele><time>2026-04-07T09:22:00Z</time></trkpt><trkpt lat="42.831988930583876" lon="12.066680547850817"><ele>438.0</ele><time>2026-04-07T09:22:01Z</time></trkpt><trkpt lat="42.831860114445476" lon="12.066778760804892"><ele>442.0</ele><time>2026-04-07T09:22:02Z</time></trkpt><trkpt lat="42.831726129418634" lon="12.06689111315521"><ele>443.6666666666667</ele><time>2026-04-07T09:22:03Z</time></trkpt><trkpt lat="42.83158574781173" lon="12.067002008543888"><ele>445.33333333333337</ele><time>2026-04-07T09:22:04Z</time></trkpt><trkpt lat="42.83143369852481" lon="12.067116285172796"><ele>447.0</ele><time>2026-04-07T09:22:05Z</time></trkpt><trkpt lat="42.831280335915004" lon="12.067231787936132"><ele>447.0</ele><time>2026-04-07T09:22:06Z</time></trkpt><trkpt lat="42.831129712712695" lon="12.067351854655508"><ele>447.0</ele><time>2026-04-07T09:22:07Z</time></trkpt><trkpt lat="42.830978613122916" lon="12.067471886277824"><ele>447.0</ele><time>2026-04-07T09:22:08Z</time></trkpt><trkpt lat="42.83083242064601" lon="12.067583977894122"><ele>449.33333333333337</ele><time>2026-04-07T09:22:09Z</time></trkpt><trkpt lat="42.83069912554383" lon="12.067689881371829"><ele>451.6666666666667</ele><time>2026-04-07T09:22:10Z</time></trkpt><trkpt lat="42.830570020518486" lon="12.06779223502447"><ele>454.0</ele><time>2026-04-07T09:22:11Z</time></trkpt><trkpt lat="42.83044066220033" lon="12.067895857023796"><ele>454.0</ele><time>2026-04-07T09:22:12Z</time></trkpt><trkpt lat="42.83031189420069" lon="12.067997649343353"><ele>454.0</ele><time>2026-04-07T09:22:13Z</time></trkpt><trkpt lat="42.83018103114415" lon="12.068099320529717"><ele>454.0</ele><time>2026-04-07T09:22:14Z</time></trkpt><trkpt lat="42.83005516762848" lon="12.06820957350687"><ele>454.0</ele><time>2026-04-07T09:22:15Z</time></trkpt><trkpt lat="42.829925970118126" lon="12.068315558647644"><ele>455.33333333333337</ele><time>2026-04-07T09:22:16Z</time></trkpt><trkpt lat="42.82979251225432" lon="12.068420735930433"><ele>456.66666666666663</ele><time>2026-04-07T09:22:17Z</time></trkpt><trkpt lat="42.82966062072232" lon="12.068528122642403"><ele>458.0</ele><time>2026-04-07T09:22:18Z</time></trkpt><trkpt lat="42.82952405605738" lon="12.06862805491111"><ele>458.0</ele><time>2026-04-07T09:22:19Z</time></trkpt><trkpt lat="42.829371946749724" lon="12.068693985694715"><ele>458.0</ele><time>2026-04-07T09:22:19.999Z</time></trkpt><trkpt lat="42.829202226947245" lon="12.068690909682516"><ele>458.0</ele><time>2026-04-07T09:22:20.999Z</time></trkpt><trkpt lat="42.82903643332602" lon="12.068685672100665"><ele>457.66666666666663</ele><time>2026-04-07T09:22:21.999Z</time></trkpt><trkpt lat="42.82888913744626" lon="12.06859497219813"><ele>457.33333333333337</ele><time>2026-04-07T09:22:22.999Z</time></trkpt><trkpt lat="42.828761079098484" lon="12.068468600498418"><ele>457.0</ele><time>2026-04-07T09:22:23.999Z</time></trkpt><trkpt lat="42.82862236726067" lon="12.068356760252495"><ele>459.6666666666667</ele><time>2026-04-07T09:22:24.999Z</time></trkpt><trkpt lat="42.828477106114946" lon="12.068265148096685"><ele>462.33333333333337</ele><time>2026-04-07T09:22:25.999Z</time></trkpt><trkpt lat="42.828299052599874" lon="12.068269837783308"><ele>465.0</ele><time>2026-04-07T09:22:26.999Z</time></trkpt><trkpt lat="42.82812992527929" lon="12.068321366336722"><ele>465.0</ele><time>2026-04-07T09:22:27.999Z</time></trkpt><trkpt lat="42.82798817415452" lon="12.068404503828177"><ele>465.0</ele><time>2026-04-07T09:22:28.999Z</time></trkpt><trkpt lat="42.827892680864345" lon="12.068525885292559"><ele>465.0</ele><time>2026-04-07T09:22:29.999Z</time></trkpt><trkpt lat="42.827850551436605" lon="12.06868203005242"><ele>465.0</ele><time>2026-04-07T09:22:30.999Z</time></trkpt><trkpt lat="42.82787490348334" lon="12.068824230055247"><ele>465.0</ele><time>2026-04-07T09:22:31.999Z</time></trkpt><trkpt lat="42.82795682075101" lon="12.068958529678355"><ele>465.0</ele><time>2026-04-07T09:22:33Z</time></trkpt><trkpt lat="42.82804973803893" lon="12.069099863127143"><ele>465.0</ele><time>2026-04-07T09:22:34Z</time></trkpt><trkpt lat="42.82811809194304" lon="12.069287237821191"><ele>465.0</ele><time>2026-04-07T09:22:35Z</time></trkpt><trkpt lat="42.828183695939" lon="12.069500397267271"><ele>468.0</ele><time>2026-04-07T09:22:36Z</time></trkpt><trkpt lat="42.82815711071233" lon="12.069756759407065"><ele>471.0</ele><time>2026-04-07T09:22:37Z</time></trkpt><trkpt lat="42.82817470171028" lon="12.070011712022417"><ele>474.0</ele><time>2026-04-07T09:22:38Z</time></trkpt><trkpt lat="42.82816238751581" lon="12.070259128978181"><ele>475.0</ele><time>2026-04-07T09:22:39Z</time></trkpt><trkpt lat="42.828197874173" lon="12.070513572485554"><ele>476.0</ele><time>2026-04-07T09:22:40Z</time></trkpt><trkpt lat="42.82828335895384" lon="12.070763188024321"><ele>477.0</ele><time>2026-04-07T09:22:41Z</time></trkpt><trkpt lat="42.828379638577985" lon="12.070995365970527"><ele>482.0</ele><time>2026-04-07T09:22:42Z</time></trkpt><trkpt lat="42.82848798713563" lon="12.07119030997464"><ele>487.0</ele><time>2026-04-07T09:22:43Z</time></trkpt><trkpt lat="42.82862662411879" lon="12.071312856997094"><ele>492.0</ele><time>2026-04-07T09:22:44Z</time></trkpt><trkpt lat="42.828732970159194" lon="12.071436137173366"><ele>492.0</ele><time>2026-04-07T09:22:45Z</time></trkpt><trkpt lat="42.82880894656381" lon="12.07154800428598"><ele>492.0</ele><time>2026-04-07T09:22:46Z</time></trkpt><trkpt lat="42.82881038109852" lon="12.07171558936155"><ele>492.0</ele><time>2026-04-07T09:22:47Z</time></trkpt><trkpt lat="42.828733248856516" lon="12.071863626830295"><ele>492.0</ele><time>2026-04-07T09:22:48Z</time></trkpt><trkpt lat="42.82859482383493" lon="12.0719643146282"><ele>493.33333333333337</ele><time>2026-04-07T09:22:49Z</time></trkpt><trkpt lat="42.82845651492999" lon="12.072108174169268"><ele>494.6666666666667</ele><time>2026-04-07T09:22:50Z</time></trkpt><trkpt lat="42.82831013185595" lon="12.07227956708525"><ele>496.0</ele><time>2026-04-07T09:22:51Z</time></trkpt><trkpt lat="42.82819998137647" lon="12.072486454086699"><ele>496.0</ele><time>2026-04-07T09:22:52Z</time></trkpt><trkpt lat="42.828113827572295" lon="12.072680606967218"><ele>496.0</ele><time>2026-04-07T09:22:53Z</time></trkpt><trkpt lat="42.82800475627699" lon="12.072811720121269"><ele>496.0</ele><time>2026-04-07T09:22:54Z</time></trkpt><trkpt lat="42.827876051243194" lon="12.072936669392167"><ele>496.0</ele><time>2026-04-07T09:22:55Z</time></trkpt><trkpt lat="42.827723093641154" lon="12.073077560793253"><ele>496.0</ele><time>2026-04-07T09:22:56Z</time></trkpt><trkpt lat="42.827577391649584" lon="12.073127775880314"><ele>496.0</ele><time>2026-04-07T09:22:57Z</time></trkpt><trkpt lat="42.82749414846371" lon="12.073165247071747"><ele>496.0</ele><time>2026-04-07T09:22:58Z</time></trkpt><trkpt lat="42.827394223782534" lon="12.073172398570744"><ele>495.75</ele><time>2026-04-07T09:22:59Z</time></trkpt><trkpt lat="42.8272897922775" lon="12.073178769506091"><ele>495.5</ele><time>2026-04-07T09:23:00Z</time></trkpt><trkpt lat="42.82717985573412" lon="12.073187484830543"><ele>495.25</ele><time>2026-04-07T09:23:01Z</time></trkpt><trkpt lat="42.827063320822845" lon="12.07321727239948"><ele>495.0</ele><time>2026-04-07T09:23:02Z</time></trkpt><trkpt lat="42.82694473807562" lon="12.073316734091396"><ele>497.33333333333337</ele><time>2026-04-07T09:23:03Z</time></trkpt><trkpt lat="42.826824628117" lon="12.073514600718026"><ele>499.6666666666667</ele><time>2026-04-07T09:23:04Z</time></trkpt><trkpt lat="42.82668439752503" lon="12.073740511347706"><ele>502.0</ele><time>2026-04-07T09:23:05Z</time></trkpt><trkpt lat="42.826526417792074" lon="12.073940702453692"><ele>509.5</ele><time>2026-04-07T09:23:06Z</time></trkpt><trkpt lat="42.82631877904693" lon="12.074117493577518"><ele>517.0</ele><time>2026-04-07T09:23:07Z</time></trkpt><trkpt lat="42.826096144346614" lon="12.074245131203893"><ele>514.6666666666667</ele><time>2026-04-07T09:23:08Z</time></trkpt><trkpt lat="42.82590546448195" lon="12.074348339116577"><ele>512.3333333333334</ele><time>2026-04-07T09:23:09Z</time></trkpt><trkpt lat="42.825741149607346" lon="12.074418151146267"><ele>510.0</ele><time>2026-04-07T09:23:10Z</time></trkpt><trkpt lat="42.825612222281016" lon="12.074506150720637"><ele>510.0</ele><time>2026-04-07T09:23:11Z</time></trkpt><trkpt lat="42.82553039436314" lon="12.074623295945175"><ele>510.0</ele><time>2026-04-07T09:23:12Z</time></trkpt><trkpt lat="42.82548835351136" lon="12.074787304598223"><ele>510.0</ele><time>2026-04-07T09:23:13Z</time></trkpt><trkpt lat="42.82548038174404" lon="12.075001309027778"><ele>510.0</ele><time>2026-04-07T09:23:14Z</time></trkpt><trkpt lat="42.82547463483083" lon="12.075247201605773"><ele>515.0</ele><time>2026-04-07T09:23:15Z</time></trkpt><trkpt lat="42.82545632650796" lon="12.075502866009158"><ele>520.0</ele><time>2026-04-07T09:23:16Z</time></trkpt><trkpt lat="42.82543957626172" lon="12.07577972608377"><ele>525.0</ele><time>2026-04-07T09:23:17Z</time></trkpt><trkpt lat="42.825460754228324" lon="12.076073097689468"><ele>528.0</ele><time>2026-04-07T09:23:18Z</time></trkpt><trkpt lat="42.825512285340565" lon="12.076380041988106"><ele>531.0</ele><time>2026-04-07T09:23:19Z</time></trkpt><trkpt lat="42.82556987230365" lon="12.076684593878658"><ele>531.3333333333334</ele><time>2026-04-07T09:23:20Z</time></trkpt><trkpt lat="42.825614592861136" lon="12.07697545192347"><ele>531.6666666666667</ele><time>2026-04-07T09:23:21Z</time></trkpt><trkpt lat="42.82565009878727" lon="12.077248085158795"><ele>532.0</ele><time>2026-04-07T09:23:22Z</time></trkpt><trkpt lat="42.82566860343494" lon="12.077508974233607"><ele>532.0</ele><time>2026-04-07T09:23:23Z</time></trkpt><trkpt lat="42.82565074135886" lon="12.077748797085894"><ele>532.0</ele><time>2026-04-07T09:23:24Z</time></trkpt><trkpt lat="42.82559554675116" lon="12.077964165002923"><ele>532.0</ele><time>2026-04-07T09:23:25Z</time></trkpt><trkpt lat="42.82554773159698" lon="12.078155026464719"><ele>531.3333333333334</ele><time>2026-04-07T09:23:26Z</time></trkpt><trkpt lat="42.825555894529394" lon="12.078362217016025"><ele>530.6666666666666</ele><time>2026-04-07T09:23:27Z</time></trkpt><trkpt lat="42.825632742954745" lon="12.078570009245553"><ele>530.0</ele><time>2026-04-07T09:23:28Z</time></trkpt><trkpt lat="42.825780649942246" lon="12.078772986472822"><ele>530.0</ele><time>2026-04-07T09:23:29Z</time></trkpt><trkpt lat="42.82591812352603" lon="12.078993778610846"><ele>530.0</ele><time>2026-04-07T09:23:30Z</time></trkpt><trkpt lat="42.82604361765271" lon="12.079217419489709"><ele>530.0</ele><time>2026-04-07T09:23:31Z</time></trkpt><trkpt lat="42.826167320474475" lon="12.079430902519862"><ele>532.6666666666666</ele><time>2026-04-07T09:23:32Z</time></trkpt><trkpt lat="42.82631322585362" lon="12.079617640929426"><ele>535.3333333333334</ele><time>2026-04-07T09:23:33Z</time></trkpt><trkpt lat="42.82649158677019" lon="12.079759541385183"><ele>538.0</ele><time>2026-04-07T09:23:34Z</time></trkpt><trkpt lat="42.82666735065584" lon="12.07988658054023"><ele>538.6666666666667</ele><time>2026-04-07T09:23:35Z</time></trkpt><trkpt lat="42.82682981388558" lon="12.080025464546551"><ele>539.3333333333334</ele><time>2026-04-07T09:23:36Z</time></trkpt><trkpt lat="42.82696204069498" lon="12.080206024025342"><ele>540.0</ele><time>2026-04-07T09:23:37Z</time></trkpt><trkpt lat="42.82708749246462" lon="12.080402301454464"><ele>540.0</ele><time>2026-04-07T09:23:38Z</time></trkpt><trkpt lat="42.8271632067625" lon="12.080633809196492"><ele>540.0</ele><time>2026-04-07T09:23:39Z</time></trkpt><trkpt lat="42.82721106467032" lon="12.080866074985773"><ele>540.0</ele><time>2026-04-07T09:23:40Z</time></trkpt><trkpt lat="42.82722609043023" lon="12.081102854707467"><ele>537.6666666666666</ele><time>2026-04-07T09:23:41Z</time></trkpt><trkpt lat="42.82722945433319" lon="12.081341541432016"><ele>535.3333333333333</ele><time>2026-04-07T09:23:42Z</time></trkpt><trkpt lat="42.827233960634786" lon="12.081583634649876"><ele>533.0</ele><time>2026-04-07T09:23:43Z</time></trkpt><trkpt lat="42.82724237746062" lon="12.081829069431476"><ele>533.3333333333333</ele><time>2026-04-07T09:23:44Z</time></trkpt><trkpt lat="42.82725018504473" lon="12.082070711053746"><ele>533.6666666666666</ele><time>2026-04-07T09:23:45Z</time></trkpt><trkpt lat="42.82723931084501" lon="12.082301536935061"><ele>534.0</ele><time>2026-04-07T09:23:46Z</time></trkpt><trkpt lat="42.82724336651938" lon="12.082515224531901"><ele>534.0</ele><time>2026-04-07T09:23:47Z</time></trkpt><trkpt lat="42.827228478606855" lon="12.08271522663487"><ele>534.0</ele><time>2026-04-07T09:23:48Z</time></trkpt><trkpt lat="42.827128206061644" lon="12.08287488145125"><ele>534.0</ele><time>2026-04-07T09:23:49Z</time></trkpt><trkpt lat="42.826966380514314" lon="12.08298007036013"><ele>535.6666666666666</ele><time>2026-04-07T09:23:50Z</time></trkpt><trkpt lat="42.82677040142049" lon="12.083026200500285"><ele>537.3333333333333</ele><time>2026-04-07T09:23:51Z</time></trkpt><trkpt lat="42.82659278905573" lon="12.083072453825663"><ele>539.0</ele><time>2026-04-07T09:23:52Z</time></trkpt><trkpt lat="42.826431248591476" lon="12.083125593681551"><ele>539.0</ele><time>2026-04-07T09:23:53Z</time></trkpt><trkpt lat="42.82629405565284" lon="12.083233555703833"><ele>539.0</ele><time>2026-04-07T09:23:54Z</time></trkpt><trkpt lat="42.82618839944874" lon="12.083393319251192"><ele>539.0</ele><time>2026-04-07T09:23:55Z</time></trkpt><trkpt lat="42.826104979760444" lon="12.08358779410367"><ele>539.25</ele><time>2026-04-07T09:23:56Z</time></trkpt><trkpt lat="42.82603706603641" lon="12.0837800600668"><ele>539.5</ele><time>2026-04-07T09:23:57Z</time></trkpt><trkpt lat="42.82595283560605" lon="12.083946488968014"><ele>539.75</ele><time>2026-04-07T09:23:58Z</time></trkpt><trkpt lat="42.825890740875" lon="12.08410718905732"><ele>540.0</ele><time>2026-04-07T09:23:59Z</time></trkpt><trkpt lat="42.825796587266595" lon="12.084212245438906"><ele>540.0</ele><time>2026-04-07T09:24:00Z</time></trkpt><trkpt lat="42.82569176545888" lon="12.084229432267472"><ele>540.0</ele><time>2026-04-07T09:24:01Z</time></trkpt><trkpt lat="42.825603229272744" lon="12.084159773628414"><ele>540.0</ele><time>2026-04-07T09:24:02Z</time></trkpt><trkpt lat="42.82555301664398" lon="12.084017528981311"><ele>540.0</ele><time>2026-04-07T09:24:03Z</time></trkpt><trkpt lat="42.82553363096239" lon="12.083834657560416"><ele>541.0</ele><time>2026-04-07T09:24:04Z</time></trkpt><trkpt lat="42.82547329389485" lon="12.083668029195698"><ele>542.0</ele><time>2026-04-07T09:24:05Z</time></trkpt><trkpt lat="42.82535740924302" lon="12.083547860292828"><ele>543.0</ele><time>2026-04-07T09:24:06Z</time></trkpt><trkpt lat="42.82518512973208" lon="12.083480936103028"><ele>541.3333333333334</ele><time>2026-04-07T09:24:07Z</time></trkpt><trkpt lat="42.82497936613601" lon="12.083487323616229"><ele>539.6666666666667</ele><time>2026-04-07T09:24:08Z</time></trkpt><trkpt lat="42.824765953849536" lon="12.083521081766493"><ele>538.0</ele><time>2026-04-07T09:24:09Z</time></trkpt><trkpt lat="42.82455041212039" lon="12.083589914460346"><ele>538.0</ele><time>2026-04-07T09:24:10Z</time></trkpt><trkpt lat="42.82434333102005" lon="12.083661701947872"><ele>538.0</ele><time>2026-04-07T09:24:11Z</time></trkpt><trkpt lat="42.8241463172143" lon="12.083718061900738"><ele>538.0</ele><time>2026-04-07T09:24:12Z</time></trkpt><trkpt lat="42.82395387219433" lon="12.083762168415257"><ele>536.3333333333334</ele><time>2026-04-07T09:24:13Z</time></trkpt><trkpt lat="42.82375943124345" lon="12.08380272615713"><ele>534.6666666666666</ele><time>2026-04-07T09:24:14Z</time></trkpt><trkpt lat="42.8235621010196" lon="12.083817896583106"><ele>533.0</ele><time>2026-04-07T09:24:15Z</time></trkpt><trkpt lat="42.823365415678666" lon="12.083822067554628"><ele>532.6666666666666</ele><time>2026-04-07T09:24:16Z</time></trkpt><trkpt lat="42.82317232964234" lon="12.083832060298977"><ele>532.3333333333334</ele><time>2026-04-07T09:24:17Z</time></trkpt><trkpt lat="42.822988666092265" lon="12.083861271643334"><ele>532.0</ele><time>2026-04-07T09:24:18Z</time></trkpt><trkpt lat="42.82281347493604" lon="12.08391380693984"><ele>527.3333333333334</ele><time>2026-04-07T09:24:19Z</time></trkpt><trkpt lat="42.82264543471798" lon="12.083962258039401"><ele>522.6666666666666</ele><time>2026-04-07T09:24:20Z</time></trkpt><trkpt lat="42.82249359752452" lon="12.084010354056074"><ele>518.0</ele><time>2026-04-07T09:24:21Z</time></trkpt><trkpt lat="42.822357349782536" lon="12.08403958552593"><ele>518.0</ele><time>2026-04-07T09:24:22Z</time></trkpt><trkpt lat="42.82224900071741" lon="12.084006664536735"><ele>518.0</ele><time>2026-04-07T09:24:23Z</time></trkpt><trkpt lat="42.82217265820558" lon="12.083912259963535"><ele>518.0</ele><time>2026-04-07T09:24:24Z</time></trkpt><trkpt lat="42.82215714972614" lon="12.08374330189174"><ele>518.0</ele><time>2026-04-07T09:24:25Z</time></trkpt><trkpt lat="42.82212650617333" lon="12.083533413684545"><ele>518.0</ele><time>2026-04-07T09:24:26Z</time></trkpt><trkpt lat="42.82205875941855" lon="12.08332260555906"><ele>518.0</ele><time>2026-04-07T09:24:27Z</time></trkpt><trkpt lat="42.821942469043094" lon="12.083139375450193"><ele>518.0</ele><time>2026-04-07T09:24:28Z</time></trkpt><trkpt lat="42.821825441318296" lon="12.082950250802408"><ele>512.3333333333333</ele><time>2026-04-07T09:24:29Z</time></trkpt><trkpt lat="42.82176002666789" lon="12.08270130909032"><ele>506.66666666666663</ele><time>2026-04-07T09:24:30Z</time></trkpt><trkpt lat="42.8217193894985" lon="12.082419147082668"><ele>501.0</ele><time>2026-04-07T09:24:31Z</time></trkpt><trkpt lat="42.82165844823616" lon="12.082142408278777"><ele>500.66666666666663</ele><time>2026-04-07T09:24:32Z</time></trkpt><trkpt lat="42.821554900259905" lon="12.081958670776316"><ele>500.3333333333333</ele><time>2026-04-07T09:24:33Z</time></trkpt><trkpt lat="42.82146747750983" lon="12.081734302864554"><ele>500.0</ele><time>2026-04-07T09:24:34Z</time></trkpt><trkpt lat="42.82141316607069" lon="12.081506834013794"><ele>498.3333333333333</ele><time>2026-04-07T09:24:35Z</time></trkpt><trkpt lat="42.82134834711949" lon="12.081307607456377"><ele>496.66666666666663</ele><time>2026-04-07T09:24:36Z</time></trkpt><trkpt lat="42.821225386060824" lon="12.081164293831261"><ele>495.0</ele><time>2026-04-07T09:24:37Z</time></trkpt><trkpt lat="42.82104051595578" lon="12.081069032976956"><ele>489.0</ele><time>2026-04-07T09:24:38Z</time></trkpt><trkpt lat="42.82081134709881" lon="12.081037129213692"><ele>483.0</ele><time>2026-04-07T09:24:39Z</time></trkpt><trkpt lat="42.820558305224225" lon="12.081043944010224"><ele>483.0</ele><time>2026-04-07T09:24:40Z</time></trkpt><trkpt lat="42.820305996317984" lon="12.081043680032508"><ele>483.0</ele><time>2026-04-07T09:24:41Z</time></trkpt><trkpt lat="42.820059795097755" lon="12.08097204586108"><ele>481.5</ele><time>2026-04-07T09:24:42Z</time></trkpt><trkpt lat="42.81982243006355" lon="12.08086899354233"><ele>480.0</ele><time>2026-04-07T09:24:43Z</time></trkpt><trkpt lat="42.81958643040281" lon="12.080794309825473"><ele>475.5</ele><time>2026-04-07T09:24:44Z</time></trkpt><trkpt lat="42.81935461276083" lon="12.080733378389734"><ele>471.0</ele><time>2026-04-07T09:24:45Z</time></trkpt><trkpt lat="42.81913697880144" lon="12.080686873530468"><ele>471.0</ele><time>2026-04-07T09:24:46Z</time></trkpt><trkpt lat="42.81893029714734" lon="12.080632666162332"><ele>471.0</ele><time>2026-04-07T09:24:47Z</time></trkpt><trkpt lat="42.818733455400206" lon="12.08053411241988"><ele>471.0</ele><time>2026-04-07T09:24:48Z</time></trkpt><trkpt lat="42.81854833058745" lon="12.080369786184043"><ele>473.0</ele><time>2026-04-07T09:24:49Z</time></trkpt><trkpt lat="42.81836788012594" lon="12.08019510619584"><ele>475.0</ele><time>2026-04-07T09:24:50Z</time></trkpt><trkpt lat="42.818157503320535" lon="12.08004692053764"><ele>475.0</ele><time>2026-04-07T09:24:51Z</time></trkpt><trkpt lat="42.817939816727765" lon="12.079948776506837"><ele>475.0</ele><time>2026-04-07T09:24:52Z</time></trkpt><trkpt lat="42.817735786274795" lon="12.079875372556906"><ele>475.0</ele><time>2026-04-07T09:24:53Z</time></trkpt><trkpt lat="42.81755871589276" lon="12.079743859666715"><ele>472.5</ele><time>2026-04-07T09:24:54Z</time></trkpt><trkpt lat="42.81741090578686" lon="12.079520300661668"><ele>470.0</ele><time>2026-04-07T09:24:55Z</time></trkpt><trkpt lat="42.817294642998256" lon="12.079230079716964"><ele>467.0</ele><time>2026-04-07T09:24:56Z</time></trkpt><trkpt lat="42.81722891574278" lon="12.078935051678497"><ele>464.0</ele><time>2026-04-07T09:24:57Z</time></trkpt><trkpt lat="42.81710896726502" lon="12.07872137811073"><ele>461.0</ele><time>2026-04-07T09:24:58Z</time></trkpt><trkpt lat="42.817003119422886" lon="12.078537381509156"><ele>461.0</ele><time>2026-04-07T09:24:59Z</time></trkpt><trkpt lat="42.8168954866223" lon="12.078390685710628"><ele>461.0</ele><time>2026-04-07T09:25:00Z</time></trkpt><trkpt lat="42.81677834204859" lon="12.07827714162435"><ele>461.0</ele><time>2026-04-07T09:25:01Z</time></trkpt><trkpt lat="42.816647689904755" lon="12.0782347583382"><ele>461.0</ele><time>2026-04-07T09:25:02Z</time></trkpt><trkpt lat="42.816508406650335" lon="12.078283559091853"><ele>461.0</ele><time>2026-04-07T09:25:03Z</time></trkpt><trkpt lat="42.816371471159854" lon="12.078425435813697"><ele>461.0</ele><time>2026-04-07T09:25:04Z</time></trkpt><trkpt lat="42.816275442361245" lon="12.078639960653657"><ele>461.0</ele><time>2026-04-07T09:25:05Z</time></trkpt><trkpt lat="42.81624114112512" lon="12.078900512162852"><ele>461.66666666666663</ele><time>2026-04-07T09:25:06Z</time></trkpt><trkpt lat="42.81623117700808" lon="12.079166683159773"><ele>462.33333333333337</ele><time>2026-04-07T09:25:07Z</time></trkpt><trkpt lat="42.81613364181305" lon="12.079360611839695"><ele>463.0</ele><time>2026-04-07T09:25:08Z</time></trkpt><trkpt lat="42.81598704254191" lon="12.079493602013597"><ele>457.0</ele><time>2026-04-07T09:25:09Z</time></trkpt><trkpt lat="42.81580156738282" lon="12.079566898125154"><ele>451.0</ele><time>2026-04-07T09:25:10Z</time></trkpt><trkpt lat="42.815546123254045" lon="12.079629654730502"><ele>451.0</ele><time>2026-04-07T09:25:11Z</time></trkpt><trkpt lat="42.81529008524209" lon="12.07967513211576"><ele>451.0</ele><time>2026-04-07T09:25:12Z</time></trkpt><trkpt lat="42.815053399886345" lon="12.07969741572256"><ele>449.0</ele><time>2026-04-07T09:25:13Z</time></trkpt><trkpt lat="42.81482585347294" lon="12.079683867849283"><ele>447.0</ele><time>2026-04-07T09:25:14Z</time></trkpt><trkpt lat="42.81461852700416" lon="12.079617903243339"><ele>445.0</ele><time>2026-04-07T09:25:15Z</time></trkpt><trkpt lat="42.81440625734997" lon="12.079504140122365"><ele>445.5</ele><time>2026-04-07T09:25:16Z</time></trkpt><trkpt lat="42.81418027624783" lon="12.079375842177924"><ele>446.0</ele><time>2026-04-07T09:25:17Z</time></trkpt><trkpt lat="42.8139374487886" lon="12.079237979733493"><ele>443.0</ele><time>2026-04-07T09:25:18Z</time></trkpt><trkpt lat="42.81365348117718" lon="12.079076761774907"><ele>440.0</ele><time>2026-04-07T09:25:19Z</time></trkpt><trkpt lat="42.81337725639346" lon="12.078919968151052"><ele>440.0</ele><time>2026-04-07T09:25:20Z</time></trkpt><trkpt lat="42.81311944417682" lon="12.078775261667575"><ele>440.0</ele><time>2026-04-07T09:25:21Z</time></trkpt><trkpt lat="42.81286903668972" lon="12.078653987562925"><ele>440.0</ele><time>2026-04-07T09:25:22Z</time></trkpt><trkpt lat="42.81263314247305" lon="12.078520633033083"><ele>440.0</ele><time>2026-04-07T09:25:23Z</time></trkpt><trkpt lat="42.8124042697421" lon="12.078391245388191"><ele>437.5</ele><time>2026-04-07T09:25:24Z</time></trkpt><trkpt lat="42.812181628731295" lon="12.07826521821223"><ele>435.0</ele><time>2026-04-07T09:25:25Z</time></trkpt><trkpt lat="42.811964314722125" lon="12.078141745209745"><ele>435.33333333333337</ele><time>2026-04-07T09:25:26Z</time></trkpt><trkpt lat="42.8117542177726" lon="12.078019543828223"><ele>435.6666666666667</ele><time>2026-04-07T09:25:27Z</time></trkpt><trkpt lat="42.81154944606449" lon="12.077906103275655"><ele>436.0</ele><time>2026-04-07T09:25:28Z</time></trkpt><trkpt lat="42.81136170889954" lon="12.077802006168056"><ele>436.0</ele><time>2026-04-07T09:25:29Z</time></trkpt><trkpt lat="42.81118827475404" lon="12.077698451550797"><ele>436.0</ele><time>2026-04-07T09:25:30Z</time></trkpt><trkpt lat="42.81102793208987" lon="12.077604548639188"><ele>436.0</ele><time>2026-04-07T09:25:31Z</time></trkpt><trkpt lat="42.81086502782553" lon="12.07756103341084"><ele>436.33333333333337</ele><time>2026-04-07T09:25:32Z</time></trkpt><trkpt lat="42.81069078838867" lon="12.077595955475688"><ele>436.66666666666663</ele><time>2026-04-07T09:25:33Z</time></trkpt><trkpt lat="42.8105353064465" lon="12.077733806375113"><ele>437.0</ele><time>2026-04-07T09:25:34Z</time></trkpt><trkpt lat="42.81039528708935" lon="12.07794775799929"><ele>437.0</ele><time>2026-04-07T09:25:35Z</time></trkpt><trkpt lat="42.8102647722583" lon="12.078203408859794"><ele>437.0</ele><time>2026-04-07T09:25:36Z</time></trkpt><trkpt lat="42.81012120346171" lon="12.07843351940849"><ele>437.0</ele><time>2026-04-07T09:25:37Z</time></trkpt><trkpt lat="42.80997699994997" lon="12.078648282249619"><ele>437.0</ele><time>2026-04-07T09:25:38Z</time></trkpt><trkpt lat="42.809830773740764" lon="12.078856253788176"><ele>437.0</ele><time>2026-04-07T09:25:39Z</time></trkpt><trkpt lat="42.8096854261809" lon="12.079055535408834"><ele>438.0</ele><time>2026-04-07T09:25:40Z</time></trkpt><trkpt lat="42.80954530598565" lon="12.079248444460339"><ele>439.0</ele><time>2026-04-07T09:25:41Z</time></trkpt><trkpt lat="42.80939021268529" lon="12.079443868025345"><ele>440.0</ele><time>2026-04-07T09:25:42Z</time></trkpt><trkpt lat="42.80925223280387" lon="12.07967557557935"><ele>444.0</ele><time>2026-04-07T09:25:43Z</time></trkpt><trkpt lat="42.80913025118728" lon="12.079947069535182"><ele>448.0</ele><time>2026-04-07T09:25:44Z</time></trkpt><trkpt lat="42.809012068473315" lon="12.080213227574564"><ele>448.0</ele><time>2026-04-07T09:25:45Z</time></trkpt><trkpt lat="42.80888365614524" lon="12.080480127090773"><ele>448.0</ele><time>2026-04-07T09:25:46Z</time></trkpt><trkpt lat="42.80874955036963" lon="12.080753118871202"><ele>446.5</ele><time>2026-04-07T09:25:47Z</time></trkpt><trkpt lat="42.808613135429475" lon="12.081029054624514"><ele>445.0</ele><time>2026-04-07T09:25:48Z</time></trkpt><trkpt lat="42.80847596152163" lon="12.081298028584449"><ele>445.0</ele><time>2026-04-07T09:25:49Z</time></trkpt><trkpt lat="42.808341504608926" lon="12.081565244088361"><ele>445.0</ele><time>2026-04-07T09:25:50Z</time></trkpt><trkpt lat="42.80821361109125" lon="12.081824997582682"><ele>447.6666666666667</ele><time>2026-04-07T09:25:51Z</time></trkpt><trkpt lat="42.808094377534324" lon="12.082069257975975"><ele>450.33333333333337</ele><time>2026-04-07T09:25:52Z</time></trkpt><trkpt lat="42.807978105119346" lon="12.082293807654136"><ele>453.0</ele><time>2026-04-07T09:25:53Z</time></trkpt><trkpt lat="42.80783734278768" lon="12.08249798452681"><ele>452.5</ele><time>2026-04-07T09:25:54Z</time></trkpt><trkpt lat="42.807641816868546" lon="12.082638124360791"><ele>452.0</ele><time>2026-04-07T09:25:55Z</time></trkpt><trkpt lat="42.80744310108222" lon="12.082803919664258"><ele>452.0</ele><time>2026-04-07T09:25:56Z</time></trkpt><trkpt lat="42.80724089961876" lon="12.082989677525466"><ele>452.0</ele><time>2026-04-07T09:25:57Z</time></trkpt><trkpt lat="42.80701705826245" lon="12.083166277682693"><ele>450.5</ele><time>2026-04-07T09:25:58Z</time></trkpt><trkpt lat="42.806795079691575" lon="12.083348687664284"><ele>449.0</ele><time>2026-04-07T09:25:59Z</time></trkpt><trkpt lat="42.80657634779493" lon="12.083530802409557"><ele>449.0</ele><time>2026-04-07T09:26:00Z</time></trkpt><trkpt lat="42.80636263867228" lon="12.083705966816744"><ele>449.0</ele><time>2026-04-07T09:26:01Z</time></trkpt><trkpt lat="42.806154887452344" lon="12.083876419859745"><ele>447.0</ele><time>2026-04-07T09:26:02Z</time></trkpt><trkpt lat="42.80595338373821" lon="12.084045181307584"><ele>445.0</ele><time>2026-04-07T09:26:03Z</time></trkpt><trkpt lat="42.80575391860031" lon="12.084212785985102"><ele>445.0</ele><time>2026-04-07T09:26:04Z</time></trkpt><trkpt lat="42.805556462955046" lon="12.08437896703097"><ele>445.0</ele><time>2026-04-07T09:26:05Z</time></trkpt><trkpt lat="42.805361584829825" lon="12.084541794126274"><ele>445.0</ele><time>2026-04-07T09:26:06Z</time></trkpt><trkpt lat="42.8051778785372" lon="12.08472097012046"><ele>445.0</ele><time>2026-04-07T09:26:07Z</time></trkpt><trkpt lat="42.80501369677414" lon="12.084927032108663"><ele>445.0</ele><time>2026-04-07T09:26:08Z</time></trkpt><trkpt lat="42.80486742424251" lon="12.08515378231167"><ele>446.0</ele><time>2026-04-07T09:26:09Z</time></trkpt><trkpt lat="42.804742562266235" lon="12.085417239811367"><ele>447.0</ele><time>2026-04-07T09:26:10Z</time></trkpt><trkpt lat="42.804631526884734" lon="12.08570067332482"><ele>448.5</ele><time>2026-04-07T09:26:11Z</time></trkpt><trkpt lat="42.8045047369991" lon="12.086005135815665"><ele>450.0</ele><time>2026-04-07T09:26:12Z</time></trkpt><trkpt lat="42.804353714052" lon="12.086298099784132"><ele>443.5</ele><time>2026-04-07T09:26:13Z</time></trkpt><trkpt lat="42.80420573313781" lon="12.086625727646112"><ele>437.0</ele><time>2026-04-07T09:26:14Z</time></trkpt><trkpt lat="42.804096263826246" lon="12.086993977488461"><ele>437.0</ele><time>2026-04-07T09:26:15Z</time></trkpt><trkpt lat="42.80399312171759" lon="12.087360749965283"><ele>437.0</ele><time>2026-04-07T09:26:16Z</time></trkpt><trkpt lat="42.80382394975517" lon="12.087672302091171"><ele>436.0</ele><time>2026-04-07T09:26:17Z</time></trkpt><trkpt lat="42.80366202971808" lon="12.088000280264994"><ele>435.0</ele><time>2026-04-07T09:26:18Z</time></trkpt><trkpt lat="42.803473514177355" lon="12.08831321587344"><ele>435.0</ele><time>2026-04-07T09:26:19Z</time></trkpt><trkpt lat="42.80335844401507" lon="12.088709269900107"><ele>435.0</ele><time>2026-04-07T09:26:20Z</time></trkpt><trkpt lat="42.80322892060077" lon="12.08907461419034"><ele>435.5</ele><time>2026-04-07T09:26:21Z</time></trkpt><trkpt lat="42.80310025321016" lon="12.089418832245524"><ele>436.0</ele><time>2026-04-07T09:26:22Z</time></trkpt><trkpt lat="42.80297608109795" lon="12.089748411102411"><ele>434.5</ele><time>2026-04-07T09:26:23Z</time></trkpt><trkpt lat="42.80285557054831" lon="12.090070403181135"><ele>433.0</ele><time>2026-04-07T09:26:24Z</time></trkpt><trkpt lat="42.80273168136728" lon="12.090378895552801"><ele>432.5</ele><time>2026-04-07T09:26:25Z</time></trkpt><trkpt lat="42.80259608473789" lon="12.090669346679116"><ele>432.0</ele><time>2026-04-07T09:26:26Z</time></trkpt><trkpt lat="42.80242770226753" lon="12.09092063222084"><ele>433.0</ele><time>2026-04-07T09:26:27Z</time></trkpt><trkpt lat="42.802222850057845" lon="12.091142876124803"><ele>434.0</ele><time>2026-04-07T09:26:28Z</time></trkpt><trkpt lat="42.80200023288535" lon="12.091375547753842"><ele>431.5</ele><time>2026-04-07T09:26:29Z</time></trkpt><trkpt lat="42.80177448059942" lon="12.091620168290689"><ele>429.0</ele><time>2026-04-07T09:26:30Z</time></trkpt><trkpt lat="42.80155043109376" lon="12.091871364416553"><ele>429.0</ele><time>2026-04-07T09:26:31Z</time></trkpt><trkpt lat="42.80133026522" lon="12.092118433591148"><ele>429.0</ele><time>2026-04-07T09:26:32Z</time></trkpt><trkpt lat="42.8011122355542" lon="12.092355507013268"><ele>430.0</ele><time>2026-04-07T09:26:33Z</time></trkpt><trkpt lat="42.80089969282648" lon="12.092585444347057"><ele>431.0</ele><time>2026-04-07T09:26:34Z</time></trkpt><trkpt lat="42.800699096590606" lon="12.092820033257855"><ele>431.0</ele><time>2026-04-07T09:26:35Z</time></trkpt><trkpt lat="42.800517310498236" lon="12.093070875098393"><ele>431.0</ele><time>2026-04-07T09:26:36Z</time></trkpt><trkpt lat="42.80035717558056" lon="12.093342430190093"><ele>429.5</ele><time>2026-04-07T09:26:37Z</time></trkpt><trkpt lat="42.800214990475205" lon="12.093635121969868"><ele>428.0</ele><time>2026-04-07T09:26:38Z</time></trkpt><trkpt lat="42.800094657226715" lon="12.093955651925928"><ele>423.5</ele><time>2026-04-07T09:26:39Z</time></trkpt><trkpt lat="42.79999234156469" lon="12.094301279938296"><ele>419.0</ele><time>2026-04-07T09:26:40Z</time></trkpt><trkpt lat="42.79990582918006" lon="12.094664746556749"><ele>418.5</ele><time>2026-04-07T09:26:41Z</time></trkpt><trkpt lat="42.79982680783538" lon="12.095032969900625"><ele>418.0</ele><time>2026-04-07T09:26:42Z</time></trkpt><trkpt lat="42.79975094560444" lon="12.095401390880147"><ele>417.0</ele><time>2026-04-07T09:26:43Z</time></trkpt><trkpt lat="42.79967580400642" lon="12.095762391921072"><ele>416.0</ele><time>2026-04-07T09:26:44Z</time></trkpt><trkpt lat="42.79960066965889" lon="12.09610783640016"><ele>416.0</ele><time>2026-04-07T09:26:45Z</time></trkpt><trkpt lat="42.799527560714594" lon="12.096444396159807"><ele>416.0</ele><time>2026-04-07T09:26:46Z</time></trkpt><trkpt lat="42.79945699498282" lon="12.096778461689844"><ele>415.0</ele><time>2026-04-07T09:26:47Z</time></trkpt><trkpt lat="42.799378840599246" lon="12.09710999826996"><ele>414.0</ele><time>2026-04-07T09:26:48Z</time></trkpt><trkpt lat="42.799281089826295" lon="12.097434183227016"><ele>414.0</ele><time>2026-04-07T09:26:49Z</time></trkpt><trkpt lat="42.79916085357302" lon="12.097749071502257"><ele>414.0</ele><time>2026-04-07T09:26:50Z</time></trkpt><trkpt lat="42.79901726012566" lon="12.09804965248113"><ele>412.0</ele><time>2026-04-07T09:26:51Z</time></trkpt><trkpt lat="42.798854767348196" lon="12.098338083465498"><ele>410.0</ele><time>2026-04-07T09:26:52Z</time></trkpt><trkpt lat="42.79866958869456" lon="12.098618474747635"><ele>406.5</ele><time>2026-04-07T09:26:53Z</time></trkpt><trkpt lat="42.79846719564013" lon="12.098885860207293"><ele>403.0</ele><time>2026-04-07T09:26:54Z</time></trkpt><trkpt lat="42.79826018340494" lon="12.099137412823257"><ele>403.0</ele><time>2026-04-07T09:26:55Z</time></trkpt><trkpt lat="42.798057600241684" lon="12.09938707196594"><ele>403.0</ele><time>2026-04-07T09:26:56Z</time></trkpt><trkpt lat="42.797862754711865" lon="12.099628396156811"><ele>403.0</ele><time>2026-04-07T09:26:57Z</time></trkpt><trkpt lat="42.79767499705064" lon="12.099864252002577"><ele>403.0</ele><time>2026-04-07T09:26:58Z</time></trkpt><trkpt lat="42.79749758832178" lon="12.100087118221653"><ele>402.5</ele><time>2026-04-07T09:26:59Z</time></trkpt><trkpt lat="42.79732592335006" lon="12.100297236726513"><ele>402.0</ele><time>2026-04-07T09:27:00Z</time></trkpt><trkpt lat="42.797158188249256" lon="12.10050566178325"><ele>402.0</ele><time>2026-04-07T09:27:01Z</time></trkpt><trkpt lat="42.797000375405986" lon="12.10072595833547"><ele>402.0</ele><time>2026-04-07T09:27:02Z</time></trkpt><trkpt lat="42.796869523568674" lon="12.100974074150418"><ele>402.66666666666663</ele><time>2026-04-07T09:27:03Z</time></trkpt><trkpt lat="42.7967669686028" lon="12.101228226629157"><ele>403.3333333333333</ele><time>2026-04-07T09:27:04Z</time></trkpt><trkpt lat="42.796674809513135" lon="12.101470218903156"><ele>404.0</ele><time>2026-04-07T09:27:05Z</time></trkpt><trkpt lat="42.796531357950066" lon="12.101663065271728"><ele>404.0</ele><time>2026-04-07T09:27:06Z</time></trkpt><trkpt lat="42.7963273602726" lon="12.101802346535814"><ele>404.0</ele><time>2026-04-07T09:27:07Z</time></trkpt><trkpt lat="42.796110712541065" lon="12.101917347159866"><ele>401.3333333333333</ele><time>2026-04-07T09:27:08Z</time></trkpt><trkpt lat="42.79592364048732" lon="12.102025333299819"><ele>398.66666666666663</ele><time>2026-04-07T09:27:09Z</time></trkpt><trkpt lat="42.79575832668026" lon="12.10209731962771"><ele>396.0</ele><time>2026-04-07T09:27:10Z</time></trkpt><trkpt lat="42.79557689881751" lon="12.10209834599587"><ele>396.0</ele><time>2026-04-07T09:27:11Z</time></trkpt><trkpt lat="42.7954078886813" lon="12.102027771751347"><ele>396.0</ele><time>2026-04-07T09:27:12Z</time></trkpt><trkpt lat="42.795276189097365" lon="12.10196406286722"><ele>396.0</ele><time>2026-04-07T09:27:13Z</time></trkpt><trkpt lat="42.795151635307825" lon="12.101996257820137"><ele>396.0</ele><time>2026-04-07T09:27:14Z</time></trkpt><trkpt lat="42.7950616142987" lon="12.102153428461415"><ele>396.66666666666663</ele><time>2026-04-07T09:27:15Z</time></trkpt><trkpt lat="42.79500450264743" lon="12.102371609976013"><ele>397.3333333333333</ele><time>2026-04-07T09:27:16Z</time></trkpt><trkpt lat="42.7949955817601" lon="12.102624570278763"><ele>398.0</ele><time>2026-04-07T09:27:17Z</time></trkpt><trkpt lat="42.79495087816075" lon="12.10284672542251"><ele>398.0</ele><time>2026-04-07T09:27:18Z</time></trkpt><trkpt lat="42.794860265402136" lon="12.10301053626678"><ele>398.0</ele><time>2026-04-07T09:27:19Z</time></trkpt><trkpt lat="42.79473575007143" lon="12.103086529195242"><ele>398.0</ele><time>2026-04-07T09:27:20Z</time></trkpt><trkpt lat="42.79458277714536" lon="12.103041652316517"><ele>398.0</ele><time>2026-04-07T09:27:21Z</time></trkpt><trkpt lat="42.79441194407857" lon="12.10292373615816"><ele>395.0</ele><time>2026-04-07T09:27:22Z</time></trkpt><trkpt lat="42.79420706043443" lon="12.102778059976524"><ele>392.0</ele><time>2026-04-07T09:27:23Z</time></trkpt><trkpt lat="42.793990250670575" lon="12.10264131482222"><ele>392.0</ele><time>2026-04-07T09:27:24Z</time></trkpt><trkpt lat="42.79376023758038" lon="12.102502838821499"><ele>392.0</ele><time>2026-04-07T09:27:25Z</time></trkpt><trkpt lat="42.79354322067852" lon="12.102374108064774"><ele>386.3333333333333</ele><time>2026-04-07T09:27:26Z</time></trkpt><trkpt lat="42.793338816063255" lon="12.102264039940327"><ele>380.66666666666663</ele><time>2026-04-07T09:27:27Z</time></trkpt><trkpt lat="42.79316294129373" lon="12.102195397730357"><ele>375.0</ele><time>2026-04-07T09:27:28Z</time></trkpt><trkpt lat="42.79300686381317" lon="12.102169107742174"><ele>375.0</ele><time>2026-04-07T09:27:29Z</time></trkpt><trkpt lat="42.79286480709498" lon="12.102188616884902"><ele>375.0</ele><time>2026-04-07T09:27:30Z</time></trkpt><trkpt lat="42.792749359750594" lon="12.102285229884176"><ele>375.0</ele><time>2026-04-07T09:27:31Z</time></trkpt><trkpt lat="42.79266544803337" lon="12.102454519542787"><ele>375.0</ele><time>2026-04-07T09:27:32Z</time></trkpt><trkpt lat="42.7926158930921" lon="12.102698423283742"><ele>377.0</ele><time>2026-04-07T09:27:33Z</time></trkpt><trkpt lat="42.79250034678524" lon="12.1029141574813"><ele>379.0</ele><time>2026-04-07T09:27:34Z</time></trkpt><trkpt lat="42.79237818365299" lon="12.103148777102396"><ele>381.0</ele><time>2026-04-07T09:27:35Z</time></trkpt><trkpt lat="42.79227000841697" lon="12.103391354164398"><ele>384.0</ele><time>2026-04-07T09:27:36Z</time></trkpt><trkpt lat="42.792200141945074" lon="12.103649734893013"><ele>387.0</ele><time>2026-04-07T09:27:37Z</time></trkpt><trkpt lat="42.79215044471467" lon="12.103868687042077"><ele>390.0</ele><time>2026-04-07T09:27:38Z</time></trkpt><trkpt lat="42.792078081937994" lon="12.104012230983034"><ele>390.0</ele><time>2026-04-07T09:27:39Z</time></trkpt><trkpt lat="42.791997195994334" lon="12.10409012099821"><ele>390.0</ele><time>2026-04-07T09:27:40Z</time></trkpt><trkpt lat="42.791871269921046" lon="12.104075397382937"><ele>390.0</ele><time>2026-04-07T09:27:41Z</time></trkpt><trkpt lat="42.79172827754835" lon="12.104009655251321"><ele>390.0</ele><time>2026-04-07T09:27:42Z</time></trkpt><trkpt lat="42.79162176575916" lon="12.103817553973263"><ele>384.6666666666667</ele><time>2026-04-07T09:27:43Z</time></trkpt><trkpt lat="42.791516661944584" lon="12.103603753602401"><ele>379.33333333333337</ele><time>2026-04-07T09:27:44Z</time></trkpt><trkpt lat="42.79139892062303" lon="12.103384514112662"><ele>374.0</ele><time>2026-04-07T09:27:45Z</time></trkpt><trkpt lat="42.79129656004546" lon="12.103215779472945"><ele>368.33333333333337</ele><time>2026-04-07T09:27:46Z</time></trkpt><trkpt lat="42.791163534696" lon="12.103124958501354"><ele>362.6666666666667</ele><time>2026-04-07T09:27:47Z</time></trkpt><trkpt lat="42.79100522753871" lon="12.10311507897132"><ele>357.0</ele><time>2026-04-07T09:27:48Z</time></trkpt><trkpt lat="42.790824740793376" lon="12.103214596603829"><ele>361.0</ele><time>2026-04-07T09:27:49Z</time></trkpt><trkpt lat="42.790633997497146" lon="12.103348608901133"><ele>365.0</ele><time>2026-04-07T09:27:50Z</time></trkpt><trkpt lat="42.790436371622285" lon="12.103462872424068"><ele>369.0</ele><time>2026-04-07T09:27:51Z</time></trkpt><trkpt lat="42.79022891357553" lon="12.103464502937275"><ele>365.0</ele><time>2026-04-07T09:27:52Z</time></trkpt><trkpt lat="42.79003465655993" lon="12.103470484116091"><ele>361.0</ele><time>2026-04-07T09:27:53Z</time></trkpt><trkpt lat="42.78985784854059" lon="12.103468370862185"><ele>357.0</ele><time>2026-04-07T09:27:54Z</time></trkpt><trkpt lat="42.78971034099112" lon="12.10354571916498"><ele>357.0</ele><time>2026-04-07T09:27:55Z</time></trkpt><trkpt lat="42.78959917804684" lon="12.103673964110142"><ele>357.0</ele><time>2026-04-07T09:27:56Z</time></trkpt><trkpt lat="42.78954323482075" lon="12.10385302419753"><ele>357.0</ele><time>2026-04-07T09:27:57Z</time></trkpt><trkpt lat="42.78955237782314" lon="12.104073739828415"><ele>360.5</ele><time>2026-04-07T09:27:58Z</time></trkpt><trkpt lat="42.78960407319441" lon="12.104293136540687"><ele>364.0</ele><time>2026-04-07T09:27:59Z</time></trkpt><trkpt lat="42.7895975293495" lon="12.104464521338043"><ele>367.5</ele><time>2026-04-07T09:28:00Z</time></trkpt><trkpt lat="42.78954483516155" lon="12.104586244591063"><ele>371.0</ele><time>2026-04-07T09:28:01Z</time></trkpt><trkpt lat="42.78944586790834" lon="12.104653063432416"><ele>362.33333333333337</ele><time>2026-04-07T09:28:02Z</time></trkpt><trkpt lat="42.7892950864682" lon="12.1045878147902"><ele>353.6666666666667</ele><time>2026-04-07T09:28:03Z</time></trkpt><trkpt lat="42.78909283328957" lon="12.104562862793589"><ele>345.0</ele><time>2026-04-07T09:28:04Z</time></trkpt><trkpt lat="42.788870039190755" lon="12.10456937457868"><ele>345.0</ele><time>2026-04-07T09:28:05Z</time></trkpt><trkpt lat="42.788672499078395" lon="12.104628993576288"><ele>345.0</ele><time>2026-04-07T09:28:06Z</time></trkpt><trkpt lat="42.78851289836951" lon="12.104696051348782"><ele>345.0</ele><time>2026-04-07T09:28:07Z</time></trkpt><trkpt lat="42.78839303741367" lon="12.104791437857443"><ele>342.6666666666667</ele><time>2026-04-07T09:28:08Z</time></trkpt><trkpt lat="42.78830899979646" lon="12.104941837381151"><ele>340.33333333333337</ele><time>2026-04-07T09:28:09Z</time></trkpt><trkpt lat="42.7882910946058" lon="12.105161187068925"><ele>338.0</ele><time>2026-04-07T09:28:10Z</time></trkpt><trkpt lat="42.78832265644961" lon="12.105412910780654"><ele>338.0</ele><time>2026-04-07T09:28:11Z</time></trkpt><trkpt lat="42.78835958168509" lon="12.105646431969653"><ele>338.0</ele><time>2026-04-07T09:28:12Z</time></trkpt><trkpt lat="42.78833934696138" lon="12.10583204381787"><ele>338.0</ele><time>2026-04-07T09:28:13Z</time></trkpt><trkpt lat="42.788299844344216" lon="12.105987250317147"><ele>338.0</ele><time>2026-04-07T09:28:14Z</time></trkpt><trkpt lat="42.78818619298764" lon="12.106065481200355"><ele>340.33333333333337</ele><time>2026-04-07T09:28:15Z</time></trkpt><trkpt lat="42.78805426329525" lon="12.106101100243475"><ele>342.6666666666667</ele><time>2026-04-07T09:28:16Z</time></trkpt><trkpt lat="42.78789360589201" lon="12.106028689611735"><ele>345.0</ele><time>2026-04-07T09:28:17Z</time></trkpt><trkpt lat="42.78772404718835" lon="12.10599781316496"><ele>340.75</ele><time>2026-04-07T09:28:18Z</time></trkpt><trkpt lat="42.787589897586855" lon="12.10595532865087"><ele>336.5</ele><time>2026-04-07T09:28:19Z</time></trkpt><trkpt lat="42.7874765118911" lon="12.105926745168702"><ele>332.25</ele><time>2026-04-07T09:28:20Z</time></trkpt><trkpt lat="42.787370741325894" lon="12.10589069255607"><ele>328.0</ele><time>2026-04-07T09:28:21Z</time></trkpt><trkpt lat="42.78727201166413" lon="12.105803385476033"><ele>323.25</ele><time>2026-04-07T09:28:22Z</time></trkpt><trkpt lat="42.78716034946917" lon="12.105725120896189"><ele>318.5</ele><time>2026-04-07T09:28:23Z</time></trkpt><trkpt lat="42.78706288881939" lon="12.105618540669894"><ele>313.75</ele><time>2026-04-07T09:28:24Z</time></trkpt><trkpt lat="42.78696160882157" lon="12.10552401744975"><ele>309.0</ele><time>2026-04-07T09:28:25Z</time></trkpt><trkpt lat="42.78684750551606" lon="12.105451684069514"><ele>308.5</ele><time>2026-04-07T09:28:26Z</time></trkpt><trkpt lat="42.7867260964431" lon="12.10541182755652"><ele>308.0</ele><time>2026-04-07T09:28:27Z</time></trkpt><trkpt lat="42.78660284911411" lon="12.105408381165747"><ele>307.5</ele><time>2026-04-07T09:28:28Z</time></trkpt><trkpt lat="42.78648617125284" lon="12.10542777131079"><ele>307.0</ele><time>2026-04-07T09:28:29Z</time></trkpt><trkpt lat="42.78637293817492" lon="12.105431568182652"><ele>307.0</ele><time>2026-04-07T09:28:30Z</time></trkpt><trkpt lat="42.786270380617765" lon="12.105402272137189"><ele>307.0</ele><time>2026-04-07T09:28:31Z</time></trkpt><trkpt lat="42.78617758685726" lon="12.105389568639886"><ele>307.0</ele><time>2026-04-07T09:28:32Z</time></trkpt><trkpt lat="42.786088346166686" lon="12.105408370239681"><ele>307.0</ele><time>2026-04-07T09:28:33Z</time></trkpt><trkpt lat="42.78600628811851" lon="12.105470704460885"><ele>307.0</ele><time>2026-04-07T09:28:34Z</time></trkpt><trkpt lat="42.785951061472936" lon="12.10558968813301"><ele>306.0</ele><time>2026-04-07T09:28:35Z</time></trkpt><trkpt lat="42.78593312581933" lon="12.105733539656867"><ele>305.0</ele><time>2026-04-07T09:28:36Z</time></trkpt><trkpt lat="42.785967067528645" lon="12.105887795640095"><ele>304.0</ele><time>2026-04-07T09:28:37Z</time></trkpt><trkpt lat="42.786029405100344" lon="12.106031755552186"><ele>303.0</ele><time>2026-04-07T09:28:38Z</time></trkpt><trkpt lat="42.78609601065002" lon="12.10616219891022"><ele>308.5</ele><time>2026-04-07T09:28:39Z</time></trkpt><trkpt lat="42.78615622950137" lon="12.106295508639612"><ele>314.0</ele><time>2026-04-07T09:28:40Z</time></trkpt><trkpt lat="42.78621133399474" lon="12.106432919720472"><ele>319.5</ele><time>2026-04-07T09:28:41Z</time></trkpt><trkpt lat="42.78625424147369" lon="12.106590112849155"><ele>325.0</ele><time>2026-04-07T09:28:42Z</time></trkpt><trkpt lat="42.7862706884622" lon="12.106780347828009"><ele>325.3333333333333</ele><time>2026-04-07T09:28:43Z</time></trkpt><trkpt lat="42.78624892061148" lon="12.107008218794983"><ele>325.6666666666667</ele><time>2026-04-07T09:28:44Z</time></trkpt><trkpt lat="42.78623981369282" lon="12.107278173934347"><ele>326.0</ele><time>2026-04-07T09:28:45Z</time></trkpt><trkpt lat="42.786230312241784" lon="12.107516449013955"><ele>325.25</ele><time>2026-04-07T09:28:46Z</time></trkpt><trkpt lat="42.786227543457066" lon="12.107722575364715"><ele>324.5</ele><time>2026-04-07T09:28:47Z</time></trkpt><trkpt lat="42.78615814416742" lon="12.107881205635685"><ele>323.75</ele><time>2026-04-07T09:28:48Z</time></trkpt><trkpt lat="42.78603767362801" lon="12.107994498130951"><ele>323.0</ele><time>2026-04-07T09:28:49Z</time></trkpt><trkpt lat="42.785903670638284" lon="12.108089271647092"><ele>319.25</ele><time>2026-04-07T09:28:50Z</time></trkpt><trkpt lat="42.78576578794858" lon="12.10816721520969"><ele>315.5</ele><time>2026-04-07T09:28:51Z</time></trkpt><trkpt lat="42.785627167594754" lon="12.10822656464379"><ele>311.75</ele><time>2026-04-07T09:28:52Z</time></trkpt><trkpt lat="42.78548533823541" lon="12.108265212665678"><ele>308.0</ele><time>2026-04-07T09:28:53Z</time></trkpt><trkpt lat="42.785351553819744" lon="12.108281370233545"><ele>308.0</ele><time>2026-04-07T09:28:54Z</time></trkpt><trkpt lat="42.785225770372655" lon="12.108291075941075"><ele>308.0</ele><time>2026-04-07T09:28:55Z</time></trkpt><trkpt lat="42.78510554512863" lon="12.108300759722766"><ele>308.0</ele><time>2026-04-07T09:28:56Z</time></trkpt><trkpt lat="42.78499107361939" lon="12.108308018448241"><ele>308.0</ele><time>2026-04-07T09:28:57Z</time></trkpt><trkpt lat="42.784880128686744" lon="12.108316231969548"><ele>305.8</ele><time>2026-04-07T09:28:58Z</time></trkpt><trkpt lat="42.784774307281275" lon="12.108319251464255"><ele>303.6</ele><time>2026-04-07T09:28:59Z</time></trkpt><trkpt lat="42.78467218572231" lon="12.108314946650662"><ele>301.4</ele><time>2026-04-07T09:29:00Z</time></trkpt><trkpt lat="42.7845764748928" lon="12.108306529941169"><ele>299.2</ele><time>2026-04-07T09:29:01Z</time></trkpt><trkpt lat="42.784484677276275" lon="12.10830820655483"><ele>297.0</ele><time>2026-04-07T09:29:02Z</time></trkpt><trkpt lat="42.78439564206482" lon="12.108347327798008"><ele>294.5</ele><time>2026-04-07T09:29:03Z</time></trkpt><trkpt lat="42.78432086524235" lon="12.10842343399612"><ele>292.0</ele><time>2026-04-07T09:29:04Z</time></trkpt><trkpt lat="42.78427610698077" lon="12.108535366910816"><ele>289.5</ele><time>2026-04-07T09:29:05Z</time></trkpt><trkpt lat="42.78427094056427" lon="12.108691667285884"><ele>287.0</ele><time>2026-04-07T09:29:06Z</time></trkpt><trkpt lat="42.784240617023784" lon="12.108897562900346"><ele>288.0</ele><time>2026-04-07T09:29:07Z</time></trkpt><trkpt lat="42.78421975354254" lon="12.109141460580451"><ele>289.0</ele><time>2026-04-07T09:29:08Z</time></trkpt><trkpt lat="42.784198784903275" lon="12.109381433667515"><ele>290.0</ele><time>2026-04-07T09:29:09Z</time></trkpt><trkpt lat="42.78417573742868" lon="12.10963425643631"><ele>289.33333333333337</ele><time>2026-04-07T09:29:10Z</time></trkpt><trkpt lat="42.78414957451647" lon="12.109921254432075"><ele>288.6666666666667</ele><time>2026-04-07T09:29:11Z</time></trkpt><trkpt lat="42.78412792943626" lon="12.11020335573312"><ele>288.0</ele><time>2026-04-07T09:29:12Z</time></trkpt><trkpt lat="42.784112934585636" lon="12.110479368322837"><ele>288.0</ele><time>2026-04-07T09:29:13Z</time></trkpt><trkpt lat="42.78410146645524" lon="12.1107535008905"><ele>288.0</ele><time>2026-04-07T09:29:14Z</time></trkpt><trkpt lat="42.784102894510916" lon="12.111023300114036"><ele>288.0</ele><time>2026-04-07T09:29:15Z</time></trkpt><trkpt lat="42.78405316075106" lon="12.11128297430005"><ele>288.0</ele><time>2026-04-07T09:29:16Z</time></trkpt><trkpt lat="42.78395390248476" lon="12.111516823238222"><ele>288.0</ele><time>2026-04-07T09:29:17Z</time></trkpt><trkpt lat="42.78382409866509" lon="12.111717122268622"><ele>288.0</ele><time>2026-04-07T09:29:18Z</time></trkpt><trkpt lat="42.78368616846669" lon="12.111900554818705"><ele>289.0</ele><time>2026-04-07T09:29:19Z</time></trkpt><trkpt lat="42.783563633078" lon="12.112116246541087"><ele>290.0</ele><time>2026-04-07T09:29:20Z</time></trkpt><trkpt lat="42.78346668567315" lon="12.112382500462623"><ele>291.0</ele><time>2026-04-07T09:29:21Z</time></trkpt><trkpt lat="42.783384787118976" lon="12.112677348021839"><ele>286.0</ele><time>2026-04-07T09:29:22Z</time></trkpt><trkpt lat="42.7832747905636" lon="12.112968123506526"><ele>281.0</ele><time>2026-04-07T09:29:23Z</time></trkpt><trkpt lat="42.78317797117216" lon="12.1132613442634"><ele>281.0</ele><time>2026-04-07T09:29:24Z</time></trkpt><trkpt lat="42.78304348929548" lon="12.11351647640974"><ele>281.0</ele><time>2026-04-07T09:29:25Z</time></trkpt><trkpt lat="42.78289014001542" lon="12.113735367626587"><ele>281.0</ele><time>2026-04-07T09:29:26Z</time></trkpt><trkpt lat="42.78274318890797" lon="12.11393012261831"><ele>281.0</ele><time>2026-04-07T09:29:27Z</time></trkpt><trkpt lat="42.782612388133124" lon="12.114141257540249"><ele>281.0</ele><time>2026-04-07T09:29:28Z</time></trkpt><trkpt lat="42.78251429597394" lon="12.114377680275936"><ele>281.0</ele><time>2026-04-07T09:29:29Z</time></trkpt><trkpt lat="42.7824557032443" lon="12.114624496581403"><ele>281.0</ele><time>2026-04-07T09:29:30Z</time></trkpt><trkpt lat="42.782425065623904" lon="12.114876363228346"><ele>281.0</ele><time>2026-04-07T09:29:31Z</time></trkpt><trkpt lat="42.7824309662227" lon="12.11512512783088"><ele>281.0</ele><time>2026-04-07T09:29:32Z</time></trkpt><trkpt lat="42.78245565484531" lon="12.115335452984983"><ele>281.0</ele><time>2026-04-07T09:29:33Z</time></trkpt><trkpt lat="42.78246049071985" lon="12.11549500336233"><ele>281.0</ele><time>2026-04-07T09:29:34Z</time></trkpt><trkpt lat="42.78243037896303" lon="12.115619618394987"><ele>281.0</ele><time>2026-04-07T09:29:35Z</time></trkpt><trkpt lat="42.78236093541356" lon="12.115693872133722"><ele>281.0</ele><time>2026-04-07T09:29:36Z</time></trkpt><trkpt lat="42.78227059635059" lon="12.115690705546747"><ele>281.0</ele><time>2026-04-07T09:29:37Z</time></trkpt><trkpt lat="42.78217672961456" lon="12.115600413909664"><ele>281.0</ele><time>2026-04-07T09:29:38Z</time></trkpt><trkpt lat="42.782057080198875" lon="12.11547907889047"><ele>281.0</ele><time>2026-04-07T09:29:39Z</time></trkpt><trkpt lat="42.78191587053584" lon="12.115359633542015"><ele>277.33333333333337</ele><time>2026-04-07T09:29:40Z</time></trkpt><trkpt lat="42.78177520366192" lon="12.11523290229289"><ele>273.6666666666667</ele><time>2026-04-07T09:29:41Z</time></trkpt><trkpt lat="42.7816180648793" lon="12.115088620927438"><ele>270.0</ele><time>2026-04-07T09:29:42Z</time></trkpt><trkpt lat="42.78142643522056" lon="12.114970024876966"><ele>270.0</ele><time>2026-04-07T09:29:43Z</time></trkpt><trkpt lat="42.78121230627179" lon="12.114901186566524"><ele>270.0</ele><time>2026-04-07T09:29:44Z</time></trkpt><trkpt lat="42.780986711222155" lon="12.11487259582892"><ele>270.0</ele><time>2026-04-07T09:29:45Z</time></trkpt><trkpt lat="42.78076270807802" lon="12.114844953702914"><ele>268.5</ele><time>2026-04-07T09:29:46Z</time></trkpt><trkpt lat="42.780540681708786" lon="12.114838956682103"><ele>267.0</ele><time>2026-04-07T09:29:47Z</time></trkpt><trkpt lat="42.7803102349997" lon="12.114890482582346"><ele>261.0</ele><time>2026-04-07T09:29:48Z</time></trkpt><trkpt lat="42.78008827896943" lon="12.114970762913117"><ele>255.0</ele><time>2026-04-07T09:29:49Z</time></trkpt><trkpt lat="42.77987474638586" lon="12.115084387853534"><ele>255.0</ele><time>2026-04-07T09:29:50Z</time></trkpt><trkpt lat="42.77968008129506" lon="12.11523758016326"><ele>255.0</ele><time>2026-04-07T09:29:51Z</time></trkpt><trkpt lat="42.77950658410699" lon="12.115398701573351"><ele>255.0</ele><time>2026-04-07T09:29:52Z</time></trkpt><trkpt lat="42.779309162134965" lon="12.115505525739426"><ele>255.0</ele><time>2026-04-07T09:29:53Z</time></trkpt><trkpt lat="42.77908800700894" lon="12.115588636374826"><ele>255.0</ele><time>2026-04-07T09:29:54Z</time></trkpt><trkpt lat="42.778865081698044" lon="12.115653401938845"><ele>255.0</ele><time>2026-04-07T09:29:55Z</time></trkpt><trkpt lat="42.77863965928925" lon="12.11565579908113"><ele>255.0</ele><time>2026-04-07T09:29:56Z</time></trkpt><trkpt lat="42.77841734226585" lon="12.11559146889772"><ele>251.33333333333331</ele><time>2026-04-07T09:29:57Z</time></trkpt><trkpt lat="42.778195452034545" lon="12.115559523541615"><ele>247.66666666666666</ele><time>2026-04-07T09:29:58Z</time></trkpt><trkpt lat="42.77799135841196" lon="12.115485307840867"><ele>244.0</ele><time>2026-04-07T09:29:59Z</time></trkpt><trkpt lat="42.77780189543256" lon="12.115359840518758"><ele>239.66666666666666</ele><time>2026-04-07T09:30:00Z</time></trkpt><trkpt lat="42.77763376800547" lon="12.115204148175005"><ele>235.33333333333331</ele><time>2026-04-07T09:30:01Z</time></trkpt><trkpt lat="42.777505412096474" lon="12.115033187327152"><ele>231.0</ele><time>2026-04-07T09:30:02Z</time></trkpt><trkpt lat="42.7774017167848" lon="12.114856384491103"><ele>230.0</ele><time>2026-04-07T09:30:03Z</time></trkpt><trkpt lat="42.777340127083185" lon="12.11467332933355"><ele>229.0</ele><time>2026-04-07T09:30:04Z</time></trkpt><trkpt lat="42.777329644494934" lon="12.114469199825571"><ele>228.0</ele><time>2026-04-07T09:30:05Z</time></trkpt><trkpt lat="42.777367624608885" lon="12.114244394970287"><ele>227.33333333333331</ele><time>2026-04-07T09:30:06Z</time></trkpt><trkpt lat="42.77743005998426" lon="12.114004048122078"><ele>226.66666666666666</ele><time>2026-04-07T09:30:07Z</time></trkpt><trkpt lat="42.777455277342625" lon="12.113784149625173"><ele>226.0</ele><time>2026-04-07T09:30:08Z</time></trkpt><trkpt lat="42.777431699847206" lon="12.11356968620585"><ele>226.0</ele><time>2026-04-07T09:30:09Z</time></trkpt><trkpt lat="42.777365642740804" lon="12.113368817428821"><ele>226.0</ele><time>2026-04-07T09:30:10Z</time></trkpt><trkpt lat="42.77724731237162" lon="12.113191244498278"><ele>226.0</ele><time>2026-04-07T09:30:11Z</time></trkpt><trkpt lat="42.7770995930562" lon="12.113025894959772"><ele>223.33333333333331</ele><time>2026-04-07T09:30:12Z</time></trkpt><trkpt lat="42.77694031041354" lon="12.112883665039133"><ele>220.66666666666669</ele><time>2026-04-07T09:30:13Z</time></trkpt><trkpt lat="42.77674755584267" lon="12.112801484844688"><ele>218.0</ele><time>2026-04-07T09:30:14Z</time></trkpt><trkpt lat="42.776534789164394" lon="12.112786163655283"><ele>215.33333333333334</ele><time>2026-04-07T09:30:15Z</time></trkpt><trkpt lat="42.776332023712406" lon="12.112800335893946"><ele>212.66666666666669</ele><time>2026-04-07T09:30:16Z</time></trkpt><trkpt lat="42.77614998195808" lon="12.112795389943797"><ele>210.0</ele><time>2026-04-07T09:30:17Z</time></trkpt><trkpt lat="42.775987964637686" lon="12.112818901121514"><ele>210.66666666666669</ele><time>2026-04-07T09:30:18Z</time></trkpt><trkpt lat="42.7758363021321" lon="12.112922600055114"><ele>211.33333333333334</ele><time>2026-04-07T09:30:19Z</time></trkpt><trkpt lat="42.77571387196932" lon="12.113094995032725"><ele>212.0</ele><time>2026-04-07T09:30:20Z</time></trkpt><trkpt lat="42.77562231327451" lon="12.113287586796522"><ele>212.0</ele><time>2026-04-07T09:30:21Z</time></trkpt><trkpt lat="42.775482800445396" lon="12.113417811976722"><ele>212.0</ele><time>2026-04-07T09:30:22Z</time></trkpt><trkpt lat="42.7752873362988" lon="12.113449645569121"><ele>212.0</ele><time>2026-04-07T09:30:23Z</time></trkpt><trkpt lat="42.7750815452115" lon="12.113433327000337"><ele>208.5</ele><time>2026-04-07T09:30:24Z</time></trkpt><trkpt lat="42.774841934106824" lon="12.113423347748471"><ele>205.0</ele><time>2026-04-07T09:30:25Z</time></trkpt><trkpt lat="42.77457985710816" lon="12.11339442953184"><ele>202.0</ele><time>2026-04-07T09:30:26Z</time></trkpt><trkpt lat="42.7743072701995" lon="12.1134451882141"><ele>199.0</ele><time>2026-04-07T09:30:27Z</time></trkpt><trkpt lat="42.774029407898375" lon="12.113553576352107"><ele>199.0</ele><time>2026-04-07T09:30:28Z</time></trkpt><trkpt lat="42.77374941364929" lon="12.113685048127493"><ele>199.0</ele><time>2026-04-07T09:30:29Z</time></trkpt><trkpt lat="42.773481844479875" lon="12.113791511063237"><ele>197.5</ele><time>2026-04-07T09:30:30Z</time></trkpt><trkpt lat="42.77321899677532" lon="12.113831223443889"><ele>196.0</ele><time>2026-04-07T09:30:31Z</time></trkpt><trkpt lat="42.77297681269533" lon="12.1138923009964"><ele>196.0</ele><time>2026-04-07T09:30:32Z</time></trkpt><trkpt lat="42.77274193567122" lon="12.113941111663241"><ele>196.0</ele><time>2026-04-07T09:30:33Z</time></trkpt><trkpt lat="42.77254164429219" lon="12.114025158100667"><ele>196.0</ele><time>2026-04-07T09:30:34Z</time></trkpt><trkpt lat="42.772366526972014" lon="12.114139459874416"><ele>192.0</ele><time>2026-04-07T09:30:35Z</time></trkpt><trkpt lat="42.77222245261816" lon="12.11429306745824"><ele>188.0</ele><time>2026-04-07T09:30:36Z</time></trkpt><trkpt lat="42.77212710303793" lon="12.114472519829985"><ele>184.0</ele><time>2026-04-07T09:30:37Z</time></trkpt><trkpt lat="42.77205294538916" lon="12.114628643932662"><ele>184.0</ele><time>2026-04-07T09:30:38Z</time></trkpt><trkpt lat="42.771942758218756" lon="12.114693874162855"><ele>184.0</ele><time>2026-04-07T09:30:39Z</time></trkpt><trkpt lat="42.77181860792637" lon="12.114692702059559"><ele>184.0</ele><time>2026-04-07T09:30:40Z</time></trkpt><trkpt lat="42.77167895695892" lon="12.11457676722201"><ele>184.0</ele><time>2026-04-07T09:30:41Z</time></trkpt><trkpt lat="42.77155063959171" lon="12.114450132185052"><ele>184.0</ele><time>2026-04-07T09:30:42Z</time></trkpt><trkpt lat="42.77142531320293" lon="12.114276212056128"><ele>184.0</ele><time>2026-04-07T09:30:43Z</time></trkpt><trkpt lat="42.77129680963123" lon="12.114082733879517"><ele>184.0</ele><time>2026-04-07T09:30:44Z</time></trkpt><trkpt lat="42.7711187921952" lon="12.113963075362417"><ele>177.33333333333334</ele><time>2026-04-07T09:30:45Z</time></trkpt><trkpt lat="42.770933264650154" lon="12.113900066342737"><ele>170.66666666666666</ele><time>2026-04-07T09:30:46Z</time></trkpt><trkpt lat="42.77079336323354" lon="12.113788699419324"><ele>164.0</ele><time>2026-04-07T09:30:47Z</time></trkpt><trkpt lat="42.7707109436883" lon="12.11364386730879"><ele>164.0</ele><time>2026-04-07T09:30:48Z</time></trkpt><trkpt lat="42.770684395608306" lon="12.113453339936886"><ele>164.0</ele><time>2026-04-07T09:30:49Z</time></trkpt><trkpt lat="42.77068033078017" lon="12.113234439217571"><ele>164.0</ele><time>2026-04-07T09:30:50Z</time></trkpt><trkpt lat="42.77073597184627" lon="12.113030832127654"><ele>164.66666666666666</ele><time>2026-04-07T09:30:51Z</time></trkpt><trkpt lat="42.77083969779016" lon="12.112859470886614"><ele>165.33333333333334</ele><time>2026-04-07T09:30:52Z</time></trkpt><trkpt lat="42.77099409731514" lon="12.112742673513988"><ele>166.0</ele><time>2026-04-07T09:30:53Z</time></trkpt><trkpt lat="42.771178959092865" lon="12.112599142658524"><ele>166.0</ele><time>2026-04-07T09:30:54Z</time></trkpt><trkpt lat="42.77139189722981" lon="12.112472891106203"><ele>166.0</ele><time>2026-04-07T09:30:55Z</time></trkpt><trkpt lat="42.771597349716764" lon="12.112347591373105"><ele>161.66666666666669</ele><time>2026-04-07T09:30:56Z</time></trkpt><trkpt lat="42.77177872712753" lon="12.112239056454605"><ele>157.33333333333334</ele><time>2026-04-07T09:30:57Z</time></trkpt><trkpt lat="42.771936902407916" lon="12.112150294709876"><ele>153.0</ele><time>2026-04-07T09:30:58Z</time></trkpt><trkpt lat="42.772071579409186" lon="12.112057317209517"><ele>153.0</ele><time>2026-04-07T09:30:59Z</time></trkpt><trkpt lat="42.772172121007394" lon="12.111930930157222"><ele>153.0</ele><time>2026-04-07T09:31:00Z</time></trkpt><trkpt lat="42.77222235767293" lon="12.111753248403252"><ele>153.0</ele><time>2026-04-07T09:31:01Z</time></trkpt><trkpt lat="42.772192155778676" lon="12.111539973645268"><ele>153.0</ele><time>2026-04-07T09:31:02Z</time></trkpt><trkpt lat="42.77210000540724" lon="12.111334388776182"><ele>154.33333333333334</ele><time>2026-04-07T09:31:03Z</time></trkpt><trkpt lat="42.771986193422386" lon="12.111205608607628"><ele>155.66666666666669</ele><time>2026-04-07T09:31:04Z</time></trkpt><trkpt lat="42.771835817773805" lon="12.111161906760442"><ele>157.0</ele><time>2026-04-07T09:31:05Z</time></trkpt><trkpt lat="42.77164147393013" lon="12.111222459941256"><ele>159.5</ele><time>2026-04-07T09:31:06Z</time></trkpt><trkpt lat="42.771413132385476" lon="12.111318179170315"><ele>162.0</ele><time>2026-04-07T09:31:07Z</time></trkpt><trkpt lat="42.77113912966481" lon="12.11142775767914"><ele>158.0</ele><time>2026-04-07T09:31:08Z</time></trkpt><trkpt lat="42.77084802717248" lon="12.11151402776012"><ele>154.0</ele><time>2026-04-07T09:31:09Z</time></trkpt><trkpt lat="42.77057975045344" lon="12.111593351892704"><ele>154.0</ele><time>2026-04-07T09:31:10Z</time></trkpt><trkpt lat="42.77033420367396" lon="12.11169385812568"><ele>154.0</ele><time>2026-04-07T09:31:11Z</time></trkpt><trkpt lat="42.7701187542818" lon="12.1118552201787"><ele>160.5</ele><time>2026-04-07T09:31:12Z</time></trkpt><trkpt lat="42.769947457333025" lon="12.112108694849443"><ele>167.0</ele><time>2026-04-07T09:31:13Z</time></trkpt><trkpt lat="42.7697910486704" lon="12.112376536307732"><ele>158.5</ele><time>2026-04-07T09:31:14Z</time></trkpt><trkpt lat="42.76960796114824" lon="12.11258051350272"><ele>150.0</ele><time>2026-04-07T09:31:15Z</time></trkpt><trkpt lat="42.76942730179833" lon="12.11276521646033"><ele>153.66666666666666</ele><time>2026-04-07T09:31:16Z</time></trkpt><trkpt lat="42.76923517522472" lon="12.112928011419184"><ele>157.33333333333331</ele><time>2026-04-07T09:31:17Z</time></trkpt><trkpt lat="42.76903797858399" lon="12.11302892219316"><ele>161.0</ele><time>2026-04-07T09:31:18Z</time></trkpt><trkpt lat="42.76883657669984" lon="12.113057922601957"><ele>161.0</ele><time>2026-04-07T09:31:19Z</time></trkpt><trkpt lat="42.76861501363624" lon="12.113017162372367"><ele>161.0</ele><time>2026-04-07T09:31:20Z</time></trkpt><trkpt lat="42.76838896780428" lon="12.1129330278"><ele>160.66666666666666</ele><time>2026-04-07T09:31:21Z</time></trkpt><trkpt lat="42.76820381864659" lon="12.11280505082913"><ele>160.33333333333334</ele><time>2026-04-07T09:31:22Z</time></trkpt><trkpt lat="42.76805606261948" lon="12.112595421038165"><ele>160.0</ele><time>2026-04-07T09:31:23Z</time></trkpt><trkpt lat="42.767916207069284" lon="12.112336138182858"><ele>160.0</ele><time>2026-04-07T09:31:24Z</time></trkpt><trkpt lat="42.767777474374356" lon="12.112077825554433"><ele>160.0</ele><time>2026-04-07T09:31:25Z</time></trkpt><trkpt lat="42.76763858213655" lon="12.11183312563959"><ele>155.0</ele><time>2026-04-07T09:31:26Z</time></trkpt><trkpt lat="42.76743685106149" lon="12.111648236787419"><ele>150.0</ele><time>2026-04-07T09:31:27Z</time></trkpt><trkpt lat="42.767177385797424" lon="12.11156248924248"><ele>150.0</ele><time>2026-04-07T09:31:28Z</time></trkpt><trkpt lat="42.76691980357769" lon="12.111509210550514"><ele>150.0</ele><time>2026-04-07T09:31:29Z</time></trkpt><trkpt lat="42.76664720959696" lon="12.111518891541241"><ele>150.5</ele><time>2026-04-07T09:31:30Z</time></trkpt><trkpt lat="42.7663770867175" lon="12.111541493038889"><ele>151.0</ele><time>2026-04-07T09:31:31Z</time></trkpt><trkpt lat="42.76609145280086" lon="12.111556331454372"><ele>150.5</ele><time>2026-04-07T09:31:32Z</time></trkpt><trkpt lat="42.76579840699539" lon="12.1115715826034"><ele>150.0</ele><time>2026-04-07T09:31:33Z</time></trkpt><trkpt lat="42.76551043504527" lon="12.111594762752064"><ele>149.5</ele><time>2026-04-07T09:31:34Z</time></trkpt><trkpt lat="42.765210659289814" lon="12.11162994099934"><ele>149.0</ele><time>2026-04-07T09:31:35Z</time></trkpt><trkpt lat="42.764921308720936" lon="12.111670861272454"><ele>148.5</ele><time>2026-04-07T09:31:36Z</time></trkpt><trkpt lat="42.76464663569569" lon="12.111725326348541"><ele>148.0</ele><time>2026-04-07T09:31:37Z</time></trkpt><trkpt lat="42.76437794086757" lon="12.111773526279695"><ele>148.5</ele><time>2026-04-07T09:31:38Z</time></trkpt><trkpt lat="42.7641058286018" lon="12.111832688544457"><ele>149.0</ele><time>2026-04-07T09:31:39Z</time></trkpt><trkpt lat="42.763843268624974" lon="12.112042986469703"><ele>149.0</ele><time>2026-04-07T09:31:40Z</time></trkpt><trkpt lat="42.76356271573225" lon="12.112181223147148"><ele>149.0</ele><time>2026-04-07T09:31:41Z</time></trkpt><trkpt lat="42.76327028569133" lon="12.112318209286215"><ele>149.5</ele><time>2026-04-07T09:31:42Z</time></trkpt><trkpt lat="42.762977612739284" lon="12.112455618601233"><ele>150.0</ele><time>2026-04-07T09:31:43Z</time></trkpt><trkpt lat="42.762676795478384" lon="12.112603795674126"><ele>150.0</ele><time>2026-04-07T09:31:44Z</time></trkpt><trkpt lat="42.76238651669799" lon="12.112759991633476"><ele>150.0</ele><time>2026-04-07T09:31:45Z</time></trkpt><trkpt lat="42.762104732946746" lon="12.112936228119793"><ele>148.5</ele><time>2026-04-07T09:31:46Z</time></trkpt><trkpt lat="42.76182490997246" lon="12.113124706314995"><ele>147.0</ele><time>2026-04-07T09:31:47Z</time></trkpt><trkpt lat="42.76155369410854" lon="12.11331975007421"><ele>147.0</ele><time>2026-04-07T09:31:48Z</time></trkpt><trkpt lat="42.761287322004264" lon="12.113521265035013"><ele>147.0</ele><time>2026-04-07T09:31:49Z</time></trkpt><trkpt lat="42.7610290501734" lon="12.113721312229847"><ele>146.0</ele><time>2026-04-07T09:31:50Z</time></trkpt><trkpt lat="42.76077977151178" lon="12.113927444946642"><ele>145.0</ele><time>2026-04-07T09:31:51Z</time></trkpt><trkpt lat="42.76054350083536" lon="12.11414555543856"><ele>145.0</ele><time>2026-04-07T09:31:52Z</time></trkpt><trkpt lat="42.76030969966378" lon="12.114363528565999"><ele>145.0</ele><time>2026-04-07T09:31:53Z</time></trkpt><trkpt lat="42.760072273889975" lon="12.114582523524847"><ele>145.0</ele><time>2026-04-07T09:31:54Z</time></trkpt><trkpt lat="42.75982950657988" lon="12.114800811172492"><ele>145.0</ele><time>2026-04-07T09:31:55Z</time></trkpt><trkpt lat="42.7595821273666" lon="12.115023421746876"><ele>146.0</ele><time>2026-04-07T09:31:56Z</time></trkpt><trkpt lat="42.75933341161575" lon="12.115250096067728"><ele>147.0</ele><time>2026-04-07T09:31:57Z</time></trkpt><trkpt lat="42.759087775707236" lon="12.1154755867752"><ele>147.0</ele><time>2026-04-07T09:31:58Z</time></trkpt><trkpt lat="42.7588465640946" lon="12.115697934701831"><ele>147.0</ele><time>2026-04-07T09:31:59Z</time></trkpt><trkpt lat="42.75860991117528" lon="12.11591380080396"><ele>147.0</ele><time>2026-04-07T09:32:00Z</time></trkpt><trkpt lat="42.75837715167804" lon="12.11612781407309"><ele>147.0</ele><time>2026-04-07T09:32:01Z</time></trkpt><trkpt lat="42.75815099202449" lon="12.11633456116995"><ele>147.0</ele><time>2026-04-07T09:32:02Z</time></trkpt><trkpt lat="42.75793794688782" lon="12.116530312080588"><ele>147.0</ele><time>2026-04-07T09:32:03Z</time></trkpt><trkpt lat="42.75773468040817" lon="12.116715737739666"><ele>148.0</ele><time>2026-04-07T09:32:04Z</time></trkpt><trkpt lat="42.757544935310946" lon="12.116890536954234"><ele>149.0</ele><time>2026-04-07T09:32:05Z</time></trkpt><trkpt lat="42.757364695914866" lon="12.117058810857335"><ele>150.0</ele><time>2026-04-07T09:32:06Z</time></trkpt><trkpt lat="42.757196517827985" lon="12.11721622536962"><ele>150.0</ele><time>2026-04-07T09:32:07Z</time></trkpt><trkpt lat="42.7570371451811" lon="12.117364763959568"><ele>150.0</ele><time>2026-04-07T09:32:08Z</time></trkpt><trkpt lat="42.756890523001125" lon="12.117512436550681"><ele>150.0</ele><time>2026-04-07T09:32:09Z</time></trkpt><trkpt lat="42.75675993287015" lon="12.117667556224301"><ele>151.66666666666666</ele><time>2026-04-07T09:32:10Z</time></trkpt><trkpt lat="42.756641686857975" lon="12.117826985043937"><ele>153.33333333333331</ele><time>2026-04-07T09:32:11Z</time></trkpt><trkpt lat="42.756532031583326" lon="12.117986915109336"><ele>155.0</ele><time>2026-04-07T09:32:12Z</time></trkpt><trkpt lat="42.75642898554072" lon="12.11814063982149"><ele>153.75</ele><time>2026-04-07T09:32:13Z</time></trkpt><trkpt lat="42.75633637248911" lon="12.118288970539522"><ele>152.5</ele><time>2026-04-07T09:32:14Z</time></trkpt><trkpt lat="42.75625239572419" lon="12.118424115602423"><ele>151.25</ele><time>2026-04-07T09:32:15Z</time></trkpt><trkpt lat="42.75618033287612" lon="12.118539755969184"><ele>150.0</ele><time>2026-04-07T09:32:16Z</time></trkpt><trkpt lat="42.75611934618056" lon="12.118638282149206"><ele>150.0</ele><time>2026-04-07T09:32:17Z</time></trkpt><trkpt lat="42.75607318987355" lon="12.118716385089167"><ele>150.0</ele><time>2026-04-07T09:32:18Z</time></trkpt><trkpt lat="42.756012529447844" lon="12.118817465043424"><ele>168.0</ele><time>2026-04-07T09:32:20Z</time></trkpt></trkseg><trkseg><trkpt lat="42.75389668809824" lon="12.120611836895481"><ele>177.0</ele><time>2026-04-07T09:38:02Z</time></trkpt><trkpt lat="42.75379436458979" lon="12.120607102083198"><ele>177.0</ele><time>2026-04-07T09:38:03Z</time></trkpt><trkpt lat="42.75369051981685" lon="12.12061444249398"><ele>177.0</ele><time>2026-04-07T09:38:04Z</time></trkpt><trkpt lat="42.753593873853895" lon="12.120636514364891"><ele>177.0</ele><time>2026-04-07T09:38:05Z</time></trkpt><trkpt lat="42.753509564539854" lon="12.120690665464558"><ele>177.0</ele><time>2026-04-07T09:38:06Z</time></trkpt><trkpt lat="42.753445185515524" lon="12.120795787368872"><ele>174.39999999999998</ele><time>2026-04-07T09:38:07Z</time></trkpt><trkpt lat="42.75342278824879" lon="12.120928512367236"><ele>171.79999999999998</ele><time>2026-04-07T09:38:08Z</time></trkpt><trkpt lat="42.75344160502276" lon="12.121068937642733"><ele>169.2</ele><time>2026-04-07T09:38:09Z</time></trkpt><trkpt lat="42.75348753026952" lon="12.121200668307408"><ele>166.6</ele><time>2026-04-07T09:38:10Z</time></trkpt><trkpt lat="42.75353747039628" lon="12.121336153119822"><ele>164.0</ele><time>2026-04-07T09:38:11Z</time></trkpt><trkpt lat="42.753674035474674" lon="12.121391548569035"><ele>163.0</ele><time>2026-04-07T09:38:12Z</time></trkpt><trkpt lat="42.7537950538479" lon="12.12143649291877"><ele>162.0</ele><time>2026-04-07T09:38:13Z</time></trkpt><trkpt lat="42.75390206031777" lon="12.121498065691418"><ele>161.0</ele><time>2026-04-07T09:38:14Z</time></trkpt><trkpt lat="42.75398484529906" lon="12.121596206956516"><ele>160.0</ele><time>2026-04-07T09:38:15Z</time></trkpt><trkpt lat="42.754042574234646" lon="12.121723370713527"><ele>159.5</ele><time>2026-04-07T09:38:16Z</time></trkpt><trkpt lat="42.754056735041274" lon="12.121875025432045"><ele>159.0</ele><time>2026-04-07T09:38:17Z</time></trkpt><trkpt lat="42.75403553879493" lon="12.122049315440886"><ele>158.5</ele><time>2026-04-07T09:38:18Z</time></trkpt><trkpt lat="42.7539644490534" lon="12.122205208901079"><ele>158.0</ele><time>2026-04-07T09:38:19Z</time></trkpt><trkpt lat="42.753874698215306" lon="12.122365452934833"><ele>159.66666666666666</ele><time>2026-04-07T09:38:20Z</time></trkpt><trkpt lat="42.75376908485101" lon="12.122535906837339"><ele>161.33333333333334</ele><time>2026-04-07T09:38:21Z</time></trkpt><trkpt lat="42.75365822458397" lon="12.122708802361071"><ele>163.0</ele><time>2026-04-07T09:38:22Z</time></trkpt><trkpt lat="42.753554962343905" lon="12.122872816824176"><ele>168.0</ele><time>2026-04-07T09:38:23Z</time></trkpt><trkpt lat="42.753465120116786" lon="12.123038445312496"><ele>173.0</ele><time>2026-04-07T09:38:24Z</time></trkpt><trkpt lat="42.75332934388848" lon="12.123151969304082"><ele>178.0</ele><time>2026-04-07T09:38:25Z</time></trkpt><trkpt lat="42.75315688679867" lon="12.123228354695396"><ele>179.0</ele><time>2026-04-07T09:38:26Z</time></trkpt><trkpt lat="42.75297009942483" lon="12.123310640519474"><ele>180.0</ele><time>2026-04-07T09:38:27Z</time></trkpt><trkpt lat="42.75278915760891" lon="12.123371544062753"><ele>181.0</ele><time>2026-04-07T09:38:28Z</time></trkpt><trkpt lat="42.752618798859714" lon="12.123388404730514"><ele>181.0</ele><time>2026-04-07T09:38:29Z</time></trkpt><trkpt lat="42.75245114495466" lon="12.123337838651764"><ele>181.0</ele><time>2026-04-07T09:38:30Z</time></trkpt><trkpt lat="42.75227656083763" lon="12.12323456641244"><ele>181.0</ele><time>2026-04-07T09:38:31Z</time></trkpt><trkpt lat="42.75211031726444" lon="12.123106847473908"><ele>181.33333333333334</ele><time>2026-04-07T09:38:32Z</time></trkpt><trkpt lat="42.75194152819847" lon="12.123021045020366"><ele>181.66666666666666</ele><time>2026-04-07T09:38:33Z</time></trkpt><trkpt lat="42.7517381789071" lon="12.123040479625162"><ele>182.0</ele><time>2026-04-07T09:38:34Z</time></trkpt><trkpt lat="42.75151876418765" lon="12.123139947000787"><ele>183.5</ele><time>2026-04-07T09:38:35Z</time></trkpt><trkpt lat="42.75130599232695" lon="12.123305474446951"><ele>185.0</ele><time>2026-04-07T09:38:36Z</time></trkpt><trkpt lat="42.751132977758544" lon="12.123518159332953"><ele>187.0</ele><time>2026-04-07T09:38:37Z</time></trkpt><trkpt lat="42.75100001953469" lon="12.12377003501171"><ele>189.0</ele><time>2026-04-07T09:38:38Z</time></trkpt><trkpt lat="42.750879018267526" lon="12.124030463574295"><ele>189.0</ele><time>2026-04-07T09:38:39Z</time></trkpt><trkpt lat="42.75076058221144" lon="12.124279320231922"><ele>189.0</ele><time>2026-04-07T09:38:40Z</time></trkpt><trkpt lat="42.75063588327811" lon="12.124522351366668"><ele>189.0</ele><time>2026-04-07T09:38:41Z</time></trkpt><trkpt lat="42.75050872780431" lon="12.124765634348348"><ele>189.33333333333334</ele><time>2026-04-07T09:38:42Z</time></trkpt><trkpt lat="42.750391953735864" lon="12.12500981948682"><ele>189.66666666666669</ele><time>2026-04-07T09:38:43Z</time></trkpt><trkpt lat="42.75030333506413" lon="12.125266556721868"><ele>190.0</ele><time>2026-04-07T09:38:44Z</time></trkpt><trkpt lat="42.750236111804504" lon="12.125536736843895"><ele>185.66666666666669</ele><time>2026-04-07T09:38:45Z</time></trkpt><trkpt lat="42.75017128485273" lon="12.125803285394417"><ele>181.33333333333334</ele><time>2026-04-07T09:38:46Z</time></trkpt><trkpt lat="42.75011625939352" lon="12.126057869723697"><ele>177.0</ele><time>2026-04-07T09:38:47Z</time></trkpt><trkpt lat="42.75007590463199" lon="12.126304125336743"><ele>177.0</ele><time>2026-04-07T09:38:48Z</time></trkpt><trkpt lat="42.75005237862751" lon="12.126545346752554"><ele>177.0</ele><time>2026-04-07T09:38:49Z</time></trkpt><trkpt lat="42.75000606199582" lon="12.126768493866962"><ele>177.0</ele><time>2026-04-07T09:38:50Z</time></trkpt><trkpt lat="42.749936402730434" lon="12.126951357688846"><ele>177.0</ele><time>2026-04-07T09:38:51Z</time></trkpt><trkpt lat="42.74982837759534" lon="12.127063125766346"><ele>177.0</ele><time>2026-04-07T09:38:52Z</time></trkpt><trkpt lat="42.74968676661293" lon="12.127104913676945"><ele>177.0</ele><time>2026-04-07T09:38:53Z</time></trkpt><trkpt lat="42.749525992562035" lon="12.127068921226815"><ele>177.0</ele><time>2026-04-07T09:38:54Z</time></trkpt><trkpt lat="42.74936047252735" lon="12.126989517153511"><ele>173.66666666666666</ele><time>2026-04-07T09:38:55Z</time></trkpt><trkpt lat="42.74918154024226" lon="12.126957777644462"><ele>170.33333333333331</ele><time>2026-04-07T09:38:56Z</time></trkpt><trkpt lat="42.74899576467653" lon="12.127010617191639"><ele>167.0</ele><time>2026-04-07T09:38:57Z</time></trkpt><trkpt lat="42.74881546727855" lon="12.12714404669705"><ele>167.0</ele><time>2026-04-07T09:38:58Z</time></trkpt><trkpt lat="42.74864701924325" lon="12.127317811897553"><ele>167.0</ele><time>2026-04-07T09:38:59Z</time></trkpt><trkpt lat="42.74849355318754" lon="12.127484245781561"><ele>167.0</ele><time>2026-04-07T09:39:00Z</time></trkpt><trkpt lat="42.748348481628305" lon="12.127598715472118"><ele>165.0</ele><time>2026-04-07T09:39:01Z</time></trkpt><trkpt lat="42.74820671694983" lon="12.127653276720025"><ele>163.0</ele><time>2026-04-07T09:39:02Z</time></trkpt><trkpt lat="42.74807811626018" lon="12.127642644551768"><ele>161.0</ele><time>2026-04-07T09:39:03Z</time></trkpt><trkpt lat="42.747971003961574" lon="12.127558891025439"><ele>159.0</ele><time>2026-04-07T09:39:04.001Z</time></trkpt><trkpt lat="42.74789873626741" lon="12.127391765462868"><ele>158.66666666666666</ele><time>2026-04-07T09:39:05.001Z</time></trkpt><trkpt lat="42.74786242861071" lon="12.12716485347242"><ele>158.33333333333331</ele><time>2026-04-07T09:39:06.001Z</time></trkpt><trkpt lat="42.74785107036952" lon="12.126922424007637"><ele>158.0</ele><time>2026-04-07T09:39:07.001Z</time></trkpt><trkpt lat="42.747804929243095" lon="12.126707095342267"><ele>157.0</ele><time>2026-04-07T09:39:08.001Z</time></trkpt><trkpt lat="42.74771200500566" lon="12.126546708600886"><ele>156.0</ele><time>2026-04-07T09:39:09.001Z</time></trkpt><trkpt lat="42.74757324632917" lon="12.126432410905284"><ele>155.0</ele><time>2026-04-07T09:39:10.001Z</time></trkpt><trkpt lat="42.747410138498644" lon="12.126345074473154"><ele>155.0</ele><time>2026-04-07T09:39:11.001Z</time></trkpt><trkpt lat="42.74725761119561" lon="12.126340835895414"><ele>155.0</ele><time>2026-04-07T09:39:12.001Z</time></trkpt><trkpt lat="42.747126127741936" lon="12.126405437868378"><ele>155.0</ele><time>2026-04-07T09:39:13.001Z</time></trkpt><trkpt lat="42.74702290243803" lon="12.126557158094414"><ele>155.0</ele><time>2026-04-07T09:39:14.001Z</time></trkpt><trkpt lat="42.74697911806036" lon="12.126788875368762"><ele>153.33333333333331</ele><time>2026-04-07T09:39:15.001Z</time></trkpt><trkpt lat="42.746961551641064" lon="12.127042728412341"><ele>151.66666666666666</ele><time>2026-04-07T09:39:16.001Z</time></trkpt><trkpt lat="42.74699266738199" lon="12.127288140648767"><ele>150.0</ele><time>2026-04-07T09:39:17.001Z</time></trkpt><trkpt lat="42.74701828680935" lon="12.127516353018464"><ele>150.0</ele><time>2026-04-07T09:39:18.001Z</time></trkpt><trkpt lat="42.74697495451544" lon="12.127760161902955"><ele>150.0</ele><time>2026-04-07T09:39:19.001Z</time></trkpt><trkpt lat="42.7468687015416" lon="12.127978137268405"><ele>150.0</ele><time>2026-04-07T09:39:20.001Z</time></trkpt><trkpt lat="42.74675076064054" lon="12.12813353339589"><ele>145.66666666666666</ele><time>2026-04-07T09:39:21.001Z</time></trkpt><trkpt lat="42.746611878698644" lon="12.128265421374033"><ele>141.33333333333331</ele><time>2026-04-07T09:39:22Z</time></trkpt><trkpt lat="42.74643943213908" lon="12.128331709891938"><ele>137.0</ele><time>2026-04-07T09:39:23Z</time></trkpt><trkpt lat="42.746225482250935" lon="12.128318696617251"><ele>137.66666666666666</ele><time>2026-04-07T09:39:24Z</time></trkpt><trkpt lat="42.74601018797729" lon="12.12835855994365"><ele>138.33333333333334</ele><time>2026-04-07T09:39:25Z</time></trkpt><trkpt lat="42.745798479151745" lon="12.128467206353207"><ele>139.0</ele><time>2026-04-07T09:39:26Z</time></trkpt><trkpt lat="42.74561902320118" lon="12.128575328836474"><ele>139.0</ele><time>2026-04-07T09:39:27Z</time></trkpt><trkpt lat="42.7454415298838" lon="12.128611471465865"><ele>139.0</ele><time>2026-04-07T09:39:28Z</time></trkpt><trkpt lat="42.74525857123859" lon="12.128559427968046"><ele>139.0</ele><time>2026-04-07T09:39:29Z</time></trkpt><trkpt lat="42.74505061893847" lon="12.128443514901615"><ele>139.0</ele><time>2026-04-07T09:39:30Z</time></trkpt><trkpt lat="42.744825698380396" lon="12.128280686603357"><ele>139.0</ele><time>2026-04-07T09:39:31Z</time></trkpt><trkpt lat="42.744588213833026" lon="12.128095512190853"><ele>133.0</ele><time>2026-04-07T09:39:32Z</time></trkpt><trkpt lat="42.74434848056874" lon="12.127910373547621"><ele>127.0</ele><time>2026-04-07T09:39:33Z</time></trkpt><trkpt lat="42.74411367759041" lon="12.12773510414733"><ele>127.0</ele><time>2026-04-07T09:39:34Z</time></trkpt><trkpt lat="42.74388226450791" lon="12.127565846666196"><ele>127.0</ele><time>2026-04-07T09:39:35Z</time></trkpt><trkpt lat="42.74364713163492" lon="12.127391247338164"><ele>127.0</ele><time>2026-04-07T09:39:36Z</time></trkpt><trkpt lat="42.7434192322284" lon="12.127218329449612"><ele>127.0</ele><time>2026-04-07T09:39:37Z</time></trkpt><trkpt lat="42.743199066561324" lon="12.127051880861053"><ele>127.0</ele><time>2026-04-07T09:39:38Z</time></trkpt><trkpt lat="42.74298470777916" lon="12.126888900816219"><ele>127.0</ele><time>2026-04-07T09:39:39Z</time></trkpt><trkpt lat="42.74277670069089" lon="12.126731745809527"><ele>126.66666666666667</ele><time>2026-04-07T09:39:40Z</time></trkpt><trkpt lat="42.74257673570068" lon="12.126581636054102"><ele>126.33333333333334</ele><time>2026-04-07T09:39:41Z</time></trkpt><trkpt lat="42.7423859432902" lon="12.126439327183826"><ele>126.0</ele><time>2026-04-07T09:39:42Z</time></trkpt><trkpt lat="42.74219963011672" lon="12.12630222348784"><ele>126.0</ele><time>2026-04-07T09:39:43Z</time></trkpt><trkpt lat="42.74201593481989" lon="12.126166150310338"><ele>126.0</ele><time>2026-04-07T09:39:44Z</time></trkpt><trkpt lat="42.74183854189197" lon="12.126031301143799"><ele>126.0</ele><time>2026-04-07T09:39:45Z</time></trkpt><trkpt lat="42.74166592380538" lon="12.12589852995841"><ele>126.33333333333334</ele><time>2026-04-07T09:39:46Z</time></trkpt><trkpt lat="42.74149892390461" lon="12.12577213127857"><ele>126.66666666666667</ele><time>2026-04-07T09:39:47Z</time></trkpt><trkpt lat="42.74133605345793" lon="12.125651584550315"><ele>127.0</ele><time>2026-04-07T09:39:48Z</time></trkpt><trkpt lat="42.74117780419297" lon="12.125534492060423"><ele>128.0</ele><time>2026-04-07T09:39:49Z</time></trkpt><trkpt lat="42.741023758507616" lon="12.125420105867535"><ele>129.0</ele><time>2026-04-07T09:39:50Z</time></trkpt><trkpt lat="42.74087664409364" lon="12.125308419937143"><ele>130.0</ele><time>2026-04-07T09:39:51Z</time></trkpt><trkpt lat="42.740734914149314" lon="12.125201456368993"><ele>130.0</ele><time>2026-04-07T09:39:52Z</time></trkpt><trkpt lat="42.74060585645043" lon="12.125103895766747"><ele>130.0</ele><time>2026-04-07T09:39:53Z</time></trkpt><trkpt lat="42.74048901398026" lon="12.125018363738311"><ele>130.0</ele><time>2026-04-07T09:39:54Z</time></trkpt><trkpt lat="42.74037953815613" lon="12.12494021733134"><ele>130.0</ele><time>2026-04-07T09:39:55Z</time></trkpt><trkpt lat="42.74027764235072" lon="12.124864457600573"><ele>129.8</ele><time>2026-04-07T09:39:56Z</time></trkpt><trkpt lat="42.74017972771948" lon="12.124789843598645"><ele>129.6</ele><time>2026-04-07T09:39:57Z</time></trkpt><trkpt lat="42.74008570936075" lon="12.12471829737891"><ele>129.4</ele><time>2026-04-07T09:39:58Z</time></trkpt><trkpt lat="42.73999055058931" lon="12.124651141682271"><ele>129.2</ele><time>2026-04-07T09:39:59Z</time></trkpt><trkpt lat="42.73989297617306" lon="12.12458266319675"><ele>129.0</ele><time>2026-04-07T09:40:00Z</time></trkpt><trkpt lat="42.73978589263354" lon="12.124511838152857"><ele>129.0</ele><time>2026-04-07T09:40:01Z</time></trkpt><trkpt lat="42.739668722373466" lon="12.124412087248949"><ele>129.0</ele><time>2026-04-07T09:40:02Z</time></trkpt><trkpt lat="42.739537670679894" lon="12.124343905080888"><ele>129.0</ele><time>2026-04-07T09:40:03Z</time></trkpt><trkpt lat="42.739416691041455" lon="12.124260353725353"><ele>129.0</ele><time>2026-04-07T09:40:04Z</time></trkpt><trkpt lat="42.73929578033233" lon="12.124175742494156"><ele>128.25</ele><time>2026-04-07T09:40:05Z</time></trkpt><trkpt lat="42.73914932333537" lon="12.124166192385117"><ele>127.5</ele><time>2026-04-07T09:40:06Z</time></trkpt><trkpt lat="42.73900524996919" lon="12.124170795796026"><ele>126.75</ele><time>2026-04-07T09:40:07Z</time></trkpt><trkpt lat="42.738863769081824" lon="12.124225625305499"><ele>126.0</ele><time>2026-04-07T09:40:08Z</time></trkpt><trkpt lat="42.73872955292947" lon="12.124327753303575"><ele>126.0</ele><time>2026-04-07T09:40:09Z</time></trkpt><trkpt lat="42.738603798902155" lon="12.124460903777491"><ele>126.0</ele><time>2026-04-07T09:40:10Z</time></trkpt><trkpt lat="42.73847993511223" lon="12.124595993812068"><ele>126.0</ele><time>2026-04-07T09:40:11Z</time></trkpt><trkpt lat="42.73835625891016" lon="12.124729764685894"><ele>125.66666666666666</ele><time>2026-04-07T09:40:12Z</time></trkpt><trkpt lat="42.73823108410339" lon="12.12486140363159"><ele>125.33333333333333</ele><time>2026-04-07T09:40:13Z</time></trkpt><trkpt lat="42.73810391354877" lon="12.124993595609672"><ele>125.0</ele><time>2026-04-07T09:40:14Z</time></trkpt><trkpt lat="42.73797693277773" lon="12.125126691599005"><ele>124.33333333333333</ele><time>2026-04-07T09:40:15Z</time></trkpt><trkpt lat="42.73784840514935" lon="12.12525937936738"><ele>123.66666666666666</ele><time>2026-04-07T09:40:16Z</time></trkpt><trkpt lat="42.73771794625533" lon="12.125392195751722"><ele>123.0</ele><time>2026-04-07T09:40:17Z</time></trkpt><trkpt lat="42.737586340520984" lon="12.125527513680089"><ele>123.0</ele><time>2026-04-07T09:40:18Z</time></trkpt><trkpt lat="42.73745197457892" lon="12.125664019951751"><ele>123.0</ele><time>2026-04-07T09:40:19Z</time></trkpt><trkpt lat="42.73731562905197" lon="12.125801892956527"><ele>123.0</ele><time>2026-04-07T09:40:20Z</time></trkpt><trkpt lat="42.737178676424946" lon="12.125941649132292"><ele>123.0</ele><time>2026-04-07T09:40:21Z</time></trkpt><trkpt lat="42.737044393302654" lon="12.126085554854518"><ele>123.0</ele><time>2026-04-07T09:40:22Z</time></trkpt><trkpt lat="42.73691013737167" lon="12.126231164955001"><ele>123.0</ele><time>2026-04-07T09:40:23Z</time></trkpt><trkpt lat="42.73677546628096" lon="12.126381119400166"><ele>122.33333333333334</ele><time>2026-04-07T09:40:24Z</time></trkpt><trkpt lat="42.736640782680645" lon="12.126534866920775"><ele>121.66666666666667</ele><time>2026-04-07T09:40:25Z</time></trkpt><trkpt lat="42.736504814970395" lon="12.126685627656226"><ele>121.0</ele><time>2026-04-07T09:40:26Z</time></trkpt><trkpt lat="42.7363660268804" lon="12.126833488399875"><ele>121.0</ele><time>2026-04-07T09:40:27Z</time></trkpt><trkpt lat="42.736227453699954" lon="12.126978714626045"><ele>121.0</ele><time>2026-04-07T09:40:28Z</time></trkpt><trkpt lat="42.73609085596067" lon="12.127122655636482"><ele>121.0</ele><time>2026-04-07T09:40:29Z</time></trkpt><trkpt lat="42.73595882486483" lon="12.127261223055244"><ele>120.33333333333334</ele><time>2026-04-07T09:40:30Z</time></trkpt><trkpt lat="42.73582877601263" lon="12.127401822801396"><ele>119.66666666666666</ele><time>2026-04-07T09:40:31Z</time></trkpt><trkpt lat="42.73569871246732" lon="12.127540876212256"><ele>119.0</ele><time>2026-04-07T09:40:32Z</time></trkpt><trkpt lat="42.735568309607814" lon="12.12767605691024"><ele>119.0</ele><time>2026-04-07T09:40:33Z</time></trkpt><trkpt lat="42.735439788319205" lon="12.127808989972278"><ele>119.0</ele><time>2026-04-07T09:40:34Z</time></trkpt><trkpt lat="42.735313439538466" lon="12.127941550843303"><ele>119.0</ele><time>2026-04-07T09:40:35Z</time></trkpt><trkpt lat="42.73518886815859" lon="12.128075307253715"><ele>119.0</ele><time>2026-04-07T09:40:36Z</time></trkpt><trkpt lat="42.73506258462745" lon="12.128208115832393"><ele>119.0</ele><time>2026-04-07T09:40:37Z</time></trkpt><trkpt lat="42.73493652724739" lon="12.128340575398001"><ele>119.0</ele><time>2026-04-07T09:40:38Z</time></trkpt><trkpt lat="42.7348097178456" lon="12.128469559129265"><ele>119.0</ele><time>2026-04-07T09:40:39Z</time></trkpt><trkpt lat="42.73468390864975" lon="12.128599126324364"><ele>119.0</ele><time>2026-04-07T09:40:40Z</time></trkpt><trkpt lat="42.73456185167974" lon="12.128726366377332"><ele>119.0</ele><time>2026-04-07T09:40:41Z</time></trkpt><trkpt lat="42.734442341388586" lon="12.128855897902548"><ele>118.25</ele><time>2026-04-07T09:40:42Z</time></trkpt><trkpt lat="42.73432528203621" lon="12.128984993721145"><ele>117.5</ele><time>2026-04-07T09:40:43Z</time></trkpt><trkpt lat="42.73420671249438" lon="12.129106466488743"><ele>116.75</ele><time>2026-04-07T09:40:44Z</time></trkpt><trkpt lat="42.734090867648405" lon="12.129225394397743"><ele>116.0</ele><time>2026-04-07T09:40:45Z</time></trkpt><trkpt lat="42.73398315443784" lon="12.129347384624504"><ele>116.0</ele><time>2026-04-07T09:40:46Z</time></trkpt><trkpt lat="42.73388634232716" lon="12.129476266985487"><ele>116.0</ele><time>2026-04-07T09:40:47Z</time></trkpt><trkpt lat="42.733802737972816" lon="12.129602371213348"><ele>116.0</ele><time>2026-04-07T09:40:48Z</time></trkpt><trkpt lat="42.73371344942705" lon="12.12970574233206"><ele>116.0</ele><time>2026-04-07T09:40:49Z</time></trkpt><trkpt lat="42.73361959670002" lon="12.129757649205512"><ele>115.8</ele><time>2026-04-07T09:40:50Z</time></trkpt><trkpt lat="42.73352861616811" lon="12.129793039724001"><ele>115.6</ele><time>2026-04-07T09:40:51Z</time></trkpt><trkpt lat="42.73345547514526" lon="12.129878175755813"><ele>115.4</ele><time>2026-04-07T09:40:52Z</time></trkpt><trkpt lat="42.733415535190964" lon="12.1300089319899"><ele>115.2</ele><time>2026-04-07T09:40:53Z</time></trkpt><trkpt lat="42.733385247110725" lon="12.13014908434479"><ele>115.0</ele><time>2026-04-07T09:40:54Z</time></trkpt><trkpt lat="42.733322003891914" lon="12.130268380357094"><ele>115.5</ele><time>2026-04-07T09:40:55Z</time></trkpt><trkpt lat="42.733253770284875" lon="12.130391539477193"><ele>116.0</ele><time>2026-04-07T09:40:56Z</time></trkpt><trkpt lat="42.73320983595894" lon="12.13053656387902"><ele>116.5</ele><time>2026-04-07T09:40:57Z</time></trkpt><trkpt lat="42.73318139561379" lon="12.130690874960628"><ele>117.0</ele><time>2026-04-07T09:40:58Z</time></trkpt><trkpt lat="42.733152567117834" lon="12.130841903685559"><ele>117.25</ele><time>2026-04-07T09:40:59Z</time></trkpt><trkpt lat="42.733125173121245" lon="12.130989406462891"><ele>117.5</ele><time>2026-04-07T09:41:00Z</time></trkpt><trkpt lat="42.733094897077294" lon="12.131137251904494"><ele>117.75</ele><time>2026-04-07T09:41:01Z</time></trkpt><trkpt lat="42.733064428856714" lon="12.131285012355995"><ele>118.0</ele><time>2026-04-07T09:41:02Z</time></trkpt><trkpt lat="42.733034292838184" lon="12.13143451274978"><ele>118.0</ele><time>2026-04-07T09:41:03Z</time></trkpt><trkpt lat="42.73300564744173" lon="12.131587572408005"><ele>118.0</ele><time>2026-04-07T09:41:04Z</time></trkpt><trkpt lat="42.732974048059454" lon="12.131741304265043"><ele>118.0</ele><time>2026-04-07T09:41:05Z</time></trkpt><trkpt lat="42.73293182554588" lon="12.131886068943173"><ele>118.0</ele><time>2026-04-07T09:41:06Z</time></trkpt><trkpt lat="42.732875851658875" lon="12.132018621582553"><ele>118.0</ele><time>2026-04-07T09:41:07Z</time></trkpt><trkpt lat="42.73281178159024" lon="12.132142628185303"><ele>118.00000000000001</ele><time>2026-04-07T09:41:08Z</time></trkpt><trkpt lat="42.7327374241723" lon="12.132256076424092"><ele>118.00000000000001</ele><time>2026-04-07T09:41:09Z</time></trkpt><trkpt lat="42.732657588600006" lon="12.132358029171249"><ele>118.0</ele><time>2026-04-07T09:41:10Z</time></trkpt><trkpt lat="42.73257613634685" lon="12.13245552206051"><ele>118.0</ele><time>2026-04-07T09:41:11Z</time></trkpt><trkpt lat="42.7324912516718" lon="12.132541645450408"><ele>119.33333333333334</ele><time>2026-04-07T09:41:12Z</time></trkpt><trkpt lat="42.732403063961875" lon="12.132605982761827"><ele>120.66666666666667</ele><time>2026-04-07T09:41:13Z</time></trkpt><trkpt lat="42.732315870494546" lon="12.132662502752469"><ele>122.0</ele><time>2026-04-07T09:41:14Z</time></trkpt><trkpt lat="42.732235027339094" lon="12.132707900245139"><ele>123.33333333333334</ele><time>2026-04-07T09:41:15Z</time></trkpt><trkpt lat="42.73216082166502" lon="12.13275476671841"><ele>124.66666666666667</ele><time>2026-04-07T09:41:16Z</time></trkpt><trkpt lat="42.73209213926684" lon="12.132802076892615"><ele>126.0</ele><time>2026-04-07T09:41:17Z</time></trkpt><trkpt lat="42.732025115409584" lon="12.13284562713563"><ele>126.0</ele><time>2026-04-07T09:41:18Z</time></trkpt><trkpt lat="42.73195436506163" lon="12.132889416240598"><ele>126.0</ele><time>2026-04-07T09:41:19Z</time></trkpt><trkpt lat="42.73188608369053" lon="12.132930254198088"><ele>126.0</ele><time>2026-04-07T09:41:20Z</time></trkpt><trkpt lat="42.73182445293441" lon="12.132967608063636"><ele>126.0</ele><time>2026-04-07T09:41:21Z</time></trkpt><trkpt lat="42.73175910606167" lon="12.13300662875815"><ele>126.0</ele><time>2026-04-07T09:41:22Z</time></trkpt><trkpt lat="42.73168352587372" lon="12.133052942205882"><ele>126.0</ele><time>2026-04-07T09:41:23Z</time></trkpt><trkpt lat="42.731598777905155" lon="12.133110344565244"><ele>125.0</ele><time>2026-04-07T09:41:24Z</time></trkpt><trkpt lat="42.73150752158788" lon="12.133171654716193"><ele>124.0</ele><time>2026-04-07T09:41:25Z</time></trkpt><trkpt lat="42.73140863268661" lon="12.133236424880126"><ele>123.0</ele><time>2026-04-07T09:41:26Z</time></trkpt><trkpt lat="42.73130102266762" lon="12.133306485252959"><ele>122.0</ele><time>2026-04-07T09:41:27Z</time></trkpt><trkpt lat="42.73119160521591" lon="12.133379139139288"><ele>122.0</ele><time>2026-04-07T09:41:28Z</time></trkpt><trkpt lat="42.73107607407679" lon="12.133451539952464"><ele>122.0</ele><time>2026-04-07T09:41:29Z</time></trkpt><trkpt lat="42.73095984077107" lon="12.133524310286035"><ele>122.0</ele><time>2026-04-07T09:41:30Z</time></trkpt><trkpt lat="42.730842938352815" lon="12.133595508369625"><ele>122.0</ele><time>2026-04-07T09:41:31Z</time></trkpt><trkpt lat="42.7307279814365" lon="12.133668911460079"><ele>122.25</ele><time>2026-04-07T09:41:32Z</time></trkpt><trkpt lat="42.7306152225409" lon="12.133739967526294"><ele>122.5</ele><time>2026-04-07T09:41:33Z</time></trkpt><trkpt lat="42.7305055724728" lon="12.133811386593967"><ele>122.75</ele><time>2026-04-07T09:41:34Z</time></trkpt><trkpt lat="42.730398075601656" lon="12.133882153309655"><ele>123.0</ele><time>2026-04-07T09:41:35Z</time></trkpt><trkpt lat="42.730292396879236" lon="12.133950028739967"><ele>123.0</ele><time>2026-04-07T09:41:36Z</time></trkpt><trkpt lat="42.7301894167104" lon="12.13401530857132"><ele>123.00000000000001</ele><time>2026-04-07T09:41:37Z</time></trkpt><trkpt lat="42.730089870289305" lon="12.134078572543562"><ele>123.00000000000001</ele><time>2026-04-07T09:41:38Z</time></trkpt><trkpt lat="42.72999337503709" lon="12.134140320418778"><ele>123.0</ele><time>2026-04-07T09:41:39Z</time></trkpt><trkpt lat="42.72990373511777" lon="12.13419454421734"><ele>123.0</ele><time>2026-04-07T09:41:40Z</time></trkpt><trkpt lat="42.72982054070894" lon="12.134242099891695"><ele>123.0</ele><time>2026-04-07T09:41:41Z</time></trkpt><trkpt lat="42.729742510378394" lon="12.13428910693841"><ele>123.0</ele><time>2026-04-07T09:41:42Z</time></trkpt><trkpt lat="42.729675200827934" lon="12.134340234374987"><ele>123.0</ele><time>2026-04-07T09:41:42.999Z</time></trkpt><trkpt lat="42.72960709251753" lon="12.134386714605947"><ele>123.0</ele><time>2026-04-07T09:41:43.999Z</time></trkpt><trkpt lat="42.72954369513832" lon="12.13442510376441"><ele>123.0</ele><time>2026-04-07T09:41:44.999Z</time></trkpt><trkpt lat="42.72948032236382" lon="12.134467845963334"><ele>123.0</ele><time>2026-04-07T09:41:45.999Z</time></trkpt><trkpt lat="42.72941375267011" lon="12.134509658325848"><ele>122.60000000000001</ele><time>2026-04-07T09:41:46.999Z</time></trkpt><trkpt lat="42.72934032437501" lon="12.134558423044249"><ele>122.20000000000002</ele><time>2026-04-07T09:41:47.999Z</time></trkpt><trkpt lat="42.72925895067193" lon="12.134618368895657"><ele>121.8</ele><time>2026-04-07T09:41:48.999Z</time></trkpt><trkpt lat="42.72917105163665" lon="12.13467839076338"><ele>121.4</ele><time>2026-04-07T09:41:49.999Z</time></trkpt><trkpt lat="42.72907713710252" lon="12.134737631719403"><ele>121.0</ele><time>2026-04-07T09:41:50.999Z</time></trkpt><trkpt lat="42.728978904576216" lon="12.134797348726222"><ele>121.0</ele><time>2026-04-07T09:41:51.999Z</time></trkpt><trkpt lat="42.72888512827376" lon="12.134859387399045"><ele>121.0</ele><time>2026-04-07T09:41:52.999Z</time></trkpt><trkpt lat="42.72879845370958" lon="12.1349153088108"><ele>121.0</ele><time>2026-04-07T09:41:53.999Z</time></trkpt><trkpt lat="42.728713580516974" lon="12.134967699053796"><ele>121.0</ele><time>2026-04-07T09:41:54.999Z</time></trkpt><trkpt lat="42.72862929806239" lon="12.135022544334875"><ele>121.0</ele><time>2026-04-07T09:41:55.999Z</time></trkpt><trkpt lat="42.72854305913431" lon="12.13508085047707"><ele>120.8</ele><time>2026-04-07T09:41:56.999Z</time></trkpt><trkpt lat="42.72845411869968" lon="12.135139144656456"><ele>120.6</ele><time>2026-04-07T09:41:57.999Z</time></trkpt><trkpt lat="42.728363435210184" lon="12.135198304797832"><ele>120.4</ele><time>2026-04-07T09:41:58.999Z</time></trkpt><trkpt lat="42.72827159835721" lon="12.135258479255171"><ele>120.2</ele><time>2026-04-07T09:41:59.999Z</time></trkpt><trkpt lat="42.7281822041096" lon="12.135316396889076"><ele>120.0</ele><time>2026-04-07T09:42:00.999Z</time></trkpt><trkpt lat="42.728094175338" lon="12.13537517341724"><ele>120.0</ele><time>2026-04-07T09:42:01.999Z</time></trkpt><trkpt lat="42.72800623784982" lon="12.135430312286735"><ele>120.0</ele><time>2026-04-07T09:42:02.999Z</time></trkpt><trkpt lat="42.72792166358082" lon="12.135486401585643"><ele>120.0</ele><time>2026-04-07T09:42:03.999Z</time></trkpt><trkpt lat="42.727838345315085" lon="12.13554521417386"><ele>120.0</ele><time>2026-04-07T09:42:04.999Z</time></trkpt><trkpt lat="42.72775640483809" lon="12.13559836634136"><ele>120.0</ele><time>2026-04-07T09:42:05.999Z</time></trkpt><trkpt lat="42.72767728703847" lon="12.135653723211465"><ele>119.83333333333333</ele><time>2026-04-07T09:42:06.999Z</time></trkpt><trkpt lat="42.72760255225305" lon="12.135703323571198"><ele>119.66666666666666</ele><time>2026-04-07T09:42:07.999Z</time></trkpt><trkpt lat="42.72752937206719" lon="12.135753545284562"><ele>119.5</ele><time>2026-04-07T09:42:08.999Z</time></trkpt><trkpt lat="42.72745847814578" lon="12.135810948377447"><ele>119.33333333333333</ele><time>2026-04-07T09:42:09.999Z</time></trkpt><trkpt lat="42.72738342640777" lon="12.1358589266585"><ele>119.16666666666666</ele><time>2026-04-07T09:42:10.999Z</time></trkpt><trkpt lat="42.7273130284671" lon="12.135908929075828"><ele>119.0</ele><time>2026-04-07T09:42:11.999Z</time></trkpt><trkpt lat="42.72724626606527" lon="12.135956576041975"><ele>118.99999999999999</ele><time>2026-04-07T09:42:12.999Z</time></trkpt><trkpt lat="42.72718355002933" lon="12.13601129556303"><ele>119.0</ele><time>2026-04-07T09:42:13.999Z</time></trkpt><trkpt lat="42.72712129943575" lon="12.136057983727289"><ele>119.0</ele><time>2026-04-07T09:42:14.999Z</time></trkpt><trkpt lat="42.72706329572391" lon="12.136099635249185"><ele>119.0</ele><time>2026-04-07T09:42:15.999Z</time></trkpt><trkpt lat="42.726976788922045" lon="12.136151636561088"><ele>118.99999999999999</ele><time>2026-04-07T09:42:17.999Z</time></trkpt><trkpt lat="42.726894369033886" lon="12.13619373000399"><ele>119.0</ele><time>2026-04-07T09:42:20.999Z</time></trkpt><trkpt lat="42.72678009688735" lon="12.136266705545786"><ele>118.99999999999999</ele><time>2026-04-07T09:42:22.999Z</time></trkpt><trkpt lat="42.726740104208226" lon="12.136337654790767"><ele>119.0</ele><time>2026-04-07T09:42:23.999Z</time></trkpt><trkpt lat="42.726725140002124" lon="12.136426003717979"><ele>119.0</ele><time>2026-04-07T09:42:24.999Z</time></trkpt><trkpt lat="42.72673512785832" lon="12.13652382122172"><ele>119.0</ele><time>2026-04-07T09:42:25.999Z</time></trkpt><trkpt lat="42.72679186744831" lon="12.136612737615057"><ele>118.99999999999999</ele><time>2026-04-07T09:42:26.999Z</time></trkpt><trkpt lat="42.726880806078235" lon="12.136672404232385"><ele>119.0</ele><time>2026-04-07T09:42:27.999Z</time></trkpt><trkpt lat="42.72698993638348" lon="12.13671833578485"><ele>119.0</ele><time>2026-04-07T09:42:28.999Z</time></trkpt><trkpt lat="42.727101415647645" lon="12.136774923934912"><ele>119.0</ele><time>2026-04-07T09:42:29.999Z</time></trkpt><trkpt lat="42.72720666834902" lon="12.136839269946764"><ele>119.0</ele><time>2026-04-07T09:42:30.999Z</time></trkpt><trkpt lat="42.727304209558355" lon="12.136904155997959"><ele>119.0</ele><time>2026-04-07T09:42:31.999Z</time></trkpt><trkpt lat="42.72740032468451" lon="12.136969585304136"><ele>119.0</ele><time>2026-04-07T09:42:32.999Z</time></trkpt><trkpt lat="42.72749743830795" lon="12.137032449209904"><ele>119.0</ele><time>2026-04-07T09:42:33.999Z</time></trkpt><trkpt lat="42.72760065633403" lon="12.137106767622589"><ele>119.0</ele><time>2026-04-07T09:42:34.999Z</time></trkpt><trkpt lat="42.727712273499634" lon="12.137190077368846"><ele>119.0</ele><time>2026-04-07T09:42:35.999Z</time></trkpt><trkpt lat="42.727827550659455" lon="12.13727213005902"><ele>119.5</ele><time>2026-04-07T09:42:36.999Z</time></trkpt><trkpt lat="42.7279443912455" lon="12.137351063849069"><ele>120.0</ele><time>2026-04-07T09:42:37.999Z</time></trkpt><trkpt lat="42.728070075623116" lon="12.13743634816363"><ele>120.5</ele><time>2026-04-07T09:42:38.999Z</time></trkpt><trkpt lat="42.72819624186048" lon="12.137523145051684"><ele>121.0</ele><time>2026-04-07T09:42:39.999Z</time></trkpt><trkpt lat="42.72832397185386" lon="12.137610582431723"><ele>121.0</ele><time>2026-04-07T09:42:40.999Z</time></trkpt><trkpt lat="42.72845640811058" lon="12.137696975034755"><ele>121.0</ele><time>2026-04-07T09:42:41.999Z</time></trkpt><trkpt lat="42.728583017045125" lon="12.13781223166313"><ele>121.0</ele><time>2026-04-07T09:42:42.999Z</time></trkpt><trkpt lat="42.72871766797883" lon="12.13791055914601"><ele>122.0</ele><time>2026-04-07T09:42:43.999Z</time></trkpt><trkpt lat="42.72885369334901" lon="12.13801292565233"><ele>123.0</ele><time>2026-04-07T09:42:44.999Z</time></trkpt><trkpt lat="42.728998675325755" lon="12.138100304855717"><ele>124.0</ele><time>2026-04-07T09:42:45.999Z</time></trkpt><trkpt lat="42.729135288062324" lon="12.138212499741911"><ele>124.66666666666667</ele><time>2026-04-07T09:42:46.999Z</time></trkpt><trkpt lat="42.729268358812206" lon="12.138327235363517"><ele>125.33333333333334</ele><time>2026-04-07T09:42:47.999Z</time></trkpt><trkpt lat="42.72939911826815" lon="12.138439039429018"><ele>126.0</ele><time>2026-04-07T09:42:48.999Z</time></trkpt><trkpt lat="42.729525748200004" lon="12.138548421857347"><ele>126.25</ele><time>2026-04-07T09:42:49.999Z</time></trkpt><trkpt lat="42.729648646569174" lon="12.138656325672784"><ele>126.5</ele><time>2026-04-07T09:42:50.999Z</time></trkpt><trkpt lat="42.729767083901045" lon="12.138760657068588"><ele>126.75</ele><time>2026-04-07T09:42:51.999Z</time></trkpt><trkpt lat="42.72988367477937" lon="12.138859446048981"><ele>127.0</ele><time>2026-04-07T09:42:52.999Z</time></trkpt><trkpt lat="42.729994906176" lon="12.138956845037962"><ele>127.0</ele><time>2026-04-07T09:42:53.999Z</time></trkpt><trkpt lat="42.73010125666936" lon="12.13905039543345"><ele>127.0</ele><time>2026-04-07T09:42:54.999Z</time></trkpt><trkpt lat="42.730203880402705" lon="12.13913320972264"><ele>127.0</ele><time>2026-04-07T09:42:55.999Z</time></trkpt><trkpt lat="42.730299889131366" lon="12.139210271302929"><ele>127.0</ele><time>2026-04-07T09:42:56.999Z</time></trkpt><trkpt lat="42.730390898223966" lon="12.139283264177084"><ele>127.66666666666667</ele><time>2026-04-07T09:42:57.999Z</time></trkpt><trkpt lat="42.730474332626216" lon="12.139344502089342"><ele>128.33333333333334</ele><time>2026-04-07T09:42:58.999Z</time></trkpt><trkpt lat="42.73054269585894" lon="12.139417979409297"><ele>129.0</ele><time>2026-04-07T09:42:59.999Z</time></trkpt><trkpt lat="42.73058276653588" lon="12.139507054440468"><ele>129.66666666666666</ele><time>2026-04-07T09:43:00.999Z</time></trkpt><trkpt lat="42.73060216689461" lon="12.13959656228028"><ele>130.33333333333331</ele><time>2026-04-07T09:43:01.999Z</time></trkpt><trkpt lat="42.73064353063237" lon="12.139699468770281"><ele>131.0</ele><time>2026-04-07T09:43:03.999Z</time></trkpt><trkpt lat="42.7307050333345" lon="12.13972571953445"><ele>131.0</ele><time>2026-04-07T09:43:08.999Z</time></trkpt><trkpt lat="42.730797861521204" lon="12.1397554832346"><ele>131.0</ele><time>2026-04-07T09:43:11.999Z</time></trkpt><trkpt lat="42.730891409889885" lon="12.139743789608854"><ele>131.0</ele><time>2026-04-07T09:43:13.999Z</time></trkpt><trkpt lat="42.73091515457585" lon="12.139560811528959"><ele>131.0</ele><time>2026-04-07T09:43:14.999Z</time></trkpt><trkpt lat="42.73100388673885" lon="12.139603988297852"><ele>131.0</ele><time>2026-04-07T09:43:15.999Z</time></trkpt><trkpt lat="42.731069336775384" lon="12.139589829277316"><ele>131.16666666666666</ele><time>2026-04-07T09:43:16.999Z</time></trkpt><trkpt lat="42.73114258899897" lon="12.139595889916654"><ele>131.33333333333331</ele><time>2026-04-07T09:43:17.999Z</time></trkpt><trkpt lat="42.73121891862339" lon="12.13959974144119"><ele>131.5</ele><time>2026-04-07T09:43:18.999Z</time></trkpt><trkpt lat="42.73129867914827" lon="12.139609478978123"><ele>131.66666666666666</ele><time>2026-04-07T09:43:19.999Z</time></trkpt><trkpt lat="42.73138180152822" lon="12.13964520206102"><ele>131.83333333333334</ele><time>2026-04-07T09:43:20.999Z</time></trkpt><trkpt lat="42.73147718713376" lon="12.13964878568541"><ele>132.0</ele><time>2026-04-07T09:43:21.999Z</time></trkpt><trkpt lat="42.73156532723419" lon="12.139680998960047"><ele>132.0</ele><time>2026-04-07T09:43:22.999Z</time></trkpt><trkpt lat="42.73165410745034" lon="12.139712854172336"><ele>132.0</ele><time>2026-04-07T09:43:23.999Z</time></trkpt><trkpt lat="42.73174427609519" lon="12.139748913436499"><ele>132.0</ele><time>2026-04-07T09:43:24.999Z</time></trkpt><trkpt lat="42.73183755249167" lon="12.13979028447207"><ele>132.0</ele><time>2026-04-07T09:43:25.999Z</time></trkpt><trkpt lat="42.73193204871028" lon="12.139834224550066"><ele>132.0</ele><time>2026-04-07T09:43:26.999Z</time></trkpt><trkpt lat="42.73202879095261" lon="12.139877033561485"><ele>133.25</ele><time>2026-04-07T09:43:27.999Z</time></trkpt><trkpt lat="42.7321234651483" lon="12.139944254833106"><ele>134.5</ele><time>2026-04-07T09:43:28.999Z</time></trkpt><trkpt lat="42.73223460101428" lon="12.13999821939132"><ele>135.75</ele><time>2026-04-07T09:43:29.999Z</time></trkpt><trkpt lat="42.7323584228498" lon="12.140040122009378"><ele>137.0</ele><time>2026-04-07T09:43:30.999Z</time></trkpt><trkpt lat="42.73246776211243" lon="12.140108552049906"><ele>137.0</ele><time>2026-04-07T09:43:31.999Z</time></trkpt><trkpt lat="42.732571410444784" lon="12.140181508979703"><ele>137.0</ele><time>2026-04-07T09:43:32.999Z</time></trkpt><trkpt lat="42.73266663122369" lon="12.140262146112452"><ele>137.0</ele><time>2026-04-07T09:43:33.999Z</time></trkpt><trkpt lat="42.73274747747521" lon="12.140339638734735"><ele>137.0</ele><time>2026-04-07T09:43:34.999Z</time></trkpt><trkpt lat="42.73281408336378" lon="12.140424902657653"><ele>137.0</ele><time>2026-04-07T09:43:35.999Z</time></trkpt><trkpt lat="42.73285742827997" lon="12.140527310490194"><ele>137.4</ele><time>2026-04-07T09:43:36.999Z</time></trkpt><trkpt lat="42.732895766457844" lon="12.140642464546875"><ele>137.79999999999998</ele><time>2026-04-07T09:43:37.999Z</time></trkpt><trkpt lat="42.73293382753122" lon="12.140757494545468"><ele>138.2</ele><time>2026-04-07T09:43:38.999Z</time></trkpt><trkpt lat="42.7329721466701" lon="12.140859955777424"><ele>138.6</ele><time>2026-04-07T09:43:39.999Z</time></trkpt><trkpt lat="42.733021859206346" lon="12.140958348325306"><ele>139.0</ele><time>2026-04-07T09:43:40.999Z</time></trkpt><trkpt lat="42.733075777368406" lon="12.141060627199039"><ele>139.4</ele><time>2026-04-07T09:43:41.999Z</time></trkpt><trkpt lat="42.73316513749584" lon="12.141118089109469"><ele>139.8</ele><time>2026-04-07T09:43:42.999Z</time></trkpt><trkpt lat="42.73326090306847" lon="12.141095379491366"><ele>140.2</ele><time>2026-04-07T09:43:43.999Z</time></trkpt><trkpt lat="42.73335913462269" lon="12.141055392006438"><ele>140.6</ele><time>2026-04-07T09:43:44.999Z</time></trkpt><trkpt lat="42.73346223665932" lon="12.1410307642696"><ele>141.0</ele><time>2026-04-07T09:43:45.999Z</time></trkpt><trkpt lat="42.73356150111399" lon="12.141045576277412"><ele>143.0</ele><time>2026-04-07T09:43:46.999Z</time></trkpt><trkpt lat="42.73364867319571" lon="12.141092515286598"><ele>145.0</ele><time>2026-04-07T09:43:47.999Z</time></trkpt><trkpt lat="42.73373492965803" lon="12.141204798590506"><ele>147.0</ele><time>2026-04-07T09:43:48.999Z</time></trkpt><trkpt lat="42.73385393920965" lon="12.141312815524842"><ele>149.0</ele><time>2026-04-07T09:43:49.999Z</time></trkpt><trkpt lat="42.73398498288816" lon="12.141436224800628"><ele>148.66666666666666</ele><time>2026-04-07T09:43:50.999Z</time></trkpt><trkpt lat="42.73412593118032" lon="12.141573829152488"><ele>148.33333333333334</ele><time>2026-04-07T09:43:51.999Z</time></trkpt><trkpt lat="42.734258734787126" lon="12.141706322656592"><ele>148.0</ele><time>2026-04-07T09:43:52.999Z</time></trkpt><trkpt lat="42.73440192743907" lon="12.141858561390803"><ele>151.66666666666669</ele><time>2026-04-07T09:43:53.999Z</time></trkpt><trkpt lat="42.73453254592019" lon="12.14204548261357"><ele>155.33333333333334</ele><time>2026-04-07T09:43:54.999Z</time></trkpt><trkpt lat="42.73465515549966" lon="12.14226161931842"><ele>159.0</ele><time>2026-04-07T09:43:55.999Z</time></trkpt><trkpt lat="42.73478843353476" lon="12.142475852351561"><ele>159.0</ele><time>2026-04-07T09:43:56.999Z</time></trkpt><trkpt lat="42.73492890483475" lon="12.142669507468868"><ele>159.0</ele><time>2026-04-07T09:43:57.999Z</time></trkpt><trkpt lat="42.7350671428698" lon="12.142843884219609"><ele>159.0</ele><time>2026-04-07T09:43:58.999Z</time></trkpt><trkpt lat="42.73519158366619" lon="12.143003222534924"><ele>163.0</ele><time>2026-04-07T09:43:59.999Z</time></trkpt><trkpt lat="42.73529889151561" lon="12.143154376154309"><ele>167.0</ele><time>2026-04-07T09:44:00.999Z</time></trkpt><trkpt lat="42.735387935655275" lon="12.143332230074812"><ele>171.0</ele><time>2026-04-07T09:44:01.999Z</time></trkpt><trkpt lat="42.73541126574586" lon="12.14357339237"><ele>171.0</ele><time>2026-04-07T09:44:02.999Z</time></trkpt><trkpt lat="42.73545365631035" lon="12.143827391476547"><ele>171.0</ele><time>2026-04-07T09:44:03.999Z</time></trkpt><trkpt lat="42.73547274419956" lon="12.144077689231528"><ele>171.0</ele><time>2026-04-07T09:44:04.999Z</time></trkpt><trkpt lat="42.73549408451813" lon="12.14431522860495"><ele>171.0</ele><time>2026-04-07T09:44:05.999Z</time></trkpt><trkpt lat="42.73552129791332" lon="12.144533705028577"><ele>171.0</ele><time>2026-04-07T09:44:06.999Z</time></trkpt><trkpt lat="42.73556596657189" lon="12.14473977661821"><ele>171.0</ele><time>2026-04-07T09:44:07.999Z</time></trkpt><trkpt lat="42.735700486957164" lon="12.144894538050904"><ele>171.0</ele><time>2026-04-07T09:44:08.999Z</time></trkpt><trkpt lat="42.73587276566923" lon="12.14500412075268"><ele>171.0</ele><time>2026-04-07T09:44:09.999Z</time></trkpt><trkpt lat="42.73606654489469" lon="12.145129802056914"><ele>171.0</ele><time>2026-04-07T09:44:10.999Z</time></trkpt><trkpt lat="42.73627481318783" lon="12.145250328412407"><ele>175.5</ele><time>2026-04-07T09:44:11.999Z</time></trkpt><trkpt lat="42.736484792586374" lon="12.14537429045027"><ele>180.0</ele><time>2026-04-07T09:44:12.999Z</time></trkpt><trkpt lat="42.73668984205495" lon="12.14549846477101"><ele>180.5</ele><time>2026-04-07T09:44:13.999Z</time></trkpt><trkpt lat="42.73689434265959" lon="12.1456415437247"><ele>181.0</ele><time>2026-04-07T09:44:14.999Z</time></trkpt><trkpt lat="42.73709662839223" lon="12.145813899805614"><ele>181.5</ele><time>2026-04-07T09:44:15.999Z</time></trkpt><trkpt lat="42.73730092351313" lon="12.145993962671868"><ele>182.0</ele><time>2026-04-07T09:44:16.999Z</time></trkpt><trkpt lat="42.73751532469938" lon="12.146161992901021"><ele>183.5</ele><time>2026-04-07T09:44:17.999Z</time></trkpt><trkpt lat="42.7377419866995" lon="12.146307463450997"><ele>185.0</ele><time>2026-04-07T09:44:18.999Z</time></trkpt><trkpt lat="42.73798183150246" lon="12.146425567746991"><ele>186.5</ele><time>2026-04-07T09:44:19.999Z</time></trkpt><trkpt lat="42.738217838663516" lon="12.146567616239185"><ele>188.0</ele><time>2026-04-07T09:44:20.999Z</time></trkpt><trkpt lat="42.738450417481324" lon="12.146704874929622"><ele>190.0</ele><time>2026-04-07T09:44:21.999Z</time></trkpt><trkpt lat="42.73868282069401" lon="12.14684460186416"><ele>192.0</ele><time>2026-04-07T09:44:22.999Z</time></trkpt><trkpt lat="42.73891110160699" lon="12.147005033915159"><ele>192.0</ele><time>2026-04-07T09:44:23.999Z</time></trkpt><trkpt lat="42.73914394021763" lon="12.147142408114474"><ele>192.0</ele><time>2026-04-07T09:44:24.999Z</time></trkpt><trkpt lat="42.73937079091853" lon="12.147280010778749"><ele>196.0</ele><time>2026-04-07T09:44:25.999Z</time></trkpt><trkpt lat="42.73959904307456" lon="12.14741700874539"><ele>200.0</ele><time>2026-04-07T09:44:26.999Z</time></trkpt><trkpt lat="42.73982545396872" lon="12.14755240138188"><ele>200.0</ele><time>2026-04-07T09:44:27.999Z</time></trkpt><trkpt lat="42.74004710097564" lon="12.147683619233096"><ele>200.0</ele><time>2026-04-07T09:44:28.999Z</time></trkpt><trkpt lat="42.740269882721755" lon="12.147796521920778"><ele>202.5</ele><time>2026-04-07T09:44:29.999Z</time></trkpt><trkpt lat="42.74048150974053" lon="12.147925171709746"><ele>205.0</ele><time>2026-04-07T09:44:30.999Z</time></trkpt><trkpt lat="42.74068677160993" lon="12.14804652040151"><ele>205.0</ele><time>2026-04-07T09:44:31.999Z</time></trkpt><trkpt lat="42.74089738134763" lon="12.148160014287624"><ele>205.0</ele><time>2026-04-07T09:44:32.999Z</time></trkpt><trkpt lat="42.74112736943429" lon="12.148235655391902"><ele>208.0</ele><time>2026-04-07T09:44:33.999Z</time></trkpt><trkpt lat="42.741368267961356" lon="12.148281789320743"><ele>211.0</ele><time>2026-04-07T09:44:34.999Z</time></trkpt><trkpt lat="42.74160829451878" lon="12.148318336079504"><ele>211.0</ele><time>2026-04-07T09:44:35.999Z</time></trkpt><trkpt lat="42.741840520574236" lon="12.148362081951033"><ele>211.0</ele><time>2026-04-07T09:44:36.999Z</time></trkpt><trkpt lat="42.742066556575125" lon="12.148407776362106"><ele>212.0</ele><time>2026-04-07T09:44:37.999Z</time></trkpt><trkpt lat="42.742294856166126" lon="12.148455753176899"><ele>213.0</ele><time>2026-04-07T09:44:38.999Z</time></trkpt><trkpt lat="42.74252870714725" lon="12.148504931399835"><ele>213.0</ele><time>2026-04-07T09:44:39.999Z</time></trkpt><trkpt lat="42.74276854925566" lon="12.148559392453445"><ele>213.0</ele><time>2026-04-07T09:44:40.999Z</time></trkpt><trkpt lat="42.743009009498785" lon="12.14862748361757"><ele>213.0</ele><time>2026-04-07T09:44:41.999Z</time></trkpt><trkpt lat="42.743252650358606" lon="12.148713189682006"><ele>213.0</ele><time>2026-04-07T09:44:42.999Z</time></trkpt><trkpt lat="42.74349819030212" lon="12.148803639822583"><ele>210.5</ele><time>2026-04-07T09:44:43.999Z</time></trkpt><trkpt lat="42.74373811436823" lon="12.148891856712988"><ele>208.0</ele><time>2026-04-07T09:44:44.999Z</time></trkpt><trkpt lat="42.74397523697082" lon="12.148979075132141"><ele>213.5</ele><time>2026-04-07T09:44:45.999Z</time></trkpt><trkpt lat="42.74420424456456" lon="12.149061897804415"><ele>219.0</ele><time>2026-04-07T09:44:46.999Z</time></trkpt><trkpt lat="42.74441845331617" lon="12.14916500904203"><ele>220.0</ele><time>2026-04-07T09:44:47.999Z</time></trkpt><trkpt lat="42.74462051543518" lon="12.149241691898016"><ele>221.0</ele><time>2026-04-07T09:44:48.999Z</time></trkpt><trkpt lat="42.74480949055223" lon="12.149317488120802"><ele>222.0</ele><time>2026-04-07T09:44:49.999Z</time></trkpt><trkpt lat="42.74498771464219" lon="12.149379155298782"><ele>222.0</ele><time>2026-04-07T09:44:50.999Z</time></trkpt><trkpt lat="42.74512641743469" lon="12.149502917492642"><ele>222.0</ele><time>2026-04-07T09:44:51.999Z</time></trkpt><trkpt lat="42.745230864276735" lon="12.14969063457287"><ele>222.0</ele><time>2026-04-07T09:44:52.999Z</time></trkpt><trkpt lat="42.74536174596418" lon="12.149855013381964"><ele>224.33333333333331</ele><time>2026-04-07T09:44:53.999Z</time></trkpt><trkpt lat="42.74550357457868" lon="12.150004252193693"><ele>226.66666666666666</ele><time>2026-04-07T09:44:54.999Z</time></trkpt><trkpt lat="42.745502951301255" lon="12.150358764038193"><ele>229.0</ele><time>2026-04-07T09:44:55.999Z</time></trkpt><trkpt lat="42.74557166306936" lon="12.150554767192716"><ele>230.5</ele><time>2026-04-07T09:44:56.999Z</time></trkpt><trkpt lat="42.745672966361276" lon="12.150711308680494"><ele>232.0</ele><time>2026-04-07T09:44:57.999Z</time></trkpt><trkpt lat="42.74579963785891" lon="12.150832620871116"><ele>233.5</ele><time>2026-04-07T09:44:58.999Z</time></trkpt><trkpt lat="42.745894032665014" lon="12.150949416289128"><ele>235.0</ele><time>2026-04-07T09:44:59.999Z</time></trkpt><trkpt lat="42.74592382186158" lon="12.151099594937975"><ele>235.0</ele><time>2026-04-07T09:45:00.999Z</time></trkpt><trkpt lat="42.745876125403456" lon="12.151246526854903"><ele>235.0</ele><time>2026-04-07T09:45:01.999Z</time></trkpt><trkpt lat="42.74578311409978" lon="12.151384829450931"><ele>235.0</ele><time>2026-04-07T09:45:02.999Z</time></trkpt><trkpt lat="42.74563849789508" lon="12.151491062368953"><ele>235.0</ele><time>2026-04-07T09:45:03.999Z</time></trkpt><trkpt lat="42.74549754526648" lon="12.151639371162547"><ele>234.0</ele><time>2026-04-07T09:45:04.999Z</time></trkpt><trkpt lat="42.74540195988001" lon="12.151859332346262"><ele>233.0</ele><time>2026-04-07T09:45:05.999Z</time></trkpt><trkpt lat="42.745346311220636" lon="12.152072880225399"><ele>232.0</ele><time>2026-04-07T09:45:06.999Z</time></trkpt><trkpt lat="42.74535389818101" lon="12.1522807653925"><ele>233.0</ele><time>2026-04-07T09:45:07.999Z</time></trkpt><trkpt lat="42.745428869569544" lon="12.152504209227056"><ele>234.0</ele><time>2026-04-07T09:45:08.999Z</time></trkpt><trkpt lat="42.745550229851226" lon="12.152726547848344"><ele>235.0</ele><time>2026-04-07T09:45:09.999Z</time></trkpt><trkpt lat="42.74565910745631" lon="12.152954079665873"><ele>235.0</ele><time>2026-04-07T09:45:10.999Z</time></trkpt><trkpt lat="42.74575011231672" lon="12.153146779988475"><ele>235.0</ele><time>2026-04-07T09:45:11.999Z</time></trkpt><trkpt lat="42.74581835844152" lon="12.153310748350203"><ele>235.0</ele><time>2026-04-07T09:45:12.999Z</time></trkpt><trkpt lat="42.74583452047517" lon="12.153470953198394"><ele>235.0</ele><time>2026-04-07T09:45:13.999Z</time></trkpt><trkpt lat="42.74578134220291" lon="12.15361871422424"><ele>238.0</ele><time>2026-04-07T09:45:14.999Z</time></trkpt><trkpt lat="42.74565056961342" lon="12.153738277462292"><ele>241.0</ele><time>2026-04-07T09:45:15.999Z</time></trkpt><trkpt lat="42.74547237072125" lon="12.153837409539483"><ele>244.0</ele><time>2026-04-07T09:45:16.999Z</time></trkpt><trkpt lat="42.745285775669934" lon="12.153942358077005"><ele>244.33333333333331</ele><time>2026-04-07T09:45:17.999Z</time></trkpt><trkpt lat="42.745125831916035" lon="12.154073447757325"><ele>244.66666666666669</ele><time>2026-04-07T09:45:18.999Z</time></trkpt><trkpt lat="42.745041959042155" lon="12.15426379610721"><ele>245.0</ele><time>2026-04-07T09:45:19.999Z</time></trkpt><trkpt lat="42.745022411477755" lon="12.154503171483231"><ele>245.0</ele><time>2026-04-07T09:45:20.999Z</time></trkpt><trkpt lat="42.745047803612806" lon="12.154796238333832"><ele>245.0</ele><time>2026-04-07T09:45:21.999Z</time></trkpt><trkpt lat="42.745080211196466" lon="12.155075937371532"><ele>245.0</ele><time>2026-04-07T09:45:22.999Z</time></trkpt><trkpt lat="42.74517261019787" lon="12.155326499011153"><ele>247.5</ele><time>2026-04-07T09:45:23.999Z</time></trkpt><trkpt lat="42.74532738274984" lon="12.155567043915491"><ele>250.0</ele><time>2026-04-07T09:45:24.999Z</time></trkpt><trkpt lat="42.745508200754905" lon="12.155827501483168"><ele>250.0</ele><time>2026-04-07T09:45:25.999Z</time></trkpt><trkpt lat="42.74568012035907" lon="12.156084812368547"><ele>250.0</ele><time>2026-04-07T09:45:26.999Z</time></trkpt><trkpt lat="42.74584313988903" lon="12.156316557153316"><ele>250.0</ele><time>2026-04-07T09:45:27.999Z</time></trkpt><trkpt lat="42.7460102234136" lon="12.156517634437774"><ele>250.0</ele><time>2026-04-07T09:45:28.999Z</time></trkpt><trkpt lat="42.74621175805391" lon="12.15668880171304"><ele>252.66666666666666</ele><time>2026-04-07T09:45:29.999Z</time></trkpt><trkpt lat="42.7464233227851" lon="12.15681647161436"><ele>255.33333333333331</ele><time>2026-04-07T09:45:30.999Z</time></trkpt><trkpt lat="42.746629819839406" lon="12.15687935253212"><ele>258.0</ele><time>2026-04-07T09:45:31.999Z</time></trkpt><trkpt lat="42.746796169957264" lon="12.15690678959302"><ele>257.3333333333333</ele><time>2026-04-07T09:45:32.999Z</time></trkpt><trkpt lat="42.74693001994118" lon="12.156989615516341"><ele>256.66666666666663</ele><time>2026-04-07T09:45:33.999Z</time></trkpt><trkpt lat="42.74704137140247" lon="12.15714630082293"><ele>256.0</ele><time>2026-04-07T09:45:34.999Z</time></trkpt><trkpt lat="42.74710209066407" lon="12.157365688489735"><ele>258.0</ele><time>2026-04-07T09:45:35.999Z</time></trkpt><trkpt lat="42.747145027804834" lon="12.157642976191427"><ele>260.0</ele><time>2026-04-07T09:45:36.999Z</time></trkpt><trkpt lat="42.74719488876339" lon="12.157936459116966"><ele>262.0</ele><time>2026-04-07T09:45:37.999Z</time></trkpt><trkpt lat="42.747236784958474" lon="12.15824373528425"><ele>262.3333333333333</ele><time>2026-04-07T09:45:38.999Z</time></trkpt><trkpt lat="42.74725485098324" lon="12.158550334858685"><ele>262.6666666666667</ele><time>2026-04-07T09:45:39.999Z</time></trkpt><trkpt lat="42.747249419952425" lon="12.1588363379675"><ele>263.0</ele><time>2026-04-07T09:45:40.999Z</time></trkpt><trkpt lat="42.74724282329742" lon="12.159083821988242"><ele>264.0</ele><time>2026-04-07T09:45:41.999Z</time></trkpt><trkpt lat="42.74726098174246" lon="12.159305115968035"><ele>265.0</ele><time>2026-04-07T09:45:42.999Z</time></trkpt><trkpt lat="42.747338988483236" lon="12.159491782968537"><ele>266.0</ele><time>2026-04-07T09:45:43.999Z</time></trkpt><trkpt lat="42.747478538906364" lon="12.15962233228848"><ele>266.0</ele><time>2026-04-07T09:45:44.999Z</time></trkpt><trkpt lat="42.74767510952459" lon="12.159721149727405"><ele>266.0</ele><time>2026-04-07T09:45:45.999Z</time></trkpt><trkpt lat="42.747892261771604" lon="12.159858526750911"><ele>266.0</ele><time>2026-04-07T09:45:46.999Z</time></trkpt><trkpt lat="42.74810271828134" lon="12.160039727018866"><ele>267.33333333333337</ele><time>2026-04-07T09:45:47.999Z</time></trkpt><trkpt lat="42.74827088331594" lon="12.160240806437987"><ele>268.6666666666667</ele><time>2026-04-07T09:45:48.999Z</time></trkpt><trkpt lat="42.74841532920488" lon="12.160468481796357"><ele>270.0</ele><time>2026-04-07T09:45:49.999Z</time></trkpt><trkpt lat="42.748527942045214" lon="12.160736478028397"><ele>268.5</ele><time>2026-04-07T09:45:50.999Z</time></trkpt><trkpt lat="42.74861521496276" lon="12.161042082802146"><ele>267.0</ele><time>2026-04-07T09:45:51.999Z</time></trkpt><trkpt lat="42.74869734123182" lon="12.161323328772836"><ele>269.0</ele><time>2026-04-07T09:45:52.999Z</time></trkpt><trkpt lat="42.748771287452044" lon="12.161554708641297"><ele>271.0</ele><time>2026-04-07T09:45:53.999Z</time></trkpt><trkpt lat="42.74881350613152" lon="12.161756124592115"><ele>273.0</ele><time>2026-04-07T09:45:54.999Z</time></trkpt><trkpt lat="42.74879315040612" lon="12.161937801405719"><ele>273.0</ele><time>2026-04-07T09:45:55.999Z</time></trkpt><trkpt lat="42.74869901457271" lon="12.162105730467351"><ele>273.0</ele><time>2026-04-07T09:45:56.999Z</time></trkpt><trkpt lat="42.74857147346557" lon="12.162265050169053"><ele>273.0</ele><time>2026-04-07T09:45:57.999Z</time></trkpt><trkpt lat="42.74847228441142" lon="12.16247171225067"><ele>275.6666666666667</ele><time>2026-04-07T09:45:58.999Z</time></trkpt><trkpt lat="42.748419277556614" lon="12.162721995742563"><ele>278.33333333333337</ele><time>2026-04-07T09:45:59.999Z</time></trkpt><trkpt lat="42.748400299724544" lon="12.162953007496572"><ele>281.0</ele><time>2026-04-07T09:46:00.999Z</time></trkpt><trkpt lat="42.74837921362728" lon="12.16313744769912"><ele>283.40000000000003</ele><time>2026-04-07T09:46:01.999Z</time></trkpt><trkpt lat="42.748336092060846" lon="12.1632873445329"><ele>285.8</ele><time>2026-04-07T09:46:02.999Z</time></trkpt><trkpt lat="42.74826623515434" lon="12.163396268565341"><ele>288.20000000000005</ele><time>2026-04-07T09:46:03.999Z</time></trkpt><trkpt lat="42.74817013883466" lon="12.163450872105223"><ele>290.6</ele><time>2026-04-07T09:46:04.999Z</time></trkpt><trkpt lat="42.74805722822669" lon="12.163458887059468"><ele>293.0</ele><time>2026-04-07T09:46:05.999Z</time></trkpt><trkpt lat="42.747945992412696" lon="12.163404653871853"><ele>293.0</ele><time>2026-04-07T09:46:06.999Z</time></trkpt><trkpt lat="42.74784888618816" lon="12.163309574808405"><ele>293.0</ele><time>2026-04-07T09:46:07.999Z</time></trkpt><trkpt lat="42.7477554031007" lon="12.163199614460579"><ele>293.0</ele><time>2026-04-07T09:46:08.999Z</time></trkpt><trkpt lat="42.747657016333825" lon="12.163085915126702"><ele>293.0</ele><time>2026-04-07T09:46:09.999Z</time></trkpt><trkpt lat="42.74755914759088" lon="12.162968515213128"><ele>291.6</ele><time>2026-04-07T09:46:10.999Z</time></trkpt><trkpt lat="42.747466745874114" lon="12.162857642986506"><ele>290.20000000000005</ele><time>2026-04-07T09:46:12Z</time></trkpt><trkpt lat="42.747384643777394" lon="12.162768686498575"><ele>288.8</ele><time>2026-04-07T09:46:13Z</time></trkpt><trkpt lat="42.747301676473604" lon="12.162718569655201"><ele>287.40000000000003</ele><time>2026-04-07T09:46:14Z</time></trkpt><trkpt lat="42.74721839109131" lon="12.16271801578633"><ele>286.0</ele><time>2026-04-07T09:46:15Z</time></trkpt><trkpt lat="42.7471409640797" lon="12.162773453427336"><ele>286.0</ele><time>2026-04-07T09:46:16Z</time></trkpt><trkpt lat="42.74708036678882" lon="12.162887547570003"><ele>286.0</ele><time>2026-04-07T09:46:17Z</time></trkpt><trkpt lat="42.747069581961064" lon="12.16302276739696"><ele>286.0</ele><time>2026-04-07T09:46:18Z</time></trkpt><trkpt lat="42.74710547580809" lon="12.163141523174403"><ele>286.0</ele><time>2026-04-07T09:46:19Z</time></trkpt><trkpt lat="42.74719572467037" lon="12.16320792941246"><ele>286.0</ele><time>2026-04-07T09:46:20Z</time></trkpt><trkpt lat="42.74728593274203" lon="12.163228111491636"><ele>287.40000000000003</ele><time>2026-04-07T09:46:21Z</time></trkpt><trkpt lat="42.747374802464755" lon="12.163243361465415"><ele>288.8</ele><time>2026-04-07T09:46:22Z</time></trkpt><trkpt lat="42.74746469787645" lon="12.16328181819448"><ele>290.20000000000005</ele><time>2026-04-07T09:46:23Z</time></trkpt><trkpt lat="42.74756352593862" lon="12.163350188362454"><ele>291.6</ele><time>2026-04-07T09:46:24Z</time></trkpt><trkpt lat="42.74766209147722" lon="12.163446423893447"><ele>293.0</ele><time>2026-04-07T09:46:25Z</time></trkpt><trkpt lat="42.74774998624611" lon="12.163561480314875"><ele>293.0</ele><time>2026-04-07T09:46:26Z</time></trkpt><trkpt lat="42.74782580764386" lon="12.163692309452225"><ele>293.0</ele><time>2026-04-07T09:46:27Z</time></trkpt><trkpt lat="42.74789467178343" lon="12.163830595343335"><ele>293.0</ele><time>2026-04-07T09:46:28Z</time></trkpt><trkpt lat="42.747964039182015" lon="12.163971095902177"><ele>293.0</ele><time>2026-04-07T09:46:29Z</time></trkpt><trkpt lat="42.748032579223" lon="12.164111863625546"><ele>295.0</ele><time>2026-04-07T09:46:30Z</time></trkpt><trkpt lat="42.748091973706515" lon="12.164239369656185"><ele>297.0</ele><time>2026-04-07T09:46:31Z</time></trkpt><trkpt lat="42.74815501210885" lon="12.164371702977851"><ele>299.0</ele><time>2026-04-07T09:46:32Z</time></trkpt><trkpt lat="42.74822499129129" lon="12.164507388387173"><ele>301.0</ele><time>2026-04-07T09:46:33Z</time></trkpt><trkpt lat="42.74830552193338" lon="12.164611581045175"><ele>301.0</ele><time>2026-04-07T09:46:34Z</time></trkpt><trkpt lat="42.74840299462495" lon="12.164671715641639"><ele>301.0</ele><time>2026-04-07T09:46:35Z</time></trkpt><trkpt lat="42.74850254444552" lon="12.164697273935174"><ele>301.0</ele><time>2026-04-07T09:46:36Z</time></trkpt><trkpt lat="42.74858553615146" lon="12.16473456256577"><ele>301.0</ele><time>2026-04-07T09:46:37Z</time></trkpt><trkpt lat="42.74865363515736" lon="12.164801840505094"><ele>301.0</ele><time>2026-04-07T09:46:38Z</time></trkpt><trkpt lat="42.74869522279799" lon="12.164904595232302"><ele>301.2</ele><time>2026-04-07T09:46:39Z</time></trkpt><trkpt lat="42.748692410193826" lon="12.165043789551945"><ele>301.40000000000003</ele><time>2026-04-07T09:46:40Z</time></trkpt><trkpt lat="42.74864252929716" lon="12.165157693592487"><ele>301.6</ele><time>2026-04-07T09:46:41Z</time></trkpt><trkpt lat="42.74855929164661" lon="12.165210260700896"><ele>301.8</ele><time>2026-04-07T09:46:42Z</time></trkpt><trkpt lat="42.7484563134968" lon="12.165213260749416"><ele>302.0</ele><time>2026-04-07T09:46:43Z</time></trkpt><trkpt lat="42.74835637835044" lon="12.165184437181923"><ele>301.8</ele><time>2026-04-07T09:46:44Z</time></trkpt><trkpt lat="42.74825308147193" lon="12.165145499421635"><ele>301.6</ele><time>2026-04-07T09:46:45Z</time></trkpt><trkpt lat="42.74814813004316" lon="12.165109670232065"><ele>301.40000000000003</ele><time>2026-04-07T09:46:46Z</time></trkpt><trkpt lat="42.74805596784182" lon="12.165052300905714"><ele>301.2</ele><time>2026-04-07T09:46:47Z</time></trkpt><trkpt lat="42.747987221561964" lon="12.164948176857726"><ele>301.0</ele><time>2026-04-07T09:46:48Z</time></trkpt><trkpt lat="42.74795319438689" lon="12.16481113114731"><ele>301.0</ele><time>2026-04-07T09:46:49Z</time></trkpt><trkpt lat="42.74793899272755" lon="12.164670062722559"><ele>301.0</ele><time>2026-04-07T09:46:50Z</time></trkpt><trkpt lat="42.747914976449344" lon="12.164530450876653"><ele>301.0</ele><time>2026-04-07T09:46:51Z</time></trkpt><trkpt lat="42.74787854297542" lon="12.1644008948583"><ele>301.0</ele><time>2026-04-07T09:46:52Z</time></trkpt><trkpt lat="42.74781320244097" lon="12.164309125545035"><ele>301.0</ele><time>2026-04-07T09:46:53Z</time></trkpt><trkpt lat="42.74772820433403" lon="12.164276928557557"><ele>303.0</ele><time>2026-04-07T09:46:54Z</time></trkpt><trkpt lat="42.74764854920158" lon="12.16429907084294"><ele>305.0</ele><time>2026-04-07T09:46:55Z</time></trkpt><trkpt lat="42.74758356734752" lon="12.164368946830422"><ele>307.0</ele><time>2026-04-07T09:46:56Z</time></trkpt><trkpt lat="42.747518889530895" lon="12.1645161579901"><ele>309.0</ele><time>2026-04-07T09:46:57Z</time></trkpt><trkpt lat="42.747401927090024" lon="12.16470923192694"><ele>311.3333333333333</ele><time>2026-04-07T09:46:58Z</time></trkpt><trkpt lat="42.747274795108716" lon="12.164942062247174"><ele>313.66666666666663</ele><time>2026-04-07T09:46:59Z</time></trkpt><trkpt lat="42.74714241619426" lon="12.165184501633817"><ele>316.0</ele><time>2026-04-07T09:47:00Z</time></trkpt><trkpt lat="42.74702896418116" lon="12.165413620331032"><ele>316.0</ele><time>2026-04-07T09:47:01Z</time></trkpt><trkpt lat="42.74690882847133" lon="12.165618574847102"><ele>316.0</ele><time>2026-04-07T09:47:02Z</time></trkpt><trkpt lat="42.74677298686111" lon="12.165801490371049"><ele>316.0</ele><time>2026-04-07T09:47:03Z</time></trkpt><trkpt lat="42.74663454024486" lon="12.165924045976565"><ele>318.0</ele><time>2026-04-07T09:47:04Z</time></trkpt><trkpt lat="42.74648917558963" lon="12.166011136870639"><ele>320.0</ele><time>2026-04-07T09:47:05Z</time></trkpt><trkpt lat="42.74632505707765" lon="12.166093821617292"><ele>322.0</ele><time>2026-04-07T09:47:06Z</time></trkpt><trkpt lat="42.746134294312974" lon="12.166176056583652"><ele>320.66666666666663</ele><time>2026-04-07T09:47:07Z</time></trkpt><trkpt lat="42.74593066153674" lon="12.166264609581734"><ele>319.3333333333333</ele><time>2026-04-07T09:47:08Z</time></trkpt><trkpt lat="42.7457194962242" lon="12.166342624939661"><ele>318.0</ele><time>2026-04-07T09:47:09Z</time></trkpt><trkpt lat="42.7455281193144" lon="12.166383773945974"><ele>318.0</ele><time>2026-04-07T09:47:10Z</time></trkpt><trkpt lat="42.745357293673024" lon="12.166403085319887"><ele>318.0</ele><time>2026-04-07T09:47:11Z</time></trkpt><trkpt lat="42.74521732104385" lon="12.166449027711757"><ele>318.0</ele><time>2026-04-07T09:47:12Z</time></trkpt><trkpt lat="42.74509665575463" lon="12.166532904497076"><ele>321.0</ele><time>2026-04-07T09:47:13Z</time></trkpt><trkpt lat="42.74501606048426" lon="12.166713470938413"><ele>324.0</ele><time>2026-04-07T09:47:14Z</time></trkpt><trkpt lat="42.74497979933233" lon="12.166966744741407"><ele>327.0</ele><time>2026-04-07T09:47:15Z</time></trkpt><trkpt lat="42.74498480072058" lon="12.167255109662916"><ele>328.3333333333333</ele><time>2026-04-07T09:47:16Z</time></trkpt><trkpt lat="42.74500021279881" lon="12.167506751464895"><ele>329.66666666666663</ele><time>2026-04-07T09:47:17Z</time></trkpt><trkpt lat="42.74505076111308" lon="12.167696686716305"><ele>331.0</ele><time>2026-04-07T09:47:18Z</time></trkpt><trkpt lat="42.74517427387579" lon="12.167875352291698"><ele>336.66666666666663</ele><time>2026-04-07T09:47:19Z</time></trkpt><trkpt lat="42.745349375332026" lon="12.168060794315933"><ele>342.3333333333333</ele><time>2026-04-07T09:47:20Z</time></trkpt><trkpt lat="42.74551572563155" lon="12.168272400537996"><ele>348.0</ele><time>2026-04-07T09:47:21Z</time></trkpt><trkpt lat="42.745665967152256" lon="12.168523205216488"><ele>348.0</ele><time>2026-04-07T09:47:22Z</time></trkpt><trkpt lat="42.745773690852154" lon="12.168812017747182"><ele>348.0</ele><time>2026-04-07T09:47:23Z</time></trkpt><trkpt lat="42.74589652359269" lon="12.169063536571597"><ele>345.3333333333333</ele><time>2026-04-07T09:47:24Z</time></trkpt><trkpt lat="42.74604205200379" lon="12.169284587401965"><ele>342.66666666666663</ele><time>2026-04-07T09:47:25Z</time></trkpt><trkpt lat="42.746201863513456" lon="12.169473886783438"><ele>340.0</ele><time>2026-04-07T09:47:26Z</time></trkpt><trkpt lat="42.746340427644505" lon="12.169646270936163"><ele>343.3333333333333</ele><time>2026-04-07T09:47:27Z</time></trkpt><trkpt lat="42.746464330912076" lon="12.16980328742517"><ele>346.6666666666667</ele><time>2026-04-07T09:47:27.999Z</time></trkpt><trkpt lat="42.74657349844875" lon="12.169944240938612"><ele>350.0</ele><time>2026-04-07T09:47:28.999Z</time></trkpt><trkpt lat="42.74668573685329" lon="12.170081602214472"><ele>350.0</ele><time>2026-04-07T09:47:29.999Z</time></trkpt><trkpt lat="42.74681724763802" lon="12.170216675185797"><ele>350.0</ele><time>2026-04-07T09:47:30.999Z</time></trkpt><trkpt lat="42.746998709558994" lon="12.17035128141542"><ele>350.0</ele><time>2026-04-07T09:47:31.999Z</time></trkpt><trkpt lat="42.74720372159708" lon="12.170514949431352"><ele>349.33333333333337</ele><time>2026-04-07T09:47:32.999Z</time></trkpt><trkpt lat="42.74739248640099" lon="12.170697294899101"><ele>348.6666666666667</ele><time>2026-04-07T09:47:33.999Z</time></trkpt><trkpt lat="42.74756271445289" lon="12.170846970317903"><ele>348.0</ele><time>2026-04-07T09:47:34.999Z</time></trkpt><trkpt lat="42.747725522308684" lon="12.171012310246162"><ele>348.0</ele><time>2026-04-07T09:47:35.999Z</time></trkpt><trkpt lat="42.74786009680173" lon="12.17124319817748"><ele>348.0</ele><time>2026-04-07T09:47:36.999Z</time></trkpt><trkpt lat="42.7479539571033" lon="12.171473640311852"><ele>348.0</ele><time>2026-04-07T09:47:37.999Z</time></trkpt><trkpt lat="42.74798119351334" lon="12.171714925899023"><ele>350.0</ele><time>2026-04-07T09:47:38.999Z</time></trkpt><trkpt lat="42.74794297515427" lon="12.171952101175377"><ele>352.0</ele><time>2026-04-07T09:47:39.999Z</time></trkpt><trkpt lat="42.74794799691391" lon="12.172141883603627"><ele>354.0</ele><time>2026-04-07T09:47:41Z</time></trkpt><trkpt lat="42.74799640004254" lon="12.172294582828652"><ele>356.0</ele><time>2026-04-07T09:47:42Z</time></trkpt><trkpt lat="42.74814331962466" lon="12.172392282576842"><ele>355.6666666666667</ele><time>2026-04-07T09:47:43Z</time></trkpt><trkpt lat="42.74834888860575" lon="12.172432019926038"><ele>355.3333333333333</ele><time>2026-04-07T09:47:44Z</time></trkpt><trkpt lat="42.748539297289575" lon="12.172517241321634"><ele>355.0</ele><time>2026-04-07T09:47:45Z</time></trkpt><trkpt lat="42.74868890007715" lon="12.172676552773618"><ele>355.0</ele><time>2026-04-07T09:47:46Z</time></trkpt><trkpt lat="42.748800366187034" lon="12.172889099916187"><ele>355.0</ele><time>2026-04-07T09:47:47Z</time></trkpt><trkpt lat="42.7489073112028" lon="12.173170191306518"><ele>355.0</ele><time>2026-04-07T09:47:48Z</time></trkpt><trkpt lat="42.749037151403456" lon="12.173486307475045"><ele>362.0</ele><time>2026-04-07T09:47:49Z</time></trkpt><trkpt lat="42.74915243107981" lon="12.173814284871133"><ele>369.0</ele><time>2026-04-07T09:47:50Z</time></trkpt><trkpt lat="42.74926543649812" lon="12.174101261946523"><ele>371.0</ele><time>2026-04-07T09:47:51Z</time></trkpt><trkpt lat="42.74936100682253" lon="12.174342970454143"><ele>373.0</ele><time>2026-04-07T09:47:52Z</time></trkpt><trkpt lat="42.74941806326717" lon="12.174542867688327"><ele>375.0</ele><time>2026-04-07T09:47:53Z</time></trkpt><trkpt lat="42.749471492086116" lon="12.174679806470486"><ele>376.5</ele><time>2026-04-07T09:47:54Z</time></trkpt><trkpt lat="42.74944199808258" lon="12.174809751970216"><ele>378.0</ele><time>2026-04-07T09:47:55Z</time></trkpt><trkpt lat="42.74934599819322" lon="12.174901625771415"><ele>379.5</ele><time>2026-04-07T09:47:56Z</time></trkpt><trkpt lat="42.74920307258058" lon="12.174900277089048"><ele>381.0</ele><time>2026-04-07T09:47:57Z</time></trkpt><trkpt lat="42.7490032889459" lon="12.174939407818165"><ele>381.0</ele><time>2026-04-07T09:47:58Z</time></trkpt><trkpt lat="42.74876640639805" lon="12.174986181242685"><ele>381.0</ele><time>2026-04-07T09:47:59Z</time></trkpt><trkpt lat="42.74849893166378" lon="12.17505677634123"><ele>384.5</ele><time>2026-04-07T09:48:00Z</time></trkpt><trkpt lat="42.74825992259531" lon="12.175068904770665"><ele>388.0</ele><time>2026-04-07T09:48:01Z</time></trkpt><trkpt lat="42.74804814446669" lon="12.175016059483355"><ele>388.0</ele><time>2026-04-07T09:48:02Z</time></trkpt><trkpt lat="42.74786786206704" lon="12.174889933642477"><ele>388.0</ele><time>2026-04-07T09:48:03Z</time></trkpt><trkpt lat="42.74766920744727" lon="12.174723449152804"><ele>388.0</ele><time>2026-04-07T09:48:04Z</time></trkpt><trkpt lat="42.747442212810725" lon="12.174569529555576"><ele>386.6666666666667</ele><time>2026-04-07T09:48:05Z</time></trkpt><trkpt lat="42.747220633167196" lon="12.174444041779863"><ele>385.33333333333337</ele><time>2026-04-07T09:48:06Z</time></trkpt><trkpt lat="42.74703967301488" lon="12.174353161438695"><ele>384.0</ele><time>2026-04-07T09:48:07Z</time></trkpt><trkpt lat="42.74688143101412" lon="12.174296411072461"><ele>386.33333333333337</ele><time>2026-04-07T09:48:08Z</time></trkpt><trkpt lat="42.746737984344165" lon="12.174322689907457"><ele>388.6666666666667</ele><time>2026-04-07T09:48:09Z</time></trkpt><trkpt lat="42.746596754006454" lon="12.17443393885401"><ele>391.0</ele><time>2026-04-07T09:48:10Z</time></trkpt><trkpt lat="42.746482050826245" lon="12.174675261913594"><ele>396.0</ele><time>2026-04-07T09:48:11Z</time></trkpt><trkpt lat="42.746386997560194" lon="12.174962563633853"><ele>401.0</ele><time>2026-04-07T09:48:12Z</time></trkpt><trkpt lat="42.746297779354556" lon="12.175291022658309"><ele>401.0</ele><time>2026-04-07T09:48:13Z</time></trkpt><trkpt lat="42.74622911142948" lon="12.175586492754878"><ele>401.0</ele><time>2026-04-07T09:48:14Z</time></trkpt><trkpt lat="42.74620160543375" lon="12.175848366446484"><ele>401.0</ele><time>2026-04-07T09:48:15Z</time></trkpt><trkpt lat="42.746153400812396" lon="12.176088873380346"><ele>400.0</ele><time>2026-04-07T09:48:16Z</time></trkpt><trkpt lat="42.74602868796413" lon="12.176291754301928"><ele>399.0</ele><time>2026-04-07T09:48:17Z</time></trkpt><trkpt lat="42.74588224665993" lon="12.176493622226172"><ele>398.0</ele><time>2026-04-07T09:48:18Z</time></trkpt><trkpt lat="42.74576417945977" lon="12.176716204120057"><ele>402.0</ele><time>2026-04-07T09:48:19Z</time></trkpt><trkpt lat="42.74570833686663" lon="12.17699198735721"><ele>406.0</ele><time>2026-04-07T09:48:20Z</time></trkpt><trkpt lat="42.74573629184044" lon="12.177287075723203"><ele>410.0</ele><time>2026-04-07T09:48:21Z</time></trkpt><trkpt lat="42.7457304593654" lon="12.177571352677544"><ele>412.3333333333333</ele><time>2026-04-07T09:48:22Z</time></trkpt><trkpt lat="42.74570726777749" lon="12.177858198161776"><ele>414.66666666666663</ele><time>2026-04-07T09:48:23Z</time></trkpt><trkpt lat="42.745716883738766" lon="12.17816543835655"><ele>417.0</ele><time>2026-04-07T09:48:24Z</time></trkpt><trkpt lat="42.74582090008671" lon="12.178503354501482"><ele>418.5</ele><time>2026-04-07T09:48:25Z</time></trkpt><trkpt lat="42.74598878562825" lon="12.178852291637282"><ele>420.0</ele><time>2026-04-07T09:48:26Z</time></trkpt><trkpt lat="42.74619831549543" lon="12.179178522274531"><ele>431.0</ele><time>2026-04-07T09:48:27Z</time></trkpt><trkpt lat="42.74643068103965" lon="12.179439111409858"><ele>442.0</ele><time>2026-04-07T09:48:28Z</time></trkpt><trkpt lat="42.74660257659477" lon="12.179658405784927"><ele>442.0</ele><time>2026-04-07T09:48:29Z</time></trkpt><trkpt lat="42.74672319848868" lon="12.179816061073447"><ele>442.00000000000006</ele><time>2026-04-07T09:48:30Z</time></trkpt><trkpt lat="42.74679685098312" lon="12.179936948003984"><ele>442.00000000000006</ele><time>2026-04-07T09:48:31Z</time></trkpt><trkpt lat="42.74682164784352" lon="12.180035506350821"><ele>442.0</ele><time>2026-04-07T09:48:32Z</time></trkpt><trkpt lat="42.74679860822493" lon="12.180131050463414"><ele>442.0</ele><time>2026-04-07T09:48:33Z</time></trkpt><trkpt lat="42.74669379023915" lon="12.180183702181456"><ele>441.0</ele><time>2026-04-07T09:48:34Z</time></trkpt><trkpt lat="42.746550102519656" lon="12.1801265644276"><ele>440.0</ele><time>2026-04-07T09:48:35Z</time></trkpt><trkpt lat="42.746375584390556" lon="12.180049893329592"><ele>439.0</ele><time>2026-04-07T09:48:36Z</time></trkpt><trkpt lat="42.74614826132372" lon="12.179960982548762"><ele>431.5</ele><time>2026-04-07T09:48:37Z</time></trkpt><trkpt lat="42.74587781959967" lon="12.17982624792373"><ele>424.0</ele><time>2026-04-07T09:48:38Z</time></trkpt><trkpt lat="42.74560620476282" lon="12.179708411077783"><ele>424.0</ele><time>2026-04-07T09:48:39Z</time></trkpt><trkpt lat="42.745348516359925" lon="12.179594804840864"><ele>424.0</ele><time>2026-04-07T09:48:40Z</time></trkpt><trkpt lat="42.74513739564928" lon="12.179496943801038"><ele>425.33333333333337</ele><time>2026-04-07T09:48:41Z</time></trkpt><trkpt lat="42.74495314328401" lon="12.179422900811083"><ele>426.66666666666663</ele><time>2026-04-07T09:48:42Z</time></trkpt><trkpt lat="42.744783569973265" lon="12.179406157510435"><ele>428.0</ele><time>2026-04-07T09:48:43Z</time></trkpt><trkpt lat="42.74461907741502" lon="12.179455601733606"><ele>428.0</ele><time>2026-04-07T09:48:44Z</time></trkpt><trkpt lat="42.744484974486234" lon="12.179593601758215"><ele>428.0</ele><time>2026-04-07T09:48:45Z</time></trkpt><trkpt lat="42.74441629369604" lon="12.17979873892117"><ele>428.0</ele><time>2026-04-07T09:48:46Z</time></trkpt><trkpt lat="42.74440334808194" lon="12.180000621083877"><ele>433.3333333333333</ele><time>2026-04-07T09:48:47Z</time></trkpt><trkpt lat="42.7444681016076" lon="12.180174666786053"><ele>438.66666666666663</ele><time>2026-04-07T09:48:48Z</time></trkpt><trkpt lat="42.74460508278787" lon="12.180250770732332"><ele>444.0</ele><time>2026-04-07T09:48:49Z</time></trkpt><trkpt lat="42.744773695443044" lon="12.180224524337449"><ele>444.0</ele><time>2026-04-07T09:48:50Z</time></trkpt><trkpt lat="42.744957442275386" lon="12.18009358964496"><ele>444.0</ele><time>2026-04-07T09:48:51Z</time></trkpt><trkpt lat="42.74514759347191" lon="12.180001405518848"><ele>444.0</ele><time>2026-04-07T09:48:52Z</time></trkpt><trkpt lat="42.745363877779745" lon="12.180036635580155"><ele>442.0</ele><time>2026-04-07T09:48:53Z</time></trkpt><trkpt lat="42.745603802914374" lon="12.180118724563723"><ele>440.0</ele><time>2026-04-07T09:48:54Z</time></trkpt><trkpt lat="42.74587317034441" lon="12.180256209375534"><ele>439.5</ele><time>2026-04-07T09:48:55Z</time></trkpt><trkpt lat="42.746156684631316" lon="12.180457272764025"><ele>439.0</ele><time>2026-04-07T09:48:56Z</time></trkpt><trkpt lat="42.74647507591419" lon="12.180592585449366"><ele>449.0</ele><time>2026-04-07T09:48:57Z</time></trkpt><trkpt lat="42.74682387403715" lon="12.18071662152714"><ele>459.0</ele><time>2026-04-07T09:48:58Z</time></trkpt><trkpt lat="42.74712827928663" lon="12.18080675910222"><ele>459.5</ele><time>2026-04-07T09:48:59Z</time></trkpt><trkpt lat="42.74739870100295" lon="12.18091571306358"><ele>460.0</ele><time>2026-04-07T09:49:00Z</time></trkpt><trkpt lat="42.74762018267914" lon="12.181079178655134"><ele>462.0</ele><time>2026-04-07T09:49:01Z</time></trkpt><trkpt lat="42.747816049513" lon="12.181200341672856"><ele>464.0</ele><time>2026-04-07T09:49:02Z</time></trkpt><trkpt lat="42.74795979253727" lon="12.181311820846823"><ele>466.0</ele><time>2026-04-07T09:49:03Z</time></trkpt><trkpt lat="42.74807697901227" lon="12.181376707254799"><ele>466.0</ele><time>2026-04-07T09:49:04Z</time></trkpt><trkpt lat="42.74819462915646" lon="12.181356136040968"><ele>466.0</ele><time>2026-04-07T09:49:05Z</time></trkpt><trkpt lat="42.74828229832206" lon="12.181245609987606"><ele>466.0</ele><time>2026-04-07T09:49:06Z</time></trkpt><trkpt lat="42.748284906106164" lon="12.181023142013146"><ele>466.0</ele><time>2026-04-07T09:49:07Z</time></trkpt><trkpt lat="42.748233984227895" lon="12.180787643062743"><ele>466.5</ele><time>2026-04-07T09:49:08Z</time></trkpt><trkpt lat="42.7481389889823" lon="12.180498732039242"><ele>467.0</ele><time>2026-04-07T09:49:09Z</time></trkpt><trkpt lat="42.74803963175538" lon="12.18020571276808"><ele>467.0</ele><time>2026-04-07T09:49:10Z</time></trkpt><trkpt lat="42.747957217105586" lon="12.1799526467211"><ele>467.0</ele><time>2026-04-07T09:49:11Z</time></trkpt><trkpt lat="42.74788788731788" lon="12.179744985970867"><ele>467.0</ele><time>2026-04-07T09:49:12Z</time></trkpt><trkpt lat="42.74784763340515" lon="12.179583978578155"><ele>465.5</ele><time>2026-04-07T09:49:13Z</time></trkpt><trkpt lat="42.74785818625869" lon="12.179452103234018"><ele>464.0</ele><time>2026-04-07T09:49:14Z</time></trkpt><trkpt lat="42.74793690485661" lon="12.179361382841506"><ele>462.5</ele><time>2026-04-07T09:49:15Z</time></trkpt><trkpt lat="42.74807167501458" lon="12.179385594310816"><ele>461.0</ele><time>2026-04-07T09:49:16Z</time></trkpt><trkpt lat="42.7482348915537" lon="12.179473219152381"><ele>461.0</ele><time>2026-04-07T09:49:17Z</time></trkpt><trkpt lat="42.7484180980038" lon="12.179538000003056"><ele>461.0</ele><time>2026-04-07T09:49:18Z</time></trkpt><trkpt lat="42.74860710511396" lon="12.179604831907607"><ele>461.0</ele><time>2026-04-07T09:49:19Z</time></trkpt><trkpt lat="42.74877122591809" lon="12.179668217575278"><ele>460.75</ele><time>2026-04-07T09:49:20Z</time></trkpt><trkpt lat="42.748882312558166" lon="12.179747574833176"><ele>460.5</ele><time>2026-04-07T09:49:20.999Z</time></trkpt><trkpt lat="42.74895079460462" lon="12.179883416722774"><ele>460.25</ele><time>2026-04-07T09:49:21.999Z</time></trkpt><trkpt lat="42.748933416690555" lon="12.180072613747477"><ele>460.0</ele><time>2026-04-07T09:49:22.999Z</time></trkpt><trkpt lat="42.74892482549892" lon="12.180325862265382"><ele>463.6666666666667</ele><time>2026-04-07T09:49:23.999Z</time></trkpt><trkpt lat="42.74891516152406" lon="12.180622712687072"><ele>467.33333333333337</ele><time>2026-04-07T09:49:24.999Z</time></trkpt><trkpt lat="42.74887851235868" lon="12.180895229011421"><ele>471.0</ele><time>2026-04-07T09:49:25.999Z</time></trkpt><trkpt lat="42.748846091125785" lon="12.181130351115298"><ele>472.66666666666663</ele><time>2026-04-07T09:49:26.999Z</time></trkpt><trkpt lat="42.74886081745496" lon="12.181364460482087"><ele>474.3333333333333</ele><time>2026-04-07T09:49:27.999Z</time></trkpt><trkpt lat="42.74895180197323" lon="12.181616981101001"><ele>476.0</ele><time>2026-04-07T09:49:28.999Z</time></trkpt><trkpt lat="42.749067011563206" lon="12.181821905880767"><ele>477.75</ele><time>2026-04-07T09:49:29.999Z</time></trkpt><trkpt lat="42.74915662367499" lon="12.18197290549486"><ele>479.5</ele><time>2026-04-07T09:49:30.999Z</time></trkpt><trkpt lat="42.749179199283475" lon="12.182128303998693"><ele>481.25</ele><time>2026-04-07T09:49:31.999Z</time></trkpt><trkpt lat="42.74916633455696" lon="12.182269018358458"><ele>483.0</ele><time>2026-04-07T09:49:32.999Z</time></trkpt><trkpt lat="42.749057980125315" lon="12.182386150746712"><ele>484.0</ele><time>2026-04-07T09:49:33.999Z</time></trkpt><trkpt lat="42.7488806562123" lon="12.18248791045579"><ele>485.0</ele><time>2026-04-07T09:49:34.999Z</time></trkpt><trkpt lat="42.74869735128566" lon="12.182661119949262"><ele>486.0</ele><time>2026-04-07T09:49:35.999Z</time></trkpt><trkpt lat="42.74849338916556" lon="12.182832706748307"><ele>486.0</ele><time>2026-04-07T09:49:36.999Z</time></trkpt><trkpt lat="42.74832135349392" lon="12.182971418648467"><ele>486.0</ele><time>2026-04-07T09:49:37.999Z</time></trkpt><trkpt lat="42.748187813810226" lon="12.18308312529284"><ele>486.0</ele><time>2026-04-07T09:49:38.999Z</time></trkpt><trkpt lat="42.748090649365324" lon="12.183189651269869"><ele>487.75</ele><time>2026-04-07T09:49:39.999Z</time></trkpt><trkpt lat="42.74805343431895" lon="12.183335643976342"><ele>489.5</ele><time>2026-04-07T09:49:40.999Z</time></trkpt><trkpt lat="42.74809480828223" lon="12.183523026815108"><ele>491.25</ele><time>2026-04-07T09:49:41.999Z</time></trkpt><trkpt lat="42.74821287617438" lon="12.183706913952449"><ele>493.0</ele><time>2026-04-07T09:49:42.999Z</time></trkpt><trkpt lat="42.7484051522203" lon="12.183860325718765"><ele>495.5</ele><time>2026-04-07T09:49:43.999Z</time></trkpt><trkpt lat="42.748618561298784" lon="12.184009108853816"><ele>498.0</ele><time>2026-04-07T09:49:44.999Z</time></trkpt><trkpt lat="42.7488281994358" lon="12.184156228555539"><ele>498.5</ele><time>2026-04-07T09:49:45.999Z</time></trkpt><trkpt lat="42.7490916519527" lon="12.184291033737274"><ele>499.0</ele><time>2026-04-07T09:49:46.999Z</time></trkpt><trkpt lat="42.749393739442354" lon="12.184397827886704"><ele>503.5</ele><time>2026-04-07T09:49:47.999Z</time></trkpt><trkpt lat="42.74972238251974" lon="12.184491087045929"><ele>508.0</ele><time>2026-04-07T09:49:48.999Z</time></trkpt><trkpt lat="42.750073397594015" lon="12.184593901760415"><ele>508.5</ele><time>2026-04-07T09:49:49.999Z</time></trkpt><trkpt lat="42.75042985568241" lon="12.184700153239183"><ele>509.0</ele><time>2026-04-07T09:49:50.999Z</time></trkpt><trkpt lat="42.75076280017436" lon="12.184802701853751"><ele>509.0</ele><time>2026-04-07T09:49:51.999Z</time></trkpt><trkpt lat="42.75105698430744" lon="12.184890148642983"><ele>509.0</ele><time>2026-04-07T09:49:52.999Z</time></trkpt><trkpt lat="42.751318311956275" lon="12.1849635877278"><ele>509.0</ele><time>2026-04-07T09:49:53.999Z</time></trkpt><trkpt lat="42.75154448062811" lon="12.185053505115492"><ele>509.0</ele><time>2026-04-07T09:49:54.999Z</time></trkpt><trkpt lat="42.75172427170232" lon="12.185128952348313"><ele>509.0</ele><time>2026-04-07T09:49:55.999Z</time></trkpt><trkpt lat="42.75185976742507" lon="12.185242978793731"><ele>508.3333333333333</ele><time>2026-04-07T09:49:56.999Z</time></trkpt><trkpt lat="42.75196112442471" lon="12.185413866087229"><ele>507.66666666666663</ele><time>2026-04-07T09:49:57.999Z</time></trkpt><trkpt lat="42.75201289281869" lon="12.185686298819272"><ele>507.0</ele><time>2026-04-07T09:49:58.999Z</time></trkpt><trkpt lat="42.752021857849016" lon="12.185987715765151"><ele>510.0</ele><time>2026-04-07T09:49:59.999Z</time></trkpt><trkpt lat="42.75201847565136" lon="12.186303770579523"><ele>513.0</ele><time>2026-04-07T09:50:00.999Z</time></trkpt><trkpt lat="42.75203285657537" lon="12.186556248285541"><ele>516.0</ele><time>2026-04-07T09:50:01.999Z</time></trkpt><trkpt lat="42.75209759915047" lon="12.186790775077135"><ele>516.5</ele><time>2026-04-07T09:50:02.999Z</time></trkpt><trkpt lat="42.75224497542534" lon="12.187000341554105"><ele>517.0</ele><time>2026-04-07T09:50:03.999Z</time></trkpt><trkpt lat="42.752434364213606" lon="12.18723333509016"><ele>516.0</ele><time>2026-04-07T09:50:04.999Z</time></trkpt><trkpt lat="42.75264285210864" lon="12.18748907612387"><ele>515.0</ele><time>2026-04-07T09:50:05.999Z</time></trkpt><trkpt lat="42.75285510127424" lon="12.187758818359326"><ele>518.0</ele><time>2026-04-07T09:50:06.999Z</time></trkpt><trkpt lat="42.75305375767369" lon="12.188003556631683"><ele>521.0</ele><time>2026-04-07T09:50:07.999Z</time></trkpt><trkpt lat="42.75326601832363" lon="12.188232721379576"><ele>521.0</ele><time>2026-04-07T09:50:08.999Z</time></trkpt><trkpt lat="42.753494595950926" lon="12.18844925514382"><ele>521.0</ele><time>2026-04-07T09:50:10Z</time></trkpt><trkpt lat="42.75370418561315" lon="12.188730119159883"><ele>522.0</ele><time>2026-04-07T09:50:11Z</time></trkpt><trkpt lat="42.753932676156374" lon="12.189063735921325"><ele>523.0</ele><time>2026-04-07T09:50:12Z</time></trkpt><trkpt lat="42.754154216821156" lon="12.189433880121095"><ele>523.0</ele><time>2026-04-07T09:50:13Z</time></trkpt><trkpt lat="42.75436136806492" lon="12.189773877302242"><ele>523.0</ele><time>2026-04-07T09:50:14Z</time></trkpt><trkpt lat="42.75455155100268" lon="12.190080441870974"><ele>522.5</ele><time>2026-04-07T09:50:15Z</time></trkpt><trkpt lat="42.75472107116577" lon="12.190354042302054"><ele>522.0</ele><time>2026-04-07T09:50:16Z</time></trkpt><trkpt lat="42.75486269987797" lon="12.19058342565732"><ele>524.3333333333334</ele><time>2026-04-07T09:50:17Z</time></trkpt><trkpt lat="42.75498291172074" lon="12.190776723474464"><ele>526.6666666666667</ele><time>2026-04-07T09:50:18Z</time></trkpt><trkpt lat="42.755058801355965" lon="12.19094574148563"><ele>529.0</ele><time>2026-04-07T09:50:19Z</time></trkpt><trkpt lat="42.755079642136586" lon="12.191128077012465"><ele>529.0</ele><time>2026-04-07T09:50:20Z</time></trkpt><trkpt lat="42.755031331906295" lon="12.191334364078632"><ele>529.0</ele><time>2026-04-07T09:50:21Z</time></trkpt><trkpt lat="42.7549278809656" lon="12.191530741338395"><ele>529.0</ele><time>2026-04-07T09:50:22Z</time></trkpt><trkpt lat="42.75486047580004" lon="12.191760953645971"><ele>529.6666666666667</ele><time>2026-04-07T09:50:23Z</time></trkpt><trkpt lat="42.75487916732031" lon="12.19200527169806"><ele>530.3333333333334</ele><time>2026-04-07T09:50:24Z</time></trkpt><trkpt lat="42.75492588199083" lon="12.192218471561937"><ele>531.0</ele><time>2026-04-07T09:50:25Z</time></trkpt><trkpt lat="42.75489350055516" lon="12.192440867709003"><ele>531.6666666666666</ele><time>2026-04-07T09:50:26Z</time></trkpt><trkpt lat="42.75478768309008" lon="12.192632717121613"><ele>532.3333333333333</ele><time>2026-04-07T09:50:27Z</time></trkpt><trkpt lat="42.754653211543804" lon="12.192816649833183"><ele>533.0</ele><time>2026-04-07T09:50:28Z</time></trkpt><trkpt lat="42.754542451531606" lon="12.193028094014698"><ele>534.3333333333333</ele><time>2026-04-07T09:50:29Z</time></trkpt><trkpt lat="42.75444756295166" lon="12.19327718958378"><ele>535.6666666666666</ele><time>2026-04-07T09:50:30Z</time></trkpt><trkpt lat="42.7543661519813" lon="12.193474389372083"><ele>537.0</ele><time>2026-04-07T09:50:31Z</time></trkpt><trkpt lat="42.75427021892933" lon="12.193646033728273"><ele>537.0</ele><time>2026-04-07T09:50:32Z</time></trkpt><trkpt lat="42.75415573852284" lon="12.193783769021135"><ele>537.0</ele><time>2026-04-07T09:50:33Z</time></trkpt><trkpt lat="42.754025377416916" lon="12.19387196608832"><ele>537.0</ele><time>2026-04-07T09:50:34Z</time></trkpt><trkpt lat="42.75390097407688" lon="12.193936162860014"><ele>537.0</ele><time>2026-04-07T09:50:35Z</time></trkpt><trkpt lat="42.75380112736097" lon="12.19402106095832"><ele>538.5</ele><time>2026-04-07T09:50:36Z</time></trkpt><trkpt lat="42.75372508546327" lon="12.194128689339182"><ele>540.0</ele><time>2026-04-07T09:50:37Z</time></trkpt><trkpt lat="42.75369592498116" lon="12.194269676311436"><ele>541.5</ele><time>2026-04-07T09:50:38Z</time></trkpt><trkpt lat="42.753739269400654" lon="12.194413975669276"><ele>543.0</ele><time>2026-04-07T09:50:39Z</time></trkpt><trkpt lat="42.753839648740815" lon="12.194512423234704"><ele>543.0</ele><time>2026-04-07T09:50:40Z</time></trkpt><trkpt lat="42.75397950894269" lon="12.194556837387953"><ele>543.0</ele><time>2026-04-07T09:50:41Z</time></trkpt><trkpt lat="42.754112281299655" lon="12.1946048019222"><ele>543.0</ele><time>2026-04-07T09:50:42Z</time></trkpt><trkpt lat="42.754236529714376" lon="12.194684277109218"><ele>543.0</ele><time>2026-04-07T09:50:43Z</time></trkpt><trkpt lat="42.75436696208924" lon="12.194732157711545"><ele>544.5</ele><time>2026-04-07T09:50:44Z</time></trkpt><trkpt lat="42.75448181493793" lon="12.194794273908398"><ele>546.0</ele><time>2026-04-07T09:50:45Z</time></trkpt><trkpt lat="42.75457583759634" lon="12.194877952557656"><ele>547.5</ele><time>2026-04-07T09:50:46Z</time></trkpt><trkpt lat="42.754630414854006" lon="12.195001026132644"><ele>549.0</ele><time>2026-04-07T09:50:47Z</time></trkpt><trkpt lat="42.75463960698786" lon="12.195147995576228"><ele>550.2</ele><time>2026-04-07T09:50:48Z</time></trkpt><trkpt lat="42.75460793478843" lon="12.195290949153481"><ele>551.4</ele><time>2026-04-07T09:50:49Z</time></trkpt><trkpt lat="42.75455753409029" lon="12.19541635217956"><ele>552.6</ele><time>2026-04-07T09:50:50Z</time></trkpt><trkpt lat="42.75452208068848" lon="12.1955428694851"><ele>553.8</ele><time>2026-04-07T09:50:51Z</time></trkpt><trkpt lat="42.75449619063211" lon="12.195669524064838"><ele>555.0</ele><time>2026-04-07T09:50:52Z</time></trkpt><trkpt lat="42.75447223471504" lon="12.195793677071928"><ele>555.1666666666666</ele><time>2026-04-07T09:50:53Z</time></trkpt><trkpt lat="42.75444147777951" lon="12.195911296358423"><ele>555.3333333333334</ele><time>2026-04-07T09:50:54Z</time></trkpt><trkpt lat="42.754414735666096" lon="12.196024082899255"><ele>555.5</ele><time>2026-04-07T09:50:55Z</time></trkpt><trkpt lat="42.754401651251754" lon="12.19613476699983"><ele>555.6666666666667</ele><time>2026-04-07T09:50:56Z</time></trkpt><trkpt lat="42.754415134429664" lon="12.19624124533747"><ele>555.8333333333334</ele><time>2026-04-07T09:50:57Z</time></trkpt><trkpt lat="42.75444531136093" lon="12.196338330639183"><ele>556.0</ele><time>2026-04-07T09:50:58Z</time></trkpt><trkpt lat="42.754490516059306" lon="12.196422120136"><ele>556.0</ele><time>2026-04-07T09:50:59Z</time></trkpt><trkpt lat="42.75454759787785" lon="12.196490734220543"><ele>556.0</ele><time>2026-04-07T09:51:00Z</time></trkpt><trkpt lat="42.754618673096964" lon="12.196534806367941"><ele>556.0</ele><time>2026-04-07T09:51:01Z</time></trkpt><trkpt lat="42.75468662844179" lon="12.196576050686495"><ele>556.0</ele><time>2026-04-07T09:51:02Z</time></trkpt><trkpt lat="42.75476226024955" lon="12.196606382203306"><ele>556.0</ele><time>2026-04-07T09:51:03Z</time></trkpt><trkpt lat="42.754839831939265" lon="12.196638488350807"><ele>556.0</ele><time>2026-04-07T09:51:04Z</time></trkpt><trkpt lat="42.754917859810554" lon="12.19667560729196"><ele>556.3333333333334</ele><time>2026-04-07T09:51:05Z</time></trkpt><trkpt lat="42.754999035854695" lon="12.19671488185586"><ele>556.6666666666667</ele><time>2026-04-07T09:51:06Z</time></trkpt><trkpt lat="42.75508295571783" lon="12.196757093693579"><ele>557.0</ele><time>2026-04-07T09:51:07Z</time></trkpt><trkpt lat="42.75516731208787" lon="12.196795998446147"><ele>557.3333333333334</ele><time>2026-04-07T09:51:08Z</time></trkpt><trkpt lat="42.75525104577661" lon="12.196831140634481"><ele>557.6666666666666</ele><time>2026-04-07T09:51:09Z</time></trkpt><trkpt lat="42.75533115706821" lon="12.196862025248562"><ele>558.0</ele><time>2026-04-07T09:51:10Z</time></trkpt><trkpt lat="42.755403574975325" lon="12.196897597664652"><ele>557.9999999999999</ele><time>2026-04-07T09:51:11Z</time></trkpt><trkpt lat="42.755468377331624" lon="12.196937701459738"><ele>558.0</ele><time>2026-04-07T09:51:12Z</time></trkpt><trkpt lat="42.75552619777819" lon="12.196994931648096"><ele>558.0</ele><time>2026-04-07T09:51:13Z</time></trkpt><trkpt lat="42.755565319816924" lon="12.197079328953949"><ele>558.0</ele><time>2026-04-07T09:51:14Z</time></trkpt><trkpt lat="42.75557833389475" lon="12.197175679491101"><ele>558.0</ele><time>2026-04-07T09:51:15Z</time></trkpt><trkpt lat="42.75556609703323" lon="12.197274625500457"><ele>557.9999999999999</ele><time>2026-04-07T09:51:16Z</time></trkpt><trkpt lat="42.755527016939" lon="12.197367672487855"><ele>558.0</ele><time>2026-04-07T09:51:17Z</time></trkpt><trkpt lat="42.755471287959566" lon="12.197450260207864"><ele>556.6</ele><time>2026-04-07T09:51:18Z</time></trkpt><trkpt lat="42.75540975228394" lon="12.197534703885589"><ele>555.1999999999999</ele><time>2026-04-07T09:51:19Z</time></trkpt><trkpt lat="42.755357190114346" lon="12.197632113442106"><ele>553.8</ele><time>2026-04-07T09:51:20Z</time></trkpt><trkpt lat="42.75533324650936" lon="12.197753930494942"><ele>552.4</ele><time>2026-04-07T09:51:21Z</time></trkpt><trkpt lat="42.75535436739927" lon="12.197884449326576"><ele>551.0</ele><time>2026-04-07T09:51:22Z</time></trkpt><trkpt lat="42.75542832317519" lon="12.1979854336694"><ele>551.0</ele><time>2026-04-07T09:51:23Z</time></trkpt><trkpt lat="42.75553481493234" lon="12.198041011478665"><ele>551.0</ele><time>2026-04-07T09:51:24Z</time></trkpt><trkpt lat="42.75566767394923" lon="12.198063137879588"><ele>551.0</ele><time>2026-04-07T09:51:25Z</time></trkpt><trkpt lat="42.755809291821414" lon="12.198113255969723"><ele>551.0</ele><time>2026-04-07T09:51:26Z</time></trkpt><trkpt lat="42.755946382702184" lon="12.19814276590544"><ele>548.0</ele><time>2026-04-07T09:51:27Z</time></trkpt><trkpt lat="42.756088976997454" lon="12.198172321793379"><ele>545.0</ele><time>2026-04-07T09:51:28Z</time></trkpt><trkpt lat="42.756236434621066" lon="12.19818863741219"><ele>542.0</ele><time>2026-04-07T09:51:29Z</time></trkpt><trkpt lat="42.75637902489175" lon="12.19825112890508"><ele>539.0</ele><time>2026-04-07T09:51:30Z</time></trkpt><trkpt lat="42.75650833498918" lon="12.198338671578574"><ele>539.0</ele><time>2026-04-07T09:51:31Z</time></trkpt><trkpt lat="42.75662419740957" lon="12.198428408705254"><ele>539.0</ele><time>2026-04-07T09:51:32Z</time></trkpt><trkpt lat="42.756745915974285" lon="12.198450955997913"><ele>539.0</ele><time>2026-04-07T09:51:33Z</time></trkpt><trkpt lat="42.756873288103236" lon="12.19840536081382"><ele>539.0</ele><time>2026-04-07T09:51:34Z</time></trkpt><trkpt lat="42.75695711477893" lon="12.198233360160168"><ele>541.25</ele><time>2026-04-07T09:51:35Z</time></trkpt><trkpt lat="42.75702817141767" lon="12.198053052842633"><ele>543.5</ele><time>2026-04-07T09:51:36Z</time></trkpt><trkpt lat="42.75707974569948" lon="12.197908208247847"><ele>545.75</ele><time>2026-04-07T09:51:37Z</time></trkpt><trkpt lat="42.757146205202574" lon="12.197789653943124"><ele>548.0</ele><time>2026-04-07T09:51:38Z</time></trkpt><trkpt lat="42.757244328646465" lon="12.19774730301741"><ele>548.0</ele><time>2026-04-07T09:51:39Z</time></trkpt><trkpt lat="42.757326594748726" lon="12.197812362669772"><ele>548.0</ele><time>2026-04-07T09:51:40Z</time></trkpt><trkpt lat="42.75739745632804" lon="12.197902975178081"><ele>548.0</ele><time>2026-04-07T09:51:41Z</time></trkpt><trkpt lat="42.757377075968066" lon="12.19807485464266"><ele>548.0</ele><time>2026-04-07T09:51:42Z</time></trkpt><trkpt lat="42.75739898117492" lon="12.198302325415565"><ele>545.0</ele><time>2026-04-07T09:51:43Z</time></trkpt><trkpt lat="42.75744324167" lon="12.198510314362151"><ele>542.0</ele><time>2026-04-07T09:51:44Z</time></trkpt><trkpt lat="42.75754879908644" lon="12.198675794179836"><ele>539.0</ele><time>2026-04-07T09:51:45Z</time></trkpt><trkpt lat="42.757698435198364" lon="12.19878730922983"><ele>540.3333333333333</ele><time>2026-04-07T09:51:46Z</time></trkpt><trkpt lat="42.75785715329409" lon="12.198867026294788"><ele>541.6666666666666</ele><time>2026-04-07T09:51:47Z</time></trkpt><trkpt lat="42.75799630853409" lon="12.198955821002434"><ele>543.0</ele><time>2026-04-07T09:51:48Z</time></trkpt><trkpt lat="42.75812510293693" lon="12.199047466353711"><ele>543.0</ele><time>2026-04-07T09:51:49Z</time></trkpt><trkpt lat="42.758252856184704" lon="12.199132772553272"><ele>543.0</ele><time>2026-04-07T09:51:50Z</time></trkpt><trkpt lat="42.75837540727071" lon="12.199215517831549"><ele>543.0</ele><time>2026-04-07T09:51:51Z</time></trkpt><trkpt lat="42.758489679056034" lon="12.199347616483733"><ele>543.0</ele><time>2026-04-07T09:51:52Z</time></trkpt><trkpt lat="42.758590458097636" lon="12.199509530167136"><ele>543.0</ele><time>2026-04-07T09:51:53Z</time></trkpt><trkpt lat="42.75869988916301" lon="12.19969075046084"><ele>543.0</ele><time>2026-04-07T09:51:54Z</time></trkpt><trkpt lat="42.75884415858555" lon="12.199834149644081"><ele>543.0</ele><time>2026-04-07T09:51:55Z</time></trkpt><trkpt lat="42.75899219941784" lon="12.199989857300578"><ele>543.0</ele><time>2026-04-07T09:51:56Z</time></trkpt><trkpt lat="42.75914635793089" lon="12.200126923011453"><ele>543.0</ele><time>2026-04-07T09:51:57Z</time></trkpt><trkpt lat="42.75927375122206" lon="12.200298449636087"><ele>543.0</ele><time>2026-04-07T09:51:58Z</time></trkpt><trkpt lat="42.75937990341475" lon="12.200488356064305"><ele>544.3333333333334</ele><time>2026-04-07T09:51:59Z</time></trkpt><trkpt lat="42.759458873440046" lon="12.200703761010573"><ele>545.6666666666667</ele><time>2026-04-07T09:52:00Z</time></trkpt><trkpt lat="42.75952240198981" lon="12.200926513090321"><ele>547.0</ele><time>2026-04-07T09:52:01Z</time></trkpt><trkpt lat="42.75958208640033" lon="12.201139413430893"><ele>547.0</ele><time>2026-04-07T09:52:02Z</time></trkpt><trkpt lat="42.759650431465644" lon="12.201303359070717"><ele>547.0</ele><time>2026-04-07T09:52:03Z</time></trkpt><trkpt lat="42.75976336894005" lon="12.201387960304654"><ele>547.0</ele><time>2026-04-07T09:52:04Z</time></trkpt><trkpt lat="42.75991641000021" lon="12.201456216283079"><ele>547.0</ele><time>2026-04-07T09:52:05Z</time></trkpt><trkpt lat="42.76005975583923" lon="12.201426692327194"><ele>547.0</ele><time>2026-04-07T09:52:06Z</time></trkpt><trkpt lat="42.760165627279555" lon="12.201426498701299"><ele>547.0</ele><time>2026-04-07T09:52:07Z</time></trkpt><trkpt lat="42.760275895136246" lon="12.20149827424425"><ele>547.0</ele><time>2026-04-07T09:52:08Z</time></trkpt><trkpt lat="42.76027898175797" lon="12.201750246345021"><ele>547.0</ele><time>2026-04-07T09:52:09Z</time></trkpt><trkpt lat="42.760286247940016" lon="12.201964493883313"><ele>551.0</ele><time>2026-04-07T09:52:10Z</time></trkpt><trkpt lat="42.76027848094121" lon="12.202253871012001"><ele>555.0</ele><time>2026-04-07T09:52:11Z</time></trkpt><trkpt lat="42.760312512985685" lon="12.202592387734219"><ele>555.0</ele><time>2026-04-07T09:52:12Z</time></trkpt><trkpt lat="42.76036402653513" lon="12.20285572298069"><ele>555.0</ele><time>2026-04-07T09:52:13Z</time></trkpt><trkpt lat="42.76039406614668" lon="12.203088722982137"><ele>555.0</ele><time>2026-04-07T09:52:14Z</time></trkpt><trkpt lat="42.76031718226504" lon="12.203282891629417"><ele>552.6666666666666</ele><time>2026-04-07T09:52:15Z</time></trkpt><trkpt lat="42.76026049714116" lon="12.20350409453888"><ele>550.3333333333333</ele><time>2026-04-07T09:52:16Z</time></trkpt><trkpt lat="42.76023185193512" lon="12.203717081618144"><ele>548.0</ele><time>2026-04-07T09:52:17Z</time></trkpt><trkpt lat="42.76028758834207" lon="12.20390324824079"><ele>544.6666666666666</ele><time>2026-04-07T09:52:18Z</time></trkpt><trkpt lat="42.760400563759084" lon="12.204055828003954"><ele>541.3333333333334</ele><time>2026-04-07T09:52:19Z</time></trkpt><trkpt lat="42.760585609035175" lon="12.204164195862932"><ele>538.0</ele><time>2026-04-07T09:52:20Z</time></trkpt><trkpt lat="42.76075639632624" lon="12.204281097013743"><ele>538.0</ele><time>2026-04-07T09:52:21Z</time></trkpt><trkpt lat="42.76087648813053" lon="12.204465557163369"><ele>538.0</ele><time>2026-04-07T09:52:22Z</time></trkpt><trkpt lat="42.760942918577165" lon="12.204700462306029"><ele>538.0</ele><time>2026-04-07T09:52:23Z</time></trkpt><trkpt lat="42.76097422287483" lon="12.204954217171021"><ele>535.0</ele><time>2026-04-07T09:52:24Z</time></trkpt><trkpt lat="42.761007464934444" lon="12.205168490829992"><ele>532.0</ele><time>2026-04-07T09:52:25Z</time></trkpt><trkpt lat="42.76101110975333" lon="12.205375962695044"><ele>529.0</ele><time>2026-04-07T09:52:26Z</time></trkpt><trkpt lat="42.760935638105195" lon="12.205576363850243"><ele>531.0</ele><time>2026-04-07T09:52:27Z</time></trkpt><trkpt lat="42.76077786483499" lon="12.205732871059414"><ele>533.0</ele><time>2026-04-07T09:52:28Z</time></trkpt><trkpt lat="42.76058684999041" lon="12.205848773209718"><ele>535.0</ele><time>2026-04-07T09:52:29Z</time></trkpt><trkpt lat="42.76042467475676" lon="12.20597704665684"><ele>535.0</ele><time>2026-04-07T09:52:30Z</time></trkpt><trkpt lat="42.76031631202426" lon="12.206132804975566"><ele>535.0</ele><time>2026-04-07T09:52:31Z</time></trkpt><trkpt lat="42.760261320241206" lon="12.20633068200234"><ele>535.0</ele><time>2026-04-07T09:52:32Z</time></trkpt><trkpt lat="42.76026689363175" lon="12.206587070118164"><ele>536.3333333333334</ele><time>2026-04-07T09:52:33Z</time></trkpt><trkpt lat="42.76032143973495" lon="12.206847312393323"><ele>537.6666666666666</ele><time>2026-04-07T09:52:34Z</time></trkpt><trkpt lat="42.760430037817926" lon="12.207088885111416"><ele>539.0</ele><time>2026-04-07T09:52:35Z</time></trkpt><trkpt lat="42.76058276347424" lon="12.207292332682117"><ele>540.3333333333333</ele><time>2026-04-07T09:52:36Z</time></trkpt><trkpt lat="42.76077132216046" lon="12.207466701304845"><ele>541.6666666666666</ele><time>2026-04-07T09:52:37Z</time></trkpt><trkpt lat="42.760962195801255" lon="12.207612125288263"><ele>543.0</ele><time>2026-04-07T09:52:38Z</time></trkpt><trkpt lat="42.76114389984105" lon="12.207702302439833"><ele>543.0</ele><time>2026-04-07T09:52:39Z</time></trkpt><trkpt lat="42.76129991852191" lon="12.20777352156529"><ele>543.0</ele><time>2026-04-07T09:52:40Z</time></trkpt><trkpt lat="42.76142815221569" lon="12.207878299256784"><ele>543.0</ele><time>2026-04-07T09:52:41Z</time></trkpt><trkpt lat="42.761494097680945" lon="12.208038537725379"><ele>543.0</ele><time>2026-04-07T09:52:42Z</time></trkpt><trkpt lat="42.76148799097979" lon="12.208220308935207"><ele>540.0</ele><time>2026-04-07T09:52:43Z</time></trkpt><trkpt lat="42.761413995092845" lon="12.208390018184506"><ele>537.0</ele><time>2026-04-07T09:52:44Z</time></trkpt><trkpt lat="42.76132272053876" lon="12.208593106474854"><ele>534.0</ele><time>2026-04-07T09:52:45Z</time></trkpt><trkpt lat="42.76125959891308" lon="12.208854528174696"><ele>533.0</ele><time>2026-04-07T09:52:46Z</time></trkpt><trkpt lat="42.76121669478182" lon="12.209106658980845"><ele>532.0</ele><time>2026-04-07T09:52:47Z</time></trkpt><trkpt lat="42.76118282778202" lon="12.209311728236301"><ele>531.0</ele><time>2026-04-07T09:52:48Z</time></trkpt><trkpt lat="42.7612170261302" lon="12.20948047603246"><ele>531.0</ele><time>2026-04-07T09:52:49Z</time></trkpt><trkpt lat="42.76131907475182" lon="12.209664783840754"><ele>531.0</ele><time>2026-04-07T09:52:50Z</time></trkpt><trkpt lat="42.76149326288146" lon="12.209869086405957"><ele>531.0</ele><time>2026-04-07T09:52:51Z</time></trkpt><trkpt lat="42.761673892231904" lon="12.210084663757177"><ele>530.3333333333334</ele><time>2026-04-07T09:52:52Z</time></trkpt><trkpt lat="42.76184619286653" lon="12.210280569860153"><ele>529.6666666666667</ele><time>2026-04-07T09:52:53Z</time></trkpt><trkpt lat="42.76202439941754" lon="12.210429688108647"><ele>529.0</ele><time>2026-04-07T09:52:54Z</time></trkpt><trkpt lat="42.76221188834158" lon="12.210507889020343"><ele>529.0</ele><time>2026-04-07T09:52:55Z</time></trkpt><trkpt lat="42.76239696013082" lon="12.21051254172216"><ele>529.0</ele><time>2026-04-07T09:52:56Z</time></trkpt><trkpt lat="42.76254758874019" lon="12.21048702175234"><ele>529.0</ele><time>2026-04-07T09:52:57Z</time></trkpt><trkpt lat="42.762656369559984" lon="12.210528906511158"><ele>530.0</ele><time>2026-04-07T09:52:58Z</time></trkpt><trkpt lat="42.762703222750424" lon="12.210635256151477"><ele>531.0</ele><time>2026-04-07T09:52:59Z</time></trkpt><trkpt lat="42.76267683829567" lon="12.21076892906629"><ele>532.0</ele><time>2026-04-07T09:53:00Z</time></trkpt><trkpt lat="42.762580921285874" lon="12.210901944965222"><ele>533.0</ele><time>2026-04-07T09:53:01Z</time></trkpt><trkpt lat="42.762449726689326" lon="12.211048416578569"><ele>529.0</ele><time>2026-04-07T09:53:02Z</time></trkpt><trkpt lat="42.762322911099616" lon="12.211209288061367"><ele>525.0</ele><time>2026-04-07T09:53:03Z</time></trkpt><trkpt lat="42.76223561378514" lon="12.21135316716933"><ele>521.0</ele><time>2026-04-07T09:53:04Z</time></trkpt><trkpt lat="42.76220606617917" lon="12.211500475120465"><ele>517.0</ele><time>2026-04-07T09:53:05Z</time></trkpt><trkpt lat="42.762255759677686" lon="12.211651972521432"><ele>516.0</ele><time>2026-04-07T09:53:06Z</time></trkpt><trkpt lat="42.7623795823432" lon="12.211777753563783"><ele>515.0</ele><time>2026-04-07T09:53:07Z</time></trkpt><trkpt lat="42.762556370447385" lon="12.21183763602704"><ele>514.0</ele><time>2026-04-07T09:53:08Z</time></trkpt><trkpt lat="42.762757017820554" lon="12.211879172040812"><ele>517.25</ele><time>2026-04-07T09:53:09Z</time></trkpt><trkpt lat="42.762928783187874" lon="12.211962612871606"><ele>520.5</ele><time>2026-04-07T09:53:10Z</time></trkpt><trkpt lat="42.76306628227619" lon="12.212045457809216"><ele>523.75</ele><time>2026-04-07T09:53:11Z</time></trkpt><trkpt lat="42.763162418239716" lon="12.212135395771734"><ele>527.0</ele><time>2026-04-07T09:53:12Z</time></trkpt><trkpt lat="42.76320425521739" lon="12.212266357362868"><ele>524.75</ele><time>2026-04-07T09:53:13Z</time></trkpt><trkpt lat="42.763179546234426" lon="12.212396853532917"><ele>522.5</ele><time>2026-04-07T09:53:14Z</time></trkpt><trkpt lat="42.76307353350742" lon="12.212532721444697"><ele>520.25</ele><time>2026-04-07T09:53:15Z</time></trkpt><trkpt lat="42.76293399527359" lon="12.212670408916509"><ele>518.0</ele><time>2026-04-07T09:53:16Z</time></trkpt><trkpt lat="42.76278202646999" lon="12.212856122923483"><ele>513.6666666666666</ele><time>2026-04-07T09:53:17Z</time></trkpt><trkpt lat="42.76263791769783" lon="12.213070873298916"><ele>509.33333333333337</ele><time>2026-04-07T09:53:18Z</time></trkpt><trkpt lat="42.762517800951166" lon="12.213313659466607"><ele>505.0</ele><time>2026-04-07T09:53:19Z</time></trkpt><trkpt lat="42.762435440115055" lon="12.213599452095325"><ele>505.0</ele><time>2026-04-07T09:53:20Z</time></trkpt><trkpt lat="42.76237866848138" lon="12.21390387422463"><ele>505.0</ele><time>2026-04-07T09:53:21Z</time></trkpt><trkpt lat="42.76234563652708" lon="12.21421160570213"><ele>506.33333333333337</ele><time>2026-04-07T09:53:22Z</time></trkpt><trkpt lat="42.76233795221517" lon="12.214504421948462"><ele>507.66666666666663</ele><time>2026-04-07T09:53:23Z</time></trkpt><trkpt lat="42.7623421986829" lon="12.214772477429653"><ele>509.0</ele><time>2026-04-07T09:53:24Z</time></trkpt><trkpt lat="42.76230290057069" lon="12.215008299017729"><ele>510.0</ele><time>2026-04-07T09:53:25Z</time></trkpt><trkpt lat="42.762205300149105" lon="12.215216148098198"><ele>511.0</ele><time>2026-04-07T09:53:26Z</time></trkpt><trkpt lat="42.76207707208044" lon="12.215389650845122"><ele>512.0</ele><time>2026-04-07T09:53:27Z</time></trkpt><trkpt lat="42.76193021255373" lon="12.215502616823246"><ele>507.25</ele><time>2026-04-07T09:53:28Z</time></trkpt><trkpt lat="42.761786293182865" lon="12.215549459038455"><ele>502.5</ele><time>2026-04-07T09:53:29Z</time></trkpt><trkpt lat="42.76168205814049" lon="12.215620819698941"><ele>497.75</ele><time>2026-04-07T09:53:30Z</time></trkpt><trkpt lat="42.761646510766205" lon="12.215765922102007"><ele>493.0</ele><time>2026-04-07T09:53:31Z</time></trkpt><trkpt lat="42.76167612178025" lon="12.215934737035889"><ele>493.0</ele><time>2026-04-07T09:53:32Z</time></trkpt><trkpt lat="42.76177731115108" lon="12.216086640809605"><ele>493.0</ele><time>2026-04-07T09:53:33Z</time></trkpt><trkpt lat="42.76183725220052" lon="12.21624948490766"><ele>493.0</ele><time>2026-04-07T09:53:34Z</time></trkpt><trkpt lat="42.7618064348702" lon="12.216402573520782"><ele>493.0</ele><time>2026-04-07T09:53:35Z</time></trkpt><trkpt lat="42.76169187678262" lon="12.216508674359476"><ele>494.33333333333337</ele><time>2026-04-07T09:53:36Z</time></trkpt><trkpt lat="42.76152008587425" lon="12.216570721753396"><ele>495.66666666666663</ele><time>2026-04-07T09:53:37Z</time></trkpt><trkpt lat="42.761323081448644" lon="12.21662758657798"><ele>497.0</ele><time>2026-04-07T09:53:38Z</time></trkpt><trkpt lat="42.761134331737615" lon="12.216686430030968"><ele>493.5</ele><time>2026-04-07T09:53:39Z</time></trkpt><trkpt lat="42.76099065765351" lon="12.216757615060214"><ele>490.0</ele><time>2026-04-07T09:53:40Z</time></trkpt><trkpt lat="42.76088331054517" lon="12.216881070282346"><ele>486.5</ele><time>2026-04-07T09:53:41Z</time></trkpt><trkpt lat="42.76082313329337" lon="12.21706866341802"><ele>483.0</ele><time>2026-04-07T09:53:42Z</time></trkpt><trkpt lat="42.760850011478475" lon="12.217332294929003"><ele>483.0</ele><time>2026-04-07T09:53:43Z</time></trkpt><trkpt lat="42.76091236786186" lon="12.217615376268705"><ele>483.0</ele><time>2026-04-07T09:53:44Z</time></trkpt><trkpt lat="42.76100498877471" lon="12.217901615301724"><ele>483.0</ele><time>2026-04-07T09:53:45Z</time></trkpt><trkpt lat="42.76112969367558" lon="12.218156462020938"><ele>486.0</ele><time>2026-04-07T09:53:46Z</time></trkpt><trkpt lat="42.76128070823689" lon="12.218386589850805"><ele>489.0</ele><time>2026-04-07T09:53:47Z</time></trkpt><trkpt lat="42.76147090510496" lon="12.218602834292254"><ele>489.0</ele><time>2026-04-07T09:53:48Z</time></trkpt><trkpt lat="42.76167787982636" lon="12.218789500296653"><ele>489.0</ele><time>2026-04-07T09:53:49Z</time></trkpt><trkpt lat="42.76187562930331" lon="12.21895590111086"><ele>488.66666666666663</ele><time>2026-04-07T09:53:50Z</time></trkpt><trkpt lat="42.762047241027176" lon="12.219096069634642"><ele>488.3333333333333</ele><time>2026-04-07T09:53:51Z</time></trkpt><trkpt lat="42.76219120358476" lon="12.219245070662417"><ele>488.0</ele><time>2026-04-07T09:53:52Z</time></trkpt><trkpt lat="42.76229026357637" lon="12.219467044261362"><ele>488.0</ele><time>2026-04-07T09:53:53Z</time></trkpt><trkpt lat="42.76235302360051" lon="12.219781492644065"><ele>488.0</ele><time>2026-04-07T09:53:54Z</time></trkpt><trkpt lat="42.76239745898749" lon="12.220142657489966"><ele>482.5</ele><time>2026-04-07T09:53:55Z</time></trkpt><trkpt lat="42.76245093667181" lon="12.220473113063907"><ele>477.0</ele><time>2026-04-07T09:53:56Z</time></trkpt><trkpt lat="42.76251070941086" lon="12.220783312380041"><ele>477.0</ele><time>2026-04-07T09:53:57Z</time></trkpt><trkpt lat="42.76255689426535" lon="12.221067483954265"><ele>477.0</ele><time>2026-04-07T09:53:58Z</time></trkpt><trkpt lat="42.76259638105049" lon="12.221352657379454"><ele>477.0</ele><time>2026-04-07T09:53:59Z</time></trkpt><trkpt lat="42.762639660806414" lon="12.221646857038676"><ele>478.0</ele><time>2026-04-07T09:54:00Z</time></trkpt><trkpt lat="42.76268698622625" lon="12.221947405608942"><ele>479.0</ele><time>2026-04-07T09:54:01Z</time></trkpt><trkpt lat="42.76273354590982" lon="12.222250810883219"><ele>479.3333333333333</ele><time>2026-04-07T09:54:02Z</time></trkpt><trkpt lat="42.76277917876915" lon="12.222541235591128"><ele>479.66666666666663</ele><time>2026-04-07T09:54:03Z</time></trkpt><trkpt lat="42.76281934482438" lon="12.222814374526585"><ele>480.0</ele><time>2026-04-07T09:54:04Z</time></trkpt><trkpt lat="42.76285745342591" lon="12.223073348429477"><ele>479.0</ele><time>2026-04-07T09:54:05Z</time></trkpt><trkpt lat="42.76288870015609" lon="12.223319577113939"><ele>478.0</ele><time>2026-04-07T09:54:06Z</time></trkpt><trkpt lat="42.76289912997698" lon="12.223548716251123"><ele>477.0</ele><time>2026-04-07T09:54:07Z</time></trkpt><trkpt lat="42.76288139748773" lon="12.223739472867733"><ele>477.0</ele><time>2026-04-07T09:54:08Z</time></trkpt><trkpt lat="42.762864439012404" lon="12.22390397085518"><ele>477.0</ele><time>2026-04-07T09:54:09Z</time></trkpt><trkpt lat="42.76286424488389" lon="12.224058065284142"><ele>477.0</ele><time>2026-04-07T09:54:10Z</time></trkpt><trkpt lat="42.762915505507884" lon="12.224198804937561"><ele>477.0</ele><time>2026-04-07T09:54:11Z</time></trkpt><trkpt lat="42.763017315888376" lon="12.224323226123472"><ele>477.0</ele><time>2026-04-07T09:54:12Z</time></trkpt><trkpt lat="42.76314006428415" lon="12.224420509377772"><ele>477.0</ele><time>2026-04-07T09:54:13Z</time></trkpt><trkpt lat="42.76327264698653" lon="12.224485241810667"><ele>477.0</ele><time>2026-04-07T09:54:14Z</time></trkpt><trkpt lat="42.76340569885197" lon="12.224537503845129"><ele>477.0</ele><time>2026-04-07T09:54:15Z</time></trkpt><trkpt lat="42.76354621573325" lon="12.224591130784331"><ele>477.0</ele><time>2026-04-07T09:54:16Z</time></trkpt><trkpt lat="42.76369244487235" lon="12.224657422739128"><ele>477.0</ele><time>2026-04-07T09:54:17Z</time></trkpt><trkpt lat="42.76383742498555" lon="12.224752286363035"><ele>477.0</ele><time>2026-04-07T09:54:18Z</time></trkpt><trkpt lat="42.76399032638504" lon="12.224851128957416"><ele>473.33333333333337</ele><time>2026-04-07T09:54:19Z</time></trkpt><trkpt lat="42.76416297475871" lon="12.224905503172314"><ele>469.6666666666667</ele><time>2026-04-07T09:54:20Z</time></trkpt><trkpt lat="42.764351546868276" lon="12.224941143272698"><ele>466.0</ele><time>2026-04-07T09:54:21Z</time></trkpt><trkpt lat="42.76455178764813" lon="12.224972565386162"><ele>466.0</ele><time>2026-04-07T09:54:22Z</time></trkpt><trkpt lat="42.76475193605572" lon="12.225015821208258"><ele>466.0</ele><time>2026-04-07T09:54:23Z</time></trkpt><trkpt lat="42.7649474322358" lon="12.225060362784909"><ele>466.0</ele><time>2026-04-07T09:54:24Z</time></trkpt><trkpt lat="42.76515169742557" lon="12.225114486793037"><ele>465.6666666666667</ele><time>2026-04-07T09:54:25Z</time></trkpt><trkpt lat="42.76535792134435" lon="12.225177945690303"><ele>465.33333333333337</ele><time>2026-04-07T09:54:26Z</time></trkpt><trkpt lat="42.76556339236003" lon="12.225244661820259"><ele>465.0</ele><time>2026-04-07T09:54:27Z</time></trkpt><trkpt lat="42.765767006460166" lon="12.225311123440964"><ele>465.0</ele><time>2026-04-07T09:54:28Z</time></trkpt><trkpt lat="42.765961534774405" lon="12.225375765471641"><ele>465.0</ele><time>2026-04-07T09:54:29Z</time></trkpt><trkpt lat="42.76614968329273" lon="12.225438169675359"><ele>465.0</ele><time>2026-04-07T09:54:30Z</time></trkpt><trkpt lat="42.76632773155309" lon="12.225487938268593"><ele>462.0</ele><time>2026-04-07T09:54:31Z</time></trkpt><trkpt lat="42.766489343305416" lon="12.225507373947801"><ele>459.0</ele><time>2026-04-07T09:54:32Z</time></trkpt><trkpt lat="42.76663769344642" lon="12.225514920726287"><ele>456.0</ele><time>2026-04-07T09:54:33Z</time></trkpt><trkpt lat="42.766764150188365" lon="12.225507004804703"><ele>453.0</ele><time>2026-04-07T09:54:34Z</time></trkpt><trkpt lat="42.766861505336" lon="12.225448471690543"><ele>453.0</ele><time>2026-04-07T09:54:35Z</time></trkpt><trkpt lat="42.7669120948276" lon="12.225324694093741"><ele>453.0</ele><time>2026-04-07T09:54:36Z</time></trkpt><trkpt lat="42.7669044079677" lon="12.225151384230289"><ele>453.0</ele><time>2026-04-07T09:54:37Z</time></trkpt><trkpt lat="42.766832276675565" lon="12.224953570057105"><ele>453.0</ele><time>2026-04-07T09:54:38Z</time></trkpt><trkpt lat="42.766759449515405" lon="12.224737898588415"><ele>452.25</ele><time>2026-04-07T09:54:39Z</time></trkpt><trkpt lat="42.76671325976717" lon="12.224534578850939"><ele>451.5</ele><time>2026-04-07T09:54:40Z</time></trkpt><trkpt lat="42.76665482278415" lon="12.224345652155849"><ele>450.75</ele><time>2026-04-07T09:54:41Z</time></trkpt><trkpt lat="42.766555600595304" lon="12.224216489810656"><ele>450.0</ele><time>2026-04-07T09:54:42Z</time></trkpt><trkpt lat="42.766444026851914" lon="12.224136871765284"><ele>450.0</ele><time>2026-04-07T09:54:43Z</time></trkpt><trkpt lat="42.76637263272926" lon="12.224049577380985"><ele>450.0</ele><time>2026-04-07T09:54:44Z</time></trkpt><trkpt lat="42.766376129196395" lon="12.22395368153966"><ele>450.0</ele><time>2026-04-07T09:54:45Z</time></trkpt><trkpt lat="42.76644345018879" lon="12.223884060224531"><ele>450.0</ele><time>2026-04-07T09:54:46Z</time></trkpt><trkpt lat="42.76654528552033" lon="12.223881722931143"><ele>450.0</ele><time>2026-04-07T09:54:47Z</time></trkpt><trkpt lat="42.76667852409792" lon="12.223942973937294"><ele>450.0</ele><time>2026-04-07T09:54:48Z</time></trkpt><trkpt lat="42.76678593483947" lon="12.224004726612616"><ele>450.0</ele><time>2026-04-07T09:54:49Z</time></trkpt><trkpt lat="42.76686335709203" lon="12.224139167879246"><ele>450.0</ele><time>2026-04-07T09:54:50Z</time></trkpt><trkpt lat="42.76687283662809" lon="12.22431166402596"><ele>450.0</ele><time>2026-04-07T09:54:51Z</time></trkpt><trkpt lat="42.766885522596176" lon="12.224496064623692"><ele>442.33333333333337</ele><time>2026-04-07T09:54:52Z</time></trkpt><trkpt lat="42.76695815930267" lon="12.224698828589275"><ele>434.6666666666667</ele><time>2026-04-07T09:54:53Z</time></trkpt><trkpt lat="42.76707068793825" lon="12.224872822581824"><ele>427.0</ele><time>2026-04-07T09:54:54Z</time></trkpt><trkpt lat="42.7672106652309" lon="12.225015880156676"><ele>427.0</ele><time>2026-04-07T09:54:55Z</time></trkpt><trkpt lat="42.767330430036395" lon="12.225178662157305"><ele>427.0</ele><time>2026-04-07T09:54:56Z</time></trkpt><trkpt lat="42.767387722216824" lon="12.225380252641164"><ele>427.0</ele><time>2026-04-07T09:54:57Z</time></trkpt><trkpt lat="42.76739877363209" lon="12.225590799129641"><ele>427.33333333333337</ele><time>2026-04-07T09:54:58Z</time></trkpt><trkpt lat="42.767357825434885" lon="12.225833534277655"><ele>427.66666666666663</ele><time>2026-04-07T09:54:59Z</time></trkpt><trkpt lat="42.76729673328882" lon="12.226077594088364"><ele>428.0</ele><time>2026-04-07T09:55:00Z</time></trkpt><trkpt lat="42.76722934882243" lon="12.22631055401385"><ele>424.3333333333333</ele><time>2026-04-07T09:55:01Z</time></trkpt><trkpt lat="42.76714505973893" lon="12.22651104718258"><ele>420.66666666666663</ele><time>2026-04-07T09:55:02Z</time></trkpt><trkpt lat="42.76702658285717" lon="12.226654222789374"><ele>417.0</ele><time>2026-04-07T09:55:03Z</time></trkpt><trkpt lat="42.766880992565255" lon="12.226730153260451"><ele>419.0</ele><time>2026-04-07T09:55:04Z</time></trkpt><trkpt lat="42.7667304486162" lon="12.226715546532903"><ele>421.0</ele><time>2026-04-07T09:55:05Z</time></trkpt><trkpt lat="42.76659334643142" lon="12.226584552062313"><ele>423.0</ele><time>2026-04-07T09:55:06Z</time></trkpt><trkpt lat="42.76646170381141" lon="12.22643831699297"><ele>428.33333333333337</ele><time>2026-04-07T09:55:07Z</time></trkpt><trkpt lat="42.766272380492154" lon="12.226374256896944"><ele>433.6666666666667</ele><time>2026-04-07T09:55:08Z</time></trkpt><trkpt lat="42.766033001510806" lon="12.226363641580441"><ele>439.0</ele><time>2026-04-07T09:55:09Z</time></trkpt><trkpt lat="42.76581601841112" lon="12.226362578855982"><ele>439.0</ele><time>2026-04-07T09:55:10Z</time></trkpt><trkpt lat="42.76564350047634" lon="12.22636136555748"><ele>439.0</ele><time>2026-04-07T09:55:11Z</time></trkpt><trkpt lat="42.7655115359263" lon="12.226362100280344"><ele>439.0</ele><time>2026-04-07T09:55:12Z</time></trkpt><trkpt lat="42.76540782057415" lon="12.226375620795457"><ele>439.0</ele><time>2026-04-07T09:55:13Z</time></trkpt><trkpt lat="42.765331358391826" lon="12.226440701318904"><ele>434.25</ele><time>2026-04-07T09:55:14Z</time></trkpt><trkpt lat="42.765306174926344" lon="12.226567296925094"><ele>429.5</ele><time>2026-04-07T09:55:15Z</time></trkpt><trkpt lat="42.76535375818411" lon="12.226720794922599"><ele>424.75</ele><time>2026-04-07T09:55:16Z</time></trkpt><trkpt lat="42.76546961731479" lon="12.226874764919557"><ele>420.0</ele><time>2026-04-07T09:55:17Z</time></trkpt><trkpt lat="42.76562501975579" lon="12.22705901099521"><ele>420.0</ele><time>2026-04-07T09:55:18Z</time></trkpt><trkpt lat="42.76578129462725" lon="12.227272885224583"><ele>420.0</ele><time>2026-04-07T09:55:19Z</time></trkpt><trkpt lat="42.76593346020689" lon="12.227498844145721"><ele>420.0</ele><time>2026-04-07T09:55:20Z</time></trkpt><trkpt lat="42.76607977598529" lon="12.22771773459685"><ele>415.33333333333337</ele><time>2026-04-07T09:55:21Z</time></trkpt><trkpt lat="42.76621500124018" lon="12.227923758369982"><ele>410.6666666666667</ele><time>2026-04-07T09:55:22Z</time></trkpt><trkpt lat="42.76634729868111" lon="12.228106992089135"><ele>406.0</ele><time>2026-04-07T09:55:23Z</time></trkpt><trkpt lat="42.76648097636913" lon="12.228242729558584"><ele>404.0</ele><time>2026-04-07T09:55:24Z</time></trkpt><trkpt lat="42.76660320395596" lon="12.228331073336957"><ele>402.0</ele><time>2026-04-07T09:55:25Z</time></trkpt><trkpt lat="42.76668941943413" lon="12.228427840564294"><ele>400.0</ele><time>2026-04-07T09:55:26Z</time></trkpt><trkpt lat="42.76673188653291" lon="12.228563951812216"><ele>398.0</ele><time>2026-04-07T09:55:27Z</time></trkpt><trkpt lat="42.76664922998271" lon="12.22874533072484"><ele>398.0</ele><time>2026-04-07T09:55:28Z</time></trkpt><trkpt lat="42.76652450385457" lon="12.228872959578126"><ele>398.0</ele><time>2026-04-07T09:55:29Z</time></trkpt><trkpt lat="42.76634482229313" lon="12.228975488171498"><ele>398.0</ele><time>2026-04-07T09:55:30Z</time></trkpt><trkpt lat="42.7661726342861" lon="12.229127007424218"><ele>396.3333333333333</ele><time>2026-04-07T09:55:31Z</time></trkpt><trkpt lat="42.766042470550914" lon="12.229304130880713"><ele>394.66666666666663</ele><time>2026-04-07T09:55:32.001Z</time></trkpt><trkpt lat="42.765924398560855" lon="12.229439458239218"><ele>393.0</ele><time>2026-04-07T09:55:33.001Z</time></trkpt><trkpt lat="42.76578992897786" lon="12.229503216396521"><ele>393.0</ele><time>2026-04-07T09:55:34.001Z</time></trkpt><trkpt lat="42.76566416066747" lon="12.22948077594247"><ele>393.0</ele><time>2026-04-07T09:55:35.001Z</time></trkpt><trkpt lat="42.76556529601485" lon="12.229365611219079"><ele>393.0</ele><time>2026-04-07T09:55:36.001Z</time></trkpt><trkpt lat="42.76546944478213" lon="12.22917813502158"><ele>393.0</ele><time>2026-04-07T09:55:37.001Z</time></trkpt><trkpt lat="42.76534854447211" lon="12.229013363681567"><ele>391.75</ele><time>2026-04-07T09:55:38.001Z</time></trkpt><trkpt lat="42.76523016736137" lon="12.228906302691986"><ele>390.5</ele><time>2026-04-07T09:55:39.001Z</time></trkpt><trkpt lat="42.765126297461556" lon="12.228877405014432"><ele>389.25</ele><time>2026-04-07T09:55:40.001Z</time></trkpt><trkpt lat="42.76503243966824" lon="12.228929840075809"><ele>388.0</ele><time>2026-04-07T09:55:41.001Z</time></trkpt><trkpt lat="42.76498515239075" lon="12.229087058053484"><ele>388.0</ele><time>2026-04-07T09:55:42.001Z</time></trkpt><trkpt lat="42.76501219413816" lon="12.229264997298007"><ele>388.0</ele><time>2026-04-07T09:55:43.001Z</time></trkpt><trkpt lat="42.7651174157512" lon="12.229433827923488"><ele>388.0</ele><time>2026-04-07T09:55:44.001Z</time></trkpt><trkpt lat="42.76525977713763" lon="12.22961036605441"><ele>389.6666666666667</ele><time>2026-04-07T09:55:45.001Z</time></trkpt><trkpt lat="42.76537874048957" lon="12.229793343805984"><ele>391.33333333333337</ele><time>2026-04-07T09:55:46.001Z</time></trkpt><trkpt lat="42.76548956125917" lon="12.229944373509882"><ele>393.0</ele><time>2026-04-07T09:55:47.001Z</time></trkpt><trkpt lat="42.765628878243" lon="12.230004581276505"><ele>387.6666666666667</ele><time>2026-04-07T09:55:48.001Z</time></trkpt><trkpt lat="42.765832011740365" lon="12.229999065037699"><ele>382.33333333333337</ele><time>2026-04-07T09:55:49.001Z</time></trkpt><trkpt lat="42.766054196210135" lon="12.229961245669394"><ele>377.0</ele><time>2026-04-07T09:55:50.001Z</time></trkpt><trkpt lat="42.76626606042107" lon="12.229912798017427"><ele>379.33333333333337</ele><time>2026-04-07T09:55:51.001Z</time></trkpt><trkpt lat="42.76647265412189" lon="12.229820432914169"><ele>381.6666666666667</ele><time>2026-04-07T09:55:52Z</time></trkpt><trkpt lat="42.766660737992595" lon="12.229669933867154"><ele>384.0</ele><time>2026-04-07T09:55:53Z</time></trkpt><trkpt lat="42.76682280054875" lon="12.229505805931646"><ele>378.6666666666667</ele><time>2026-04-07T09:55:54Z</time></trkpt><trkpt lat="42.76696953799357" lon="12.229360551746103"><ele>373.33333333333337</ele><time>2026-04-07T09:55:55Z</time></trkpt><trkpt lat="42.767091259959514" lon="12.22922186630318"><ele>368.0</ele><time>2026-04-07T09:55:56Z</time></trkpt><trkpt lat="42.76718952536496" lon="12.229089149971117"><ele>368.0</ele><time>2026-04-07T09:55:57Z</time></trkpt><trkpt lat="42.76727504502202" lon="12.228981014095583"><ele>368.0</ele><time>2026-04-07T09:55:58Z</time></trkpt><trkpt lat="42.76735989319712" lon="12.228938177386867"><ele>368.0</ele><time>2026-04-07T09:55:59Z</time></trkpt><trkpt lat="42.7674457329138" lon="12.228971902454552"><ele>368.0</ele><time>2026-04-07T09:56:00Z</time></trkpt><trkpt lat="42.767530588072326" lon="12.229086183080453"><ele>368.0</ele><time>2026-04-07T09:56:01Z</time></trkpt><trkpt lat="42.767610272134306" lon="12.229232022490379"><ele>368.0</ele><time>2026-04-07T09:56:02Z</time></trkpt><trkpt lat="42.767651233446166" lon="12.229425600207495"><ele>368.0</ele><time>2026-04-07T09:56:03Z</time></trkpt><trkpt lat="42.767624441011975" lon="12.229648265245096"><ele>368.0</ele><time>2026-04-07T09:56:04Z</time></trkpt><trkpt lat="42.76755010372219" lon="12.229866127368549"><ele>370.0</ele><time>2026-04-07T09:56:05Z</time></trkpt><trkpt lat="42.76741541602787" lon="12.23005703601755"><ele>372.0</ele><time>2026-04-07T09:56:06Z</time></trkpt><trkpt lat="42.76725258215988" lon="12.230250981242943"><ele>374.0</ele><time>2026-04-07T09:56:07Z</time></trkpt><trkpt lat="42.7670917895385" lon="12.230400245417464"><ele>374.0</ele><time>2026-04-07T09:56:08Z</time></trkpt><trkpt lat="42.766963894560064" lon="12.230568141567987"><ele>374.0</ele><time>2026-04-07T09:56:09Z</time></trkpt><trkpt lat="42.76688181129383" lon="12.230794213860094"><ele>374.0</ele><time>2026-04-07T09:56:10Z</time></trkpt><trkpt lat="42.766830917119286" lon="12.231044497840507"><ele>372.25</ele><time>2026-04-07T09:56:11Z</time></trkpt><trkpt lat="42.76674979402825" lon="12.231243621287973"><ele>370.5</ele><time>2026-04-07T09:56:12Z</time></trkpt><trkpt lat="42.76664180660048" lon="12.231372894838376"><ele>368.75</ele><time>2026-04-07T09:56:13Z</time></trkpt><trkpt lat="42.766565826689735" lon="12.231489145599754"><ele>367.0</ele><time>2026-04-07T09:56:14Z</time></trkpt><trkpt lat="42.766561453225926" lon="12.231627560168176"><ele>367.0</ele><time>2026-04-07T09:56:15Z</time></trkpt><trkpt lat="42.766625487215116" lon="12.231764740199651"><ele>367.0</ele><time>2026-04-07T09:56:16Z</time></trkpt><trkpt lat="42.76673936864432" lon="12.2318909479438"><ele>367.0</ele><time>2026-04-07T09:56:17Z</time></trkpt><trkpt lat="42.76688151933017" lon="12.232032076479937"><ele>367.0</ele><time>2026-04-07T09:56:18Z</time></trkpt><trkpt lat="42.76705209389418" lon="12.232178016154128"><ele>369.5</ele><time>2026-04-07T09:56:19Z</time></trkpt><trkpt lat="42.767247025447496" lon="12.23230339515536"><ele>372.0</ele><time>2026-04-07T09:56:20Z</time></trkpt><trkpt lat="42.76747915927437" lon="12.23238727015119"><ele>376.66666666666663</ele><time>2026-04-07T09:56:21Z</time></trkpt><trkpt lat="42.76770442851691" lon="12.232471355965094"><ele>381.3333333333333</ele><time>2026-04-07T09:56:22Z</time></trkpt><trkpt lat="42.767897490506854" lon="12.232582583515672"><ele>386.0</ele><time>2026-04-07T09:56:23Z</time></trkpt><trkpt lat="42.76806744132262" lon="12.232690703382449"><ele>386.0</ele><time>2026-04-07T09:56:24Z</time></trkpt><trkpt lat="42.76821964480844" lon="12.232768533676461"><ele>386.0</ele><time>2026-04-07T09:56:25Z</time></trkpt><trkpt lat="42.76834352918058" lon="12.232823965018492"><ele>386.0</ele><time>2026-04-07T09:56:26Z</time></trkpt><trkpt lat="42.76842878003709" lon="12.232866670547445"><ele>386.0</ele><time>2026-04-07T09:56:27Z</time></trkpt><trkpt lat="42.76846222261469" lon="12.232946693496043"><ele>386.0</ele><time>2026-04-07T09:56:28Z</time></trkpt><trkpt lat="42.768442313013" lon="12.233062604516713"><ele>386.0</ele><time>2026-04-07T09:56:29Z</time></trkpt><trkpt lat="42.76837931852305" lon="12.233216236701278"><ele>386.0</ele><time>2026-04-07T09:56:30Z</time></trkpt><trkpt lat="42.76826204641633" lon="12.233354758293741"><ele>386.0</ele><time>2026-04-07T09:56:31Z</time></trkpt><trkpt lat="42.76810229559043" lon="12.23342036348283"><ele>385.3333333333333</ele><time>2026-04-07T09:56:32Z</time></trkpt><trkpt lat="42.76790607248265" lon="12.233415934342592"><ele>384.66666666666663</ele><time>2026-04-07T09:56:33Z</time></trkpt><trkpt lat="42.76770424621815" lon="12.233360057543317"><ele>384.0</ele><time>2026-04-07T09:56:34Z</time></trkpt><trkpt lat="42.76751104472885" lon="12.233288797360151"><ele>382.3333333333333</ele><time>2026-04-07T09:56:35Z</time></trkpt><trkpt lat="42.767325164106055" lon="12.233255251187645"><ele>380.66666666666663</ele><time>2026-04-07T09:56:36Z</time></trkpt><trkpt lat="42.76713419207358" lon="12.233293906354566"><ele>379.0</ele><time>2026-04-07T09:56:37Z</time></trkpt><trkpt lat="42.76694149771374" lon="12.233428490058031"><ele>379.0</ele><time>2026-04-07T09:56:38Z</time></trkpt><trkpt lat="42.76675703475463" lon="12.233592293608858"><ele>379.0</ele><time>2026-04-07T09:56:39Z</time></trkpt><trkpt lat="42.76659041953932" lon="12.233686694512933"><ele>379.0</ele><time>2026-04-07T09:56:40Z</time></trkpt><trkpt lat="42.766417277923296" lon="12.233716307118176"><ele>379.0</ele><time>2026-04-07T09:56:41Z</time></trkpt><trkpt lat="42.766241372774765" lon="12.233657244879844"><ele>379.0</ele><time>2026-04-07T09:56:42Z</time></trkpt><trkpt lat="42.76606410420807" lon="12.233540566868868"><ele>379.0</ele><time>2026-04-07T09:56:43Z</time></trkpt><trkpt lat="42.76586223724931" lon="12.233448952920664"><ele>380.66666666666663</ele><time>2026-04-07T09:56:44Z</time></trkpt><trkpt lat="42.7656280369698" lon="12.233441674902771"><ele>382.3333333333333</ele><time>2026-04-07T09:56:45Z</time></trkpt><trkpt lat="42.765433602628484" lon="12.233446848852166"><ele>384.0</ele><time>2026-04-07T09:56:46Z</time></trkpt><trkpt lat="42.76528028856728" lon="12.233465980405207"><ele>382.3333333333333</ele><time>2026-04-07T09:56:47Z</time></trkpt><trkpt lat="42.76515695242482" lon="12.233554900766872"><ele>380.66666666666663</ele><time>2026-04-07T09:56:48Z</time></trkpt><trkpt lat="42.7650361351701" lon="12.23374727374761"><ele>379.0</ele><time>2026-04-07T09:56:49Z</time></trkpt><trkpt lat="42.76491770148482" lon="12.233973273591756"><ele>387.0</ele><time>2026-04-07T09:56:50Z</time></trkpt><trkpt lat="42.76478738466009" lon="12.234140185048645"><ele>395.0</ele><time>2026-04-07T09:56:51Z</time></trkpt><trkpt lat="42.764618371621715" lon="12.234224173288217"><ele>403.0</ele><time>2026-04-07T09:56:52Z</time></trkpt><trkpt lat="42.76446030736945" lon="12.234279222691335"><ele>400.75</ele><time>2026-04-07T09:56:53Z</time></trkpt><trkpt lat="42.764332572142905" lon="12.234356437311245"><ele>398.5</ele><time>2026-04-07T09:56:54Z</time></trkpt><trkpt lat="42.764228064374905" lon="12.234474361089307"><ele>396.25</ele><time>2026-04-07T09:56:55Z</time></trkpt><trkpt lat="42.76414052315356" lon="12.234616449214295"><ele>394.0</ele><time>2026-04-07T09:56:56Z</time></trkpt><trkpt lat="42.76408182573997" lon="12.234756402613002"><ele>395.79999999999995</ele><time>2026-04-07T09:56:57Z</time></trkpt><trkpt lat="42.76406587297338" lon="12.234884729071139"><ele>397.59999999999997</ele><time>2026-04-07T09:56:57.999Z</time></trkpt><trkpt lat="42.764096073416056" lon="12.234993556367908"><ele>399.4</ele><time>2026-04-07T09:56:58.999Z</time></trkpt><trkpt lat="42.76417821133494" lon="12.235049616308858"><ele>401.2</ele><time>2026-04-07T09:56:59.999Z</time></trkpt><trkpt lat="42.76427869604704" lon="12.235059292"><ele>403.0</ele><time>2026-04-07T09:57:00.999Z</time></trkpt><trkpt lat="42.76437759755721" lon="12.235044691322244"><ele>404.0</ele><time>2026-04-07T09:57:01.999Z</time></trkpt><trkpt lat="42.76447786381003" lon="12.235034261870208"><ele>405.0</ele><time>2026-04-07T09:57:02.999Z</time></trkpt><trkpt lat="42.76459248542909" lon="12.235037765025217"><ele>406.0</ele><time>2026-04-07T09:57:03.999Z</time></trkpt><trkpt lat="42.764710541237235" lon="12.235040503863267"><ele>407.0</ele><time>2026-04-07T09:57:04.999Z</time></trkpt><trkpt lat="42.76484341832143" lon="12.235044042289573"><ele>407.0</ele><time>2026-04-07T09:57:05.999Z</time></trkpt><trkpt lat="42.764984437412046" lon="12.23504791981311"><ele>407.0</ele><time>2026-04-07T09:57:06.999Z</time></trkpt><trkpt lat="42.76513025112723" lon="12.235058036810756"><ele>407.0</ele><time>2026-04-07T09:57:07.999Z</time></trkpt><trkpt lat="42.76527510197667" lon="12.235055028454015"><ele>407.0</ele><time>2026-04-07T09:57:08.999Z</time></trkpt><trkpt lat="42.76541292359446" lon="12.235048318837629"><ele>407.5</ele><time>2026-04-07T09:57:09.999Z</time></trkpt><trkpt lat="42.76554660990915" lon="12.23502268883415"><ele>408.0</ele><time>2026-04-07T09:57:10.999Z</time></trkpt><trkpt lat="42.765663285611105" lon="12.234931747068675"><ele>408.5</ele><time>2026-04-07T09:57:11.999Z</time></trkpt><trkpt lat="42.76579197392329" lon="12.234825127272847"><ele>409.0</ele><time>2026-04-07T09:57:12.999Z</time></trkpt><trkpt lat="42.76593025031654" lon="12.234724110459602"><ele>408.0</ele><time>2026-04-07T09:57:13.999Z</time></trkpt><trkpt lat="42.76610222352751" lon="12.234666275618695"><ele>407.0</ele><time>2026-04-07T09:57:14.999Z</time></trkpt><trkpt lat="42.76629235754164" lon="12.234638189925874"><ele>406.0</ele><time>2026-04-07T09:57:15.999Z</time></trkpt><trkpt lat="42.76649275310078" lon="12.234639546060144"><ele>406.0</ele><time>2026-04-07T09:57:16.999Z</time></trkpt><trkpt lat="42.76669446110263" lon="12.234676674802477"><ele>406.0</ele><time>2026-04-07T09:57:17.999Z</time></trkpt><trkpt lat="42.76689406904565" lon="12.23472092570684"><ele>406.0</ele><time>2026-04-07T09:57:18.999Z</time></trkpt><trkpt lat="42.767094969511064" lon="12.23475785132603"><ele>405.6666666666667</ele><time>2026-04-07T09:57:19.999Z</time></trkpt><trkpt lat="42.767288319931524" lon="12.234792613810669"><ele>405.33333333333337</ele><time>2026-04-07T09:57:20.999Z</time></trkpt><trkpt lat="42.76747671338638" lon="12.234823720689239"><ele>405.0</ele><time>2026-04-07T09:57:21.999Z</time></trkpt><trkpt lat="42.7676643061845" lon="12.234850285440913"><ele>410.66666666666663</ele><time>2026-04-07T09:57:22.999Z</time></trkpt><trkpt lat="42.767844719624684" lon="12.23487344341524"><ele>416.3333333333333</ele><time>2026-04-07T09:57:23.999Z</time></trkpt><trkpt lat="42.768014295596565" lon="12.234923417742044"><ele>422.0</ele><time>2026-04-07T09:57:24.999Z</time></trkpt><trkpt lat="42.76816913518743" lon="12.235043760218872"><ele>422.0</ele><time>2026-04-07T09:57:25.999Z</time></trkpt><trkpt lat="42.76832031938361" lon="12.235203179472107"><ele>422.0</ele><time>2026-04-07T09:57:26.999Z</time></trkpt><trkpt lat="42.76845241012793" lon="12.235376944445738"><ele>422.0</ele><time>2026-04-07T09:57:27.999Z</time></trkpt><trkpt lat="42.76854974919426" lon="12.235538238316517"><ele>421.75</ele><time>2026-04-07T09:57:28.999Z</time></trkpt><trkpt lat="42.76863212851473" lon="12.235675616123958"><ele>421.5</ele><time>2026-04-07T09:57:29.999Z</time></trkpt><trkpt lat="42.768730970506475" lon="12.235752133102197"><ele>421.25</ele><time>2026-04-07T09:57:31Z</time></trkpt><trkpt lat="42.76885865555989" lon="12.235742524142815"><ele>421.0</ele><time>2026-04-07T09:57:32Z</time></trkpt><trkpt lat="42.76901087652224" lon="12.235655863899572"><ele>424.6666666666667</ele><time>2026-04-07T09:57:33Z</time></trkpt><trkpt lat="42.76917600997787" lon="12.235542984612211"><ele>428.33333333333337</ele><time>2026-04-07T09:57:34Z</time></trkpt><trkpt lat="42.76935017892546" lon="12.235437451983003"><ele>432.0</ele><time>2026-04-07T09:57:35Z</time></trkpt><trkpt lat="42.769529182702136" lon="12.235331860894652"><ele>433.0</ele><time>2026-04-07T09:57:36Z</time></trkpt><trkpt lat="42.76971020448811" lon="12.235246808425112"><ele>434.0</ele><time>2026-04-07T09:57:37Z</time></trkpt><trkpt lat="42.76990218488585" lon="12.235211257690835"><ele>435.0</ele><time>2026-04-07T09:57:38Z</time></trkpt><trkpt lat="42.77008310206296" lon="12.235209728377164"><ele>440.0</ele><time>2026-04-07T09:57:39Z</time></trkpt><trkpt lat="42.77023400342475" lon="12.235250646057077"><ele>445.0</ele><time>2026-04-07T09:57:40Z</time></trkpt><trkpt lat="42.77036028277484" lon="12.235357666648301"><ele>450.0</ele><time>2026-04-07T09:57:41Z</time></trkpt><trkpt lat="42.7704480522372" lon="12.23554208639463"><ele>450.33333333333337</ele><time>2026-04-07T09:57:42Z</time></trkpt><trkpt lat="42.770522118661525" lon="12.235774178844173"><ele>450.6666666666667</ele><time>2026-04-07T09:57:43Z</time></trkpt><trkpt lat="42.77058973439279" lon="12.236033772673784"><ele>451.0</ele><time>2026-04-07T09:57:44Z</time></trkpt><trkpt lat="42.770639770313245" lon="12.236293513101845"><ele>449.6666666666667</ele><time>2026-04-07T09:57:45Z</time></trkpt><trkpt lat="42.77066681154663" lon="12.236531643423723"><ele>448.33333333333337</ele><time>2026-04-07T09:57:46Z</time></trkpt><trkpt lat="42.77067361941325" lon="12.236746176515041"><ele>447.0</ele><time>2026-04-07T09:57:47Z</time></trkpt><trkpt lat="42.77068002974898" lon="12.236933058276726"><ele>447.0</ele><time>2026-04-07T09:57:48Z</time></trkpt><trkpt lat="42.77071807685249" lon="12.237071687057629"><ele>447.00000000000006</ele><time>2026-04-07T09:57:49Z</time></trkpt><trkpt lat="42.77079999501376" lon="12.237150043082718"><ele>447.00000000000006</ele><time>2026-04-07T09:57:50Z</time></trkpt><trkpt lat="42.77090301615177" lon="12.2371519682602"><ele>447.0</ele><time>2026-04-07T09:57:51Z</time></trkpt><trkpt lat="42.77100746557551" lon="12.237072435177904"><ele>447.0</ele><time>2026-04-07T09:57:52Z</time></trkpt><trkpt lat="42.77110752583514" lon="12.236947418071223"><ele>450.0</ele><time>2026-04-07T09:57:53Z</time></trkpt><trkpt lat="42.771206363199326" lon="12.236805683653515"><ele>453.0</ele><time>2026-04-07T09:57:54Z</time></trkpt><trkpt lat="42.77132719955148" lon="12.236690966872525"><ele>456.0</ele><time>2026-04-07T09:57:55Z</time></trkpt><trkpt lat="42.771488499156156" lon="12.236655863590405"><ele>456.0</ele><time>2026-04-07T09:57:56Z</time></trkpt><trkpt lat="42.77167462371899" lon="12.23669820767761"><ele>456.0</ele><time>2026-04-07T09:57:57Z</time></trkpt><trkpt lat="42.77187087156166" lon="12.236743587562781"><ele>456.0</ele><time>2026-04-07T09:57:58Z</time></trkpt><trkpt lat="42.7720769880491" lon="12.236781829917918"><ele>457.0</ele><time>2026-04-07T09:57:58.999Z</time></trkpt><trkpt lat="42.772287342229184" lon="12.236811941792643"><ele>458.0</ele><time>2026-04-07T09:58:00Z</time></trkpt><trkpt lat="42.772495649879744" lon="12.236835481005631"><ele>459.0</ele><time>2026-04-07T09:58:01Z</time></trkpt><trkpt lat="42.77271053322087" lon="12.236864331917918"><ele>461.33333333333337</ele><time>2026-04-07T09:58:02Z</time></trkpt><trkpt lat="42.77292200897912" lon="12.236912370077981"><ele>463.6666666666667</ele><time>2026-04-07T09:58:03Z</time></trkpt><trkpt lat="42.77312291010473" lon="12.236992673693978"><ele>466.0</ele><time>2026-04-07T09:58:04Z</time></trkpt><trkpt lat="42.77331404168119" lon="12.237113143218084"><ele>466.0</ele><time>2026-04-07T09:58:05Z</time></trkpt><trkpt lat="42.773494663348984" lon="12.237278697490252"><ele>466.0</ele><time>2026-04-07T09:58:06Z</time></trkpt><trkpt lat="42.77366152598066" lon="12.237444224538386"><ele>466.0</ele><time>2026-04-07T09:58:07Z</time></trkpt><trkpt lat="42.77381233910673" lon="12.237589418305577"><ele>466.75</ele><time>2026-04-07T09:58:08Z</time></trkpt><trkpt lat="42.77393148352225" lon="12.237723710488973"><ele>467.5</ele><time>2026-04-07T09:58:09Z</time></trkpt><trkpt lat="42.774009627892255" lon="12.23787232035633"><ele>468.25</ele><time>2026-04-07T09:58:10Z</time></trkpt><trkpt lat="42.774040971353614" lon="12.238027995064265"><ele>469.0</ele><time>2026-04-07T09:58:11Z</time></trkpt><trkpt lat="42.77400467992809" lon="12.238168868588282"><ele>470.0</ele><time>2026-04-07T09:58:12Z</time></trkpt><trkpt lat="42.77389602117582" lon="12.23825125860149"><ele>471.0</ele><time>2026-04-07T09:58:13Z</time></trkpt><trkpt lat="42.77376554328737" lon="12.238361754593441"><ele>472.0</ele><time>2026-04-07T09:58:14Z</time></trkpt><trkpt lat="42.77360714043325" lon="12.23846008678457"><ele>469.0</ele><time>2026-04-07T09:58:15Z</time></trkpt><trkpt lat="42.77344660013031" lon="12.238577901667341"><ele>466.0</ele><time>2026-04-07T09:58:16Z</time></trkpt><trkpt lat="42.773311769570874" lon="12.238675676611289"><ele>463.0</ele><time>2026-04-07T09:58:17Z</time></trkpt><trkpt lat="42.7731933809368" lon="12.23877291407392"><ele>463.0</ele><time>2026-04-07T09:58:18Z</time></trkpt><trkpt lat="42.77311190302587" lon="12.238895740441162"><ele>463.0</ele><time>2026-04-07T09:58:19Z</time></trkpt><trkpt lat="42.77300391382944" lon="12.239017895032358"><ele>463.0</ele><time>2026-04-07T09:58:20Z</time></trkpt><trkpt lat="42.7731122825593" lon="12.2392207153024"><ele>463.0</ele><time>2026-04-07T09:58:21Z</time></trkpt><trkpt lat="42.77320803850016" lon="12.239345401744302"><ele>466.0</ele><time>2026-04-07T09:58:22Z</time></trkpt><trkpt lat="42.77335427404325" lon="12.239430501558694"><ele>469.0</ele><time>2026-04-07T09:58:23Z</time></trkpt><trkpt lat="42.77350404464089" lon="12.239524913145239"><ele>472.0</ele><time>2026-04-07T09:58:24Z</time></trkpt><trkpt lat="42.77366066818961" lon="12.239636735379788"><ele>473.0</ele><time>2026-04-07T09:58:25Z</time></trkpt><trkpt lat="42.773831332120196" lon="12.239758927413066"><ele>474.0</ele><time>2026-04-07T09:58:26Z</time></trkpt><trkpt lat="42.77401684005093" lon="12.239854373807013"><ele>475.0</ele><time>2026-04-07T09:58:27Z</time></trkpt><trkpt lat="42.774200858445646" lon="12.239913723254247"><ele>479.6666666666667</ele><time>2026-04-07T09:58:28Z</time></trkpt><trkpt lat="42.77437172491963" lon="12.239997467610735"><ele>484.33333333333337</ele><time>2026-04-07T09:58:29Z</time></trkpt><trkpt lat="42.77453166384956" lon="12.240075835165964"><ele>489.0</ele><time>2026-04-07T09:58:30Z</time></trkpt><trkpt lat="42.77464057276701" lon="12.240272985652158"><ele>489.0</ele><time>2026-04-07T09:58:31Z</time></trkpt><trkpt lat="42.77477371653275" lon="12.24046411149799"><ele>489.0</ele><time>2026-04-07T09:58:32Z</time></trkpt><trkpt lat="42.77491377478648" lon="12.240664376070098"><ele>489.0</ele><time>2026-04-07T09:58:33Z</time></trkpt><trkpt lat="42.77508986873802" lon="12.240821391716864"><ele>492.0</ele><time>2026-04-07T09:58:34Z</time></trkpt><trkpt lat="42.775273703548464" lon="12.240952273935532"><ele>495.0</ele><time>2026-04-07T09:58:35Z</time></trkpt><trkpt lat="42.77545114790476" lon="12.241089141070999"><ele>498.0</ele><time>2026-04-07T09:58:36Z</time></trkpt><trkpt lat="42.77559225556911" lon="12.241276035352348"><ele>500.0</ele><time>2026-04-07T09:58:37Z</time></trkpt><trkpt lat="42.775747898293915" lon="12.241470093793662"><ele>502.0</ele><time>2026-04-07T09:58:38Z</time></trkpt><trkpt lat="42.77590444342703" lon="12.24167383203921"><ele>504.0</ele><time>2026-04-07T09:58:39Z</time></trkpt><trkpt lat="42.77607770575422" lon="12.241858368928176"><ele>504.0</ele><time>2026-04-07T09:58:40Z</time></trkpt><trkpt lat="42.77625525323798" lon="12.242030921949713"><ele>504.0</ele><time>2026-04-07T09:58:41Z</time></trkpt><trkpt lat="42.77642313617379" lon="12.24219020678772"><ele>504.0</ele><time>2026-04-07T09:58:42Z</time></trkpt><trkpt lat="42.77657958788886" lon="12.242343156153561"><ele>502.33333333333337</ele><time>2026-04-07T09:58:43Z</time></trkpt><trkpt lat="42.77672309390348" lon="12.242499872865054"><ele>500.6666666666667</ele><time>2026-04-07T09:58:44Z</time></trkpt><trkpt lat="42.776836297015755" lon="12.242697292336885"><ele>499.0</ele><time>2026-04-07T09:58:45Z</time></trkpt><trkpt lat="42.77692696574799" lon="12.242931882769858"><ele>502.0</ele><time>2026-04-07T09:58:46Z</time></trkpt><trkpt lat="42.77700632844115" lon="12.243165439536186"><ele>505.0</ele><time>2026-04-07T09:58:47Z</time></trkpt><trkpt lat="42.77708576851473" lon="12.243382747530065"><ele>508.0</ele><time>2026-04-07T09:58:48Z</time></trkpt><trkpt lat="42.777175573153876" lon="12.243568057558514"><ele>508.0</ele><time>2026-04-07T09:58:49Z</time></trkpt><trkpt lat="42.77729150687528" lon="12.243700176239244"><ele>508.0</ele><time>2026-04-07T09:58:50Z</time></trkpt><trkpt lat="42.77743670513249" lon="12.243763856121966"><ele>508.0</ele><time>2026-04-07T09:58:51Z</time></trkpt><trkpt lat="42.77760124352205" lon="12.243782611028411"><ele>510.0</ele><time>2026-04-07T09:58:52Z</time></trkpt><trkpt lat="42.77777578100797" lon="12.24380436000682"><ele>512.0</ele><time>2026-04-07T09:58:53Z</time></trkpt><trkpt lat="42.777944105459575" lon="12.24383153537337"><ele>514.0</ele><time>2026-04-07T09:58:54Z</time></trkpt><trkpt lat="42.77811292667049" lon="12.243883796197185"><ele>514.0</ele><time>2026-04-07T09:58:55Z</time></trkpt><trkpt lat="42.77826751623053" lon="12.243956441337899"><ele>514.0</ele><time>2026-04-07T09:58:56Z</time></trkpt><trkpt lat="42.778409213807464" lon="12.244034524381856"><ele>514.0</ele><time>2026-04-07T09:58:57Z</time></trkpt><trkpt lat="42.77853618911864" lon="12.244117231225076"><ele>514.3333333333334</ele><time>2026-04-07T09:58:58Z</time></trkpt><trkpt lat="42.77862452258524" lon="12.244275994950481"><ele>514.6666666666666</ele><time>2026-04-07T09:58:59Z</time></trkpt><trkpt lat="42.77866318717781" lon="12.244484291423356"><ele>515.0</ele><time>2026-04-07T09:59:00Z</time></trkpt><trkpt lat="42.77865711186334" lon="12.244718573092678"><ele>513.3333333333333</ele><time>2026-04-07T09:59:01Z</time></trkpt><trkpt lat="42.77865149282151" lon="12.244970060274277"><ele>511.66666666666663</ele><time>2026-04-07T09:59:02Z</time></trkpt><trkpt lat="42.77868671905682" lon="12.245218000665446"><ele>510.0</ele><time>2026-04-07T09:59:03Z</time></trkpt><trkpt lat="42.778791562712854" lon="12.245475140960146"><ele>510.5</ele><time>2026-04-07T09:59:04Z</time></trkpt><trkpt lat="42.778947508405736" lon="12.245731109681902"><ele>511.0</ele><time>2026-04-07T09:59:05Z</time></trkpt><trkpt lat="42.77911587460169" lon="12.245993620215556"><ele>511.0</ele><time>2026-04-07T09:59:06Z</time></trkpt><trkpt lat="42.77928308255287" lon="12.246258641731862"><ele>511.0</ele><time>2026-04-07T09:59:07Z</time></trkpt><trkpt lat="42.77944390166621" lon="12.246520445955179"><ele>509.0</ele><time>2026-04-07T09:59:08Z</time></trkpt><trkpt lat="42.77960413581422" lon="12.246785563387466"><ele>507.0</ele><time>2026-04-07T09:59:09Z</time></trkpt><trkpt lat="42.77977680552017" lon="12.247031397207275"><ele>507.0</ele><time>2026-04-07T09:59:10Z</time></trkpt><trkpt lat="42.77998438546565" lon="12.247239498157628"><ele>507.0</ele><time>2026-04-07T09:59:11Z</time></trkpt><trkpt lat="42.780215197840306" lon="12.247412908677637"><ele>510.5</ele><time>2026-04-07T09:59:12Z</time></trkpt><trkpt lat="42.78046831082309" lon="12.247561102634219"><ele>514.0</ele><time>2026-04-07T09:59:13Z</time></trkpt><trkpt lat="42.78072908313919" lon="12.247703001792777"><ele>514.0</ele><time>2026-04-07T09:59:14Z</time></trkpt><trkpt lat="42.780992458153754" lon="12.2478453751515"><ele>514.0</ele><time>2026-04-07T09:59:15Z</time></trkpt><trkpt lat="42.78125075369992" lon="12.24798375142573"><ele>510.5</ele><time>2026-04-07T09:59:16Z</time></trkpt><trkpt lat="42.78149556980551" lon="12.24811996747006"><ele>507.0</ele><time>2026-04-07T09:59:17Z</time></trkpt><trkpt lat="42.781729042068136" lon="12.248257103823136"><ele>512.0</ele><time>2026-04-07T09:59:18Z</time></trkpt><trkpt lat="42.781948859628294" lon="12.248401244297728"><ele>517.0</ele><time>2026-04-07T09:59:19Z</time></trkpt><trkpt lat="42.78214837836743" lon="12.248560376824638"><ele>517.0</ele><time>2026-04-07T09:59:20Z</time></trkpt><trkpt lat="42.78234226722938" lon="12.248724072333511"><ele>517.0</ele><time>2026-04-07T09:59:21Z</time></trkpt><trkpt lat="42.78253095792288" lon="12.248881552895908"><ele>517.0</ele><time>2026-04-07T09:59:22Z</time></trkpt><trkpt lat="42.782708927508466" lon="12.249048773304931"><ele>518.0</ele><time>2026-04-07T09:59:23Z</time></trkpt><trkpt lat="42.782876096067355" lon="12.24924193475761"><ele>519.0</ele><time>2026-04-07T09:59:24Z</time></trkpt><trkpt lat="42.78303340867153" lon="12.24947197509352"><ele>519.0</ele><time>2026-04-07T09:59:25Z</time></trkpt><trkpt lat="42.78318687843167" lon="12.249721400611195"><ele>519.0</ele><time>2026-04-07T09:59:26Z</time></trkpt><trkpt lat="42.783330650329056" lon="12.24995976425095"><ele>520.0</ele><time>2026-04-07T09:59:27Z</time></trkpt><trkpt lat="42.78346843436328" lon="12.250177993679479"><ele>521.0</ele><time>2026-04-07T09:59:28Z</time></trkpt><trkpt lat="42.783600080973095" lon="12.250372698564602"><ele>522.0</ele><time>2026-04-07T09:59:29Z</time></trkpt><trkpt lat="42.78374934876146" lon="12.250538869856747"><ele>524.6666666666666</ele><time>2026-04-07T09:59:30Z</time></trkpt><trkpt lat="42.783935540706764" lon="12.250647471389263"><ele>527.3333333333333</ele><time>2026-04-07T09:59:31Z</time></trkpt><trkpt lat="42.78414604204502" lon="12.250727963640077"><ele>530.0</ele><time>2026-04-07T09:59:32Z</time></trkpt><trkpt lat="42.78436500666483" lon="12.250809962862915"><ele>531.0</ele><time>2026-04-07T09:59:33Z</time></trkpt><trkpt lat="42.78458549549821" lon="12.250898210931128"><ele>532.0</ele><time>2026-04-07T09:59:34Z</time></trkpt><trkpt lat="42.78480681028131" lon="12.250987800179573"><ele>532.0</ele><time>2026-04-07T09:59:35Z</time></trkpt><trkpt lat="42.785026571809944" lon="12.251073283509925"><ele>532.0</ele><time>2026-04-07T09:59:36Z</time></trkpt><trkpt lat="42.78522981086482" lon="12.251154106632729"><ele>532.0</ele><time>2026-04-07T09:59:37Z</time></trkpt><trkpt lat="42.78541507895501" lon="12.251241827296726"><ele>532.3333333333334</ele><time>2026-04-07T09:59:38Z</time></trkpt><trkpt lat="42.78557853904937" lon="12.251370485882148"><ele>532.6666666666666</ele><time>2026-04-07T09:59:39Z</time></trkpt><trkpt lat="42.785726140906895" lon="12.25154594512633"><ele>533.0</ele><time>2026-04-07T09:59:40Z</time></trkpt><trkpt lat="42.78584923608259" lon="12.251723495855545"><ele>534.5</ele><time>2026-04-07T09:59:41Z</time></trkpt><trkpt lat="42.78595234853602" lon="12.251886427217825"><ele>536.0</ele><time>2026-04-07T09:59:42Z</time></trkpt><trkpt lat="42.786022167159615" lon="12.252039796491866"><ele>537.5</ele><time>2026-04-07T09:59:43Z</time></trkpt><trkpt lat="42.78603029076944" lon="12.252185148613759"><ele>539.0</ele><time>2026-04-07T09:59:44Z</time></trkpt><trkpt lat="42.785968770292044" lon="12.252310033702644"><ele>541.0</ele><time>2026-04-07T09:59:45Z</time></trkpt><trkpt lat="42.78584669248444" lon="12.25239776208467"><ele>543.0</ele><time>2026-04-07T09:59:46Z</time></trkpt><trkpt lat="42.7856824023269" lon="12.252447861793941"><ele>545.0</ele><time>2026-04-07T09:59:47Z</time></trkpt><trkpt lat="42.785491784872725" lon="12.252483865471456"><ele>545.0</ele><time>2026-04-07T09:59:48Z</time></trkpt><trkpt lat="42.78530560203803" lon="12.252542494765535"><ele>545.0</ele><time>2026-04-07T09:59:49Z</time></trkpt><trkpt lat="42.7851257189127" lon="12.252600412769018"><ele>545.0</ele><time>2026-04-07T09:59:50Z</time></trkpt><trkpt lat="42.78496338740766" lon="12.25267128252066"><ele>545.75</ele><time>2026-04-07T09:59:51Z</time></trkpt><trkpt lat="42.78484179448924" lon="12.252769275783622"><ele>546.5</ele><time>2026-04-07T09:59:52Z</time></trkpt><trkpt lat="42.78476550965053" lon="12.252899882862978"><ele>547.25</ele><time>2026-04-07T09:59:53Z</time></trkpt><trkpt lat="42.784748267888745" lon="12.253048345911623"><ele>548.0</ele><time>2026-04-07T09:59:54Z</time></trkpt><trkpt lat="42.784798513397604" lon="12.253193609239363"><ele>548.0</ele><time>2026-04-07T09:59:55Z</time></trkpt><trkpt lat="42.784907036631274" lon="12.253314620775647"><ele>548.0</ele><time>2026-04-07T09:59:56Z</time></trkpt><trkpt lat="42.78503551978451" lon="12.253420041356005"><ele>548.0</ele><time>2026-04-07T09:59:57Z</time></trkpt><trkpt lat="42.785111977388596" lon="12.253540690165261"><ele>548.0</ele><time>2026-04-07T09:59:58Z</time></trkpt><trkpt lat="42.78516443292402" lon="12.253670665608972"><ele>548.0</ele><time>2026-04-07T09:59:59Z</time></trkpt><trkpt lat="42.78515054984061" lon="12.253774291034196"><ele>548.0</ele><time>2026-04-07T10:00:00Z</time></trkpt><trkpt lat="42.785081556400286" lon="12.2538719660365"><ele>548.0</ele><time>2026-04-07T10:00:01Z</time></trkpt><trkpt lat="42.78495434602386" lon="12.25396172021557"><ele>548.0</ele><time>2026-04-07T10:00:02Z</time></trkpt><trkpt lat="42.784788403167546" lon="12.254049243515382"><ele>549.5</ele><time>2026-04-07T10:00:03Z</time></trkpt><trkpt lat="42.784610797388964" lon="12.25419680892727"><ele>551.0</ele><time>2026-04-07T10:00:04Z</time></trkpt><trkpt lat="42.78444061796797" lon="12.254447823661764"><ele>549.5</ele><time>2026-04-07T10:00:05Z</time></trkpt><trkpt lat="42.78426862992487" lon="12.254741823239497"><ele>548.0</ele><time>2026-04-07T10:00:06Z</time></trkpt><trkpt lat="42.78409929967311" lon="12.255017960750907"><ele>548.0</ele><time>2026-04-07T10:00:07Z</time></trkpt><trkpt lat="42.783930134450145" lon="12.25528606100712"><ele>548.0</ele><time>2026-04-07T10:00:08Z</time></trkpt><trkpt lat="42.78375933901016" lon="12.255557122255846"><ele>548.0</ele><time>2026-04-07T10:00:09Z</time></trkpt><trkpt lat="42.783590420170235" lon="12.25582352784518"><ele>548.0</ele><time>2026-04-07T10:00:10Z</time></trkpt><trkpt lat="42.78342922445025" lon="12.256081189006233"><ele>548.0</ele><time>2026-04-07T10:00:11Z</time></trkpt><trkpt lat="42.783276602832935" lon="12.256322274647115"><ele>548.0</ele><time>2026-04-07T10:00:12Z</time></trkpt><trkpt lat="42.7831319611833" lon="12.256542945555994"><ele>548.3333333333333</ele><time>2026-04-07T10:00:13Z</time></trkpt><trkpt lat="42.78299297703708" lon="12.256746717310898"><ele>548.6666666666666</ele><time>2026-04-07T10:00:14Z</time></trkpt><trkpt lat="42.78284208779629" lon="12.256911299028111"><ele>549.0</ele><time>2026-04-07T10:00:15Z</time></trkpt><trkpt lat="42.78266804523571" lon="12.257006438562277"><ele>548.0</ele><time>2026-04-07T10:00:16Z</time></trkpt><trkpt lat="42.78249965395777" lon="12.257076410413385"><ele>547.0</ele><time>2026-04-07T10:00:17Z</time></trkpt><trkpt lat="42.782355515348804" lon="12.25715169924003"><ele>546.0</ele><time>2026-04-07T10:00:18Z</time></trkpt><trkpt lat="42.78224006664186" lon="12.257233954006795"><ele>546.5</ele><time>2026-04-07T10:00:19Z</time></trkpt><trkpt lat="42.78216781915812" lon="12.257353511196143"><ele>547.0</ele><time>2026-04-07T10:00:20Z</time></trkpt><trkpt lat="42.782162124892075" lon="12.257533120931498"><ele>547.5</ele><time>2026-04-07T10:00:21Z</time></trkpt><trkpt lat="42.7822340553695" lon="12.257767697973456"><ele>548.0</ele><time>2026-04-07T10:00:22Z</time></trkpt><trkpt lat="42.78232018937243" lon="12.25795911941023"><ele>549.0</ele><time>2026-04-07T10:00:23Z</time></trkpt><trkpt lat="42.78242964385809" lon="12.258209020288929"><ele>550.0</ele><time>2026-04-07T10:00:24Z</time></trkpt><trkpt lat="42.78253156809036" lon="12.258370881324252"><ele>551.0</ele><time>2026-04-07T10:00:25Z</time></trkpt><trkpt lat="42.782667705468434" lon="12.2584306934904"><ele>549.0</ele><time>2026-04-07T10:00:26Z</time></trkpt><trkpt lat="42.78282528461373" lon="12.25845545138722"><ele>547.0</ele><time>2026-04-07T10:00:27Z</time></trkpt><trkpt lat="42.782993039714434" lon="12.258382290168814"><ele>545.0</ele><time>2026-04-07T10:00:28Z</time></trkpt><trkpt lat="42.78314960930283" lon="12.258423605454954"><ele>545.0</ele><time>2026-04-07T10:00:29Z</time></trkpt><trkpt lat="42.78328198297594" lon="12.258578714302212"><ele>545.0</ele><time>2026-04-07T10:00:30Z</time></trkpt><trkpt lat="42.78341733975295" lon="12.258783779915136"><ele>545.0</ele><time>2026-04-07T10:00:31Z</time></trkpt><trkpt lat="42.78350898206727" lon="12.258945902438537"><ele>546.0</ele><time>2026-04-07T10:00:32Z</time></trkpt><trkpt lat="42.78355972402077" lon="12.259132791603374"><ele>547.0</ele><time>2026-04-07T10:00:33Z</time></trkpt><trkpt lat="42.78351644470081" lon="12.259292092569245"><ele>548.0</ele><time>2026-04-07T10:00:34Z</time></trkpt><trkpt lat="42.78341947711148" lon="12.259525793919854"><ele>548.0</ele><time>2026-04-07T10:00:35Z</time></trkpt><trkpt lat="42.78334615562148" lon="12.259765030738787"><ele>548.0</ele><time>2026-04-07T10:00:36Z</time></trkpt><trkpt lat="42.783260732761654" lon="12.260063020605692"><ele>548.0</ele><time>2026-04-07T10:00:37Z</time></trkpt><trkpt lat="42.783205366398356" lon="12.260352484671792"><ele>543.6666666666666</ele><time>2026-04-07T10:00:38Z</time></trkpt><trkpt lat="42.78320350710468" lon="12.260641964855415"><ele>539.3333333333334</ele><time>2026-04-07T10:00:39Z</time></trkpt><trkpt lat="42.7832285164596" lon="12.260911640719131"><ele>535.0</ele><time>2026-04-07T10:00:40Z</time></trkpt><trkpt lat="42.78325331763891" lon="12.261143491061866"><ele>535.0</ele><time>2026-04-07T10:00:41Z</time></trkpt><trkpt lat="42.78327844236774" lon="12.261308807289103"><ele>535.0</ele><time>2026-04-07T10:00:42Z</time></trkpt><trkpt lat="42.7833808982768" lon="12.261472715073714"><ele>535.0</ele><time>2026-04-07T10:00:43Z</time></trkpt><trkpt lat="42.78355452678224" lon="12.261574511908531"><ele>534.5</ele><time>2026-04-07T10:00:44Z</time></trkpt><trkpt lat="42.783798921243935" lon="12.26158202669812"><ele>534.0</ele><time>2026-04-07T10:00:45Z</time></trkpt><trkpt lat="42.78400248953795" lon="12.261660834041152"><ele>534.0</ele><time>2026-04-07T10:00:46Z</time></trkpt><trkpt lat="42.78415392080085" lon="12.261794335179339"><ele>534.0</ele><time>2026-04-07T10:00:47Z</time></trkpt><trkpt lat="42.78425344742565" lon="12.261965268895809"><ele>534.0</ele><time>2026-04-07T10:00:48Z</time></trkpt><trkpt lat="42.78436294400648" lon="12.262161631788224"><ele>532.3333333333334</ele><time>2026-04-07T10:00:49Z</time></trkpt><trkpt lat="42.78446462231572" lon="12.26241707427185"><ele>530.6666666666667</ele><time>2026-04-07T10:00:50Z</time></trkpt><trkpt lat="42.78453028562413" lon="12.262679996161767"><ele>529.0</ele><time>2026-04-07T10:00:51Z</time></trkpt><trkpt lat="42.78456191673263" lon="12.262937973806633"><ele>530.3333333333334</ele><time>2026-04-07T10:00:52Z</time></trkpt><trkpt lat="42.78458468619209" lon="12.263215271736803"><ele>531.6666666666666</ele><time>2026-04-07T10:00:53Z</time></trkpt><trkpt lat="42.78455996328966" lon="12.263492821173582"><ele>533.0</ele><time>2026-04-07T10:00:54Z</time></trkpt><trkpt lat="42.78452900533815" lon="12.263777865679847"><ele>533.3333333333333</ele><time>2026-04-07T10:00:55Z</time></trkpt><trkpt lat="42.78450646777749" lon="12.264053892040696"><ele>533.6666666666666</ele><time>2026-04-07T10:00:56Z</time></trkpt><trkpt lat="42.7844853597544" lon="12.26433829667686"><ele>534.0</ele><time>2026-04-07T10:00:57Z</time></trkpt><trkpt lat="42.78444349236" lon="12.26459543540377"><ele>534.3333333333334</ele><time>2026-04-07T10:00:58Z</time></trkpt><trkpt lat="42.78438533596243" lon="12.264845708434668"><ele>534.6666666666667</ele><time>2026-04-07T10:00:59Z</time></trkpt><trkpt lat="42.78432667222493" lon="12.265069697729773"><ele>535.0</ele><time>2026-04-07T10:01:00Z</time></trkpt><trkpt lat="42.78428052965684" lon="12.265290100273145"><ele>535.0</ele><time>2026-04-07T10:01:01Z</time></trkpt><trkpt lat="42.784239387960966" lon="12.265483818767601"><ele>535.0</ele><time>2026-04-07T10:01:02Z</time></trkpt><trkpt lat="42.78419495772133" lon="12.26569027133832"><ele>535.0</ele><time>2026-04-07T10:01:03Z</time></trkpt><trkpt lat="42.784158537424474" lon="12.265871981864564"><ele>535.0</ele><time>2026-04-07T10:01:04Z</time></trkpt><trkpt lat="42.78413584913044" lon="12.266019946206393"><ele>533.4</ele><time>2026-04-07T10:01:05Z</time></trkpt><trkpt lat="42.784120666607244" lon="12.266164864605967"><ele>531.8</ele><time>2026-04-07T10:01:06Z</time></trkpt><trkpt lat="42.78414544655743" lon="12.26629750533987"><ele>530.2</ele><time>2026-04-07T10:01:07Z</time></trkpt><trkpt lat="42.78422336027874" lon="12.26640370292519"><ele>528.6</ele><time>2026-04-07T10:01:08Z</time></trkpt><trkpt lat="42.784319463697315" lon="12.266474599818778"><ele>527.0</ele><time>2026-04-07T10:01:09Z</time></trkpt><trkpt lat="42.78440106743703" lon="12.266540274182233"><ele>526.1666666666666</ele><time>2026-04-07T10:01:10Z</time></trkpt><trkpt lat="42.78447594003997" lon="12.266604943852565"><ele>525.3333333333333</ele><time>2026-04-07T10:01:11Z</time></trkpt><trkpt lat="42.78453889360387" lon="12.266665546933426"><ele>524.5</ele><time>2026-04-07T10:01:12Z</time></trkpt><trkpt lat="42.78457558567475" lon="12.266740882735645"><ele>523.6666666666666</ele><time>2026-04-07T10:01:13Z</time></trkpt><trkpt lat="42.78455975175464" lon="12.266838172471113"><ele>522.8333333333334</ele><time>2026-04-07T10:01:14Z</time></trkpt><trkpt lat="42.784489530910626" lon="12.266908024711192"><ele>522.0</ele><time>2026-04-07T10:01:15Z</time></trkpt><trkpt lat="42.78439068158143" lon="12.266932898670786"><ele>520.5</ele><time>2026-04-07T10:01:16Z</time></trkpt><trkpt lat="42.784284290702274" lon="12.2669430799325"><ele>519.0</ele><time>2026-04-07T10:01:17Z</time></trkpt><trkpt lat="42.784165615790485" lon="12.266965884873034"><ele>517.5</ele><time>2026-04-07T10:01:18Z</time></trkpt><trkpt lat="42.78404505670553" lon="12.267018645766472"><ele>516.0</ele><time>2026-04-07T10:01:19Z</time></trkpt><trkpt lat="42.783930592016624" lon="12.267062746526754"><ele>516.0</ele><time>2026-04-07T10:01:20Z</time></trkpt><trkpt lat="42.78383349879056" lon="12.2671092262925"><ele>516.0</ele><time>2026-04-07T10:01:21Z</time></trkpt><trkpt lat="42.78375158245201" lon="12.267169687183243"><ele>516.0</ele><time>2026-04-07T10:01:22Z</time></trkpt><trkpt lat="42.78368777394474" lon="12.267259088046327"><ele>516.0</ele><time>2026-04-07T10:01:23Z</time></trkpt><trkpt lat="42.78364402907453" lon="12.267365593177576"><ele>516.0</ele><time>2026-04-07T10:01:24Z</time></trkpt><trkpt lat="42.783632218280225" lon="12.267487163111028"><ele>514.8</ele><time>2026-04-07T10:01:25Z</time></trkpt><trkpt lat="42.783673473634806" lon="12.26760142457746"><ele>513.6</ele><time>2026-04-07T10:01:26Z</time></trkpt><trkpt lat="42.78375531172179" lon="12.267681561353125"><ele>512.4</ele><time>2026-04-07T10:01:27Z</time></trkpt><trkpt lat="42.783845095098116" lon="12.267735833825926"><ele>511.2</ele><time>2026-04-07T10:01:28Z</time></trkpt><trkpt lat="42.783937719153414" lon="12.267782429245019"><ele>510.0</ele><time>2026-04-07T10:01:29Z</time></trkpt><trkpt lat="42.78401905717074" lon="12.267831853867966"><ele>510.0</ele><time>2026-04-07T10:01:30Z</time></trkpt><trkpt lat="42.78408737623912" lon="12.267900781008448"><ele>510.0</ele><time>2026-04-07T10:01:31Z</time></trkpt><trkpt lat="42.78412240147445" lon="12.267995695875868"><ele>510.0</ele><time>2026-04-07T10:01:32Z</time></trkpt><trkpt lat="42.7841227478091" lon="12.2680853765835"><ele>510.0</ele><time>2026-04-07T10:01:33Z</time></trkpt><trkpt lat="42.78408159611941" lon="12.268187236539355"><ele>505.0</ele><time>2026-04-07T10:01:35Z</time></trkpt></trkseg><trkseg><trkpt lat="42.78403960568363" lon="12.268323916626475"><ele>505.0</ele><time>2026-04-07T10:29:20.001Z</time></trkpt><trkpt lat="42.78394724734659" lon="12.268474647915204"><ele>505.0</ele><time>2026-04-07T10:29:22.001Z</time></trkpt><trkpt lat="42.783883499035625" lon="12.268565730891769"><ele>505.0</ele><time>2026-04-07T10:29:23.001Z</time></trkpt><trkpt lat="42.78382909051586" lon="12.268658061081936"><ele>505.0</ele><time>2026-04-07T10:29:24.001Z</time></trkpt><trkpt lat="42.78377720129461" lon="12.26874626780708"><ele>505.0</ele><time>2026-04-07T10:29:25.001Z</time></trkpt><trkpt lat="42.78369799372865" lon="12.268826140071658"><ele>505.0</ele><time>2026-04-07T10:29:26.001Z</time></trkpt><trkpt lat="42.78364751768082" lon="12.268937432575186"><ele>505.0</ele><time>2026-04-07T10:29:27.001Z</time></trkpt><trkpt lat="42.783585508015044" lon="12.269040996465181"><ele>505.0</ele><time>2026-04-07T10:29:28.001Z</time></trkpt><trkpt lat="42.783546305330816" lon="12.269162332760079"><ele>505.0</ele><time>2026-04-07T10:29:29.001Z</time></trkpt><trkpt lat="42.78353691139026" lon="12.269310935300423"><ele>505.0</ele><time>2026-04-07T10:29:30.001Z</time></trkpt><trkpt lat="42.783585789234394" lon="12.26946143314779"><ele>506.25</ele><time>2026-04-07T10:29:31.001Z</time></trkpt><trkpt lat="42.783677876063926" lon="12.269590095332754"><ele>507.5</ele><time>2026-04-07T10:29:32.001Z</time></trkpt><trkpt lat="42.783774138350566" lon="12.26971478263912"><ele>508.75</ele><time>2026-04-07T10:29:33.001Z</time></trkpt><trkpt lat="42.783867665892984" lon="12.269844919646383"><ele>510.0</ele><time>2026-04-07T10:29:34.001Z</time></trkpt><trkpt lat="42.78392757756449" lon="12.270004087604155"><ele>511.0</ele><time>2026-04-07T10:29:35.001Z</time></trkpt><trkpt lat="42.78398228927042" lon="12.27016024599993"><ele>512.0</ele><time>2026-04-07T10:29:36.001Z</time></trkpt><trkpt lat="42.78402848141007" lon="12.270322181339148"><ele>513.0</ele><time>2026-04-07T10:29:37.001Z</time></trkpt><trkpt lat="42.78407670462193" lon="12.270487245579181"><ele>514.0</ele><time>2026-04-07T10:29:38.001Z</time></trkpt><trkpt lat="42.78414385415238" lon="12.270633631113157"><ele>514.25</ele><time>2026-04-07T10:29:39.001Z</time></trkpt><trkpt lat="42.78420520601392" lon="12.27077895093197"><ele>514.5</ele><time>2026-04-07T10:29:40.001Z</time></trkpt><trkpt lat="42.78427780015511" lon="12.270914390613006"><ele>514.75</ele><time>2026-04-07T10:29:41.001Z</time></trkpt><trkpt lat="42.78436313953069" lon="12.271041917711866"><ele>515.0</ele><time>2026-04-07T10:29:42.001Z</time></trkpt><trkpt lat="42.78444124506285" lon="12.271181275821384"><ele>516.8</ele><time>2026-04-07T10:29:43.001Z</time></trkpt><trkpt lat="42.78451464502847" lon="12.271315834825163"><ele>518.6</ele><time>2026-04-07T10:29:44.001Z</time></trkpt><trkpt lat="42.78455745394249" lon="12.27145126659176"><ele>520.4</ele><time>2026-04-07T10:29:45.001Z</time></trkpt><trkpt lat="42.78454204798843" lon="12.271583181977379"><ele>522.2</ele><time>2026-04-07T10:29:46.001Z</time></trkpt><trkpt lat="42.78451007721794" lon="12.271708898013506"><ele>524.0</ele><time>2026-04-07T10:29:47.001Z</time></trkpt><trkpt lat="42.784462327163155" lon="12.271865052279168"><ele>524.0</ele><time>2026-04-07T10:29:48.001Z</time></trkpt><trkpt lat="42.784389846228265" lon="12.272032976201878"><ele>524.0</ele><time>2026-04-07T10:29:49.001Z</time></trkpt><trkpt lat="42.78431675629551" lon="12.27222609394253"><ele>524.0</ele><time>2026-04-07T10:29:50.001Z</time></trkpt><trkpt lat="42.78422777126896" lon="12.272410228120865"><ele>524.0</ele><time>2026-04-07T10:29:51.001Z</time></trkpt><trkpt lat="42.784150717340935" lon="12.27258786255338"><ele>524.0</ele><time>2026-04-07T10:29:52.001Z</time></trkpt><trkpt lat="42.7840885599097" lon="12.272768469239606"><ele>524.0</ele><time>2026-04-07T10:29:53.001Z</time></trkpt><trkpt lat="42.78405210799154" lon="12.272953343597946"><ele>524.0</ele><time>2026-04-07T10:29:54.001Z</time></trkpt><trkpt lat="42.78405169449196" lon="12.273148290015882"><ele>524.6666666666666</ele><time>2026-04-07T10:29:55.001Z</time></trkpt><trkpt lat="42.7840773339596" lon="12.273367117121989"><ele>525.3333333333334</ele><time>2026-04-07T10:29:56.001Z</time></trkpt><trkpt lat="42.78411383905257" lon="12.273608169224651"><ele>526.0</ele><time>2026-04-07T10:29:57.001Z</time></trkpt><trkpt lat="42.78413136394897" lon="12.273870064767491"><ele>526.6666666666667</ele><time>2026-04-07T10:29:58.001Z</time></trkpt><trkpt lat="42.784163454494056" lon="12.274133847755817"><ele>527.3333333333334</ele><time>2026-04-07T10:29:59.001Z</time></trkpt><trkpt lat="42.78419517606111" lon="12.274394918563388"><ele>528.0</ele><time>2026-04-07T10:30:00.001Z</time></trkpt><trkpt lat="42.784220346482016" lon="12.27461917998791"><ele>528.8</ele><time>2026-04-07T10:30:01.001Z</time></trkpt><trkpt lat="42.784238717344664" lon="12.274802850774426"><ele>529.5999999999999</ele><time>2026-04-07T10:30:02.001Z</time></trkpt><trkpt lat="42.784265270362155" lon="12.274965735019686"><ele>530.4000000000001</ele><time>2026-04-07T10:30:03.001Z</time></trkpt><trkpt lat="42.784269696769435" lon="12.275102513381038"><ele>531.2</ele><time>2026-04-07T10:30:04.001Z</time></trkpt><trkpt lat="42.784274865931195" lon="12.275222371087652"><ele>532.0</ele><time>2026-04-07T10:30:05.001Z</time></trkpt><trkpt lat="42.784279288383466" lon="12.27534449035969"><ele>532.0</ele><time>2026-04-07T10:30:06.001Z</time></trkpt><trkpt lat="42.78428503183545" lon="12.275463730361265"><ele>532.0</ele><time>2026-04-07T10:30:07.001Z</time></trkpt><trkpt lat="42.78428105848327" lon="12.275584700705062"><ele>532.0</ele><time>2026-04-07T10:30:08.001Z</time></trkpt><trkpt lat="42.784282545012076" lon="12.275699092244267"><ele>532.0</ele><time>2026-04-07T10:30:09.001Z</time></trkpt><trkpt lat="42.78427197347151" lon="12.275803937711084"><ele>532.0</ele><time>2026-04-07T10:30:10.001Z</time></trkpt><trkpt lat="42.78425028865063" lon="12.275951977535428"><ele>532.0</ele><time>2026-04-07T10:30:12.001Z</time></trkpt><trkpt lat="42.78424277106938" lon="12.27604244813125"><ele>532.0</ele><time>2026-04-07T10:30:14Z</time></trkpt><trkpt lat="42.78423475848926" lon="12.276136491617516"><ele>532.0</ele><time>2026-04-07T10:31:06.001Z</time></trkpt><trkpt lat="42.78422599060463" lon="12.276239400106409"><ele>532.0</ele><time>2026-04-07T10:31:08.001Z</time></trkpt><trkpt lat="42.78422295923709" lon="12.276409078327855"><ele>532.0</ele><time>2026-04-07T10:31:10.001Z</time></trkpt><trkpt lat="42.78421004240159" lon="12.27650501438152"><ele>532.0</ele><time>2026-04-07T10:31:11.001Z</time></trkpt><trkpt lat="42.78420856137676" lon="12.276618659121796"><ele>532.0</ele><time>2026-04-07T10:31:12.001Z</time></trkpt><trkpt lat="42.784185910110246" lon="12.276699757808093"><ele>532.0</ele><time>2026-04-07T10:31:13.001Z</time></trkpt><trkpt lat="42.784170819350116" lon="12.276856491244608"><ele>532.0</ele><time>2026-04-07T10:31:14.001Z</time></trkpt><trkpt lat="42.78415568874949" lon="12.276984924305417"><ele>532.0</ele><time>2026-04-07T10:31:15.001Z</time></trkpt><trkpt lat="42.7841349236829" lon="12.277111003628221"><ele>532.0</ele><time>2026-04-07T10:31:16.001Z</time></trkpt><trkpt lat="42.78410110311055" lon="12.27727366098316"><ele>532.0</ele><time>2026-04-07T10:31:17.001Z</time></trkpt><trkpt lat="42.78405437043286" lon="12.27744782519493"><ele>533.5</ele><time>2026-04-07T10:31:18.001Z</time></trkpt><trkpt lat="42.783987973599444" lon="12.277582461468008"><ele>535.0</ele><time>2026-04-07T10:31:19.001Z</time></trkpt><trkpt lat="42.78391322327458" lon="12.277710203414923"><ele>536.5</ele><time>2026-04-07T10:31:20.001Z</time></trkpt><trkpt lat="42.7838268531838" lon="12.277811088819279"><ele>538.0</ele><time>2026-04-07T10:31:21.001Z</time></trkpt><trkpt lat="42.78371908129267" lon="12.277822817403603"><ele>538.0</ele><time>2026-04-07T10:31:22.001Z</time></trkpt><trkpt lat="42.78362416112252" lon="12.277815074406831"><ele>538.0</ele><time>2026-04-07T10:31:23.001Z</time></trkpt><trkpt lat="42.78352023106194" lon="12.277802083084826"><ele>538.0</ele><time>2026-04-07T10:31:24.001Z</time></trkpt><trkpt lat="42.78342680038638" lon="12.277768186659346"><ele>538.0</ele><time>2026-04-07T10:31:25.001Z</time></trkpt><trkpt lat="42.78333032922155" lon="12.277743604611699"><ele>538.0</ele><time>2026-04-07T10:31:26Z</time></trkpt><trkpt lat="42.783231058112705" lon="12.277714335066742"><ele>538.1999999999999</ele><time>2026-04-07T10:31:27Z</time></trkpt><trkpt lat="42.78314455013731" lon="12.277719479573015"><ele>538.4</ele><time>2026-04-07T10:31:28Z</time></trkpt><trkpt lat="42.78305737978996" lon="12.27777600337079"><ele>538.5999999999999</ele><time>2026-04-07T10:31:29Z</time></trkpt><trkpt lat="42.78300534153623" lon="12.277892327985057"><ele>538.8</ele><time>2026-04-07T10:31:30Z</time></trkpt><trkpt lat="42.78298191442814" lon="12.278022315440898"><ele>539.0</ele><time>2026-04-07T10:31:31Z</time></trkpt><trkpt lat="42.7829874974828" lon="12.278164468834998"><ele>540.5</ele><time>2026-04-07T10:31:32Z</time></trkpt><trkpt lat="42.78302749917782" lon="12.278318287841065"><ele>542.0</ele><time>2026-04-07T10:31:33Z</time></trkpt><trkpt lat="42.783092874283945" lon="12.278481174720575"><ele>543.5</ele><time>2026-04-07T10:31:34Z</time></trkpt><trkpt lat="42.783161988845244" lon="12.278662642410495"><ele>545.0</ele><time>2026-04-07T10:31:35Z</time></trkpt><trkpt lat="42.78322699418656" lon="12.278867674941056"><ele>544.0</ele><time>2026-04-07T10:31:36Z</time></trkpt><trkpt lat="42.78327539690387" lon="12.279093303275683"><ele>543.0</ele><time>2026-04-07T10:31:37Z</time></trkpt><trkpt lat="42.78334037789893" lon="12.27930270529402"><ele>542.0</ele><time>2026-04-07T10:31:38Z</time></trkpt><trkpt lat="42.78341072967603" lon="12.279521780509484"><ele>542.0</ele><time>2026-04-07T10:31:39Z</time></trkpt><trkpt lat="42.78348168053184" lon="12.279741149853084"><ele>542.0</ele><time>2026-04-07T10:31:40Z</time></trkpt><trkpt lat="42.78355260147402" lon="12.279962336621951"><ele>542.0</ele><time>2026-04-07T10:31:41Z</time></trkpt><trkpt lat="42.783621373686586" lon="12.280178631828575"><ele>542.5</ele><time>2026-04-07T10:31:42Z</time></trkpt><trkpt lat="42.78368718731369" lon="12.280385622007934"><ele>543.0</ele><time>2026-04-07T10:31:43Z</time></trkpt><trkpt lat="42.78374886538759" lon="12.280573810511745"><ele>543.5</ele><time>2026-04-07T10:31:44Z</time></trkpt><trkpt lat="42.78379567890043" lon="12.280730325588209"><ele>544.0</ele><time>2026-04-07T10:31:45Z</time></trkpt><trkpt lat="42.783820506050574" lon="12.280858084448687"><ele>543.0</ele><time>2026-04-07T10:31:46Z</time></trkpt><trkpt lat="42.78379539799148" lon="12.280964300636866"><ele>542.0</ele><time>2026-04-07T10:31:47Z</time></trkpt><trkpt lat="42.78372385214811" lon="12.281049686404407"><ele>541.0</ele><time>2026-04-07T10:31:48Z</time></trkpt><trkpt lat="42.783571983489175" lon="12.281065650042857"><ele>540.0</ele><time>2026-04-07T10:31:49Z</time></trkpt><trkpt lat="42.78340046463175" lon="12.28113594952936"><ele>539.0</ele><time>2026-04-07T10:31:50Z</time></trkpt><trkpt lat="42.783198624838356" lon="12.281201245983041"><ele>538.0</ele><time>2026-04-07T10:31:51Z</time></trkpt><trkpt lat="42.78298054686787" lon="12.281281368829944"><ele>537.0</ele><time>2026-04-07T10:31:52Z</time></trkpt><trkpt lat="42.78276627726639" lon="12.281360736659837"><ele>534.6666666666666</ele><time>2026-04-07T10:31:53Z</time></trkpt><trkpt lat="42.782572321334015" lon="12.281434143193271"><ele>532.3333333333333</ele><time>2026-04-07T10:31:54Z</time></trkpt><trkpt lat="42.78241204366811" lon="12.281525290930599"><ele>530.0</ele><time>2026-04-07T10:31:55Z</time></trkpt><trkpt lat="42.78229532087405" lon="12.281671344585437"><ele>530.0</ele><time>2026-04-07T10:31:56Z</time></trkpt><trkpt lat="42.782243137268736" lon="12.28185844454013"><ele>530.0</ele><time>2026-04-07T10:31:57Z</time></trkpt><trkpt lat="42.78226924021261" lon="12.282071285040349"><ele>530.0</ele><time>2026-04-07T10:31:58Z</time></trkpt><trkpt lat="42.78234715997693" lon="12.282337291923918"><ele>529.0</ele><time>2026-04-07T10:31:59Z</time></trkpt><trkpt lat="42.78241663399379" lon="12.282632238884194"><ele>528.0</ele><time>2026-04-07T10:32:00Z</time></trkpt><trkpt lat="42.7824938872342" lon="12.282962373143997"><ele>527.5</ele><time>2026-04-07T10:32:01Z</time></trkpt><trkpt lat="42.7825765656572" lon="12.28331365918911"><ele>527.0</ele><time>2026-04-07T10:32:02Z</time></trkpt><trkpt lat="42.78263331626852" lon="12.283640380065126"><ele>527.6666666666666</ele><time>2026-04-07T10:32:03Z</time></trkpt><trkpt lat="42.78267437287796" lon="12.28395111965904"><ele>528.3333333333334</ele><time>2026-04-07T10:32:04Z</time></trkpt><trkpt lat="42.78270510810336" lon="12.284207454535778"><ele>529.0</ele><time>2026-04-07T10:32:05Z</time></trkpt><trkpt lat="42.78272597297429" lon="12.284422603207107"><ele>529.0</ele><time>2026-04-07T10:32:06Z</time></trkpt><trkpt lat="42.782725645471885" lon="12.28459088940049"><ele>529.0</ele><time>2026-04-07T10:32:07Z</time></trkpt><trkpt lat="42.78268298351009" lon="12.284696412020493"><ele>529.0</ele><time>2026-04-07T10:32:08Z</time></trkpt><trkpt lat="42.782584464096395" lon="12.2847420497116"><ele>529.0</ele><time>2026-04-07T10:32:09Z</time></trkpt><trkpt lat="42.7824510550165" lon="12.284723179498377"><ele>529.3333333333334</ele><time>2026-04-07T10:32:10Z</time></trkpt><trkpt lat="42.7822702985311" lon="12.284715563769396"><ele>529.6666666666666</ele><time>2026-04-07T10:32:11Z</time></trkpt><trkpt lat="42.78206253707414" lon="12.284675125738927"><ele>530.0</ele><time>2026-04-07T10:32:12Z</time></trkpt><trkpt lat="42.78184255000015" lon="12.284641488537478"><ele>530.3333333333333</ele><time>2026-04-07T10:32:13Z</time></trkpt><trkpt lat="42.78164523566161" lon="12.284645047819694"><ele>530.6666666666666</ele><time>2026-04-07T10:32:14Z</time></trkpt><trkpt lat="42.781461678220644" lon="12.284745629948215"><ele>531.0</ele><time>2026-04-07T10:32:15Z</time></trkpt><trkpt lat="42.78126851809429" lon="12.284963476222234"><ele>532.5</ele><time>2026-04-07T10:32:16Z</time></trkpt><trkpt lat="42.781080624405526" lon="12.285253863134866"><ele>534.0</ele><time>2026-04-07T10:32:17Z</time></trkpt><trkpt lat="42.780912155541905" lon="12.285548077960014"><ele>535.5</ele><time>2026-04-07T10:32:18Z</time></trkpt><trkpt lat="42.78077096267064" lon="12.285824590718947"><ele>537.0</ele><time>2026-04-07T10:32:19Z</time></trkpt><trkpt lat="42.7806697142334" lon="12.28609570264305"><ele>537.0</ele><time>2026-04-07T10:32:20Z</time></trkpt><trkpt lat="42.78060630247363" lon="12.2863743989176"><ele>537.0</ele><time>2026-04-07T10:32:21Z</time></trkpt><trkpt lat="42.78058216979444" lon="12.286654362913387"><ele>537.0</ele><time>2026-04-07T10:32:22Z</time></trkpt><trkpt lat="42.78059530936259" lon="12.286935286364779"><ele>537.6666666666666</ele><time>2026-04-07T10:32:23Z</time></trkpt><trkpt lat="42.78063890710803" lon="12.287220242885365"><ele>538.3333333333333</ele><time>2026-04-07T10:32:24Z</time></trkpt><trkpt lat="42.780709834124025" lon="12.287500940690315"><ele>539.0</ele><time>2026-04-07T10:32:25Z</time></trkpt><trkpt lat="42.780789822234624" lon="12.287768461864824"><ele>541.0</ele><time>2026-04-07T10:32:26Z</time></trkpt><trkpt lat="42.780837081958445" lon="12.288023988162706"><ele>543.0</ele><time>2026-04-07T10:32:27Z</time></trkpt><trkpt lat="42.78089146232626" lon="12.288248126614123"><ele>545.0</ele><time>2026-04-07T10:32:28Z</time></trkpt><trkpt lat="42.78092732540304" lon="12.288429472484433"><ele>545.8</ele><time>2026-04-07T10:32:29Z</time></trkpt><trkpt lat="42.78094134957988" lon="12.288563633955874"><ele>546.6</ele><time>2026-04-07T10:32:30Z</time></trkpt><trkpt lat="42.78091725422515" lon="12.28866679687275"><ele>547.4</ele><time>2026-04-07T10:32:31Z</time></trkpt><trkpt lat="42.78082173037797" lon="12.288714088434144"><ele>548.2</ele><time>2026-04-07T10:32:32Z</time></trkpt><trkpt lat="42.780706776575876" lon="12.288622909215468"><ele>549.0</ele><time>2026-04-07T10:32:33Z</time></trkpt><trkpt lat="42.78061486883307" lon="12.288484707222178"><ele>549.0</ele><time>2026-04-07T10:32:34Z</time></trkpt><trkpt lat="42.780499096924295" lon="12.288361195645109"><ele>549.0</ele><time>2026-04-07T10:32:35Z</time></trkpt><trkpt lat="42.78036649705735" lon="12.288165467162099"><ele>549.0</ele><time>2026-04-07T10:32:36Z</time></trkpt><trkpt lat="42.78023108734727" lon="12.288017498032541"><ele>548.25</ele><time>2026-04-07T10:32:37Z</time></trkpt><trkpt lat="42.780117681230266" lon="12.287997627478918"><ele>547.5</ele><time>2026-04-07T10:32:38Z</time></trkpt><trkpt lat="42.78004754148185" lon="12.288114390611986"><ele>546.75</ele><time>2026-04-07T10:32:39Z</time></trkpt><trkpt lat="42.780033348988034" lon="12.288238154130411"><ele>546.0</ele><time>2026-04-07T10:32:40Z</time></trkpt><trkpt lat="42.78006520360139" lon="12.28843663394679"><ele>547.0</ele><time>2026-04-07T10:32:41Z</time></trkpt><trkpt lat="42.78013167358946" lon="12.288611645714406"><ele>548.0</ele><time>2026-04-07T10:32:42Z</time></trkpt><trkpt lat="42.7802212392842" lon="12.288860491472315"><ele>549.0</ele><time>2026-04-07T10:32:43Z</time></trkpt><trkpt lat="42.78031768131936" lon="12.289187216541372"><ele>551.5</ele><time>2026-04-07T10:32:44Z</time></trkpt><trkpt lat="42.780450719807014" lon="12.289477709629905"><ele>554.0</ele><time>2026-04-07T10:32:45Z</time></trkpt><trkpt lat="42.780616522121136" lon="12.289731478867413"><ele>555.3333333333333</ele><time>2026-04-07T10:32:46Z</time></trkpt><trkpt lat="42.780739567203824" lon="12.290011270080687"><ele>556.6666666666666</ele><time>2026-04-07T10:32:47Z</time></trkpt><trkpt lat="42.780804471826656" lon="12.29022584550254"><ele>558.0</ele><time>2026-04-07T10:32:48Z</time></trkpt><trkpt lat="42.78084825494129" lon="12.290512113747164"><ele>560.0</ele><time>2026-04-07T10:32:49Z</time></trkpt><trkpt lat="42.780895370780755" lon="12.29082143559127"><ele>562.0</ele><time>2026-04-07T10:32:50Z</time></trkpt><trkpt lat="42.780927305842056" lon="12.291115848880743"><ele>562.0</ele><time>2026-04-07T10:32:51Z</time></trkpt><trkpt lat="42.7810087443703" lon="12.291327267440504"><ele>562.0</ele><time>2026-04-07T10:32:52Z</time></trkpt><trkpt lat="42.781144850742876" lon="12.291507352366104"><ele>562.0</ele><time>2026-04-07T10:32:53Z</time></trkpt><trkpt lat="42.781313244869985" lon="12.291666867729095"><ele>563.6666666666667</ele><time>2026-04-07T10:32:54Z</time></trkpt><trkpt lat="42.781508231782105" lon="12.291718121443004"><ele>565.3333333333334</ele><time>2026-04-07T10:32:55Z</time></trkpt><trkpt lat="42.781661972826384" lon="12.2917402111011"><ele>567.0</ele><time>2026-04-07T10:32:56Z</time></trkpt><trkpt lat="42.78177963572018" lon="12.291843118898976"><ele>567.0</ele><time>2026-04-07T10:32:57Z</time></trkpt><trkpt lat="42.781790188422825" lon="12.291996189777299"><ele>567.0</ele><time>2026-04-07T10:32:58Z</time></trkpt><trkpt lat="42.78175524810514" lon="12.292153348429673"><ele>567.0</ele><time>2026-04-07T10:32:59Z</time></trkpt><trkpt lat="42.78170998987294" lon="12.2923293772803"><ele>567.0</ele><time>2026-04-07T10:33:00Z</time></trkpt><trkpt lat="42.78163308603033" lon="12.292572244868484"><ele>567.3333333333334</ele><time>2026-04-07T10:33:01Z</time></trkpt><trkpt lat="42.781506466192724" lon="12.292717204725154"><ele>567.6666666666667</ele><time>2026-04-07T10:33:02Z</time></trkpt><trkpt lat="42.78134356900129" lon="12.29285369316695"><ele>568.0</ele><time>2026-04-07T10:33:03Z</time></trkpt><trkpt lat="42.78121848573363" lon="12.293049006985866"><ele>568.75</ele><time>2026-04-07T10:33:04Z</time></trkpt><trkpt lat="42.78117861118932" lon="12.293239300365412"><ele>569.5</ele><time>2026-04-07T10:33:05Z</time></trkpt><trkpt lat="42.781216032463355" lon="12.293394553626014"><ele>570.25</ele><time>2026-04-07T10:33:06Z</time></trkpt><trkpt lat="42.78129013615746" lon="12.293562590566486"><ele>571.0</ele><time>2026-04-07T10:33:07Z</time></trkpt><trkpt lat="42.78146303704861" lon="12.293686995764546"><ele>571.0</ele><time>2026-04-07T10:33:08Z</time></trkpt><trkpt lat="42.7816621891426" lon="12.29383387925742"><ele>571.0</ele><time>2026-04-07T10:33:09Z</time></trkpt><trkpt lat="42.78178772841154" lon="12.294023440528065"><ele>571.0</ele><time>2026-04-07T10:33:10Z</time></trkpt><trkpt lat="42.78184040533185" lon="12.294265416567413"><ele>570.6666666666667</ele><time>2026-04-07T10:33:11Z</time></trkpt><trkpt lat="42.781880783549674" lon="12.294534297404335"><ele>570.3333333333334</ele><time>2026-04-07T10:33:12Z</time></trkpt><trkpt lat="42.78187783618813" lon="12.294813729617474"><ele>570.0</ele><time>2026-04-07T10:33:13Z</time></trkpt><trkpt lat="42.78190812894106" lon="12.295082105637743"><ele>570.0</ele><time>2026-04-07T10:33:14Z</time></trkpt><trkpt lat="42.781990533870285" lon="12.295336819092718"><ele>570.0</ele><time>2026-04-07T10:33:15Z</time></trkpt><trkpt lat="42.782158185713484" lon="12.295620161445717"><ele>572.6666666666666</ele><time>2026-04-07T10:33:16Z</time></trkpt><trkpt lat="42.78231344468416" lon="12.295861278809813"><ele>575.3333333333333</ele><time>2026-04-07T10:33:17Z</time></trkpt><trkpt lat="42.782480894161935" lon="12.296040616204232"><ele>578.0</ele><time>2026-04-07T10:33:18Z</time></trkpt><trkpt lat="42.78257256947704" lon="12.296177390885736"><ele>578.0</ele><time>2026-04-07T10:33:19Z</time></trkpt><trkpt lat="42.78257392652686" lon="12.296270682975234"><ele>578.0</ele><time>2026-04-07T10:33:20Z</time></trkpt><trkpt lat="42.78252881832698" lon="12.296401688808132"><ele>578.0</ele><time>2026-04-07T10:33:21Z</time></trkpt><trkpt lat="42.782505791981315" lon="12.296592071053004"><ele>578.0</ele><time>2026-04-07T10:33:22Z</time></trkpt><trkpt lat="42.782533473265204" lon="12.296777769816662"><ele>580.5</ele><time>2026-04-07T10:33:23Z</time></trkpt><trkpt lat="42.78259649561445" lon="12.296871592227687"><ele>583.0</ele><time>2026-04-07T10:33:24Z</time></trkpt><trkpt lat="42.78266789307348" lon="12.296914509611424"><ele>585.5</ele><time>2026-04-07T10:33:25Z</time></trkpt><trkpt lat="42.78274027349659" lon="12.296949362263955"><ele>588.0</ele><time>2026-04-07T10:33:26Z</time></trkpt><trkpt lat="42.78298466199424" lon="12.296571263036139"><ele>581.3333333333334</ele><time>2026-04-07T10:33:27Z</time></trkpt><trkpt lat="42.78314453291879" lon="12.296388388674217"><ele>574.6666666666667</ele><time>2026-04-07T10:33:28Z</time></trkpt><trkpt lat="42.783286700000254" lon="12.296342569335241"><ele>568.0</ele><time>2026-04-07T10:33:29Z</time></trkpt><trkpt lat="42.7834320416651" lon="12.296376935682417"><ele>578.0</ele><time>2026-04-07T10:33:30Z</time></trkpt><trkpt lat="42.78362495885145" lon="12.29644768062007"><ele>588.0</ele><time>2026-04-07T10:33:31Z</time></trkpt><trkpt lat="42.783894854744645" lon="12.296575572713197"><ele>588.0</ele><time>2026-04-07T10:33:32Z</time></trkpt><trkpt lat="42.78413339228881" lon="12.296683468872567"><ele>588.0</ele><time>2026-04-07T10:33:33Z</time></trkpt><trkpt lat="42.784359489567386" lon="12.296738310065212"><ele>589.0</ele><time>2026-04-07T10:33:34Z</time></trkpt><trkpt lat="42.78458305281884" lon="12.29667875566054"><ele>590.0</ele><time>2026-04-07T10:33:35Z</time></trkpt><trkpt lat="42.78480676666282" lon="12.296588778295721"><ele>590.0</ele><time>2026-04-07T10:33:36Z</time></trkpt><trkpt lat="42.785012154993055" lon="12.296502439278564"><ele>590.0</ele><time>2026-04-07T10:33:37Z</time></trkpt><trkpt lat="42.78518180980799" lon="12.296434499625358"><ele>590.0</ele><time>2026-04-07T10:33:38Z</time></trkpt><trkpt lat="42.785320798313776" lon="12.296397642150689"><ele>590.0</ele><time>2026-04-07T10:33:39Z</time></trkpt><trkpt lat="42.78542307542566" lon="12.29643072962417"><ele>590.0</ele><time>2026-04-07T10:33:40Z</time></trkpt><trkpt lat="42.78554459916674" lon="12.296520064300346"><ele>590.0</ele><time>2026-04-07T10:33:41Z</time></trkpt><trkpt lat="42.78563270123397" lon="12.296687263338029"><ele>590.0</ele><time>2026-04-07T10:33:42Z</time></trkpt><trkpt lat="42.78577658666801" lon="12.296876880475445"><ele>590.0</ele><time>2026-04-07T10:33:43Z</time></trkpt><trkpt lat="42.78592577957426" lon="12.297126677342975"><ele>590.0</ele><time>2026-04-07T10:33:44Z</time></trkpt><trkpt lat="42.78604853117734" lon="12.297332938598297"><ele>590.0</ele><time>2026-04-07T10:33:45.001Z</time></trkpt><trkpt lat="42.786122033690766" lon="12.297518754490776"><ele>590.3333333333333</ele><time>2026-04-07T10:33:46.001Z</time></trkpt><trkpt lat="42.786145029456165" lon="12.297718619283083"><ele>590.6666666666666</ele><time>2026-04-07T10:33:47.001Z</time></trkpt><trkpt lat="42.78612817979092" lon="12.297926270909889"><ele>591.0</ele><time>2026-04-07T10:33:48.001Z</time></trkpt><trkpt lat="42.78612365502878" lon="12.298205920898228"><ele>591.0</ele><time>2026-04-07T10:33:49.001Z</time></trkpt><trkpt lat="42.78611949285776" lon="12.298465367385688"><ele>591.0</ele><time>2026-04-07T10:33:50.001Z</time></trkpt><trkpt lat="42.78616517652318" lon="12.298775448010488"><ele>591.0</ele><time>2026-04-07T10:33:51.001Z</time></trkpt><trkpt lat="42.78624852992675" lon="12.299082626672693"><ele>593.5</ele><time>2026-04-07T10:33:52.001Z</time></trkpt><trkpt lat="42.78626049315588" lon="12.299408244124477"><ele>596.0</ele><time>2026-04-07T10:33:53.001Z</time></trkpt><trkpt lat="42.78627747887712" lon="12.29973324337062"><ele>597.6666666666666</ele><time>2026-04-07T10:33:54.001Z</time></trkpt><trkpt lat="42.786322397613766" lon="12.300023638960047"><ele>599.3333333333334</ele><time>2026-04-07T10:33:55.001Z</time></trkpt><trkpt lat="42.78637080333499" lon="12.300270237229341"><ele>601.0</ele><time>2026-04-07T10:33:56.001Z</time></trkpt><trkpt lat="42.78642891543808" lon="12.300479067854143"><ele>603.6666666666667</ele><time>2026-04-07T10:33:57.001Z</time></trkpt><trkpt lat="42.78651746189427" lon="12.300631714349851"><ele>606.3333333333334</ele><time>2026-04-07T10:33:58.001Z</time></trkpt><trkpt lat="42.78667280929728" lon="12.30064932850787"><ele>609.0</ele><time>2026-04-07T10:33:59.001Z</time></trkpt><trkpt lat="42.786825257472444" lon="12.30063651470704"><ele>607.0</ele><time>2026-04-07T10:34:00.001Z</time></trkpt><trkpt lat="42.78700526361454" lon="12.300636981812154"><ele>605.0</ele><time>2026-04-07T10:34:01.001Z</time></trkpt><trkpt lat="42.787167212678696" lon="12.300661792333582"><ele>603.0</ele><time>2026-04-07T10:34:02.001Z</time></trkpt><trkpt lat="42.787250305240846" lon="12.300779862448463"><ele>603.0</ele><time>2026-04-07T10:34:03.001Z</time></trkpt><trkpt lat="42.78734617553051" lon="12.3009586093834"><ele>603.0</ele><time>2026-04-07T10:34:04.001Z</time></trkpt><trkpt lat="42.787484149755244" lon="12.301116598654918"><ele>603.0</ele><time>2026-04-07T10:34:05.001Z</time></trkpt><trkpt lat="42.787626237541154" lon="12.301234549037243"><ele>604.0</ele><time>2026-04-07T10:34:06.001Z</time></trkpt><trkpt lat="42.78778430559345" lon="12.301192990724514"><ele>605.0</ele><time>2026-04-07T10:34:07.001Z</time></trkpt><trkpt lat="42.78795990358871" lon="12.301101361913394"><ele>606.0</ele><time>2026-04-07T10:34:08.001Z</time></trkpt><trkpt lat="42.78816616523794" lon="12.300997361852154"><ele>606.0</ele><time>2026-04-07T10:34:09.001Z</time></trkpt><trkpt lat="42.78837112362457" lon="12.300873735969425"><ele>606.0</ele><time>2026-04-07T10:34:10.001Z</time></trkpt><trkpt lat="42.788557733488915" lon="12.3008025309377"><ele>606.0</ele><time>2026-04-07T10:34:11.001Z</time></trkpt><trkpt lat="42.78870622813633" lon="12.300788665553707"><ele>605.25</ele><time>2026-04-07T10:34:12.001Z</time></trkpt><trkpt lat="42.78884126114714" lon="12.300833137279511"><ele>604.5</ele><time>2026-04-07T10:34:13.001Z</time></trkpt><trkpt lat="42.788926138153364" lon="12.300972773753827"><ele>603.75</ele><time>2026-04-07T10:34:14.001Z</time></trkpt><trkpt lat="42.78901677302193" lon="12.301165028203535"><ele>603.0</ele><time>2026-04-07T10:34:15.001Z</time></trkpt><trkpt lat="42.78915141208739" lon="12.301375256767255"><ele>605.3333333333334</ele><time>2026-04-07T10:34:16.001Z</time></trkpt><trkpt lat="42.789305872955055" lon="12.301567228307935"><ele>607.6666666666667</ele><time>2026-04-07T10:34:17.001Z</time></trkpt><trkpt lat="42.789477699541635" lon="12.301700238608053"><ele>610.0</ele><time>2026-04-07T10:34:18.001Z</time></trkpt><trkpt lat="42.78963718377192" lon="12.301737291461635"><ele>610.0</ele><time>2026-04-07T10:34:19.001Z</time></trkpt><trkpt lat="42.78981361742768" lon="12.301679637796935"><ele>610.0</ele><time>2026-04-07T10:34:20.001Z</time></trkpt><trkpt lat="42.79000339219059" lon="12.301539604115673"><ele>610.0</ele><time>2026-04-07T10:34:21.001Z</time></trkpt><trkpt lat="42.79018688698227" lon="12.301473122945298"><ele>610.0</ele><time>2026-04-07T10:34:22.001Z</time></trkpt><trkpt lat="42.790324839238345" lon="12.301505704090461"><ele>610.0</ele><time>2026-04-07T10:34:23.001Z</time></trkpt><trkpt lat="42.7904646946568" lon="12.301594807294542"><ele>610.0</ele><time>2026-04-07T10:34:24.001Z</time></trkpt><trkpt lat="42.79065270906168" lon="12.301664241618637"><ele>610.0</ele><time>2026-04-07T10:34:25.001Z</time></trkpt><trkpt lat="42.79086606126918" lon="12.301748089435268"><ele>610.0</ele><time>2026-04-07T10:34:26.001Z</time></trkpt><trkpt lat="42.79108739196677" lon="12.301799547555456"><ele>610.0</ele><time>2026-04-07T10:34:27.001Z</time></trkpt><trkpt lat="42.79126718753998" lon="12.30184767732391"><ele>610.0</ele><time>2026-04-07T10:34:28.001Z</time></trkpt><trkpt lat="42.79139817820622" lon="12.301923756932396"><ele>610.0</ele><time>2026-04-07T10:34:29.001Z</time></trkpt><trkpt lat="42.79151002528917" lon="12.301968044178482"><ele>610.0</ele><time>2026-04-07T10:34:30.001Z</time></trkpt><trkpt lat="42.791570874418674" lon="12.302115058744114"><ele>610.0</ele><time>2026-04-07T10:34:31.001Z</time></trkpt><trkpt lat="42.79158909779868" lon="12.302357562973864"><ele>610.0</ele><time>2026-04-07T10:34:32.001Z</time></trkpt><trkpt lat="42.791579728467035" lon="12.302645511451177"><ele>610.0</ele><time>2026-04-07T10:34:33.001Z</time></trkpt><trkpt lat="42.79157274266088" lon="12.302911722573478"><ele>610.0</ele><time>2026-04-07T10:34:34.001Z</time></trkpt><trkpt lat="42.79154168570365" lon="12.303118949008425"><ele>608.0</ele><time>2026-04-07T10:34:35.001Z</time></trkpt><trkpt lat="42.79145161016625" lon="12.303282933223516"><ele>606.0</ele><time>2026-04-07T10:34:36.001Z</time></trkpt><trkpt lat="42.7912857978204" lon="12.303415728108835"><ele>604.0</ele><time>2026-04-07T10:34:37.001Z</time></trkpt><trkpt lat="42.79108701723548" lon="12.303519046603656"><ele>603.0</ele><time>2026-04-07T10:34:38.001Z</time></trkpt><trkpt lat="42.79092194407247" lon="12.303666862269205"><ele>602.0</ele><time>2026-04-07T10:34:39.001Z</time></trkpt><trkpt lat="42.79081511033612" lon="12.303871351636822"><ele>601.0</ele><time>2026-04-07T10:34:40Z</time></trkpt><trkpt lat="42.79070277670934" lon="12.304016060989671"><ele>601.0</ele><time>2026-04-07T10:34:41Z</time></trkpt><trkpt lat="42.790517252207245" lon="12.304084619083833"><ele>601.0</ele><time>2026-04-07T10:34:42Z</time></trkpt><trkpt lat="42.79035201211661" lon="12.304136186703118"><ele>601.0</ele><time>2026-04-07T10:34:43Z</time></trkpt><trkpt lat="42.79025207558087" lon="12.30422826243472"><ele>601.0</ele><time>2026-04-07T10:34:44Z</time></trkpt><trkpt lat="42.79021771869441" lon="12.30436803683952"><ele>601.0</ele><time>2026-04-07T10:34:45Z</time></trkpt><trkpt lat="42.79024962575675" lon="12.304514906354905"><ele>601.0</ele><time>2026-04-07T10:34:46Z</time></trkpt><trkpt lat="42.790330874122716" lon="12.304649253697859"><ele>601.0</ele><time>2026-04-07T10:34:47Z</time></trkpt><trkpt lat="42.790462014236475" lon="12.304787117701597"><ele>599.6666666666667</ele><time>2026-04-07T10:34:48Z</time></trkpt><trkpt lat="42.790621001729804" lon="12.304942449627827"><ele>598.3333333333334</ele><time>2026-04-07T10:34:49Z</time></trkpt><trkpt lat="42.7907839811502" lon="12.305113945329433"><ele>597.0</ele><time>2026-04-07T10:34:50Z</time></trkpt><trkpt lat="42.79092996365407" lon="12.305277510814818"><ele>596.5</ele><time>2026-04-07T10:34:51Z</time></trkpt><trkpt lat="42.79105577466883" lon="12.305420150277433"><ele>596.0</ele><time>2026-04-07T10:34:52Z</time></trkpt><trkpt lat="42.7911341939253" lon="12.305561956233383"><ele>595.5</ele><time>2026-04-07T10:34:53Z</time></trkpt><trkpt lat="42.79115887283628" lon="12.305686456943214"><ele>595.0</ele><time>2026-04-07T10:34:54Z</time></trkpt><trkpt lat="42.7911248712786" lon="12.305826676130774"><ele>596.25</ele><time>2026-04-07T10:34:55Z</time></trkpt><trkpt lat="42.791072558254555" lon="12.305994207315173"><ele>597.5</ele><time>2026-04-07T10:34:56Z</time></trkpt><trkpt lat="42.79105164207854" lon="12.306173886420053"><ele>598.75</ele><time>2026-04-07T10:34:57Z</time></trkpt><trkpt lat="42.79107242272879" lon="12.306306858635335"><ele>600.0</ele><time>2026-04-07T10:34:58Z</time></trkpt><trkpt lat="42.7911695709246" lon="12.306409294834026"><ele>599.75</ele><time>2026-04-07T10:34:59.001Z</time></trkpt><trkpt lat="42.791310653135106" lon="12.306477751646996"><ele>599.5</ele><time>2026-04-07T10:35:00.001Z</time></trkpt><trkpt lat="42.7914518049746" lon="12.306585182770947"><ele>599.25</ele><time>2026-04-07T10:35:01.001Z</time></trkpt><trkpt lat="42.79156639103683" lon="12.306683864895144"><ele>599.0</ele><time>2026-04-07T10:35:02.001Z</time></trkpt><trkpt lat="42.791630253576635" lon="12.306781947581191"><ele>599.0</ele><time>2026-04-07T10:35:03.001Z</time></trkpt><trkpt lat="42.791639910744344" lon="12.306891854489763"><ele>599.0</ele><time>2026-04-07T10:35:04.001Z</time></trkpt><trkpt lat="42.79159615258825" lon="12.306995812512461"><ele>599.0</ele><time>2026-04-07T10:35:05.001Z</time></trkpt><trkpt lat="42.7915081837938" lon="12.307094953962368"><ele>599.0</ele><time>2026-04-07T10:35:06.001Z</time></trkpt><trkpt lat="42.79140513875539" lon="12.307240334880333"><ele>599.0</ele><time>2026-04-07T10:35:07.001Z</time></trkpt><trkpt lat="42.79129658905358" lon="12.30741687269788"><ele>598.6666666666666</ele><time>2026-04-07T10:35:08.001Z</time></trkpt><trkpt lat="42.79116173585019" lon="12.30758530163377"><ele>598.3333333333334</ele><time>2026-04-07T10:35:09.001Z</time></trkpt><trkpt lat="42.79100631296065" lon="12.30772341410799"><ele>598.0</ele><time>2026-04-07T10:35:10.001Z</time></trkpt><trkpt lat="42.79087720917379" lon="12.307869829560937"><ele>597.5</ele><time>2026-04-07T10:35:11.001Z</time></trkpt><trkpt lat="42.790755205516" lon="12.307983826696585"><ele>597.0</ele><time>2026-04-07T10:35:12.001Z</time></trkpt><trkpt lat="42.79066244638234" lon="12.308092682493267"><ele>596.5</ele><time>2026-04-07T10:35:13.001Z</time></trkpt><trkpt lat="42.79062605778379" lon="12.308234591965343"><ele>596.0</ele><time>2026-04-07T10:35:14.001Z</time></trkpt><trkpt lat="42.79066809337444" lon="12.308412210218979"><ele>596.0</ele><time>2026-04-07T10:35:15.001Z</time></trkpt><trkpt lat="42.79073321854709" lon="12.308590738381058"><ele>596.0</ele><time>2026-04-07T10:35:16.001Z</time></trkpt><trkpt lat="42.790737704431194" lon="12.308781882274168"><ele>596.0</ele><time>2026-04-07T10:35:17.001Z</time></trkpt><trkpt lat="42.790717193853865" lon="12.30897038899463"><ele>596.0</ele><time>2026-04-07T10:35:18.001Z</time></trkpt><trkpt lat="42.79062945563919" lon="12.30914742883679"><ele>596.6666666666666</ele><time>2026-04-07T10:35:19.001Z</time></trkpt><trkpt lat="42.79052451967266" lon="12.309286740905177"><ele>597.3333333333334</ele><time>2026-04-07T10:35:20.001Z</time></trkpt><trkpt lat="42.7903903359951" lon="12.309351490202896"><ele>598.0</ele><time>2026-04-07T10:35:21.001Z</time></trkpt><trkpt lat="42.790217644294685" lon="12.309338363104638"><ele>595.6666666666667</ele><time>2026-04-07T10:35:22.001Z</time></trkpt><trkpt lat="42.79002392184972" lon="12.309342668058822"><ele>593.3333333333334</ele><time>2026-04-07T10:35:23.001Z</time></trkpt><trkpt lat="42.78985083807117" lon="12.309354518812388"><ele>591.0</ele><time>2026-04-07T10:35:24.001Z</time></trkpt><trkpt lat="42.789683936391704" lon="12.309472180976455"><ele>591.0</ele><time>2026-04-07T10:35:25.001Z</time></trkpt><trkpt lat="42.78951950212733" lon="12.309670743693234"><ele>591.0</ele><time>2026-04-07T10:35:26.001Z</time></trkpt><trkpt lat="42.78934752312837" lon="12.309836017586601"><ele>591.0</ele><time>2026-04-07T10:35:27.001Z</time></trkpt><trkpt lat="42.78918988838198" lon="12.309970227075894"><ele>590.0</ele><time>2026-04-07T10:35:28.001Z</time></trkpt><trkpt lat="42.78903969046281" lon="12.310071298982484"><ele>589.0</ele><time>2026-04-07T10:35:29.001Z</time></trkpt><trkpt lat="42.78891535686616" lon="12.310199399673236"><ele>588.0</ele><time>2026-04-07T10:35:30.001Z</time></trkpt><trkpt lat="42.78882217054769" lon="12.310353554616015"><ele>588.0</ele><time>2026-04-07T10:35:31.001Z</time></trkpt><trkpt lat="42.7887469246765" lon="12.310568854338099"><ele>588.0</ele><time>2026-04-07T10:35:32.001Z</time></trkpt><trkpt lat="42.78867994186623" lon="12.310807531258199"><ele>588.0</ele><time>2026-04-07T10:35:33.001Z</time></trkpt><trkpt lat="42.788593679651854" lon="12.311002419120138"><ele>587.75</ele><time>2026-04-07T10:35:34.001Z</time></trkpt><trkpt lat="42.78851972343717" lon="12.311171334629952"><ele>587.5</ele><time>2026-04-07T10:35:35.001Z</time></trkpt><trkpt lat="42.78841343573245" lon="12.31128274283505"><ele>587.25</ele><time>2026-04-07T10:35:36.001Z</time></trkpt><trkpt lat="42.78827991238778" lon="12.311341741304574"><ele>587.0</ele><time>2026-04-07T10:35:37.001Z</time></trkpt><trkpt lat="42.78811620927611" lon="12.311346146396025"><ele>584.3333333333333</ele><time>2026-04-07T10:35:38.001Z</time></trkpt><trkpt lat="42.787937977519384" lon="12.311358972859836"><ele>581.6666666666666</ele><time>2026-04-07T10:35:39.001Z</time></trkpt><trkpt lat="42.78777617185557" lon="12.31134961420785"><ele>579.0</ele><time>2026-04-07T10:35:40.001Z</time></trkpt><trkpt lat="42.78762777960258" lon="12.311400480183037"><ele>578.75</ele><time>2026-04-07T10:35:41.001Z</time></trkpt><trkpt lat="42.78750381388755" lon="12.311510028359296"><ele>578.5</ele><time>2026-04-07T10:35:42.001Z</time></trkpt><trkpt lat="42.78740550013028" lon="12.311654235090298"><ele>578.25</ele><time>2026-04-07T10:35:43.001Z</time></trkpt><trkpt lat="42.787266592342654" lon="12.311695928588593"><ele>578.0</ele><time>2026-04-07T10:35:44.001Z</time></trkpt><trkpt lat="42.78711197512954" lon="12.311668661006474"><ele>578.0</ele><time>2026-04-07T10:35:45.001Z</time></trkpt><trkpt lat="42.786942436037414" lon="12.31166369756282"><ele>578.0</ele><time>2026-04-07T10:35:46.001Z</time></trkpt><trkpt lat="42.78676963472033" lon="12.311687898266001"><ele>578.0</ele><time>2026-04-07T10:35:47.001Z</time></trkpt><trkpt lat="42.786599742767734" lon="12.311814503774448"><ele>575.0</ele><time>2026-04-07T10:35:48.001Z</time></trkpt><trkpt lat="42.78644128607983" lon="12.31197971216738"><ele>572.0</ele><time>2026-04-07T10:35:49.001Z</time></trkpt><trkpt lat="42.78629649654028" lon="12.312100677764047"><ele>569.0</ele><time>2026-04-07T10:35:50.001Z</time></trkpt><trkpt lat="42.78613897183867" lon="12.312132071732963"><ele>567.3333333333333</ele><time>2026-04-07T10:35:51.001Z</time></trkpt><trkpt lat="42.78597694582208" lon="12.312065314972187"><ele>565.6666666666666</ele><time>2026-04-07T10:35:52.001Z</time></trkpt><trkpt lat="42.78581636506001" lon="12.31194092424884"><ele>564.0</ele><time>2026-04-07T10:35:53.001Z</time></trkpt><trkpt lat="42.785665237197676" lon="12.311847582379107"><ele>564.0</ele><time>2026-04-07T10:35:54.001Z</time></trkpt><trkpt lat="42.78550303479675" lon="12.311844807588576"><ele>564.0</ele><time>2026-04-07T10:35:55.001Z</time></trkpt><trkpt lat="42.78533398135652" lon="12.311924875715173"><ele>564.0</ele><time>2026-04-07T10:35:56.001Z</time></trkpt><trkpt lat="42.78518364550139" lon="12.312049873590157"><ele>563.0</ele><time>2026-04-07T10:35:57.001Z</time></trkpt><trkpt lat="42.78507526136908" lon="12.312233487058126"><ele>562.0</ele><time>2026-04-07T10:35:58.001Z</time></trkpt><trkpt lat="42.78499488370931" lon="12.312459338486862"><ele>561.0</ele><time>2026-04-07T10:35:59.001Z</time></trkpt><trkpt lat="42.784923281531746" lon="12.312671597182993"><ele>561.0</ele><time>2026-04-07T10:36:00.001Z</time></trkpt><trkpt lat="42.78484763540736" lon="12.312848211333513"><ele>561.0</ele><time>2026-04-07T10:36:01.001Z</time></trkpt><trkpt lat="42.78476607697629" lon="12.312990909095397"><ele>561.0</ele><time>2026-04-07T10:36:02.001Z</time></trkpt><trkpt lat="42.78466309944241" lon="12.313066730249506"><ele>561.0</ele><time>2026-04-07T10:36:03.001Z</time></trkpt><trkpt lat="42.78453956424449" lon="12.313053196391147"><ele>561.0</ele><time>2026-04-07T10:36:04.001Z</time></trkpt><trkpt lat="42.78440459049298" lon="12.312937731220421"><ele>561.0</ele><time>2026-04-07T10:36:05.001Z</time></trkpt><trkpt lat="42.784259312629814" lon="12.312799028322766"><ele>561.0</ele><time>2026-04-07T10:36:06.001Z</time></trkpt><trkpt lat="42.78409255281738" lon="12.312679340471146"><ele>558.0</ele><time>2026-04-07T10:36:07.001Z</time></trkpt><trkpt lat="42.78392131415228" lon="12.31262114098235"><ele>555.0</ele><time>2026-04-07T10:36:08.001Z</time></trkpt><trkpt lat="42.783746422238885" lon="12.312614685972004"><ele>552.0</ele><time>2026-04-07T10:36:09.001Z</time></trkpt><trkpt lat="42.78358695668945" lon="12.312643315038498"><ele>550.0</ele><time>2026-04-07T10:36:10.001Z</time></trkpt><trkpt lat="42.78344673062945" lon="12.312739457444591"><ele>548.0</ele><time>2026-04-07T10:36:11.001Z</time></trkpt><trkpt lat="42.78331380675552" lon="12.312905058371962"><ele>546.0</ele><time>2026-04-07T10:36:12.001Z</time></trkpt><trkpt lat="42.78315171137015" lon="12.313070707161891"><ele>546.6666666666666</ele><time>2026-04-07T10:36:13.001Z</time></trkpt><trkpt lat="42.78299633511468" lon="12.31318959116408"><ele>547.3333333333333</ele><time>2026-04-07T10:36:14.001Z</time></trkpt><trkpt lat="42.782823340828436" lon="12.313216211209447"><ele>548.0</ele><time>2026-04-07T10:36:15.001Z</time></trkpt><trkpt lat="42.782608716364294" lon="12.313229324378993"><ele>548.0</ele><time>2026-04-07T10:36:16.001Z</time></trkpt><trkpt lat="42.78240077086248" lon="12.313260295586637"><ele>548.0</ele><time>2026-04-07T10:36:17.001Z</time></trkpt><trkpt lat="42.782214054305584" lon="12.313265941642014"><ele>548.0</ele><time>2026-04-07T10:36:18.001Z</time></trkpt><trkpt lat="42.78204148320484" lon="12.31327880903059"><ele>548.0</ele><time>2026-04-07T10:36:19.001Z</time></trkpt><trkpt lat="42.781877392671674" lon="12.313291061653699"><ele>548.0</ele><time>2026-04-07T10:36:20.001Z</time></trkpt><trkpt lat="42.78172536807924" lon="12.313304263823634"><ele>548.0</ele><time>2026-04-07T10:36:21.001Z</time></trkpt><trkpt lat="42.7816053661765" lon="12.31331004367804"><ele>548.0</ele><time>2026-04-07T10:36:22.001Z</time></trkpt><trkpt lat="42.78150643098157" lon="12.31335010107702"><ele>545.75</ele><time>2026-04-07T10:36:23.001Z</time></trkpt><trkpt lat="42.781455784075995" lon="12.313448596637427"><ele>543.5</ele><time>2026-04-07T10:36:24.001Z</time></trkpt><trkpt lat="42.78146039688072" lon="12.313585416389762"><ele>541.25</ele><time>2026-04-07T10:36:25.001Z</time></trkpt><trkpt lat="42.781531540636735" lon="12.313720189145661"><ele>539.0</ele><time>2026-04-07T10:36:26.001Z</time></trkpt><trkpt lat="42.78164493913804" lon="12.313838765023311"><ele>538.75</ele><time>2026-04-07T10:36:27.001Z</time></trkpt><trkpt lat="42.78172845388634" lon="12.31399252589533"><ele>538.5</ele><time>2026-04-07T10:36:28.001Z</time></trkpt><trkpt lat="42.78175037837418" lon="12.314151844341133"><ele>538.25</ele><time>2026-04-07T10:36:29.001Z</time></trkpt><trkpt lat="42.781714108249545" lon="12.314304270956233"><ele>538.0</ele><time>2026-04-07T10:36:30.001Z</time></trkpt><trkpt lat="42.7817053586516" lon="12.314458768295712"><ele>538.0</ele><time>2026-04-07T10:36:31.001Z</time></trkpt><trkpt lat="42.7816920452234" lon="12.314612059478105"><ele>538.0</ele><time>2026-04-07T10:36:32.001Z</time></trkpt><trkpt lat="42.78169489135498" lon="12.314768878822044"><ele>538.0</ele><time>2026-04-07T10:36:33.001Z</time></trkpt><trkpt lat="42.781748931411" lon="12.314897037571953"><ele>538.0</ele><time>2026-04-07T10:36:34.001Z</time></trkpt><trkpt lat="42.7818591793387" lon="12.314974550207971"><ele>537.6666666666667</ele><time>2026-04-07T10:36:35.001Z</time></trkpt><trkpt lat="42.782000001441595" lon="12.315006744986425"><ele>537.3333333333334</ele><time>2026-04-07T10:36:36.001Z</time></trkpt><trkpt lat="42.782152887985326" lon="12.315014517580067"><ele>537.0</ele><time>2026-04-07T10:36:37.001Z</time></trkpt><trkpt lat="42.7823159462233" lon="12.315028230104062"><ele>537.0</ele><time>2026-04-07T10:36:38.001Z</time></trkpt><trkpt lat="42.78247581822076" lon="12.315053426468312"><ele>537.0</ele><time>2026-04-07T10:36:39.001Z</time></trkpt><trkpt lat="42.7826356470865" lon="12.315062184077156"><ele>537.0</ele><time>2026-04-07T10:36:40.001Z</time></trkpt><trkpt lat="42.78280069629549" lon="12.315035401975486"><ele>535.3333333333334</ele><time>2026-04-07T10:36:41.001Z</time></trkpt><trkpt lat="42.78296375519699" lon="12.31498509496704"><ele>533.6666666666667</ele><time>2026-04-07T10:36:42.001Z</time></trkpt><trkpt lat="42.7831279884387" lon="12.314941656269623"><ele>532.0</ele><time>2026-04-07T10:36:43.001Z</time></trkpt><trkpt lat="42.78329860849372" lon="12.314942438621054"><ele>532.0</ele><time>2026-04-07T10:36:44.001Z</time></trkpt><trkpt lat="42.783461724457155" lon="12.314953142994876"><ele>532.0</ele><time>2026-04-07T10:36:45.001Z</time></trkpt><trkpt lat="42.7836125983892" lon="12.314974034593721"><ele>532.0</ele><time>2026-04-07T10:36:46.001Z</time></trkpt><trkpt lat="42.78375563366391" lon="12.315004393532126"><ele>531.0</ele><time>2026-04-07T10:36:47.001Z</time></trkpt><trkpt lat="42.78389445926878" lon="12.315066406309862"><ele>530.0</ele><time>2026-04-07T10:36:48.001Z</time></trkpt><trkpt lat="42.78402502347095" lon="12.315180742493036"><ele>529.0</ele><time>2026-04-07T10:36:49.001Z</time></trkpt><trkpt lat="42.78415467402087" lon="12.31531420744299"><ele>529.0</ele><time>2026-04-07T10:36:50.001Z</time></trkpt><trkpt lat="42.78430396459211" lon="12.315411421339592"><ele>529.0</ele><time>2026-04-07T10:36:51.001Z</time></trkpt><trkpt lat="42.78446873379845" lon="12.315471102847582"><ele>529.0</ele><time>2026-04-07T10:36:52.001Z</time></trkpt><trkpt lat="42.78464188978716" lon="12.315521117205805"><ele>525.0</ele><time>2026-04-07T10:36:53.001Z</time></trkpt><trkpt lat="42.78481647978842" lon="12.315573417049656"><ele>521.0</ele><time>2026-04-07T10:36:54.001Z</time></trkpt><trkpt lat="42.7849843576484" lon="12.315643669039602"><ele>517.0</ele><time>2026-04-07T10:36:55.001Z</time></trkpt><trkpt lat="42.78515515726313" lon="12.315720616378737"><ele>517.0</ele><time>2026-04-07T10:36:56.001Z</time></trkpt><trkpt lat="42.78532013774827" lon="12.31579744927065"><ele>517.0</ele><time>2026-04-07T10:36:57.001Z</time></trkpt><trkpt lat="42.785476726626115" lon="12.31587205740996"><ele>517.0</ele><time>2026-04-07T10:36:58.001Z</time></trkpt><trkpt lat="42.78563013470259" lon="12.315938140667912"><ele>517.0</ele><time>2026-04-07T10:36:59.001Z</time></trkpt><trkpt lat="42.78577900180532" lon="12.31601024084107"><ele>517.0</ele><time>2026-04-07T10:37:00.001Z</time></trkpt><trkpt lat="42.78591516026921" lon="12.316101482740766"><ele>517.0</ele><time>2026-04-07T10:37:01.001Z</time></trkpt><trkpt lat="42.786028832962884" lon="12.316207205348281"><ele>517.0</ele><time>2026-04-07T10:37:02.001Z</time></trkpt><trkpt lat="42.786126799059595" lon="12.316288518559498"><ele>516.25</ele><time>2026-04-07T10:37:03.001Z</time></trkpt><trkpt lat="42.7862421238336" lon="12.316294946730332"><ele>515.5</ele><time>2026-04-07T10:37:04.001Z</time></trkpt><trkpt lat="42.786368212084234" lon="12.316204501281376"><ele>514.75</ele><time>2026-04-07T10:37:05.001Z</time></trkpt><trkpt lat="42.78649880089193" lon="12.316089532838118"><ele>514.0</ele><time>2026-04-07T10:37:06.001Z</time></trkpt><trkpt lat="42.7866229944971" lon="12.316035141942972"><ele>514.0</ele><time>2026-04-07T10:37:07.001Z</time></trkpt><trkpt lat="42.78673610542551" lon="12.316074563102987"><ele>514.0</ele><time>2026-04-07T10:37:08.001Z</time></trkpt><trkpt lat="42.78682936785832" lon="12.31619250671196"><ele>514.0</ele><time>2026-04-07T10:37:09.001Z</time></trkpt><trkpt lat="42.786905754363325" lon="12.316384414499865"><ele>514.0</ele><time>2026-04-07T10:37:10.001Z</time></trkpt><trkpt lat="42.78698163288729" lon="12.316600377562793"><ele>514.3333333333334</ele><time>2026-04-07T10:37:11.001Z</time></trkpt><trkpt lat="42.78706668915848" lon="12.316794498582952"><ele>514.6666666666666</ele><time>2026-04-07T10:37:12.001Z</time></trkpt><trkpt lat="42.78712579966226" lon="12.31700575704991"><ele>515.0</ele><time>2026-04-07T10:37:13.001Z</time></trkpt><trkpt lat="42.78714479590936" lon="12.317241722890573"><ele>512.3333333333333</ele><time>2026-04-07T10:37:14.001Z</time></trkpt><trkpt lat="42.78715774153689" lon="12.317467720789097"><ele>509.66666666666663</ele><time>2026-04-07T10:37:15.001Z</time></trkpt><trkpt lat="42.787200392606245" lon="12.317674949668696"><ele>507.0</ele><time>2026-04-07T10:37:16.001Z</time></trkpt><trkpt lat="42.78730117314995" lon="12.31787044657628"><ele>507.0</ele><time>2026-04-07T10:37:17.001Z</time></trkpt><trkpt lat="42.78743971628276" lon="12.318047995990412"><ele>507.0</ele><time>2026-04-07T10:37:18.001Z</time></trkpt><trkpt lat="42.7875608730594" lon="12.318246057031839"><ele>507.0</ele><time>2026-04-07T10:37:19.001Z</time></trkpt><trkpt lat="42.78764854434568" lon="12.318482085241374"><ele>508.0</ele><time>2026-04-07T10:37:20.001Z</time></trkpt><trkpt lat="42.78773126652991" lon="12.318722710903982"><ele>509.0</ele><time>2026-04-07T10:37:21.001Z</time></trkpt><trkpt lat="42.78780974036781" lon="12.318937831838289"><ele>510.0</ele><time>2026-04-07T10:37:22.001Z</time></trkpt><trkpt lat="42.787883203917" lon="12.319144016765348"><ele>506.33333333333337</ele><time>2026-04-07T10:37:23.001Z</time></trkpt><trkpt lat="42.787956307900814" lon="12.319354170150607"><ele>502.6666666666667</ele><time>2026-04-07T10:37:24.001Z</time></trkpt><trkpt lat="42.78803872508861" lon="12.319562384982124"><ele>499.0</ele><time>2026-04-07T10:37:25.001Z</time></trkpt><trkpt lat="42.78813146873861" lon="12.319744878109582"><ele>496.6666666666667</ele><time>2026-04-07T10:37:26.001Z</time></trkpt><trkpt lat="42.788252838751156" lon="12.319884171277199"><ele>494.33333333333337</ele><time>2026-04-07T10:37:27.001Z</time></trkpt><trkpt lat="42.788396777742165" lon="12.319984183144731"><ele>492.0</ele><time>2026-04-07T10:37:28.001Z</time></trkpt><trkpt lat="42.7885383655265" lon="12.320075953937845"><ele>491.75</ele><time>2026-04-07T10:37:29.001Z</time></trkpt><trkpt lat="42.78864723855763" lon="12.320208231354394"><ele>491.5</ele><time>2026-04-07T10:37:30.001Z</time></trkpt><trkpt lat="42.78872779952531" lon="12.320371652878826"><ele>491.25</ele><time>2026-04-07T10:37:31.001Z</time></trkpt><trkpt lat="42.78877220216306" lon="12.320549255882213"><ele>491.0</ele><time>2026-04-07T10:37:32.001Z</time></trkpt><trkpt lat="42.788773681195124" lon="12.320730075469084"><ele>490.0</ele><time>2026-04-07T10:37:33.001Z</time></trkpt><trkpt lat="42.78873501614833" lon="12.320882460232903"><ele>489.0</ele><time>2026-04-07T10:37:34.001Z</time></trkpt><trkpt lat="42.78865913943083" lon="12.320995367484118"><ele>488.0</ele><time>2026-04-07T10:37:35.001Z</time></trkpt><trkpt lat="42.788538633666654" lon="12.321065040851225"><ele>487.0</ele><time>2026-04-07T10:37:36.001Z</time></trkpt><trkpt lat="42.78838351936067" lon="12.32109027258281"><ele>487.0</ele><time>2026-04-07T10:37:37.001Z</time></trkpt><trkpt lat="42.788205728700724" lon="12.321101654970919"><ele>487.0</ele><time>2026-04-07T10:37:38.001Z</time></trkpt><trkpt lat="42.788039597079525" lon="12.321117255103818"><ele>487.0</ele><time>2026-04-07T10:37:39.001Z</time></trkpt><trkpt lat="42.787893696110594" lon="12.321133066205492"><ele>487.0</ele><time>2026-04-07T10:37:40.001Z</time></trkpt><trkpt lat="42.78778007016893" lon="12.32114944345329"><ele>487.00000000000006</ele><time>2026-04-07T10:37:41.001Z</time></trkpt><trkpt lat="42.78769525598785" lon="12.321201787201675"><ele>487.00000000000006</ele><time>2026-04-07T10:37:42.001Z</time></trkpt><trkpt lat="42.78765182315812" lon="12.321295797358248"><ele>487.0</ele><time>2026-04-07T10:37:43.001Z</time></trkpt><trkpt lat="42.78768550026852" lon="12.321401059002337"><ele>487.0</ele><time>2026-04-07T10:37:44.001Z</time></trkpt><trkpt lat="42.78776582814419" lon="12.321465219469005"><ele>487.0</ele><time>2026-04-07T10:37:45.001Z</time></trkpt><trkpt lat="42.78787953511904" lon="12.321460390608323"><ele>487.0</ele><time>2026-04-07T10:37:46.001Z</time></trkpt><trkpt lat="42.78801546899397" lon="12.321403464313551"><ele>487.0</ele><time>2026-04-07T10:37:47.001Z</time></trkpt><trkpt lat="42.78816028242038" lon="12.321354773813036"><ele>487.0</ele><time>2026-04-07T10:37:48.001Z</time></trkpt><trkpt lat="42.788301281762585" lon="12.321374902344369"><ele>483.75</ele><time>2026-04-07T10:37:49.001Z</time></trkpt><trkpt lat="42.788433732068825" lon="12.321463584743398"><ele>480.5</ele><time>2026-04-07T10:37:50.001Z</time></trkpt><trkpt lat="42.78854076743467" lon="12.321602286241573"><ele>477.25</ele><time>2026-04-07T10:37:51.001Z</time></trkpt><trkpt lat="42.78863091099147" lon="12.321742264163209"><ele>474.0</ele><time>2026-04-07T10:37:52.001Z</time></trkpt><trkpt lat="42.788749604489006" lon="12.321799323336375"><ele>473.5</ele><time>2026-04-07T10:37:53.001Z</time></trkpt><trkpt lat="42.788891113740554" lon="12.321762672329685"><ele>473.0</ele><time>2026-04-07T10:37:54.001Z</time></trkpt><trkpt lat="42.789006310871585" lon="12.32174397052098"><ele>472.5</ele><time>2026-04-07T10:37:55.001Z</time></trkpt><trkpt lat="42.78908570768732" lon="12.321825270644117"><ele>472.0</ele><time>2026-04-07T10:37:56.001Z</time></trkpt><trkpt lat="42.78912981722014" lon="12.321998086617453"><ele>472.0</ele><time>2026-04-07T10:37:57.001Z</time></trkpt><trkpt lat="42.78913973332569" lon="12.322223266583013"><ele>472.0</ele><time>2026-04-07T10:37:58.001Z</time></trkpt><trkpt lat="42.78914323668744" lon="12.322451249751674"><ele>472.0</ele><time>2026-04-07T10:37:59.001Z</time></trkpt><trkpt lat="42.78915111544506" lon="12.322685661819948"><ele>469.6666666666667</ele><time>2026-04-07T10:38:00.001Z</time></trkpt><trkpt lat="42.78916938175801" lon="12.322914594822002"><ele>467.33333333333337</ele><time>2026-04-07T10:38:01.001Z</time></trkpt><trkpt lat="42.78919274057832" lon="12.323121638610726"><ele>465.0</ele><time>2026-04-07T10:38:02.001Z</time></trkpt><trkpt lat="42.78922714886294" lon="12.323298647535744"><ele>464.2</ele><time>2026-04-07T10:38:03.001Z</time></trkpt><trkpt lat="42.78929102811162" lon="12.323452508232707"><ele>463.4</ele><time>2026-04-07T10:38:04.001Z</time></trkpt><trkpt lat="42.789381361566285" lon="12.323571018158052"><ele>462.6</ele><time>2026-04-07T10:38:05.001Z</time></trkpt><trkpt lat="42.789453169509876" lon="12.323658775535918"><ele>461.8</ele><time>2026-04-07T10:38:06.001Z</time></trkpt><trkpt lat="42.7894640022944" lon="12.323752784107867"><ele>461.0</ele><time>2026-04-07T10:38:07.001Z</time></trkpt><trkpt lat="42.78940674702032" lon="12.323846364992436"><ele>461.0</ele><time>2026-04-07T10:38:08.001Z</time></trkpt><trkpt lat="42.78929999436013" lon="12.32388096669738"><ele>461.0</ele><time>2026-04-07T10:38:09.001Z</time></trkpt><trkpt lat="42.789172388181804" lon="12.323816614701757"><ele>461.0</ele><time>2026-04-07T10:38:10.001Z</time></trkpt><trkpt lat="42.789028896397326" lon="12.323693415553983"><ele>461.0</ele><time>2026-04-07T10:38:11.001Z</time></trkpt><trkpt lat="42.7888654950153" lon="12.323572800143886"><ele>461.0</ele><time>2026-04-07T10:38:12.001Z</time></trkpt><trkpt lat="42.78869223090119" lon="12.32346544471717"><ele>461.0</ele><time>2026-04-07T10:38:13.001Z</time></trkpt><trkpt lat="42.788528992941444" lon="12.32336484762229"><ele>461.0</ele><time>2026-04-07T10:38:14.001Z</time></trkpt><trkpt lat="42.788367714268595" lon="12.323277154472432"><ele>457.66666666666663</ele><time>2026-04-07T10:38:15.001Z</time></trkpt><trkpt lat="42.78820304936082" lon="12.323213402399407"><ele>454.33333333333337</ele><time>2026-04-07T10:38:16.001Z</time></trkpt><trkpt lat="42.78802365835221" lon="12.323192087406435"><ele>451.0</ele><time>2026-04-07T10:38:17.001Z</time></trkpt><trkpt lat="42.78783296983161" lon="12.323228733184642"><ele>449.6666666666667</ele><time>2026-04-07T10:38:18.001Z</time></trkpt><trkpt lat="42.78764692180667" lon="12.323280041869449"><ele>448.33333333333337</ele><time>2026-04-07T10:38:19.001Z</time></trkpt><trkpt lat="42.787473775582995" lon="12.323294791232414"><ele>447.0</ele><time>2026-04-07T10:38:20.001Z</time></trkpt><trkpt lat="42.78733886319394" lon="12.32319172033065"><ele>447.0</ele><time>2026-04-07T10:38:21.001Z</time></trkpt><trkpt lat="42.7872143412962" lon="12.32313826003737"><ele>447.00000000000006</ele><time>2026-04-07T10:38:22.001Z</time></trkpt><trkpt lat="42.78712641565643" lon="12.323090138823382"><ele>447.00000000000006</ele><time>2026-04-07T10:38:23.001Z</time></trkpt><trkpt lat="42.78704768121426" lon="12.323144982204894"><ele>447.0</ele><time>2026-04-07T10:38:24.001Z</time></trkpt><trkpt lat="42.78698084268069" lon="12.323299583654682"><ele>447.0</ele><time>2026-04-07T10:38:25.001Z</time></trkpt><trkpt lat="42.7869412387485" lon="12.323525976497832"><ele>447.0</ele><time>2026-04-07T10:38:26.001Z</time></trkpt><trkpt lat="42.78694675669622" lon="12.323796078086376"><ele>447.0</ele><time>2026-04-07T10:38:27.001Z</time></trkpt><trkpt lat="42.78695598923892" lon="12.324061321502354"><ele>447.0</ele><time>2026-04-07T10:38:28.001Z</time></trkpt><trkpt lat="42.786929938259455" lon="12.32430683293328"><ele>445.0</ele><time>2026-04-07T10:38:29.001Z</time></trkpt><trkpt lat="42.78686594012388" lon="12.324548285526323"><ele>443.0</ele><time>2026-04-07T10:38:30.001Z</time></trkpt><trkpt lat="42.78677791576644" lon="12.324771310512425"><ele>441.0</ele><time>2026-04-07T10:38:31.001Z</time></trkpt><trkpt lat="42.78664965821055" lon="12.324924325440046"><ele>438.0</ele><time>2026-04-07T10:38:32.001Z</time></trkpt><trkpt lat="42.78650766929318" lon="12.325075284430879"><ele>435.0</ele><time>2026-04-07T10:38:33.001Z</time></trkpt><trkpt lat="42.78633314843271" lon="12.32520472934726"><ele>432.0</ele><time>2026-04-07T10:38:34.001Z</time></trkpt><trkpt lat="42.78616947198679" lon="12.325335116225066"><ele>432.0</ele><time>2026-04-07T10:38:35.001Z</time></trkpt><trkpt lat="42.78601468725681" lon="12.32545636108859"><ele>432.0</ele><time>2026-04-07T10:38:36.001Z</time></trkpt><trkpt lat="42.785868125516025" lon="12.325578184333871"><ele>432.0</ele><time>2026-04-07T10:38:37.001Z</time></trkpt><trkpt lat="42.78573987454055" lon="12.325696328495576"><ele>429.66666666666663</ele><time>2026-04-07T10:38:38.001Z</time></trkpt><trkpt lat="42.78564373950639" lon="12.325844851972711"><ele>427.3333333333333</ele><time>2026-04-07T10:38:39.001Z</time></trkpt><trkpt lat="42.785580518423984" lon="12.32603792358468"><ele>425.0</ele><time>2026-04-07T10:38:40.001Z</time></trkpt><trkpt lat="42.78555759806841" lon="12.326276141866908"><ele>422.66666666666663</ele><time>2026-04-07T10:38:41.001Z</time></trkpt><trkpt lat="42.785555633102426" lon="12.326535178622326"><ele>420.33333333333337</ele><time>2026-04-07T10:38:42.001Z</time></trkpt><trkpt lat="42.78551448272741" lon="12.326759155075312"><ele>418.0</ele><time>2026-04-07T10:38:43.001Z</time></trkpt><trkpt lat="42.7854135578266" lon="12.326965182062995"><ele>418.0</ele><time>2026-04-07T10:38:44.001Z</time></trkpt><trkpt lat="42.785279974392886" lon="12.327166025384226"><ele>418.0</ele><time>2026-04-07T10:38:45.001Z</time></trkpt><trkpt lat="42.78514826131944" lon="12.32736576534844"><ele>418.0</ele><time>2026-04-07T10:38:46.001Z</time></trkpt><trkpt lat="42.78503177403784" lon="12.32754981296826"><ele>416.6666666666667</ele><time>2026-04-07T10:38:47.001Z</time></trkpt><trkpt lat="42.784932528818274" lon="12.327739630310568"><ele>415.33333333333337</ele><time>2026-04-07T10:38:48.001Z</time></trkpt><trkpt lat="42.78486187292529" lon="12.327942644189926"><ele>414.0</ele><time>2026-04-07T10:38:49.001Z</time></trkpt><trkpt lat="42.78481064317949" lon="12.328148071876932"><ele>412.5</ele><time>2026-04-07T10:38:50.001Z</time></trkpt><trkpt lat="42.784766752902286" lon="12.328345809869553"><ele>411.0</ele><time>2026-04-07T10:38:51.001Z</time></trkpt><trkpt lat="42.784709092329685" lon="12.328528946492296"><ele>409.5</ele><time>2026-04-07T10:38:52.001Z</time></trkpt><trkpt lat="42.78462134263432" lon="12.328674446668648"><ele>408.0</ele><time>2026-04-07T10:38:53.001Z</time></trkpt><trkpt lat="42.78450801152591" lon="12.328781966187329"><ele>408.0</ele><time>2026-04-07T10:38:54.001Z</time></trkpt><trkpt lat="42.78438238748173" lon="12.328855123777977"><ele>408.0</ele><time>2026-04-07T10:38:55.001Z</time></trkpt><trkpt lat="42.78425974013116" lon="12.328895454011299"><ele>408.0</ele><time>2026-04-07T10:38:56.001Z</time></trkpt><trkpt lat="42.78415215184642" lon="12.32887282899759"><ele>408.0</ele><time>2026-04-07T10:38:57.001Z</time></trkpt><trkpt lat="42.784063182741775" lon="12.328794429570664"><ele>407.75</ele><time>2026-04-07T10:38:58.001Z</time></trkpt><trkpt lat="42.78398598265839" lon="12.328669948408633"><ele>407.5</ele><time>2026-04-07T10:38:59.001Z</time></trkpt><trkpt lat="42.783912556486634" lon="12.328508895600809"><ele>407.25</ele><time>2026-04-07T10:39:00.001Z</time></trkpt><trkpt lat="42.78383509117976" lon="12.328333949024604"><ele>407.0</ele><time>2026-04-07T10:39:01.001Z</time></trkpt><trkpt lat="42.78376162620753" lon="12.328166668825098"><ele>406.6</ele><time>2026-04-07T10:39:02.001Z</time></trkpt><trkpt lat="42.783698903995834" lon="12.328022679866162"><ele>406.20000000000005</ele><time>2026-04-07T10:39:03.001Z</time></trkpt><trkpt lat="42.78362358179563" lon="12.327918947878763"><ele>405.8</ele><time>2026-04-07T10:39:04Z</time></trkpt><trkpt lat="42.78352426739779" lon="12.327883485361824"><ele>405.4</ele><time>2026-04-07T10:39:05Z</time></trkpt><trkpt lat="42.783415723750046" lon="12.327922220029281"><ele>405.0</ele><time>2026-04-07T10:39:06Z</time></trkpt><trkpt lat="42.78331689931898" lon="12.328034331797092"><ele>403.5</ele><time>2026-04-07T10:39:07Z</time></trkpt><trkpt lat="42.7832021944875" lon="12.328149264358894"><ele>402.0</ele><time>2026-04-07T10:39:08Z</time></trkpt><trkpt lat="42.78308477833399" lon="12.328275824413193"><ele>400.5</ele><time>2026-04-07T10:39:09Z</time></trkpt><trkpt lat="42.78294790483405" lon="12.328381030480587"><ele>399.0</ele><time>2026-04-07T10:39:10Z</time></trkpt><trkpt lat="42.782786452578925" lon="12.32846513857829"><ele>398.33333333333337</ele><time>2026-04-07T10:39:11Z</time></trkpt><trkpt lat="42.78262679023411" lon="12.3285402605727"><ele>397.6666666666667</ele><time>2026-04-07T10:39:12Z</time></trkpt><trkpt lat="42.7824754040187" lon="12.328601587947553"><ele>397.0</ele><time>2026-04-07T10:39:13Z</time></trkpt><trkpt lat="42.782330045931886" lon="12.328637890504902"><ele>397.0</ele><time>2026-04-07T10:39:14Z</time></trkpt><trkpt lat="42.78217820164622" lon="12.328647615317383"><ele>397.0</ele><time>2026-04-07T10:39:15Z</time></trkpt><trkpt lat="42.78201624347585" lon="12.32859769803402"><ele>397.0</ele><time>2026-04-07T10:39:16Z</time></trkpt><trkpt lat="42.78186128558487" lon="12.328517554527972"><ele>395.0</ele><time>2026-04-07T10:39:17Z</time></trkpt><trkpt lat="42.781724044668536" lon="12.328437227921524"><ele>393.0</ele><time>2026-04-07T10:39:18Z</time></trkpt><trkpt lat="42.78160512176208" lon="12.328378216307495"><ele>391.0</ele><time>2026-04-07T10:39:19Z</time></trkpt><trkpt lat="42.781503431996796" lon="12.32836343079925"><ele>389.0</ele><time>2026-04-07T10:39:20Z</time></trkpt><trkpt lat="42.78141996306822" lon="12.328418288944304"><ele>389.0</ele><time>2026-04-07T10:39:21Z</time></trkpt><trkpt lat="42.78137358214071" lon="12.328549548709589"><ele>389.0</ele><time>2026-04-07T10:39:22Z</time></trkpt><trkpt lat="42.78137092886046" lon="12.328725815530941"><ele>389.0</ele><time>2026-04-07T10:39:23Z</time></trkpt><trkpt lat="42.78140224762732" lon="12.328938174070121"><ele>389.0</ele><time>2026-04-07T10:39:24Z</time></trkpt><trkpt lat="42.781430121502154" lon="12.329171536617116"><ele>387.0</ele><time>2026-04-07T10:39:25Z</time></trkpt><trkpt lat="42.78145377917037" lon="12.329416268623845"><ele>385.0</ele><time>2026-04-07T10:39:26Z</time></trkpt><trkpt lat="42.78147443542324" lon="12.329643167513685"><ele>383.0</ele><time>2026-04-07T10:39:27Z</time></trkpt><trkpt lat="42.78147232623192" lon="12.329861175425306"><ele>383.0</ele><time>2026-04-07T10:39:28Z</time></trkpt><trkpt lat="42.78146126830938" lon="12.33006819920204"><ele>383.0</ele><time>2026-04-07T10:39:29Z</time></trkpt><trkpt lat="42.781428711577206" lon="12.330277613306396"><ele>383.0</ele><time>2026-04-07T10:39:30Z</time></trkpt><trkpt lat="42.78137819956828" lon="12.33045787582065"><ele>382.0</ele><time>2026-04-07T10:39:31Z</time></trkpt><trkpt lat="42.781368118954944" lon="12.33061875554277"><ele>381.0</ele><time>2026-04-07T10:39:32Z</time></trkpt><trkpt lat="42.78141580110807" lon="12.330775943193286"><ele>380.0</ele><time>2026-04-07T10:39:33Z</time></trkpt><trkpt lat="42.78152540398698" lon="12.330920416673179"><ele>379.0</ele><time>2026-04-07T10:39:34Z</time></trkpt><trkpt lat="42.78167626634116" lon="12.33104592696649"><ele>379.0</ele><time>2026-04-07T10:39:35Z</time></trkpt><trkpt lat="42.78184601604967" lon="12.331181979263464"><ele>379.0</ele><time>2026-04-07T10:39:36Z</time></trkpt><trkpt lat="42.78201827831486" lon="12.331342556788686"><ele>379.0</ele><time>2026-04-07T10:39:37Z</time></trkpt><trkpt lat="42.782177230302466" lon="12.331498297384211"><ele>377.3333333333333</ele><time>2026-04-07T10:39:38Z</time></trkpt><trkpt lat="42.782308870959966" lon="12.331691990433798"><ele>375.6666666666667</ele><time>2026-04-07T10:39:39Z</time></trkpt><trkpt lat="42.78245736280998" lon="12.331865296183604"><ele>374.0</ele><time>2026-04-07T10:39:40Z</time></trkpt><trkpt lat="42.782579150300826" lon="12.332031796627188"><ele>373.6666666666667</ele><time>2026-04-07T10:39:41Z</time></trkpt><trkpt lat="42.782704512680525" lon="12.332169846596715"><ele>373.3333333333333</ele><time>2026-04-07T10:39:42Z</time></trkpt><trkpt lat="42.782845853926126" lon="12.33227176203904"><ele>373.0</ele><time>2026-04-07T10:39:43Z</time></trkpt><trkpt lat="42.78299210095254" lon="12.332357676072942"><ele>373.0</ele><time>2026-04-07T10:39:44Z</time></trkpt><trkpt lat="42.78312182351466" lon="12.332436857121188"><ele>373.0</ele><time>2026-04-07T10:39:45Z</time></trkpt><trkpt lat="42.783223044890995" lon="12.332515825995232"><ele>373.0</ele><time>2026-04-07T10:39:46Z</time></trkpt><trkpt lat="42.78330822129322" lon="12.332610711033775"><ele>373.0</ele><time>2026-04-07T10:39:47Z</time></trkpt><trkpt lat="42.78338517772142" lon="12.33274816737795"><ele>373.0</ele><time>2026-04-07T10:39:48Z</time></trkpt><trkpt lat="42.78344920044825" lon="12.332927498738503"><ele>373.0</ele><time>2026-04-07T10:39:49Z</time></trkpt><trkpt lat="42.783509291352345" lon="12.33313568103759"><ele>373.0</ele><time>2026-04-07T10:39:50Z</time></trkpt><trkpt lat="42.78357936544992" lon="12.333354412435645"><ele>373.0</ele><time>2026-04-07T10:39:51Z</time></trkpt><trkpt lat="42.78366730546975" lon="12.333582991273504"><ele>373.0</ele><time>2026-04-07T10:39:52Z</time></trkpt><trkpt lat="42.783784051627364" lon="12.333817853020761"><ele>373.0</ele><time>2026-04-07T10:39:53Z</time></trkpt><trkpt lat="42.78390381054697" lon="12.334037085614534"><ele>371.0</ele><time>2026-04-07T10:39:54Z</time></trkpt><trkpt lat="42.78401411737856" lon="12.334239855798632"><ele>369.0</ele><time>2026-04-07T10:39:55Z</time></trkpt><trkpt lat="42.78412222888658" lon="12.334435433445439"><ele>367.0</ele><time>2026-04-07T10:39:56Z</time></trkpt><trkpt lat="42.7842239252949" lon="12.33461695122134"><ele>367.0</ele><time>2026-04-07T10:39:57Z</time></trkpt><trkpt lat="42.78431980570531" lon="12.334793092443936"><ele>367.0</ele><time>2026-04-07T10:39:58Z</time></trkpt><trkpt lat="42.78440757953883" lon="12.334981717859351"><ele>367.0</ele><time>2026-04-07T10:39:59Z</time></trkpt><trkpt lat="42.78447010190939" lon="12.335201790751288"><ele>367.0</ele><time>2026-04-07T10:40:00Z</time></trkpt><trkpt lat="42.78450078202413" lon="12.335459985401464"><ele>367.0</ele><time>2026-04-07T10:40:01Z</time></trkpt><trkpt lat="42.78450816055061" lon="12.335742896093363"><ele>367.0</ele><time>2026-04-07T10:40:02Z</time></trkpt><trkpt lat="42.78450540036278" lon="12.336031320844826"><ele>365.3333333333333</ele><time>2026-04-07T10:40:03Z</time></trkpt><trkpt lat="42.78450289331377" lon="12.336306914965418"><ele>363.6666666666667</ele><time>2026-04-07T10:40:04Z</time></trkpt><trkpt lat="42.784510545180055" lon="12.336540723787497"><ele>362.0</ele><time>2026-04-07T10:40:05Z</time></trkpt><trkpt lat="42.784542048651744" lon="12.336737443627966"><ele>361.0</ele><time>2026-04-07T10:40:06Z</time></trkpt><trkpt lat="42.78462013869303" lon="12.33688827118317"><ele>360.0</ele><time>2026-04-07T10:40:07Z</time></trkpt><trkpt lat="42.78474368532991" lon="12.337002882860231"><ele>359.0</ele><time>2026-04-07T10:40:08Z</time></trkpt><trkpt lat="42.784913855441545" lon="12.337081715317115"><ele>359.0</ele><time>2026-04-07T10:40:09Z</time></trkpt><trkpt lat="42.78510095573659" lon="12.33714190423343"><ele>359.0</ele><time>2026-04-07T10:40:10Z</time></trkpt><trkpt lat="42.78527751143405" lon="12.337210695275244"><ele>359.0</ele><time>2026-04-07T10:40:11Z</time></trkpt><trkpt lat="42.785438696540346" lon="12.337265165144872"><ele>360.33333333333337</ele><time>2026-04-07T10:40:12Z</time></trkpt><trkpt lat="42.7855949509967" lon="12.337266404876901"><ele>361.6666666666667</ele><time>2026-04-07T10:40:13Z</time></trkpt><trkpt lat="42.78574359587785" lon="12.337180769989313"><ele>363.0</ele><time>2026-04-07T10:40:14Z</time></trkpt><trkpt lat="42.78586284254114" lon="12.33701986564749"><ele>363.0</ele><time>2026-04-07T10:40:15Z</time></trkpt><trkpt lat="42.78592769567515" lon="12.336816501281405"><ele>363.0</ele><time>2026-04-07T10:40:16Z</time></trkpt><trkpt lat="42.78601422379847" lon="12.336633093416443"><ele>363.0</ele><time>2026-04-07T10:40:17Z</time></trkpt><trkpt lat="42.78609010090555" lon="12.336479041674474"><ele>363.0</ele><time>2026-04-07T10:40:18Z</time></trkpt><trkpt lat="42.786184439317736" lon="12.336395510141408"><ele>363.0</ele><time>2026-04-07T10:40:19Z</time></trkpt><trkpt lat="42.78629915065036" lon="12.336397025196371"><ele>363.0</ele><time>2026-04-07T10:40:20Z</time></trkpt><trkpt lat="42.78640064053511" lon="12.336480217307317"><ele>363.0</ele><time>2026-04-07T10:40:21Z</time></trkpt><trkpt lat="42.786474166011715" lon="12.336585054466408"><ele>363.0</ele><time>2026-04-07T10:40:22Z</time></trkpt><trkpt lat="42.78649311107427" lon="12.336703063498295"><ele>363.0</ele><time>2026-04-07T10:40:23Z</time></trkpt><trkpt lat="42.78645289228659" lon="12.336852922917835"><ele>363.0</ele><time>2026-04-07T10:40:24Z</time></trkpt><trkpt lat="42.78637106871381" lon="12.337049463098623"><ele>363.0</ele><time>2026-04-07T10:40:25Z</time></trkpt><trkpt lat="42.78630939842371" lon="12.337303324839711"><ele>365.6666666666667</ele><time>2026-04-07T10:40:26Z</time></trkpt><trkpt lat="42.78621184218856" lon="12.33754690642953"><ele>368.33333333333337</ele><time>2026-04-07T10:40:27Z</time></trkpt><trkpt lat="42.78609992447104" lon="12.33774250743647"><ele>371.0</ele><time>2026-04-07T10:40:28Z</time></trkpt><trkpt lat="42.785992844665735" lon="12.337903739048794"><ele>360.6666666666667</ele><time>2026-04-07T10:40:29Z</time></trkpt><trkpt lat="42.785927210106145" lon="12.33809731343408"><ele>350.3333333333333</ele><time>2026-04-07T10:40:30Z</time></trkpt><trkpt lat="42.78591319555083" lon="12.33836600785858"><ele>340.0</ele><time>2026-04-07T10:40:31Z</time></trkpt><trkpt lat="42.78589310150205" lon="12.338615376741544"><ele>340.0</ele><time>2026-04-07T10:40:32Z</time></trkpt><trkpt lat="42.78588679449136" lon="12.338800884757585"><ele>340.0</ele><time>2026-04-07T10:40:33Z</time></trkpt><trkpt lat="42.78593064985288" lon="12.338971511731243"><ele>340.0</ele><time>2026-04-07T10:40:34Z</time></trkpt><trkpt lat="42.78605425848575" lon="12.339146433139206"><ele>340.0</ele><time>2026-04-07T10:40:35Z</time></trkpt><trkpt lat="42.7862289619283" lon="12.339294126179224"><ele>342.3333333333333</ele><time>2026-04-07T10:40:36Z</time></trkpt><trkpt lat="42.786381894947624" lon="12.339450156885867"><ele>344.6666666666667</ele><time>2026-04-07T10:40:37Z</time></trkpt><trkpt lat="42.78646116424997" lon="12.339655834302953"><ele>347.0</ele><time>2026-04-07T10:40:38Z</time></trkpt><trkpt lat="42.78652815065183" lon="12.339888485461831"><ele>347.0</ele><time>2026-04-07T10:40:39Z</time></trkpt><trkpt lat="42.78657093574814" lon="12.340084446470875"><ele>347.0</ele><time>2026-04-07T10:40:40Z</time></trkpt><trkpt lat="42.78654350508212" lon="12.340244983343682"><ele>347.0</ele><time>2026-04-07T10:40:41Z</time></trkpt><trkpt lat="42.78644868793327" lon="12.340418085525002"><ele>347.0</ele><time>2026-04-07T10:40:42Z</time></trkpt><trkpt lat="42.78635376653182" lon="12.340662141743183"><ele>346.6666666666667</ele><time>2026-04-07T10:40:43Z</time></trkpt><trkpt lat="42.7862660732669" lon="12.34089128749867"><ele>346.3333333333333</ele><time>2026-04-07T10:40:44Z</time></trkpt><trkpt lat="42.78623547679931" lon="12.341087923924071"><ele>346.0</ele><time>2026-04-07T10:40:45Z</time></trkpt><trkpt lat="42.78627827959004" lon="12.341297786822526"><ele>346.0</ele><time>2026-04-07T10:40:46Z</time></trkpt><trkpt lat="42.786357363532176" lon="12.341535360084292"><ele>346.0</ele><time>2026-04-07T10:40:47Z</time></trkpt><trkpt lat="42.78642418840142" lon="12.341758372590482"><ele>346.0</ele><time>2026-04-07T10:40:48Z</time></trkpt><trkpt lat="42.786475829236615" lon="12.341922896683256"><ele>346.0</ele><time>2026-04-07T10:40:49Z</time></trkpt><trkpt lat="42.78643318948374" lon="12.34207029613001"><ele>346.0</ele><time>2026-04-07T10:40:50Z</time></trkpt><trkpt lat="42.7863125614806" lon="12.342192352656639"><ele>346.0</ele><time>2026-04-07T10:40:51Z</time></trkpt><trkpt lat="42.78615331526234" lon="12.342321657071572"><ele>340.66666666666663</ele><time>2026-04-07T10:40:52Z</time></trkpt><trkpt lat="42.785981572739466" lon="12.342524165052048"><ele>335.3333333333333</ele><time>2026-04-07T10:40:53Z</time></trkpt><trkpt lat="42.785834807560164" lon="12.342740645729146"><ele>330.0</ele><time>2026-04-07T10:40:54Z</time></trkpt><trkpt lat="42.785709125322576" lon="12.3429271872579"><ele>331.3333333333333</ele><time>2026-04-07T10:40:55Z</time></trkpt><trkpt lat="42.78559395395725" lon="12.343138748199573"><ele>332.66666666666663</ele><time>2026-04-07T10:40:56Z</time></trkpt><trkpt lat="42.78550197913677" lon="12.343436326085014"><ele>334.0</ele><time>2026-04-07T10:40:57Z</time></trkpt><trkpt lat="42.785418454271664" lon="12.343769076140914"><ele>335.5</ele><time>2026-04-07T10:40:58Z</time></trkpt><trkpt lat="42.78532307156333" lon="12.344066401008478"><ele>337.0</ele><time>2026-04-07T10:40:59Z</time></trkpt><trkpt lat="42.78521002044456" lon="12.344345291305501"><ele>333.3333333333333</ele><time>2026-04-07T10:41:00Z</time></trkpt><trkpt lat="42.785099163890976" lon="12.344607322047118"><ele>329.6666666666667</ele><time>2026-04-07T10:41:01Z</time></trkpt><trkpt lat="42.78499738018986" lon="12.344848788869559"><ele>326.0</ele><time>2026-04-07T10:41:02Z</time></trkpt><trkpt lat="42.78490104288706" lon="12.345084443109073"><ele>326.0</ele><time>2026-04-07T10:41:03Z</time></trkpt><trkpt lat="42.78479589142294" lon="12.34528973232293"><ele>326.0</ele><time>2026-04-07T10:41:04Z</time></trkpt><trkpt lat="42.78465581679717" lon="12.345451250915234"><ele>326.0</ele><time>2026-04-07T10:41:05Z</time></trkpt><trkpt lat="42.78447246869874" lon="12.345559074253513"><ele>323.6666666666667</ele><time>2026-04-07T10:41:06Z</time></trkpt><trkpt lat="42.7842644670952" lon="12.3456508960133"><ele>321.3333333333333</ele><time>2026-04-07T10:41:07Z</time></trkpt><trkpt lat="42.78407545258417" lon="12.3457364241312"><ele>319.0</ele><time>2026-04-07T10:41:08Z</time></trkpt><trkpt lat="42.78392047823012" lon="12.345822813209114"><ele>319.0</ele><time>2026-04-07T10:41:09Z</time></trkpt><trkpt lat="42.78378469242215" lon="12.345896161456265"><ele>319.0</ele><time>2026-04-07T10:41:10Z</time></trkpt><trkpt lat="42.78363856397345" lon="12.345926012027746"><ele>319.0</ele><time>2026-04-07T10:41:11Z</time></trkpt><trkpt lat="42.783464659392656" lon="12.345866558711032"><ele>317.3333333333333</ele><time>2026-04-07T10:41:12Z</time></trkpt><trkpt lat="42.78326672094218" lon="12.34576550988778"><ele>315.6666666666667</ele><time>2026-04-07T10:41:13Z</time></trkpt><trkpt lat="42.7830794627883" lon="12.345673978755508"><ele>314.0</ele><time>2026-04-07T10:41:14Z</time></trkpt><trkpt lat="42.78292099571632" lon="12.345604787385577"><ele>314.0</ele><time>2026-04-07T10:41:15Z</time></trkpt><trkpt lat="42.78278368489665" lon="12.345556836235204"><ele>314.0</ele><time>2026-04-07T10:41:16Z</time></trkpt><trkpt lat="42.782634071318235" lon="12.34555387411531"><ele>314.0</ele><time>2026-04-07T10:41:17Z</time></trkpt><trkpt lat="42.78246614781131" lon="12.345634976457093"><ele>314.0</ele><time>2026-04-07T10:41:18Z</time></trkpt><trkpt lat="42.78229255031851" lon="12.345774924164774"><ele>314.0</ele><time>2026-04-07T10:41:19Z</time></trkpt><trkpt lat="42.78211765783945" lon="12.3458744904062"><ele>314.0</ele><time>2026-04-07T10:41:20Z</time></trkpt><trkpt lat="42.78191753947773" lon="12.345900839224683"><ele>312.0</ele><time>2026-04-07T10:41:21Z</time></trkpt><trkpt lat="42.78172925509835" lon="12.345887687775626"><ele>310.0</ele><time>2026-04-07T10:41:22Z</time></trkpt><trkpt lat="42.78156398322073" lon="12.345893382549184"><ele>308.0</ele><time>2026-04-07T10:41:23Z</time></trkpt><trkpt lat="42.781429694696115" lon="12.34589903536542"><ele>308.0</ele><time>2026-04-07T10:41:24Z</time></trkpt><trkpt lat="42.78131515136716" lon="12.345915198737243"><ele>308.0</ele><time>2026-04-07T10:41:25Z</time></trkpt><trkpt lat="42.7812183668049" lon="12.345988635896466"><ele>308.0</ele><time>2026-04-07T10:41:26Z</time></trkpt><trkpt lat="42.78113612219924" lon="12.346133550723257"><ele>308.0</ele><time>2026-04-07T10:41:27Z</time></trkpt><trkpt lat="42.781075939923554" lon="12.3463267703645"><ele>304.0</ele><time>2026-04-07T10:41:28Z</time></trkpt><trkpt lat="42.781014958471715" lon="12.346534245623227"><ele>300.0</ele><time>2026-04-07T10:41:29Z</time></trkpt><trkpt lat="42.780955657878344" lon="12.346722295924778"><ele>296.0</ele><time>2026-04-07T10:41:30Z</time></trkpt><trkpt lat="42.78092747006645" lon="12.346907409066395"><ele>296.0</ele><time>2026-04-07T10:41:31Z</time></trkpt><trkpt lat="42.78095218147549" lon="12.347091838606524"><ele>296.0</ele><time>2026-04-07T10:41:32Z</time></trkpt><trkpt lat="42.781031081911635" lon="12.347286131010172"><ele>296.0</ele><time>2026-04-07T10:41:33Z</time></trkpt><trkpt lat="42.78113394052548" lon="12.347473336054259"><ele>301.33333333333337</ele><time>2026-04-07T10:41:34Z</time></trkpt><trkpt lat="42.78123701564262" lon="12.347658590554117"><ele>306.6666666666667</ele><time>2026-04-07T10:41:35Z</time></trkpt><trkpt lat="42.78132132687496" lon="12.347839295421847"><ele>312.0</ele><time>2026-04-07T10:41:36Z</time></trkpt><trkpt lat="42.78137679392458" lon="12.34802453192611"><ele>310.0</ele><time>2026-04-07T10:41:37Z</time></trkpt><trkpt lat="42.78138492426394" lon="12.348211697298323"><ele>308.0</ele><time>2026-04-07T10:41:38Z</time></trkpt><trkpt lat="42.781343321624874" lon="12.348406697177639"><ele>306.0</ele><time>2026-04-07T10:41:39Z</time></trkpt><trkpt lat="42.78126519609572" lon="12.34860849469282"><ele>306.0</ele><time>2026-04-07T10:41:40Z</time></trkpt><trkpt lat="42.7811666028588" lon="12.348811317330032"><ele>306.0</ele><time>2026-04-07T10:41:41Z</time></trkpt><trkpt lat="42.78105558152106" lon="12.349007615560815"><ele>306.0</ele><time>2026-04-07T10:41:42Z</time></trkpt><trkpt lat="42.78094600325532" lon="12.34919645201226"><ele>303.6666666666667</ele><time>2026-04-07T10:41:43Z</time></trkpt><trkpt lat="42.78083797861164" lon="12.349388621895645"><ele>301.33333333333337</ele><time>2026-04-07T10:41:44Z</time></trkpt><trkpt lat="42.78073071169964" lon="12.349596227709867"><ele>299.0</ele><time>2026-04-07T10:41:45Z</time></trkpt><trkpt lat="42.78061123083383" lon="12.349813927311054"><ele>298.33333333333337</ele><time>2026-04-07T10:41:46Z</time></trkpt><trkpt lat="42.780483877524404" lon="12.350039013381163"><ele>297.6666666666667</ele><time>2026-04-07T10:41:47Z</time></trkpt><trkpt lat="42.780356306347926" lon="12.35027178058398"><ele>297.0</ele><time>2026-04-07T10:41:48Z</time></trkpt><trkpt lat="42.780229408457394" lon="12.35050027533587"><ele>294.0</ele><time>2026-04-07T10:41:49Z</time></trkpt><trkpt lat="42.78010655618941" lon="12.350716924451689"><ele>291.0</ele><time>2026-04-07T10:41:50Z</time></trkpt><trkpt lat="42.779986006111926" lon="12.350943791583889"><ele>288.0</ele><time>2026-04-07T10:41:51Z</time></trkpt><trkpt lat="42.779874255479136" lon="12.351185654499442"><ele>287.0</ele><time>2026-04-07T10:41:52Z</time></trkpt><trkpt lat="42.77977377831892" lon="12.351453444406818"><ele>286.0</ele><time>2026-04-07T10:41:53Z</time></trkpt><trkpt lat="42.779683016777135" lon="12.35176417016244"><ele>286.0</ele><time>2026-04-07T10:41:54Z</time></trkpt><trkpt lat="42.779587664493945" lon="12.352066044562138"><ele>286.0</ele><time>2026-04-07T10:41:55Z</time></trkpt><trkpt lat="42.77949136161572" lon="12.352370574663981"><ele>287.0</ele><time>2026-04-07T10:41:56Z</time></trkpt><trkpt lat="42.779391938754216" lon="12.35267567386799"><ele>288.0</ele><time>2026-04-07T10:41:57Z</time></trkpt><trkpt lat="42.77929436579151" lon="12.352979155946223"><ele>281.0</ele><time>2026-04-07T10:41:58Z</time></trkpt><trkpt lat="42.77919728417698" lon="12.353275323194435"><ele>274.0</ele><time>2026-04-07T10:41:59Z</time></trkpt><trkpt lat="42.779104328519324" lon="12.353562548849018"><ele>274.0</ele><time>2026-04-07T10:42:00Z</time></trkpt><trkpt lat="42.779013226034" lon="12.353836039854603"><ele>274.0</ele><time>2026-04-07T10:42:01Z</time></trkpt><trkpt lat="42.778924600976374" lon="12.354097562562124"><ele>274.0</ele><time>2026-04-07T10:42:02Z</time></trkpt><trkpt lat="42.77884026619761" lon="12.354351356066307"><ele>275.3333333333333</ele><time>2026-04-07T10:42:03Z</time></trkpt><trkpt lat="42.77875707495455" lon="12.354596014114081"><ele>276.6666666666667</ele><time>2026-04-07T10:42:04Z</time></trkpt><trkpt lat="42.77867035021509" lon="12.354826084712277"><ele>278.0</ele><time>2026-04-07T10:42:05Z</time></trkpt><trkpt lat="42.7785911388216" lon="12.355052174748383"><ele>278.33333333333337</ele><time>2026-04-07T10:42:06Z</time></trkpt><trkpt lat="42.778547718619016" lon="12.355286957688566"><ele>278.6666666666667</ele><time>2026-04-07T10:42:07Z</time></trkpt><trkpt lat="42.77856282083927" lon="12.355525842322486"><ele>279.0</ele><time>2026-04-07T10:42:08Z</time></trkpt><trkpt lat="42.77861226422156" lon="12.35577023157707"><ele>276.3333333333333</ele><time>2026-04-07T10:42:09Z</time></trkpt><trkpt lat="42.77870021400953" lon="12.35601036419625"><ele>273.66666666666663</ele><time>2026-04-07T10:42:10Z</time></trkpt><trkpt lat="42.778801385731924" lon="12.356242907351026"><ele>271.0</ele><time>2026-04-07T10:42:11Z</time></trkpt><trkpt lat="42.77888474797889" lon="12.35648344533408"><ele>268.66666666666663</ele><time>2026-04-07T10:42:12Z</time></trkpt><trkpt lat="42.77896454070239" lon="12.356716591157799"><ele>266.3333333333333</ele><time>2026-04-07T10:42:13Z</time></trkpt><trkpt lat="42.779074660728874" lon="12.35690552473988"><ele>264.0</ele><time>2026-04-07T10:42:14Z</time></trkpt><trkpt lat="42.77921299160008" lon="12.357032281221505"><ele>265.25</ele><time>2026-04-07T10:42:15Z</time></trkpt><trkpt lat="42.77935074599498" lon="12.357096681897495"><ele>266.5</ele><time>2026-04-07T10:42:16Z</time></trkpt><trkpt lat="42.77945845825038" lon="12.357166138959128"><ele>267.75</ele><time>2026-04-07T10:42:17Z</time></trkpt><trkpt lat="42.77951769927407" lon="12.357295303700226"><ele>269.0</ele><time>2026-04-07T10:42:18Z</time></trkpt><trkpt lat="42.77950956750058" lon="12.35745794210278"><ele>269.0</ele><time>2026-04-07T10:42:19Z</time></trkpt><trkpt lat="42.77943545050256" lon="12.357613062505207"><ele>269.0</ele><time>2026-04-07T10:42:20Z</time></trkpt><trkpt lat="42.77931092236561" lon="12.357763964325073"><ele>269.0</ele><time>2026-04-07T10:42:21Z</time></trkpt><trkpt lat="42.779185024411696" lon="12.357940537823538"><ele>266.0</ele><time>2026-04-07T10:42:22Z</time></trkpt><trkpt lat="42.77905691590487" lon="12.3581304109716"><ele>263.0</ele><time>2026-04-07T10:42:23Z</time></trkpt><trkpt lat="42.77891455049795" lon="12.358299108451451"><ele>260.0</ele><time>2026-04-07T10:42:24Z</time></trkpt><trkpt lat="42.7787483204084" lon="12.358436111366489"><ele>260.0</ele><time>2026-04-07T10:42:25Z</time></trkpt><trkpt lat="42.77857104666762" lon="12.358548810684146"><ele>260.0</ele><time>2026-04-07T10:42:26Z</time></trkpt><trkpt lat="42.77839755984196" lon="12.358661666546226"><ele>260.0</ele><time>2026-04-07T10:42:27Z</time></trkpt><trkpt lat="42.77823866589874" lon="12.358770420328579"><ele>258.5</ele><time>2026-04-07T10:42:28Z</time></trkpt><trkpt lat="42.77810233699251" lon="12.358870180334245"><ele>257.0</ele><time>2026-04-07T10:42:29Z</time></trkpt><trkpt lat="42.777991863219555" lon="12.358973785404485"><ele>255.5</ele><time>2026-04-07T10:42:30Z</time></trkpt><trkpt lat="42.77790565575717" lon="12.359113699983716"><ele>254.0</ele><time>2026-04-07T10:42:31Z</time></trkpt><trkpt lat="42.77784466091144" lon="12.359289828940003"><ele>254.0</ele><time>2026-04-07T10:42:32Z</time></trkpt><trkpt lat="42.77779523244435" lon="12.359490220065776"><ele>254.0</ele><time>2026-04-07T10:42:33Z</time></trkpt><trkpt lat="42.77775463363365" lon="12.359716390485575"><ele>254.0</ele><time>2026-04-07T10:42:34Z</time></trkpt><trkpt lat="42.77770799744373" lon="12.359938792544673"><ele>250.33333333333334</ele><time>2026-04-07T10:42:35Z</time></trkpt><trkpt lat="42.77765825773506" lon="12.360145064590965"><ele>246.66666666666669</ele><time>2026-04-07T10:42:36Z</time></trkpt><trkpt lat="42.777606860711124" lon="12.360335202924357"><ele>243.0</ele><time>2026-04-07T10:42:37Z</time></trkpt><trkpt lat="42.77752953135917" lon="12.360510849328127"><ele>243.0</ele><time>2026-04-07T10:42:38Z</time></trkpt><trkpt lat="42.777434509268524" lon="12.36067810401682"><ele>243.0</ele><time>2026-04-07T10:42:39Z</time></trkpt><trkpt lat="42.77731481107712" lon="12.360848086668526"><ele>243.0</ele><time>2026-04-07T10:42:40Z</time></trkpt><trkpt lat="42.77719023871756" lon="12.360992516731262"><ele>243.0</ele><time>2026-04-07T10:42:41Z</time></trkpt><trkpt lat="42.77707155533216" lon="12.36113814586493"><ele>243.0</ele><time>2026-04-07T10:42:42Z</time></trkpt><trkpt lat="42.7769833406723" lon="12.361301063181257"><ele>243.0</ele><time>2026-04-07T10:42:43Z</time></trkpt><trkpt lat="42.776945053126425" lon="12.361500848529875"><ele>243.66666666666669</ele><time>2026-04-07T10:42:44Z</time></trkpt><trkpt lat="42.77696588580238" lon="12.361720858531825"><ele>244.33333333333334</ele><time>2026-04-07T10:42:45Z</time></trkpt><trkpt lat="42.77701021251101" lon="12.361961311597536"><ele>245.0</ele><time>2026-04-07T10:42:46Z</time></trkpt><trkpt lat="42.777045033409486" lon="12.362179889407509"><ele>243.0</ele><time>2026-04-07T10:42:47Z</time></trkpt><trkpt lat="42.777082261035055" lon="12.362383861583503"><ele>241.0</ele><time>2026-04-07T10:42:48Z</time></trkpt><trkpt lat="42.77715683843791" lon="12.362571624300521"><ele>239.0</ele><time>2026-04-07T10:42:49Z</time></trkpt><trkpt lat="42.77727720975229" lon="12.362758652583693"><ele>239.0</ele><time>2026-04-07T10:42:50Z</time></trkpt><trkpt lat="42.77740615480609" lon="12.362958070568451"><ele>239.0</ele><time>2026-04-07T10:42:51Z</time></trkpt><trkpt lat="42.77753167702656" lon="12.363170524267472"><ele>239.0</ele><time>2026-04-07T10:42:52Z</time></trkpt><trkpt lat="42.777655138029054" lon="12.36338335358576"><ele>238.66666666666669</ele><time>2026-04-07T10:42:53Z</time></trkpt><trkpt lat="42.77776721953946" lon="12.363584942235127"><ele>238.33333333333331</ele><time>2026-04-07T10:42:54Z</time></trkpt><trkpt lat="42.77788514325824" lon="12.363771267477865"><ele>238.0</ele><time>2026-04-07T10:42:55Z</time></trkpt><trkpt lat="42.778051987376266" lon="12.363938705633863"><ele>233.0</ele><time>2026-04-07T10:42:56Z</time></trkpt><trkpt lat="42.778261898608726" lon="12.364073290843555"><ele>228.0</ele><time>2026-04-07T10:42:57Z</time></trkpt><trkpt lat="42.778493013422754" lon="12.36419335028403"><ele>228.0</ele><time>2026-04-07T10:42:58Z</time></trkpt><trkpt lat="42.778720818655835" lon="12.364306995099852"><ele>228.0</ele><time>2026-04-07T10:42:59Z</time></trkpt><trkpt lat="42.778933432901646" lon="12.36440680519471"><ele>228.0</ele><time>2026-04-07T10:43:00Z</time></trkpt><trkpt lat="42.77916529148267" lon="12.364457208525842"><ele>228.0</ele><time>2026-04-07T10:43:01Z</time></trkpt><trkpt lat="42.779420784997164" lon="12.364439113487853"><ele>227.0</ele><time>2026-04-07T10:43:02Z</time></trkpt><trkpt lat="42.779679120270046" lon="12.364376739759349"><ele>226.0</ele><time>2026-04-07T10:43:03Z</time></trkpt><trkpt lat="42.77990713214856" lon="12.36430739054952"><ele>226.0</ele><time>2026-04-07T10:43:04Z</time></trkpt><trkpt lat="42.780094926193215" lon="12.364255195144752"><ele>226.0</ele><time>2026-04-07T10:43:05Z</time></trkpt><trkpt lat="42.780243393955274" lon="12.364214115404193"><ele>226.0</ele><time>2026-04-07T10:43:06Z</time></trkpt><trkpt lat="42.780360414109566" lon="12.364196540627663"><ele>224.60000000000002</ele><time>2026-04-07T10:43:07Z</time></trkpt><trkpt lat="42.780444866690985" lon="12.364239223149449"><ele>223.20000000000002</ele><time>2026-04-07T10:43:08Z</time></trkpt><trkpt lat="42.780488294884066" lon="12.364341747015853"><ele>221.79999999999998</ele><time>2026-04-07T10:43:09Z</time></trkpt><trkpt lat="42.780463759217255" lon="12.364466882256428"><ele>220.39999999999998</ele><time>2026-04-07T10:43:10Z</time></trkpt><trkpt lat="42.78039442049649" lon="12.364544485892564"><ele>219.0</ele><time>2026-04-07T10:43:11Z</time></trkpt><trkpt lat="42.78027196771099" lon="12.364597043229688"><ele>221.33333333333331</ele><time>2026-04-07T10:43:12Z</time></trkpt><trkpt lat="42.780085767650846" lon="12.364625339477685"><ele>223.66666666666666</ele><time>2026-04-07T10:43:13Z</time></trkpt><trkpt lat="42.779889120914376" lon="12.364654270139441"><ele>226.0</ele><time>2026-04-07T10:43:14Z</time></trkpt><trkpt lat="42.77970613533364" lon="12.364695978674858"><ele>223.66666666666666</ele><time>2026-04-07T10:43:15Z</time></trkpt><trkpt lat="42.77954341846838" lon="12.364775051997624"><ele>221.33333333333331</ele><time>2026-04-07T10:43:16Z</time></trkpt><trkpt lat="42.77941293835177" lon="12.364927686583144"><ele>219.0</ele><time>2026-04-07T10:43:17Z</time></trkpt><trkpt lat="42.779322096619865" lon="12.365168523526116"><ele>219.0</ele><time>2026-04-07T10:43:18Z</time></trkpt><trkpt lat="42.77927208426767" lon="12.36543999971105"><ele>219.0</ele><time>2026-04-07T10:43:19Z</time></trkpt><trkpt lat="42.779234783653195" lon="12.36566853091664"><ele>219.0</ele><time>2026-04-07T10:43:20Z</time></trkpt><trkpt lat="42.77915273544087" lon="12.36583517499771"><ele>215.66666666666669</ele><time>2026-04-07T10:43:21Z</time></trkpt><trkpt lat="42.7790091934051" lon="12.365941639593974"><ele>212.33333333333334</ele><time>2026-04-07T10:43:22Z</time></trkpt><trkpt lat="42.778817858399144" lon="12.36598807056625"><ele>209.0</ele><time>2026-04-07T10:43:23Z</time></trkpt><trkpt lat="42.77861104419192" lon="12.365997783570668"><ele>209.0</ele><time>2026-04-07T10:43:24Z</time></trkpt><trkpt lat="42.77838648353218" lon="12.365968271782418"><ele>209.0</ele><time>2026-04-07T10:43:25Z</time></trkpt><trkpt lat="42.77815250101208" lon="12.365903615093416"><ele>209.0</ele><time>2026-04-07T10:43:26Z</time></trkpt><trkpt lat="42.777940178416735" lon="12.365847144943304"><ele>209.0</ele><time>2026-04-07T10:43:27Z</time></trkpt><trkpt lat="42.77774664547749" lon="12.365810469011278"><ele>209.0</ele><time>2026-04-07T10:43:28Z</time></trkpt><trkpt lat="42.7775507567809" lon="12.365831205661845"><ele>208.0</ele><time>2026-04-07T10:43:29Z</time></trkpt><trkpt lat="42.77733240819626" lon="12.365940288632215"><ele>207.0</ele><time>2026-04-07T10:43:30Z</time></trkpt><trkpt lat="42.77711160442066" lon="12.366104335215505"><ele>207.0</ele><time>2026-04-07T10:43:31Z</time></trkpt><trkpt lat="42.776914441832915" lon="12.366249745668384"><ele>207.0</ele><time>2026-04-07T10:43:32Z</time></trkpt><trkpt lat="42.77673312847583" lon="12.366354078982514"><ele>207.0</ele><time>2026-04-07T10:43:33Z</time></trkpt><trkpt lat="42.77656525800653" lon="12.366406259314655"><ele>206.33333333333331</ele><time>2026-04-07T10:43:34Z</time></trkpt><trkpt lat="42.776404773690004" lon="12.366393899791182"><ele>205.66666666666666</ele><time>2026-04-07T10:43:35Z</time></trkpt><trkpt lat="42.77624849115766" lon="12.366308407282911"><ele>205.0</ele><time>2026-04-07T10:43:36Z</time></trkpt><trkpt lat="42.776106623547896" lon="12.366167472231151"><ele>204.66666666666666</ele><time>2026-04-07T10:43:37Z</time></trkpt><trkpt lat="42.775961198745485" lon="12.365960432348619"><ele>204.33333333333331</ele><time>2026-04-07T10:43:38Z</time></trkpt><trkpt lat="42.775810624976" lon="12.365724477301224"><ele>204.0</ele><time>2026-04-07T10:43:39Z</time></trkpt><trkpt lat="42.77565195783123" lon="12.3655241642723"><ele>204.0</ele><time>2026-04-07T10:43:40Z</time></trkpt><trkpt lat="42.77549791170399" lon="12.365389409186943"><ele>204.0</ele><time>2026-04-07T10:43:41Z</time></trkpt><trkpt lat="42.775361250244195" lon="12.365312391103961"><ele>204.0</ele><time>2026-04-07T10:43:42Z</time></trkpt><trkpt lat="42.77524418284586" lon="12.365294973104538"><ele>204.0</ele><time>2026-04-07T10:43:43Z</time></trkpt><trkpt lat="42.77515000129998" lon="12.365353185094387"><ele>202.0</ele><time>2026-04-07T10:43:44Z</time></trkpt><trkpt lat="42.77510232156163" lon="12.365474043171723"><ele>200.0</ele><time>2026-04-07T10:43:45Z</time></trkpt><trkpt lat="42.77512154764401" lon="12.36562830293875"><ele>198.0</ele><time>2026-04-07T10:43:46Z</time></trkpt><trkpt lat="42.775210607612415" lon="12.365762924850436"><ele>196.0</ele><time>2026-04-07T10:43:47Z</time></trkpt><trkpt lat="42.775366910995636" lon="12.365845376760873"><ele>196.0</ele><time>2026-04-07T10:43:48Z</time></trkpt><trkpt lat="42.77553953098274" lon="12.365899213604013"><ele>196.0</ele><time>2026-04-07T10:43:49Z</time></trkpt><trkpt lat="42.77566637676102" lon="12.366020369794956"><ele>196.0</ele><time>2026-04-07T10:43:50Z</time></trkpt><trkpt lat="42.77573893336335" lon="12.366221994642958"><ele>193.0</ele><time>2026-04-07T10:43:51Z</time></trkpt><trkpt lat="42.77577454283734" lon="12.36649592099041"><ele>190.0</ele><time>2026-04-07T10:43:52Z</time></trkpt><trkpt lat="42.775804769331316" lon="12.366797205183326"><ele>187.0</ele><time>2026-04-07T10:43:53Z</time></trkpt><trkpt lat="42.77581071564638" lon="12.36705548344962"><ele>186.0</ele><time>2026-04-07T10:43:54Z</time></trkpt><trkpt lat="42.77576405761887" lon="12.367276294685828"><ele>185.0</ele><time>2026-04-07T10:43:55Z</time></trkpt><trkpt lat="42.775673711219675" lon="12.367449405922931"><ele>184.0</ele><time>2026-04-07T10:43:56Z</time></trkpt><trkpt lat="42.7756260857688" lon="12.367606067408332"><ele>183.0</ele><time>2026-04-07T10:43:57Z</time></trkpt><trkpt lat="42.77567582641106" lon="12.367757861958264"><ele>183.0</ele><time>2026-04-07T10:43:58Z</time></trkpt><trkpt lat="42.77581868616731" lon="12.367933201493752"><ele>183.0</ele><time>2026-04-07T10:43:59Z</time></trkpt><trkpt lat="42.77600702560164" lon="12.368134262234463"><ele>183.0</ele><time>2026-04-07T10:44:00Z</time></trkpt><trkpt lat="42.77619204912797" lon="12.36836040623725"><ele>181.66666666666666</ele><time>2026-04-07T10:44:01Z</time></trkpt><trkpt lat="42.77635425918426" lon="12.368580396779084"><ele>180.33333333333331</ele><time>2026-04-07T10:44:02Z</time></trkpt><trkpt lat="42.776498483992285" lon="12.368776935693113"><ele>179.0</ele><time>2026-04-07T10:44:03Z</time></trkpt><trkpt lat="42.77663653779248" lon="12.36896086340643"><ele>178.66666666666666</ele><time>2026-04-07T10:44:04Z</time></trkpt><trkpt lat="42.77675640932222" lon="12.369154719169666"><ele>178.33333333333334</ele><time>2026-04-07T10:44:05Z</time></trkpt><trkpt lat="42.77687214573195" lon="12.36935085226523"><ele>178.0</ele><time>2026-04-07T10:44:06Z</time></trkpt><trkpt lat="42.776941011815545" lon="12.369588054340902"><ele>176.0</ele><time>2026-04-07T10:44:07Z</time></trkpt><trkpt lat="42.77701209040782" lon="12.369824113991301"><ele>174.0</ele><time>2026-04-07T10:44:08Z</time></trkpt><trkpt lat="42.77707590334426" lon="12.370023813751493"><ele>172.0</ele><time>2026-04-07T10:44:09Z</time></trkpt><trkpt lat="42.777124363630726" lon="12.370215995350776"><ele>172.0</ele><time>2026-04-07T10:44:10Z</time></trkpt><trkpt lat="42.77717679626339" lon="12.37039980259926"><ele>172.0</ele><time>2026-04-07T10:44:11Z</time></trkpt><trkpt lat="42.77722823338279" lon="12.370578737611345"><ele>172.0</ele><time>2026-04-07T10:44:12Z</time></trkpt><trkpt lat="42.777273050447754" lon="12.370756606877649"><ele>172.0</ele><time>2026-04-07T10:44:13Z</time></trkpt><trkpt lat="42.777318598018425" lon="12.370930411455195"><ele>170.25</ele><time>2026-04-07T10:44:14Z</time></trkpt><trkpt lat="42.777343113842434" lon="12.371099740851777"><ele>168.5</ele><time>2026-04-07T10:44:15Z</time></trkpt><trkpt lat="42.777382379155846" lon="12.37125474374183"><ele>166.75</ele><time>2026-04-07T10:44:16Z</time></trkpt><trkpt lat="42.77736961073505" lon="12.371424684570234"><ele>165.0</ele><time>2026-04-07T10:44:17Z</time></trkpt><trkpt lat="42.77731211255512" lon="12.37159626435695"><ele>163.0</ele><time>2026-04-07T10:44:18Z</time></trkpt><trkpt lat="42.77721113977199" lon="12.37172338537967"><ele>161.0</ele><time>2026-04-07T10:44:19Z</time></trkpt><trkpt lat="42.77708257019191" lon="12.371785090534935"><ele>159.0</ele><time>2026-04-07T10:44:20Z</time></trkpt><trkpt lat="42.77695463057717" lon="12.371820436653492"><ele>157.0</ele><time>2026-04-07T10:44:21Z</time></trkpt><trkpt lat="42.77684430740807" lon="12.371897361713843"><ele>157.0</ele><time>2026-04-07T10:44:22Z</time></trkpt><trkpt lat="42.77676739956225" lon="12.372015246867072"><ele>157.0</ele><time>2026-04-07T10:44:23Z</time></trkpt><trkpt lat="42.776713389223154" lon="12.372155098327966"><ele>157.0</ele><time>2026-04-07T10:44:24Z</time></trkpt><trkpt lat="42.776662083340675" lon="12.37229093566691"><ele>157.0</ele><time>2026-04-07T10:44:25Z</time></trkpt><trkpt lat="42.77659796389889" lon="12.372395214653974"><ele>157.0</ele><time>2026-04-07T10:44:26Z</time></trkpt><trkpt lat="42.77652875057257" lon="12.372467768844933"><ele>156.0</ele><time>2026-04-07T10:44:27.001Z</time></trkpt><trkpt lat="42.77651041397316" lon="12.372584333281917"><ele>155.0</ele><time>2026-04-07T10:44:28.001Z</time></trkpt><trkpt lat="42.77649921072869" lon="12.372688976405891"><ele>154.0</ele><time>2026-04-07T10:44:30.001Z</time></trkpt><trkpt lat="42.77651797715279" lon="12.37279467478277"><ele>153.0</ele><time>2026-04-07T10:44:37.001Z</time></trkpt><trkpt lat="42.776578516606584" lon="12.37286197267349"><ele>152.0</ele><time>2026-04-07T10:44:38.001Z</time></trkpt><trkpt lat="42.776690230534236" lon="12.372921630937451"><ele>151.0</ele><time>2026-04-07T10:44:39.001Z</time></trkpt><trkpt lat="42.77680755899611" lon="12.372980988480698"><ele>149.0</ele><time>2026-04-07T10:44:40.001Z</time></trkpt><trkpt lat="42.77693581779656" lon="12.373045730828768"><ele>147.0</ele><time>2026-04-07T10:44:41.001Z</time></trkpt><trkpt lat="42.77708652830743" lon="12.373114027493052"><ele>145.0</ele><time>2026-04-07T10:44:42.001Z</time></trkpt><trkpt lat="42.77724064381082" lon="12.373162759838163"><ele>145.0</ele><time>2026-04-07T10:44:43.001Z</time></trkpt><trkpt lat="42.777412157788746" lon="12.373188636822332"><ele>145.0</ele><time>2026-04-07T10:44:44.001Z</time></trkpt><trkpt lat="42.777594688383026" lon="12.373188679886285"><ele>145.0</ele><time>2026-04-07T10:44:45.001Z</time></trkpt><trkpt lat="42.77778401329699" lon="12.373151717999072"><ele>144.66666666666669</ele><time>2026-04-07T10:44:46.001Z</time></trkpt><trkpt lat="42.77797118119476" lon="12.373086633074404"><ele>144.33333333333334</ele><time>2026-04-07T10:44:47.001Z</time></trkpt><trkpt lat="42.7781519712893" lon="12.372998005600166"><ele>144.0</ele><time>2026-04-07T10:44:48.001Z</time></trkpt><trkpt lat="42.778338107728814" lon="12.372918691918432"><ele>146.66666666666666</ele><time>2026-04-07T10:44:49.001Z</time></trkpt><trkpt lat="42.778524026594766" lon="12.372839019613783"><ele>149.33333333333331</ele><time>2026-04-07T10:44:50.001Z</time></trkpt><trkpt lat="42.77870823656866" lon="12.372762878192344"><ele>152.0</ele><time>2026-04-07T10:44:51.001Z</time></trkpt><trkpt lat="42.77888323310801" lon="12.37269525601175"><ele>152.0</ele><time>2026-04-07T10:44:52.001Z</time></trkpt><trkpt lat="42.77904999228995" lon="12.372630336635288"><ele>152.0</ele><time>2026-04-07T10:44:53.001Z</time></trkpt><trkpt lat="42.779209112530246" lon="12.372564330506833"><ele>152.0</ele><time>2026-04-07T10:44:54.001Z</time></trkpt><trkpt lat="42.779358534447915" lon="12.372498916422792"><ele>150.75</ele><time>2026-04-07T10:44:55.001Z</time></trkpt><trkpt lat="42.779488176431016" lon="12.372446339409185"><ele>149.5</ele><time>2026-04-07T10:44:56Z</time></trkpt><trkpt lat="42.77960091540776" lon="12.37241620385618"><ele>148.25</ele><time>2026-04-07T10:44:57Z</time></trkpt><trkpt lat="42.77970655795306" lon="12.372431044559438"><ele>147.0</ele><time>2026-04-07T10:44:58Z</time></trkpt><trkpt lat="42.77980472671402" lon="12.372491240473732"><ele>147.0</ele><time>2026-04-07T10:44:59Z</time></trkpt><trkpt lat="42.779892147124656" lon="12.372577326993952"><ele>147.0</ele><time>2026-04-07T10:45:00Z</time></trkpt><trkpt lat="42.7799567423737" lon="12.372696768702967"><ele>147.0</ele><time>2026-04-07T10:45:01Z</time></trkpt><trkpt lat="42.77999312876969" lon="12.37283827361306"><ele>147.0</ele><time>2026-04-07T10:45:02Z</time></trkpt><trkpt lat="42.78004345496719" lon="12.37296873149363"><ele>147.0</ele><time>2026-04-07T10:45:03Z</time></trkpt><trkpt lat="42.78009667527825" lon="12.373091971246874"><ele>146.4</ele><time>2026-04-07T10:45:04Z</time></trkpt><trkpt lat="42.78014521057171" lon="12.373211649597293"><ele>145.79999999999998</ele><time>2026-04-07T10:45:05Z</time></trkpt><trkpt lat="42.78019169104048" lon="12.373330522975365"><ele>145.2</ele><time>2026-04-07T10:45:06Z</time></trkpt><trkpt lat="42.78023985230934" lon="12.373449392425371"><ele>144.6</ele><time>2026-04-07T10:45:07Z</time></trkpt><trkpt lat="42.780288846305226" lon="12.373572421094257"><ele>144.0</ele><time>2026-04-07T10:45:08Z</time></trkpt><trkpt lat="42.78034005248976" lon="12.373694488833916"><ele>144.2</ele><time>2026-04-07T10:45:09Z</time></trkpt><trkpt lat="42.780388210749514" lon="12.37381922200568"><ele>144.4</ele><time>2026-04-07T10:45:10Z</time></trkpt><trkpt lat="42.78043503704468" lon="12.373944930198084"><ele>144.6</ele><time>2026-04-07T10:45:11Z</time></trkpt><trkpt lat="42.78048562895691" lon="12.374068566286345"><ele>144.8</ele><time>2026-04-07T10:45:12Z</time></trkpt><trkpt lat="42.7805370966477" lon="12.374194679153163"><ele>145.0</ele><time>2026-04-07T10:45:13Z</time></trkpt><trkpt lat="42.780584339637585" lon="12.374319949568232"><ele>145.0</ele><time>2026-04-07T10:45:14Z</time></trkpt><trkpt lat="42.7806242440086" lon="12.37443426135185"><ele>145.0</ele><time>2026-04-07T10:45:15Z</time></trkpt><trkpt lat="42.78065991222263" lon="12.374527701638774"><ele>145.0</ele><time>2026-04-07T10:45:16Z</time></trkpt><trkpt lat="42.78067955980561" lon="12.374618078018571"><ele>145.0</ele><time>2026-04-07T10:45:17Z</time></trkpt><trkpt lat="42.780670665835444" lon="12.374703266872618"><ele>145.0</ele><time>2026-04-07T10:45:18Z</time></trkpt><trkpt lat="42.78062768431612" lon="12.374779319539709"><ele>145.0</ele><time>2026-04-07T10:45:19Z</time></trkpt><trkpt lat="42.78056418673029" lon="12.374853355896523"><ele>149.0</ele><time>2026-04-07T10:45:20Z</time></trkpt><trkpt lat="42.78049521735773" lon="12.37493201516077"><ele>153.0</ele><time>2026-04-07T10:45:21Z</time></trkpt><trkpt lat="42.78042636213473" lon="12.37501722633421"><ele>157.0</ele><time>2026-04-07T10:45:22Z</time></trkpt><trkpt lat="42.78037450554178" lon="12.375126056271867"><ele>161.0</ele><time>2026-04-07T10:45:23Z</time></trkpt><trkpt lat="42.78035432737206" lon="12.375258945390478"><ele>165.0</ele><time>2026-04-07T10:45:24Z</time></trkpt><trkpt lat="42.780347650569865" lon="12.37539209220548"><ele>165.0</ele><time>2026-04-07T10:45:25Z</time></trkpt><trkpt lat="42.78031579862457" lon="12.375497211411412"><ele>165.0</ele><time>2026-04-07T10:45:26Z</time></trkpt><trkpt lat="42.7802454609349" lon="12.375590315421277"><ele>165.0</ele><time>2026-04-07T10:45:27Z</time></trkpt><trkpt lat="42.780157107929895" lon="12.375667044956508"><ele>165.0</ele><time>2026-04-07T10:45:28Z</time></trkpt><trkpt lat="42.78006199654212" lon="12.375719926299922"><ele>165.0</ele><time>2026-04-07T10:45:29Z</time></trkpt><trkpt lat="42.779969017595" lon="12.375796821991571"><ele>164.6</ele><time>2026-04-07T10:45:30Z</time></trkpt><trkpt lat="42.77989751661607" lon="12.375915975949303"><ele>164.2</ele><time>2026-04-07T10:45:31Z</time></trkpt><trkpt lat="42.77987259360553" lon="12.376053861941886"><ele>163.8</ele><time>2026-04-07T10:45:32Z</time></trkpt><trkpt lat="42.77990659027144" lon="12.376180728723602"><ele>163.4</ele><time>2026-04-07T10:45:33Z</time></trkpt><trkpt lat="42.779984168354154" lon="12.376285669556129"><ele>163.0</ele><time>2026-04-07T10:45:34Z</time></trkpt><trkpt lat="42.78008282903622" lon="12.376385141801135"><ele>169.0</ele><time>2026-04-07T10:45:35Z</time></trkpt><trkpt lat="42.78019600062111" lon="12.376490478768579"><ele>175.0</ele><time>2026-04-07T10:45:36Z</time></trkpt><trkpt lat="42.78027643105387" lon="12.376626118636468"><ele>181.0</ele><time>2026-04-07T10:45:37Z</time></trkpt><trkpt lat="42.780329630281116" lon="12.376750315228039"><ele>187.0</ele><time>2026-04-07T10:45:38Z</time></trkpt><trkpt lat="42.78034279660213" lon="12.3768723750818"><ele>187.0</ele><time>2026-04-07T10:45:39Z</time></trkpt><trkpt lat="42.78031528192747" lon="12.37697940650114"><ele>187.0</ele><time>2026-04-07T10:45:40Z</time></trkpt><trkpt lat="42.78025943570744" lon="12.377048495819949"><ele>187.0</ele><time>2026-04-07T10:45:41Z</time></trkpt><trkpt lat="42.7801753551949" lon="12.377025319911528"><ele>187.0</ele><time>2026-04-07T10:45:42Z</time></trkpt><trkpt lat="42.78009044115162" lon="12.376944552582438"><ele>187.0</ele><time>2026-04-07T10:45:43Z</time></trkpt><trkpt lat="42.779988392679215" lon="12.376864673366802"><ele>182.0</ele><time>2026-04-07T10:45:44Z</time></trkpt><trkpt lat="42.77984702714012" lon="12.376847635652577"><ele>177.0</ele><time>2026-04-07T10:45:45Z</time></trkpt><trkpt lat="42.77968440648289" lon="12.37691813479466"><ele>172.0</ele><time>2026-04-07T10:45:46Z</time></trkpt><trkpt lat="42.7795225313519" lon="12.377046489908599"><ele>172.0</ele><time>2026-04-07T10:45:47Z</time></trkpt><trkpt lat="42.779376044411826" lon="12.377182041656773"><ele>172.0</ele><time>2026-04-07T10:45:48Z</time></trkpt><trkpt lat="42.77923076369691" lon="12.377299208509793"><ele>172.0</ele><time>2026-04-07T10:45:49Z</time></trkpt><trkpt lat="42.77906604966353" lon="12.377409181435642"><ele>176.0</ele><time>2026-04-07T10:45:50Z</time></trkpt><trkpt lat="42.77889381454002" lon="12.377514383231572"><ele>180.0</ele><time>2026-04-07T10:45:51Z</time></trkpt><trkpt lat="42.77872283709935" lon="12.37761659066705"><ele>184.0</ele><time>2026-04-07T10:45:52Z</time></trkpt><trkpt lat="42.77855643903173" lon="12.377710621783269"><ele>182.66666666666669</ele><time>2026-04-07T10:45:53Z</time></trkpt><trkpt lat="42.77839161376939" lon="12.377797589223627"><ele>181.33333333333334</ele><time>2026-04-07T10:45:54Z</time></trkpt><trkpt lat="42.77822544801302" lon="12.3778661071309"><ele>180.0</ele><time>2026-04-07T10:45:55Z</time></trkpt><trkpt lat="42.77806190869124" lon="12.377923667393578"><ele>180.0</ele><time>2026-04-07T10:45:56Z</time></trkpt><trkpt lat="42.77789854460437" lon="12.377989858593146"><ele>180.0</ele><time>2026-04-07T10:45:57Z</time></trkpt><trkpt lat="42.77773909483737" lon="12.378091809900662"><ele>180.0</ele><time>2026-04-07T10:45:58Z</time></trkpt><trkpt lat="42.77758348624778" lon="12.378222501726373"><ele>184.33333333333331</ele><time>2026-04-07T10:45:59Z</time></trkpt><trkpt lat="42.77743001888641" lon="12.378361437885948"><ele>188.66666666666666</ele><time>2026-04-07T10:46:00Z</time></trkpt><trkpt lat="42.777281596206976" lon="12.378499754663968"><ele>193.0</ele><time>2026-04-07T10:46:01Z</time></trkpt><trkpt lat="42.7771377340187" lon="12.378630383220779"><ele>193.0</ele><time>2026-04-07T10:46:02Z</time></trkpt><trkpt lat="42.77700914672882" lon="12.378747147674924"><ele>193.0</ele><time>2026-04-07T10:46:03Z</time></trkpt><trkpt lat="42.77690036167914" lon="12.37885030136795"><ele>193.0</ele><time>2026-04-07T10:46:04Z</time></trkpt><trkpt lat="42.77680934348292" lon="12.3789398810118"><ele>193.0</ele><time>2026-04-07T10:46:05.001Z</time></trkpt><trkpt lat="42.776731694743226" lon="12.379021044305413"><ele>194.5</ele><time>2026-04-07T10:46:06.001Z</time></trkpt><trkpt lat="42.77668129220303" lon="12.379123541867738"><ele>196.0</ele><time>2026-04-07T10:46:07.001Z</time></trkpt><trkpt lat="42.77665035667261" lon="12.379279055568128"><ele>197.5</ele><time>2026-04-07T10:46:08.001Z</time></trkpt><trkpt lat="42.7767023517267" lon="12.379472489289274"><ele>199.0</ele><time>2026-04-07T10:46:09.001Z</time></trkpt><trkpt lat="42.77674435261536" lon="12.379675277541947"><ele>200.0</ele><time>2026-04-07T10:46:10.001Z</time></trkpt><trkpt lat="42.77678436975414" lon="12.379883337935068"><ele>201.0</ele><time>2026-04-07T10:46:11.001Z</time></trkpt><trkpt lat="42.776823203465284" lon="12.380076562026092"><ele>202.0</ele><time>2026-04-07T10:46:12.001Z</time></trkpt><trkpt lat="42.77684585533568" lon="12.380269911164843"><ele>203.0</ele><time>2026-04-07T10:46:13.001Z</time></trkpt><trkpt lat="42.77686717653452" lon="12.38045862629046"><ele>204.66666666666669</ele><time>2026-04-07T10:46:14.001Z</time></trkpt><trkpt lat="42.77687075812791" lon="12.3806674573303"><ele>206.33333333333331</ele><time>2026-04-07T10:46:15.001Z</time></trkpt><trkpt lat="42.77679789020684" lon="12.380885124893748"><ele>208.0</ele><time>2026-04-07T10:46:16.001Z</time></trkpt><trkpt lat="42.776719836328546" lon="12.38111995105022"><ele>208.0</ele><time>2026-04-07T10:46:17.001Z</time></trkpt><trkpt lat="42.776653831086556" lon="12.381347810267247"><ele>208.0</ele><time>2026-04-07T10:46:18.001Z</time></trkpt><trkpt lat="42.77655035206108" lon="12.38155968872779"><ele>208.0</ele><time>2026-04-07T10:46:19.001Z</time></trkpt><trkpt lat="42.77639988318206" lon="12.38172578794047"><ele>212.33333333333331</ele><time>2026-04-07T10:46:20.001Z</time></trkpt><trkpt lat="42.77624014911849" lon="12.381893236801384"><ele>216.66666666666669</ele><time>2026-04-07T10:46:21.001Z</time></trkpt><trkpt lat="42.7760733900123" lon="12.382040875595203"><ele>221.0</ele><time>2026-04-07T10:46:22.001Z</time></trkpt><trkpt lat="42.7759288919454" lon="12.382194582229662"><ele>223.33333333333334</ele><time>2026-04-07T10:46:23.001Z</time></trkpt><trkpt lat="42.775787409800195" lon="12.382319352484764"><ele>225.66666666666669</ele><time>2026-04-07T10:46:24.001Z</time></trkpt><trkpt lat="42.77561888233089" lon="12.3823687278879"><ele>228.0</ele><time>2026-04-07T10:46:25.001Z</time></trkpt><trkpt lat="42.77544061873085" lon="12.382420579688212"><ele>228.0</ele><time>2026-04-07T10:46:26.001Z</time></trkpt><trkpt lat="42.775280322498624" lon="12.382508807606785"><ele>228.0</ele><time>2026-04-07T10:46:27.001Z</time></trkpt><trkpt lat="42.775127086653114" lon="12.38253793680487"><ele>228.0</ele><time>2026-04-07T10:46:28.001Z</time></trkpt><trkpt lat="42.774997153444495" lon="12.382579022077739"><ele>228.2</ele><time>2026-04-07T10:46:29.001Z</time></trkpt><trkpt lat="42.77487792470645" lon="12.382576459127998"><ele>228.4</ele><time>2026-04-07T10:46:30.001Z</time></trkpt><trkpt lat="42.77479382220441" lon="12.38257709005782"><ele>228.59999999999997</ele><time>2026-04-07T10:46:31.001Z</time></trkpt><trkpt lat="42.77471657199266" lon="12.382628875227503"><ele>228.79999999999998</ele><time>2026-04-07T10:46:32.001Z</time></trkpt><trkpt lat="42.77470586121921" lon="12.382772554104843"><ele>229.0</ele><time>2026-04-07T10:46:33.001Z</time></trkpt><trkpt lat="42.774740844418226" lon="12.382875729329776"><ele>229.0</ele><time>2026-04-07T10:46:34.001Z</time></trkpt><trkpt lat="42.77482955543185" lon="12.38293706597399"><ele>229.0</ele><time>2026-04-07T10:46:35.001Z</time></trkpt><trkpt lat="42.77495553089784" lon="12.382971044488524"><ele>229.0</ele><time>2026-04-07T10:46:36.001Z</time></trkpt><trkpt lat="42.77511435144296" lon="12.382973369976392"><ele>229.0</ele><time>2026-04-07T10:46:37.001Z</time></trkpt><trkpt lat="42.77527938559284" lon="12.382976262524123"><ele>228.75</ele><time>2026-04-07T10:46:38.001Z</time></trkpt><trkpt lat="42.775431766201805" lon="12.382980650160675"><ele>228.5</ele><time>2026-04-07T10:46:39.001Z</time></trkpt><trkpt lat="42.7755697600578" lon="12.3829891650605"><ele>228.25</ele><time>2026-04-07T10:46:40.001Z</time></trkpt><trkpt lat="42.77568345035123" lon="12.383055389582639"><ele>228.0</ele><time>2026-04-07T10:46:41Z</time></trkpt><trkpt lat="42.77577999598236" lon="12.383169424908647"><ele>231.5</ele><time>2026-04-07T10:46:42Z</time></trkpt><trkpt lat="42.77589073386486" lon="12.383298662260342"><ele>235.0</ele><time>2026-04-07T10:46:43Z</time></trkpt><trkpt lat="42.77599248542632" lon="12.383442891607105"><ele>238.5</ele><time>2026-04-07T10:46:44Z</time></trkpt><trkpt lat="42.77608910028871" lon="12.383555654119144"><ele>242.0</ele><time>2026-04-07T10:46:45Z</time></trkpt><trkpt lat="42.776195405826" lon="12.383611006705031"><ele>243.75</ele><time>2026-04-07T10:46:46Z</time></trkpt><trkpt lat="42.77630634589703" lon="12.383576358060587"><ele>245.5</ele><time>2026-04-07T10:46:47Z</time></trkpt><trkpt lat="42.77642797599397" lon="12.383492983320819"><ele>247.25</ele><time>2026-04-07T10:46:48Z</time></trkpt><trkpt lat="42.77654329801792" lon="12.383377730248945"><ele>249.0</ele><time>2026-04-07T10:46:49Z</time></trkpt><trkpt lat="42.77666773299944" lon="12.383275001972137"><ele>249.0</ele><time>2026-04-07T10:46:50Z</time></trkpt><trkpt lat="42.776784893446106" lon="12.383191498791085"><ele>248.99999999999997</ele><time>2026-04-07T10:46:51Z</time></trkpt><trkpt lat="42.77689581064532" lon="12.383149414936295"><ele>248.99999999999997</ele><time>2026-04-07T10:46:52Z</time></trkpt><trkpt lat="42.77699506043115" lon="12.383154271643804"><ele>249.0</ele><time>2026-04-07T10:46:53Z</time></trkpt><trkpt lat="42.777068735594206" lon="12.383228732235237"><ele>249.0</ele><time>2026-04-07T10:46:54Z</time></trkpt><trkpt lat="42.777102161003796" lon="12.383345111681578"><ele>250.0</ele><time>2026-04-07T10:46:55Z</time></trkpt><trkpt lat="42.77708614209319" lon="12.383485836944429"><ele>251.0</ele><time>2026-04-07T10:46:56Z</time></trkpt><trkpt lat="42.77705170691805" lon="12.383618986092454"><ele>252.0</ele><time>2026-04-07T10:46:57Z</time></trkpt><trkpt lat="42.77700609727777" lon="12.38376978996643"><ele>253.0</ele><time>2026-04-07T10:46:58Z</time></trkpt><trkpt lat="42.77696723644635" lon="12.383939080374038"><ele>255.5</ele><time>2026-04-07T10:46:59Z</time></trkpt><trkpt lat="42.776942064721695" lon="12.384117076679068"><ele>258.0</ele><time>2026-04-07T10:47:00Z</time></trkpt><trkpt lat="42.776949955724724" lon="12.384302439297429"><ele>260.5</ele><time>2026-04-07T10:47:01Z</time></trkpt><trkpt lat="42.77699929847902" lon="12.384488844159227"><ele>263.0</ele><time>2026-04-07T10:47:01.999Z</time></trkpt><trkpt lat="42.777083615133655" lon="12.384675374574869"><ele>265.0</ele><time>2026-04-07T10:47:02.999Z</time></trkpt><trkpt lat="42.77715359681673" lon="12.3848719455626"><ele>267.0</ele><time>2026-04-07T10:47:03.999Z</time></trkpt><trkpt lat="42.777198583139565" lon="12.385065498848519"><ele>269.0</ele><time>2026-04-07T10:47:04.999Z</time></trkpt><trkpt lat="42.77719429967926" lon="12.385260610557374"><ele>269.0</ele><time>2026-04-07T10:47:05.999Z</time></trkpt><trkpt lat="42.77714798263102" lon="12.385422185983593"><ele>269.0</ele><time>2026-04-07T10:47:06.999Z</time></trkpt><trkpt lat="42.7770641934969" lon="12.385549656890484"><ele>269.0</ele><time>2026-04-07T10:47:07.999Z</time></trkpt><trkpt lat="42.7770108285191" lon="12.385665507078013"><ele>269.0</ele><time>2026-04-07T10:47:08.999Z</time></trkpt><trkpt lat="42.777009249919054" lon="12.385780144770246"><ele>269.0</ele><time>2026-04-07T10:47:09.999Z</time></trkpt><trkpt lat="42.77707073382518" lon="12.385866822542477"><ele>269.75</ele><time>2026-04-07T10:47:10.999Z</time></trkpt><trkpt lat="42.77717194793379" lon="12.385860856975217"><ele>270.5</ele><time>2026-04-07T10:47:11.999Z</time></trkpt><trkpt lat="42.77728709963389" lon="12.385782268364224"><ele>271.25</ele><time>2026-04-07T10:47:12.999Z</time></trkpt><trkpt lat="42.77741471854159" lon="12.385667471223407"><ele>272.0</ele><time>2026-04-07T10:47:13.999Z</time></trkpt><trkpt lat="42.77757125581006" lon="12.385539108277019"><ele>273.5</ele><time>2026-04-07T10:47:14.999Z</time></trkpt><trkpt lat="42.77771895649081" lon="12.385431373586147"><ele>275.0</ele><time>2026-04-07T10:47:15.999Z</time></trkpt><trkpt lat="42.777848257743535" lon="12.385345619456784"><ele>276.5</ele><time>2026-04-07T10:47:16.999Z</time></trkpt><trkpt lat="42.77795143102762" lon="12.38527106237459"><ele>278.0</ele><time>2026-04-07T10:47:17.999Z</time></trkpt><trkpt lat="42.77804158559214" lon="12.385219620069224"><ele>278.0</ele><time>2026-04-07T10:47:18.999Z</time></trkpt><trkpt lat="42.778128761244496" lon="12.385230590410911"><ele>278.0</ele><time>2026-04-07T10:47:19.999Z</time></trkpt><trkpt lat="42.77818537919904" lon="12.385332797249244"><ele>278.0</ele><time>2026-04-07T10:47:20.999Z</time></trkpt><trkpt lat="42.77818075407212" lon="12.385495755004687"><ele>278.0</ele><time>2026-04-07T10:47:21.999Z</time></trkpt><trkpt lat="42.778223370534675" lon="12.38566981099735"><ele>278.0</ele><time>2026-04-07T10:47:22.999Z</time></trkpt><trkpt lat="42.77825610327893" lon="12.385890074504845"><ele>279.0</ele><time>2026-04-07T10:47:23.999Z</time></trkpt><trkpt lat="42.778303095221744" lon="12.38615465168876"><ele>280.0</ele><time>2026-04-07T10:47:24.999Z</time></trkpt><trkpt lat="42.77835201552976" lon="12.386422391770147"><ele>281.0</ele><time>2026-04-07T10:47:25.999Z</time></trkpt><trkpt lat="42.77839583397594" lon="12.386663651573265"><ele>281.6666666666667</ele><time>2026-04-07T10:47:26.999Z</time></trkpt><trkpt lat="42.7784395105088" lon="12.38689986079859"><ele>282.3333333333333</ele><time>2026-04-07T10:47:27.999Z</time></trkpt><trkpt lat="42.77848249244814" lon="12.387126156259288"><ele>283.0</ele><time>2026-04-07T10:47:28.999Z</time></trkpt><trkpt lat="42.77852386946336" lon="12.38733834022457"><ele>283.0</ele><time>2026-04-07T10:47:29.999Z</time></trkpt><trkpt lat="42.7785528617189" lon="12.387541101953646"><ele>283.0</ele><time>2026-04-07T10:47:30.999Z</time></trkpt><trkpt lat="42.778566481713476" lon="12.387739322540796"><ele>283.0</ele><time>2026-04-07T10:47:31.999Z</time></trkpt><trkpt lat="42.77856648713308" lon="12.387935761252859"><ele>283.0</ele><time>2026-04-07T10:47:32.999Z</time></trkpt><trkpt lat="42.77855432321161" lon="12.38813878198"><ele>282.3333333333333</ele><time>2026-04-07T10:47:33.999Z</time></trkpt><trkpt lat="42.77852968262563" lon="12.388340201270454"><ele>281.6666666666667</ele><time>2026-04-07T10:47:34.999Z</time></trkpt><trkpt lat="42.77850419026029" lon="12.38854245844793"><ele>281.0</ele><time>2026-04-07T10:47:35.999Z</time></trkpt><trkpt lat="42.77848995745175" lon="12.388753821641295"><ele>282.0</ele><time>2026-04-07T10:47:36.999Z</time></trkpt><trkpt lat="42.77850989113899" lon="12.388978684788151"><ele>283.0</ele><time>2026-04-07T10:47:37.999Z</time></trkpt><trkpt lat="42.77856994307505" lon="12.389211568051344"><ele>284.0</ele><time>2026-04-07T10:47:38.999Z</time></trkpt><trkpt lat="42.77865021006444" lon="12.389449419572616"><ele>287.0</ele><time>2026-04-07T10:47:39.999Z</time></trkpt><trkpt lat="42.77872110362684" lon="12.38969571463467"><ele>290.0</ele><time>2026-04-07T10:47:40.999Z</time></trkpt><trkpt lat="42.77877233887857" lon="12.389936915217481"><ele>293.0</ele><time>2026-04-07T10:47:41.999Z</time></trkpt><trkpt lat="42.7788049379539" lon="12.390153278858467"><ele>293.0</ele><time>2026-04-07T10:47:42.999Z</time></trkpt><trkpt lat="42.77882589995048" lon="12.390344389811993"><ele>293.0</ele><time>2026-04-07T10:47:43.999Z</time></trkpt><trkpt lat="42.77884806558409" lon="12.390519887237758"><ele>293.0</ele><time>2026-04-07T10:47:44.999Z</time></trkpt><trkpt lat="42.778871217383355" lon="12.390689784633615"><ele>293.0</ele><time>2026-04-07T10:47:45.999Z</time></trkpt><trkpt lat="42.77889253986034" lon="12.390862388914933"><ele>293.75</ele><time>2026-04-07T10:47:46.999Z</time></trkpt><trkpt lat="42.778916088429405" lon="12.39103708588625"><ele>294.5</ele><time>2026-04-07T10:47:47.999Z</time></trkpt><trkpt lat="42.778939097081555" lon="12.391217697742329"><ele>295.25</ele><time>2026-04-07T10:47:48.999Z</time></trkpt><trkpt lat="42.77896316674202" lon="12.391403092578924"><ele>296.0</ele><time>2026-04-07T10:47:49.999Z</time></trkpt><trkpt lat="42.778990050082605" lon="12.391592724720239"><ele>296.5</ele><time>2026-04-07T10:47:51Z</time></trkpt><trkpt lat="42.77901618396365" lon="12.39179175501587"><ele>297.0</ele><time>2026-04-07T10:47:52Z</time></trkpt><trkpt lat="42.77904026467734" lon="12.391991317823006"><ele>297.5</ele><time>2026-04-07T10:47:53Z</time></trkpt><trkpt lat="42.779063924619784" lon="12.392184942529548"><ele>298.0</ele><time>2026-04-07T10:47:54Z</time></trkpt><trkpt lat="42.77909436053711" lon="12.3923812380085"><ele>299.0</ele><time>2026-04-07T10:47:55Z</time></trkpt><trkpt lat="42.77912221299692" lon="12.392585939416552"><ele>300.0</ele><time>2026-04-07T10:47:56Z</time></trkpt><trkpt lat="42.77915405289285" lon="12.392807851667609"><ele>301.0</ele><time>2026-04-07T10:47:57Z</time></trkpt><trkpt lat="42.779192779290376" lon="12.393046623545946"><ele>302.3333333333333</ele><time>2026-04-07T10:47:58Z</time></trkpt><trkpt lat="42.77923133110815" lon="12.393286464623705"><ele>303.6666666666667</ele><time>2026-04-07T10:47:59Z</time></trkpt><trkpt lat="42.77927071247859" lon="12.393518870245591"><ele>305.0</ele><time>2026-04-07T10:48:00Z</time></trkpt><trkpt lat="42.779294447366475" lon="12.393755250224881"><ele>306.0</ele><time>2026-04-07T10:48:01Z</time></trkpt><trkpt lat="42.77933307278359" lon="12.393983521440484"><ele>307.0</ele><time>2026-04-07T10:48:02Z</time></trkpt><trkpt lat="42.77937023710981" lon="12.394203157815548"><ele>308.0</ele><time>2026-04-07T10:48:03Z</time></trkpt><trkpt lat="42.77940690074947" lon="12.394419835214443"><ele>314.33333333333337</ele><time>2026-04-07T10:48:04Z</time></trkpt><trkpt lat="42.77945727995785" lon="12.394627116104017"><ele>320.6666666666667</ele><time>2026-04-07T10:48:05Z</time></trkpt><trkpt lat="42.779489636902895" lon="12.394836575269533"><ele>327.0</ele><time>2026-04-07T10:48:06Z</time></trkpt><trkpt lat="42.779522827130506" lon="12.395040481757013"><ele>327.0</ele><time>2026-04-07T10:48:07Z</time></trkpt><trkpt lat="42.77955486766623" lon="12.39522841976558"><ele>327.0</ele><time>2026-04-07T10:48:08Z</time></trkpt><trkpt lat="42.77958543535233" lon="12.395403036236829"><ele>327.0</ele><time>2026-04-07T10:48:09Z</time></trkpt><trkpt lat="42.77961406014756" lon="12.395565155023052"><ele>327.0</ele><time>2026-04-07T10:48:10Z</time></trkpt><trkpt lat="42.77962673721604" lon="12.395721570591238"><ele>325.8</ele><time>2026-04-07T10:48:11Z</time></trkpt><trkpt lat="42.779669956675846" lon="12.395866350812062"><ele>324.6</ele><time>2026-04-07T10:48:12Z</time></trkpt><trkpt lat="42.77969488583747" lon="12.396008512947496"><ele>323.40000000000003</ele><time>2026-04-07T10:48:13Z</time></trkpt><trkpt lat="42.77972272931496" lon="12.396148187699184"><ele>322.20000000000005</ele><time>2026-04-07T10:48:14Z</time></trkpt><trkpt lat="42.77974797068346" lon="12.396289871489842"><ele>321.0</ele><time>2026-04-07T10:48:15Z</time></trkpt><trkpt lat="42.77976720191222" lon="12.396429856837647"><ele>321.0</ele><time>2026-04-07T10:48:16Z</time></trkpt><trkpt lat="42.77978338870668" lon="12.396567557890693"><ele>321.0</ele><time>2026-04-07T10:48:17Z</time></trkpt><trkpt lat="42.779781178740386" lon="12.39669056776269"><ele>321.0</ele><time>2026-04-07T10:48:18Z</time></trkpt><trkpt lat="42.77975574343102" lon="12.396795198660946"><ele>321.0</ele><time>2026-04-07T10:48:19Z</time></trkpt><trkpt lat="42.779718293748246" lon="12.39687722788036"><ele>321.0</ele><time>2026-04-07T10:48:20Z</time></trkpt><trkpt lat="42.77965168235222" lon="12.396982111375525"><ele>321.0</ele><time>2026-04-07T10:48:22Z</time></trkpt><trkpt lat="42.77959517691659" lon="12.397026404786887"><ele>321.0</ele><time>2026-04-07T10:48:24Z</time></trkpt><trkpt lat="42.77953958765598" lon="12.397098548208165"><ele>321.0</ele><time>2026-04-07T10:48:27Z</time></trkpt><trkpt lat="42.77944272522656" lon="12.39719796657748"><ele>321.0</ele><time>2026-04-07T10:48:29Z</time></trkpt><trkpt lat="42.77938853524001" lon="12.397275572007999"><ele>321.0</ele><time>2026-04-07T10:48:30Z</time></trkpt><trkpt lat="42.779311838933566" lon="12.397351633227702"><ele>321.0</ele><time>2026-04-07T10:48:31Z</time></trkpt><trkpt lat="42.77923410814883" lon="12.397440493698992"><ele>320.0</ele><time>2026-04-07T10:48:32Z</time></trkpt><trkpt lat="42.77915642684566" lon="12.397526610359956"><ele>319.0</ele><time>2026-04-07T10:48:33Z</time></trkpt><trkpt lat="42.77907502799799" lon="12.397612083410966"><ele>318.0</ele><time>2026-04-07T10:48:34Z</time></trkpt><trkpt lat="42.77899420616968" lon="12.39770278843847"><ele>317.0</ele><time>2026-04-07T10:48:35Z</time></trkpt><trkpt lat="42.77891975318587" lon="12.397798906876945"><ele>316.0</ele><time>2026-04-07T10:48:36Z</time></trkpt><trkpt lat="42.77884829293835" lon="12.39790245135966"><ele>318.6</ele><time>2026-04-07T10:48:37Z</time></trkpt><trkpt lat="42.77878086605797" lon="12.398011580755618"><ele>321.20000000000005</ele><time>2026-04-07T10:48:38Z</time></trkpt><trkpt lat="42.7787193937742" lon="12.398121796377309"><ele>323.79999999999995</ele><time>2026-04-07T10:48:39Z</time></trkpt><trkpt lat="42.77866133409365" lon="12.398228259220025"><ele>326.4</ele><time>2026-04-07T10:48:40Z</time></trkpt><trkpt lat="42.778606805880344" lon="12.398330346761838"><ele>329.0</ele><time>2026-04-07T10:48:41Z</time></trkpt><trkpt lat="42.7785551009722" lon="12.398428934512307"><ele>329.0</ele><time>2026-04-07T10:48:42Z</time></trkpt><trkpt lat="42.77850585823916" lon="12.398523569573046"><ele>329.0</ele><time>2026-04-07T10:48:43Z</time></trkpt><trkpt lat="42.778465627149565" lon="12.398613479267"><ele>329.0</ele><time>2026-04-07T10:48:44Z</time></trkpt><trkpt lat="42.778433914229666" lon="12.398693081380097"><ele>329.0</ele><time>2026-04-07T10:48:45Z</time></trkpt><trkpt lat="42.77837971560503" lon="12.3988168796684"><ele>329.0</ele><time>2026-04-07T10:48:47Z</time></trkpt><trkpt lat="42.77834301736287" lon="12.398892584718661"><ele>329.0</ele><time>2026-04-07T10:48:49Z</time></trkpt><trkpt lat="42.77830332740929" lon="12.39897791895586"><ele>329.0</ele><time>2026-04-07T10:48:58Z</time></trkpt><trkpt lat="42.77825340258338" lon="12.399090709827007"><ele>329.0</ele><time>2026-04-07T10:49:00Z</time></trkpt><trkpt lat="42.778219806022676" lon="12.399170477697991"><ele>329.0</ele><time>2026-04-07T10:49:01Z</time></trkpt><trkpt lat="42.77818702990651" lon="12.39925609847075"><ele>329.0</ele><time>2026-04-07T10:49:02Z</time></trkpt><trkpt lat="42.77813790514003" lon="12.399323918831353"><ele>329.0</ele><time>2026-04-07T10:49:03Z</time></trkpt><trkpt lat="42.778100685116215" lon="12.399404947586453"><ele>329.0</ele><time>2026-04-07T10:49:04Z</time></trkpt><trkpt lat="42.77805796200725" lon="12.39949637457834"><ele>329.0</ele><time>2026-04-07T10:49:05Z</time></trkpt><trkpt lat="42.77801267498192" lon="12.399589505175173"><ele>329.0</ele><time>2026-04-07T10:49:06Z</time></trkpt><trkpt lat="42.777968695534575" lon="12.399691414984671"><ele>329.0</ele><time>2026-04-07T10:49:07Z</time></trkpt><trkpt lat="42.77794533237784" lon="12.399810781706805"><ele>329.0</ele><time>2026-04-07T10:49:07.999Z</time></trkpt><trkpt lat="42.77793407528284" lon="12.399942361235027"><ele>329.0</ele><time>2026-04-07T10:49:08.999Z</time></trkpt><trkpt lat="42.7779456196604" lon="12.40006704707581"><ele>329.0</ele><time>2026-04-07T10:49:10Z</time></trkpt><trkpt lat="42.777943605940095" lon="12.400191599607927"><ele>330.5</ele><time>2026-04-07T10:49:11Z</time></trkpt><trkpt lat="42.77794170446815" lon="12.400317464595382"><ele>332.0</ele><time>2026-04-07T10:49:12Z</time></trkpt><trkpt lat="42.77794242730937" lon="12.400434286049478"><ele>333.5</ele><time>2026-04-07T10:49:13Z</time></trkpt><trkpt lat="42.77794137393866" lon="12.40054291708849"><ele>335.0</ele><time>2026-04-07T10:49:13.999Z</time></trkpt><trkpt lat="42.777936585493" lon="12.400648169663322"><ele>336.5</ele><time>2026-04-07T10:49:14.999Z</time></trkpt><trkpt lat="42.77792887034907" lon="12.400769947586964"><ele>338.0</ele><time>2026-04-07T10:49:15.999Z</time></trkpt><trkpt lat="42.77792975192536" lon="12.400903510299651"><ele>339.2</ele><time>2026-04-07T10:49:16.999Z</time></trkpt><trkpt lat="42.77792922749009" lon="12.401030771423022"><ele>340.4</ele><time>2026-04-07T10:49:17.999Z</time></trkpt><trkpt lat="42.7779241248359" lon="12.401147479421175"><ele>341.59999999999997</ele><time>2026-04-07T10:49:18.999Z</time></trkpt><trkpt lat="42.777903339894365" lon="12.401259626759208"><ele>342.79999999999995</ele><time>2026-04-07T10:49:19.999Z</time></trkpt><trkpt lat="42.77785814603844" lon="12.401370671009149"><ele>344.0</ele><time>2026-04-07T10:49:20.999Z</time></trkpt><trkpt lat="42.77780841999716" lon="12.401478344821163"><ele>343.6666666666667</ele><time>2026-04-07T10:49:21.999Z</time></trkpt><trkpt lat="42.777761432876694" lon="12.401564898994856"><ele>343.33333333333337</ele><time>2026-04-07T10:49:22.999Z</time></trkpt><trkpt lat="42.77771269256102" lon="12.401642308899063"><ele>343.0</ele><time>2026-04-07T10:49:23.999Z</time></trkpt><trkpt lat="42.77766422513171" lon="12.401741469667432"><ele>342.6666666666667</ele><time>2026-04-07T10:49:26Z</time></trkpt><trkpt lat="42.7776545808513" lon="12.401831765272277"><ele>342.3333333333333</ele><time>2026-04-07T10:49:28Z</time></trkpt><trkpt lat="42.77767090200095" lon="12.401954573362143"><ele>342.0</ele><time>2026-04-07T10:49:30Z</time></trkpt><trkpt lat="42.77767319835208" lon="12.402095879957228"><ele>344.6</ele><time>2026-04-07T10:49:32Z</time></trkpt><trkpt lat="42.77770317197947" lon="12.402256383353082"><ele>347.20000000000005</ele><time>2026-04-07T10:49:34Z</time></trkpt><trkpt lat="42.77770494464762" lon="12.402344218470594"><ele>349.8</ele><time>2026-04-07T10:49:35Z</time></trkpt><trkpt lat="42.77772594204078" lon="12.402502166478476"><ele>352.4</ele><time>2026-04-07T10:49:37Z</time></trkpt><trkpt lat="42.77773798806775" lon="12.402643558364709"><ele>355.0</ele><time>2026-04-07T10:49:39Z</time></trkpt><trkpt lat="42.77774681994434" lon="12.402786006478603"><ele>355.0</ele><time>2026-04-07T10:49:41Z</time></trkpt><trkpt lat="42.77775624850575" lon="12.402899885590205"><ele>355.0</ele><time>2026-04-07T10:49:43Z</time></trkpt><trkpt lat="42.77776474053967" lon="12.403010765060491"><ele>355.0</ele><time>2026-04-07T10:49:45Z</time></trkpt><trkpt lat="42.77777722610964" lon="12.403142452981802"><ele>355.0</ele><time>2026-04-07T10:49:47Z</time></trkpt><trkpt lat="42.77778751023879" lon="12.403300687830704"><ele>355.0</ele><time>2026-04-07T10:49:49Z</time></trkpt><trkpt lat="42.77779990140533" lon="12.403479633088963"><ele>354.66666666666663</ele><time>2026-04-07T10:49:51Z</time></trkpt><trkpt lat="42.77781051803743" lon="12.403573749764274"><ele>354.3333333333333</ele><time>2026-04-07T10:49:52Z</time></trkpt><trkpt lat="42.77782098046839" lon="12.403673137169072"><ele>354.0</ele><time>2026-04-07T10:49:53Z</time></trkpt><trkpt lat="42.777830142958074" lon="12.403774548006652"><ele>353.6666666666667</ele><time>2026-04-07T10:49:54Z</time></trkpt><trkpt lat="42.77783955552731" lon="12.403878111750627"><ele>353.33333333333337</ele><time>2026-04-07T10:49:55Z</time></trkpt><trkpt lat="42.77784519245025" lon="12.403986032158697"><ele>353.0</ele><time>2026-04-07T10:49:56Z</time></trkpt><trkpt lat="42.777855057348106" lon="12.40409280140326"><ele>352.83333333333337</ele><time>2026-04-07T10:49:57Z</time></trkpt><trkpt lat="42.77786944671312" lon="12.404193597994183"><ele>352.6666666666667</ele><time>2026-04-07T10:49:58Z</time></trkpt><trkpt lat="42.777888318883726" lon="12.404295179774564"><ele>352.5</ele><time>2026-04-07T10:49:59Z</time></trkpt><trkpt lat="42.777906818484155" lon="12.40439758895026"><ele>352.3333333333333</ele><time>2026-04-07T10:50:00Z</time></trkpt><trkpt lat="42.77793207438627" lon="12.404499469817114"><ele>352.16666666666663</ele><time>2026-04-07T10:50:01Z</time></trkpt><trkpt lat="42.777958289592256" lon="12.404610315372901"><ele>352.0</ele><time>2026-04-07T10:50:02Z</time></trkpt><trkpt lat="42.77798597687635" lon="12.404720940388922"><ele>351.20000000000005</ele><time>2026-04-07T10:50:03Z</time></trkpt><trkpt lat="42.77799755512949" lon="12.404844034950935"><ele>350.4</ele><time>2026-04-07T10:50:04Z</time></trkpt><trkpt lat="42.77803788845133" lon="12.40496051442912"><ele>349.6</ele><time>2026-04-07T10:50:05Z</time></trkpt><trkpt lat="42.77805924841753" lon="12.405090000841808"><ele>348.79999999999995</ele><time>2026-04-07T10:50:06Z</time></trkpt><trkpt lat="42.77807730565358" lon="12.405224900878602"><ele>348.0</ele><time>2026-04-07T10:50:07Z</time></trkpt><trkpt lat="42.77808977358457" lon="12.405361512398814"><ele>346.79999999999995</ele><time>2026-04-07T10:50:08Z</time></trkpt><trkpt lat="42.77809305993662" lon="12.405495557366725"><ele>345.6</ele><time>2026-04-07T10:50:09Z</time></trkpt><trkpt lat="42.77809252231622" lon="12.405632939965415"><ele>344.4</ele><time>2026-04-07T10:50:10Z</time></trkpt><trkpt lat="42.778085703644294" lon="12.405771538829846"><ele>343.20000000000005</ele><time>2026-04-07T10:50:11Z</time></trkpt><trkpt lat="42.77807618782563" lon="12.405910141204346"><ele>342.0</ele><time>2026-04-07T10:50:12Z</time></trkpt><trkpt lat="42.778067707219726" lon="12.406048005963294"><ele>342.0</ele><time>2026-04-07T10:50:13Z</time></trkpt><trkpt lat="42.77805870099211" lon="12.40618867942772"><ele>342.0</ele><time>2026-04-07T10:50:14Z</time></trkpt><trkpt lat="42.77804871642026" lon="12.406324081686883"><ele>342.0</ele><time>2026-04-07T10:50:15Z</time></trkpt><trkpt lat="42.77803947228411" lon="12.406458566969368"><ele>342.0</ele><time>2026-04-07T10:50:16Z</time></trkpt><trkpt lat="42.778027847177476" lon="12.406588242620643"><ele>342.0</ele><time>2026-04-07T10:50:17Z</time></trkpt><trkpt lat="42.77801493616433" lon="12.40670697525173"><ele>341.3333333333333</ele><time>2026-04-07T10:50:18Z</time></trkpt><trkpt lat="42.77800426711094" lon="12.406820854902358"><ele>340.6666666666667</ele><time>2026-04-07T10:50:19Z</time></trkpt><trkpt lat="42.77799817015355" lon="12.406931614714876"><ele>340.0</ele><time>2026-04-07T10:50:20Z</time></trkpt><trkpt lat="42.77797406103719" lon="12.407036692055565"><ele>339.33333333333337</ele><time>2026-04-07T10:50:21Z</time></trkpt><trkpt lat="42.7779648946189" lon="12.407140141599651"><ele>338.6666666666667</ele><time>2026-04-07T10:50:22Z</time></trkpt><trkpt lat="42.7779706381425" lon="12.407247732853207"><ele>338.0</ele><time>2026-04-07T10:50:23Z</time></trkpt><trkpt lat="42.77795615751196" lon="12.407349817096229"><ele>337.1666666666667</ele><time>2026-04-07T10:50:24Z</time></trkpt><trkpt lat="42.77794629717667" lon="12.407452652370159"><ele>336.33333333333337</ele><time>2026-04-07T10:50:25Z</time></trkpt><trkpt lat="42.77794735472811" lon="12.407547858105955"><ele>335.5</ele><time>2026-04-07T10:50:26Z</time></trkpt><trkpt lat="42.7779643114156" lon="12.407638428271563"><ele>334.6666666666667</ele><time>2026-04-07T10:50:27Z</time></trkpt><trkpt lat="42.778012779377775" lon="12.40779811888473"><ele>333.8333333333333</ele><time>2026-04-07T10:50:29Z</time></trkpt><trkpt lat="42.77804409919583" lon="12.407878188088013"><ele>333.0</ele><time>2026-04-07T10:50:30Z</time></trkpt><trkpt lat="42.77807659478838" lon="12.407968880658027"><ele>331.79999999999995</ele><time>2026-04-07T10:50:31Z</time></trkpt><trkpt lat="42.77811211621681" lon="12.408070149029337"><ele>330.6</ele><time>2026-04-07T10:50:32Z</time></trkpt><trkpt lat="42.77815172818011" lon="12.408178095887141"><ele>329.4</ele><time>2026-04-07T10:50:33Z</time></trkpt><trkpt lat="42.77819698886142" lon="12.408292066364181"><ele>328.20000000000005</ele><time>2026-04-07T10:50:34Z</time></trkpt><trkpt lat="42.77824647972983" lon="12.408409222611299"><ele>327.0</ele><time>2026-04-07T10:50:35Z</time></trkpt><trkpt lat="42.778274578101104" lon="12.408537555924042"><ele>327.0</ele><time>2026-04-07T10:50:36Z</time></trkpt><trkpt lat="42.77831010518257" lon="12.408665060229323"><ele>327.0</ele><time>2026-04-07T10:50:37Z</time></trkpt><trkpt lat="42.7783566457682" lon="12.408795485841507"><ele>327.0</ele><time>2026-04-07T10:50:38Z</time></trkpt><trkpt lat="42.778385216832326" lon="12.408935283782286"><ele>327.0</ele><time>2026-04-07T10:50:39Z</time></trkpt><trkpt lat="42.77841615346936" lon="12.40907976378889"><ele>327.0</ele><time>2026-04-07T10:50:40Z</time></trkpt><trkpt lat="42.77844630487386" lon="12.409227014996583"><ele>326.20000000000005</ele><time>2026-04-07T10:50:41Z</time></trkpt><trkpt lat="42.7784784244747" lon="12.409371791812543"><ele>325.4</ele><time>2026-04-07T10:50:42Z</time></trkpt><trkpt lat="42.7785079299407" lon="12.409512660581566"><ele>324.6</ele><time>2026-04-07T10:50:43Z</time></trkpt><trkpt lat="42.77853898063006" lon="12.409649755505463"><ele>323.79999999999995</ele><time>2026-04-07T10:50:44Z</time></trkpt><trkpt lat="42.77856735594461" lon="12.40978215087715"><ele>323.0</ele><time>2026-04-07T10:50:45Z</time></trkpt><trkpt lat="42.77859807317011" lon="12.409911499012821"><ele>326.79999999999995</ele><time>2026-04-07T10:50:46Z</time></trkpt><trkpt lat="42.778608262548794" lon="12.410041874568478"><ele>330.6</ele><time>2026-04-07T10:50:47Z</time></trkpt><trkpt lat="42.778627238314876" lon="12.410163462903885"><ele>334.4</ele><time>2026-04-07T10:50:48Z</time></trkpt><trkpt lat="42.778655223974006" lon="12.410285980668888"><ele>338.20000000000005</ele><time>2026-04-07T10:50:49Z</time></trkpt><trkpt lat="42.778661093424766" lon="12.410415984494449"><ele>342.0</ele><time>2026-04-07T10:50:50Z</time></trkpt><trkpt lat="42.77866879123453" lon="12.410543140493816"><ele>342.0</ele><time>2026-04-07T10:50:51Z</time></trkpt><trkpt lat="42.77868043271106" lon="12.410665690124233"><ele>342.0</ele><time>2026-04-07T10:50:52Z</time></trkpt><trkpt lat="42.77868866990324" lon="12.410783154549843"><ele>342.0</ele><time>2026-04-07T10:50:53Z</time></trkpt><trkpt lat="42.77869313331399" lon="12.410895013284353"><ele>342.0</ele><time>2026-04-07T10:50:54Z</time></trkpt><trkpt lat="42.77868642397221" lon="12.411001299395087"><ele>342.0</ele><time>2026-04-07T10:50:55Z</time></trkpt><trkpt lat="42.77866972343588" lon="12.411104802795448"><ele>342.0</ele><time>2026-04-07T10:50:56Z</time></trkpt><trkpt lat="42.778647411705045" lon="12.411206726431656"><ele>342.0</ele><time>2026-04-07T10:50:57Z</time></trkpt><trkpt lat="42.77862613394795" lon="12.411308949469168"><ele>342.0</ele><time>2026-04-07T10:50:58Z</time></trkpt><trkpt lat="42.778600604806286" lon="12.411416932610756"><ele>342.0</ele><time>2026-04-07T10:50:59Z</time></trkpt><trkpt lat="42.77857018315089" lon="12.411535242342856"><ele>342.0</ele><time>2026-04-07T10:51:00Z</time></trkpt><trkpt lat="42.778537700977175" lon="12.411662194893927"><ele>342.0</ele><time>2026-04-07T10:51:01Z</time></trkpt><trkpt lat="42.7785089628572" lon="12.4117954801469"><ele>338.6</ele><time>2026-04-07T10:51:02Z</time></trkpt><trkpt lat="42.7784859842181" lon="12.411934426187274"><ele>335.20000000000005</ele><time>2026-04-07T10:51:03Z</time></trkpt><trkpt lat="42.778467493447984" lon="12.412079164549288"><ele>331.8</ele><time>2026-04-07T10:51:04Z</time></trkpt><trkpt lat="42.77845484175197" lon="12.412230599943301"><ele>328.4</ele><time>2026-04-07T10:51:05Z</time></trkpt><trkpt lat="42.77844530979366" lon="12.412386503383036"><ele>325.0</ele><time>2026-04-07T10:51:06Z</time></trkpt><trkpt lat="42.778434079102524" lon="12.41254700199432"><ele>325.0</ele><time>2026-04-07T10:51:07Z</time></trkpt><trkpt lat="42.77842228529955" lon="12.412706813577158"><ele>325.0</ele><time>2026-04-07T10:51:08Z</time></trkpt><trkpt lat="42.77841412607251" lon="12.412859508712607"><ele>325.0</ele><time>2026-04-07T10:51:09Z</time></trkpt><trkpt lat="42.77840373155946" lon="12.413007086873991"><ele>325.0</ele><time>2026-04-07T10:51:10Z</time></trkpt><trkpt lat="42.778390153141885" lon="12.413146417221874"><ele>325.0</ele><time>2026-04-07T10:51:11Z</time></trkpt><trkpt lat="42.7783765353749" lon="12.413281774543602"><ele>325.0</ele><time>2026-04-07T10:51:12Z</time></trkpt><trkpt lat="42.77836952780677" lon="12.413416126169416"><ele>325.0</ele><time>2026-04-07T10:51:13Z</time></trkpt><trkpt lat="42.778371657292205" lon="12.413546968354616"><ele>325.0</ele><time>2026-04-07T10:51:14Z</time></trkpt></trkseg></trk></gpx>